
Distance (Route):
Temperature : 0°C
Humidity : 0%
Pressure : 0hPa| Receiver | Frames | First received | Last received |
|---|---|---|---|
| PETON7-10 | 360 | 2026-09-04 11:38:35 | 2026-09-04 13:30:08 |
| OE5MMP-10 | 258 | 2026-09-04 12:20:25 | 2026-09-04 13:15:39 |
| OM5KV | 199 | 2026-09-04 13:14:40 | 2026-09-04 13:31:15 |
| ATIDSZ-14 | 197 | 2026-09-04 12:01:16 | 2026-09-04 13:31:09 |
| OE3OSB-13 | 191 | 2026-09-04 11:37:46 | 2026-09-04 13:30:38 |
| OE3JTB-15 | 147 | 2026-09-04 11:36:54 | 2026-09-04 13:30:10 |
| OE5DXL-15 | 108 | 2026-09-04 11:58:28 | 2026-09-04 13:18:26 |
| PG1ADW-2 | 97 | 2026-09-04 11:48:48 | 2026-09-04 13:21:34 |
| OK1ALN | 49 | 2026-09-04 12:45:01 | 2026-09-04 13:14:02 |
| S52SK | 10 | 2026-09-04 11:48:11 | 2026-09-04 11:50:51 |
| HA6NAB-11 | 10 | 2026-09-04 11:59:45 | 2026-09-04 13:12:53 |
| Receiver | Date | Latitude | Longitude | Direction | Speed | Altitude | Climb | Temperature | Humidity | Pressure | Voltage | Killtimer | Uptime | BKT | XDATA |
|---|---|---|---|---|---|---|---|---|---|---|---|---|---|---|---|
| OM5KV | 2026-09-04 13:31:15 | 47.85337 | 17.27964 | 15° | 31km/h | 398m | -10.9m/s | 0°C | 0% | 0hPa | 0V | 00:00:00 | 00:00:00 | 00:00:00 | |
| OM5KV | 2026-09-04 13:31:10 | 47.85309 | 17.27952 | 7° | 22km/h | 452m | -12.9m/s | 0°C | 0% | 0hPa | 0V | 00:00:00 | 00:00:00 | 00:00:00 | |
| ATIDSZ-14 | 2026-09-04 13:31:09 | 47.85304 | 17.27951 | 6° | 16km/h | 463m | -12.1m/s | 0°C | 0% | 0hPa | 0V | 00:00:00 | 00:00:00 | 00:00:00 | |
| OM5KV | 2026-09-04 13:31:01 | 47.85258 | 17.27943 | 39° | 29km/h | 543m | -7.9m/s | 0°C | 0% | 0hPa | 0V | 00:00:00 | 00:00:00 | 00:00:00 | |
| OM5KV | 2026-09-04 13:30:59 | 47.85247 | 17.27936 | 19° | 24km/h | 563m | -11.7m/s | 0°C | 0% | 0hPa | 0V | 00:00:00 | 00:00:00 | 00:00:00 | |
| OM5KV | 2026-09-04 13:30:58 | 47.85241 | 17.27934 | 13° | 20km/h | 575m | -9.9m/s | 0°C | 0% | 0hPa | 0V | 00:00:00 | 00:00:00 | 00:00:00 | |
| OM5KV | 2026-09-04 13:30:56 | 47.85231 | 17.27929 | 30° | 24km/h | 594m | -9.6m/s | 0°C | 0% | 0hPa | 0V | 00:00:00 | 00:00:00 | 00:00:00 | |
| OM5KV | 2026-09-04 13:30:53 | 47.85215 | 17.27916 | 36° | 29km/h | 623m | -8.3m/s | 0°C | 0% | 0hPa | 0V | 00:00:00 | 00:00:00 | 00:00:00 | |
| OM5KV | 2026-09-04 13:30:50 | 47.85200 | 17.27899 | 49° | 24km/h | 653m | -11.3m/s | 0°C | 0% | 0hPa | 0V | 00:00:00 | 00:00:00 | 00:00:00 | |
| ATIDSZ-14 | 2026-09-04 13:30:48 | 47.85192 | 17.27888 | 36° | 24km/h | 672m | -9.3m/s | 0°C | 0% | 0hPa | 0V | 00:00:00 | 00:00:00 | 00:00:00 | |
| OM5KV | 2026-09-04 13:30:47 | 47.85186 | 17.27882 | 42° | 31km/h | 682m | -9.6m/s | 0°C | 0% | 0hPa | 0V | 00:00:00 | 00:00:00 | 00:00:00 | |
| OM5KV | 2026-09-04 13:30:46 | 47.85180 | 17.27875 | 40° | 31km/h | 692m | -10.7m/s | 0°C | 0% | 0hPa | 0V | 00:00:00 | 00:00:00 | 00:00:00 | |
| OM5KV | 2026-09-04 13:30:41 | 47.85155 | 17.27836 | 53° | 26km/h | 752m | -11.1m/s | 0°C | 0% | 0hPa | 0V | 00:00:00 | 00:00:00 | 00:00:00 | |
| OM5KV | 2026-09-04 13:30:40 | 47.85150 | 17.27827 | 53° | 33km/h | 762m | -9.8m/s | 0°C | 0% | 0hPa | 0V | 00:00:00 | 00:00:00 | 00:00:00 | |
| OE3OSB-13 | 2026-09-04 13:30:38 | 47.85137 | 17.27806 | 57° | 27km/h | 795m | -11.2m/s | 23.4°C | 46.9% | 932.5hPa | 0V | 00:00:00 | 00:00:00 | 00:00:00 | |
| OM5KV | 2026-09-04 13:30:34 | 47.85125 | 17.27784 | 45° | 16km/h | 831m | -10.9m/s | 0°C | 0% | 0hPa | 0V | 00:00:00 | 00:00:00 | 00:00:00 | |
| OM5KV | 2026-09-04 13:30:28 | 47.85095 | 17.27748 | 44° | 29km/h | 900m | -10.4m/s | 0°C | 0% | 0hPa | 0V | 00:00:00 | 00:00:00 | 00:00:00 | |
| ATIDSZ-14 | 2026-09-04 13:30:27 | 47.85089 | 17.27741 | 32° | 31km/h | 911m | -10.0m/s | 0°C | 0% | 0hPa | 0V | 00:00:00 | 00:00:00 | 00:00:00 | |
| OM5KV | 2026-09-04 13:30:26 | 47.85082 | 17.27736 | 30° | 29km/h | 922m | -10.6m/s | 0°C | 0% | 0hPa | 0V | 00:00:00 | 00:00:00 | 00:00:00 | |
| OM5KV | 2026-09-04 13:30:22 | 47.85061 | 17.27703 | 55° | 27km/h | 969m | -12.4m/s | 0°C | 0% | 0hPa | 0V | 00:00:00 | 00:00:00 | 00:00:00 | |
| OM5KV | 2026-09-04 13:30:16 | 47.85030 | 17.27658 | 39° | 37km/h | 1034m | -10.7m/s | 0°C | 0% | 0hPa | 0V | 00:00:00 | 00:00:00 | 00:00:00 | |
| OE3JTB-15 | 2026-09-04 13:30:10 | 47.85000 | 17.27602 | 53° | 33km/h | 1109m | -13.4m/s | 0°C | 0% | 0hPa | 0V | 00:00:00 | 00:00:00 | 00:00:00 | |
| OM5KV | 2026-09-04 13:30:09 | 47.84996 | 17.27592 | 65° | 37km/h | 1122m | -13.3m/s | 0°C | 0% | 0hPa | 0V | 00:00:00 | 00:00:00 | 00:00:00 | |
| OE3JTB-15 | 2026-09-04 13:30:08 | 47.84992 | 17.27580 | 65° | 33km/h | 1136m | -11.3m/s | 0°C | 0% | 0hPa | 0V | 00:00:00 | 00:00:00 | 00:00:00 | |
| PETON7-10 | 2026-09-04 13:30:08 | 47.84992 | 17.27580 | 65° | 33km/h | 1136m | -11.3m/s | 0°C | 0% | 0hPa | 0V | 00:00:00 | 00:00:00 | 00:00:00 | |
| ATIDSZ-14 | 2026-09-04 13:30:07 | 47.84990 | 17.27570 | 77° | 26km/h | 1146m | -8.8m/s | 0°C | 0% | 0hPa | 0V | 00:00:00 | 00:00:00 | 00:00:00 | |
| OM5KV | 2026-09-04 13:30:06 | 47.84987 | 17.27560 | 61° | 27km/h | 1156m | -11.6m/s | 0°C | 0% | 0hPa | 0V | 00:00:00 | 00:00:00 | 00:00:00 | |
| OE3JTB-15 | 2026-09-04 13:30:04 | 47.84980 | 17.27543 | 51° | 31km/h | 1181m | -12.9m/s | 0°C | 0% | 0hPa | 0V | 00:00:00 | 00:00:00 | 00:00:00 | |
| PETON7-10 | 2026-09-04 13:30:04 | 47.84980 | 17.27543 | 51° | 31km/h | 1181m | -12.9m/s | 0°C | 0% | 0hPa | 0V | 00:00:00 | 00:00:00 | 00:00:00 | |
| OE3JTB-15 | 2026-09-04 13:30:01 | 47.84964 | 17.27516 | 52° | 33km/h | 1219m | -11.5m/s | 0°C | 0% | 0hPa | 0V | 00:00:00 | 00:00:00 | 00:00:00 | |
| OM5KV | 2026-09-04 13:30:00 | 47.84960 | 17.27506 | 79° | 31km/h | 1231m | -12.6m/s | 0°C | 0% | 0hPa | 0V | 00:00:00 | 00:00:00 | 00:00:00 | |
| PETON7-10 | 2026-09-04 13:29:57 | 47.84954 | 17.27473 | 73° | 27km/h | 1268m | -12.4m/s | 0°C | 0% | 0hPa | 0V | 00:00:00 | 00:00:00 | 00:00:00 | |
| OE3JTB-15 | 2026-09-04 13:29:57 | 47.84954 | 17.27473 | 73° | 31km/h | 1268m | -12.4m/s | 0°C | 0% | 0hPa | 0V | 00:00:00 | 00:00:00 | 00:00:00 | |
| PETON7-10 | 2026-09-04 13:29:52 | 47.84937 | 17.27425 | 74° | 29km/h | 1330m | -11.7m/s | 0°C | 0% | 0hPa | 0V | 00:00:00 | 00:00:00 | 00:00:00 | |
| OM5KV | 2026-09-04 13:29:49 | 47.84928 | 17.27397 | 64° | 31km/h | 1366m | -10.7m/s | 0°C | 0% | 0hPa | 0V | 00:00:00 | 00:00:00 | 00:00:00 | |
| OE3JTB-15 | 2026-09-04 13:29:48 | 47.84924 | 17.27387 | 64° | 31km/h | 1378m | -12.8m/s | 0°C | 0% | 0hPa | 0V | 00:00:00 | 00:00:00 | 00:00:00 | |
| PETON7-10 | 2026-09-04 13:29:47 | 47.84921 | 17.27377 | 75° | 27km/h | 1391m | -12.3m/s | 0°C | 0% | 0hPa | 0V | 00:00:00 | 00:00:00 | 00:00:00 | |
| OM5KV | 2026-09-04 13:29:46 | 47.84919 | 17.27369 | 60° | 20km/h | 1404m | -11.4m/s | 0°C | 0% | 0hPa | 0V | 00:00:00 | 00:00:00 | 00:00:00 | |
| ATIDSZ-14 | 2026-09-04 13:29:44 | 47.84913 | 17.27357 | 53° | 22km/h | 1427m | -13.6m/s | 0°C | 0% | 0hPa | 0V | 00:00:00 | 00:00:00 | 00:00:00 | |
| OM5KV | 2026-09-04 13:29:43 | 47.84910 | 17.27350 | 54° | 26km/h | 1440m | -13.4m/s | 0°C | 0% | 0hPa | 0V | 00:00:00 | 00:00:00 | 00:00:00 | |
| OE3JTB-15 | 2026-09-04 13:29:43 | 47.84910 | 17.27350 | 54° | 27km/h | 1440m | -13.4m/s | 0°C | 0% | 0hPa | 0V | 00:00:00 | 00:00:00 | 00:00:00 | |
| OE3JTB-15 | 2026-09-04 13:29:41 | 47.84903 | 17.27333 | 49° | 26km/h | 1463m | -10.9m/s | 0°C | 0% | 0hPa | 0V | 00:00:00 | 00:00:00 | 00:00:00 | |
| OM5KV | 2026-09-04 13:29:39 | 47.84894 | 17.27317 | 48° | 33km/h | 1486m | -14.6m/s | 0°C | 0% | 0hPa | 0V | 00:00:00 | 00:00:00 | 00:00:00 | |
| PETON7-10 | 2026-09-04 13:29:39 | 47.84894 | 17.27317 | 47° | 38km/h | 1486m | -14.6m/s | 0°C | 0% | 0hPa | 0V | 00:00:00 | 00:00:00 | 00:00:00 | |
| OM5KV | 2026-09-04 13:29:38 | 47.84887 | 17.27308 | 49° | 40km/h | 1499m | -14.1m/s | 0°C | 0% | 0hPa | 0V | 00:00:00 | 00:00:00 | 00:00:00 | |
| OE3JTB-15 | 2026-09-04 13:29:38 | 47.84887 | 17.27307 | 48° | 38km/h | 1499m | -14.1m/s | 0°C | 0% | 0hPa | 0V | 00:00:00 | 00:00:00 | 00:00:00 | |
| OE3JTB-15 | 2026-09-04 13:29:36 | 47.84875 | 17.27284 | 54° | 40km/h | 1525m | -12.8m/s | 0°C | 0% | 0hPa | 0V | 00:00:00 | 00:00:00 | 00:00:00 | |
| OE3OSB-13 | 2026-09-04 13:29:36 | 47.84869 | 17.27272 | 53° | 40km/h | 1537m | -11.4m/s | 16.5°C | 63.8% | 855.8hPa | 0V | 00:00:00 | 00:00:00 | 00:00:00 | |
| PETON7-10 | 2026-09-04 13:29:34 | 47.84863 | 17.27260 | 56° | 40km/h | 1549m | -11.1m/s | 0°C | 0% | 0hPa | 0V | 00:00:00 | 00:00:00 | 00:00:00 | |
| OM5KV | 2026-09-04 13:29:33 | 47.84858 | 17.27247 | 58° | 42km/h | 1560m | -11.9m/s | 0°C | 0% | 0hPa | 0V | 00:00:00 | 00:00:00 | 00:00:00 | |
| OE3JTB-15 | 2026-09-04 13:29:33 | 47.84857 | 17.27247 | 57° | 42km/h | 1560m | -11.9m/s | 0°C | 0% | 0hPa | 0V | 00:00:00 | 00:00:00 | 00:00:00 | |
| OE3JTB-15 | 2026-09-04 13:29:30 | 47.84842 | 17.27207 | 67° | 40km/h | 1595m | -11.6m/s | 0°C | 0% | 0hPa | 0V | 00:00:00 | 00:00:00 | 00:00:00 | |
| PETON7-10 | 2026-09-04 13:29:29 | 47.84838 | 17.27193 | 66° | 35km/h | 1607m | -12.2m/s | 0°C | 0% | 0hPa | 0V | 00:00:00 | 00:00:00 | 00:00:00 | |
| PETON7-10 | 2026-09-04 13:29:24 | 47.84825 | 17.27124 | 71° | 33km/h | 1660m | -11.0m/s | 0°C | 0% | 0hPa | 0V | 00:00:00 | 00:00:00 | 00:00:00 | |
| OM5KV | 2026-09-04 13:29:23 | 47.84822 | 17.27112 | 71° | 33km/h | 1671m | -10.8m/s | 0°C | 0% | 0hPa | 0V | 00:00:00 | 00:00:00 | 00:00:00 | |
| ATIDSZ-14 | 2026-09-04 13:29:23 | 47.84822 | 17.27112 | 71° | 33km/h | 1671m | -10.8m/s | 0°C | 0% | 0hPa | 0V | 00:00:00 | 00:00:00 | 00:00:00 | |
| PETON7-10 | 2026-09-04 13:29:19 | 47.84809 | 17.27067 | 77° | 29km/h | 1717m | -11.3m/s | 0°C | 0% | 0hPa | 0V | 00:00:00 | 00:00:00 | 00:00:00 | |
| OE3JTB-15 | 2026-09-04 13:29:15 | 47.84800 | 17.27020 | 74° | 31km/h | 1767m | -13.1m/s | 0°C | 0% | 0hPa | 0V | 00:00:00 | 00:00:00 | 00:00:00 | |
| OM5KV | 2026-09-04 13:29:13 | 47.84796 | 17.26998 | 77° | 29km/h | 1792m | -13.5m/s | 0°C | 0% | 0hPa | 0V | 00:00:00 | 00:00:00 | 00:00:00 | |
| OM5KV | 2026-09-04 13:29:13 | 47.84796 | 17.26998 | 77° | 29km/h | 1792m | -13.5m/s | 0°C | 0% | 0hPa | 0V | 00:00:00 | 00:00:00 | 00:00:00 | |
| OE3OSB-13 | 2026-09-04 13:29:05 | 47.84774 | 17.26907 | 67° | 29km/h | 1907m | -12.6m/s | 13.1°C | 72.8% | 819.2hPa | 0V | 00:00:00 | 00:00:00 | 00:00:00 | |
| OE3JTB-15 | 2026-09-04 13:29:04 | 47.84774 | 17.26907 | 68° | 31km/h | 1907m | -12.6m/s | 0°C | 0% | 0hPa | 0V | 00:00:00 | 00:00:00 | 00:00:00 | |
| PETON7-10 | 2026-09-04 13:29:04 | 47.84774 | 17.26907 | 68° | 33km/h | 1907m | -12.6m/s | 0°C | 0% | 0hPa | 0V | 00:00:00 | 00:00:00 | 00:00:00 | |
| OM5KV | 2026-09-04 13:28:57 | 47.84748 | 17.26832 | 69° | 33km/h | 1989m | -10.9m/s | 0°C | 0% | 0hPa | 0V | 00:00:00 | 00:00:00 | 00:00:00 | |
| PETON7-10 | 2026-09-04 13:28:54 | 47.84735 | 17.26799 | 52° | 29km/h | 2020m | -10.7m/s | 0°C | 0% | 0hPa | 0V | 00:00:00 | 00:00:00 | 00:00:00 | |
| OE3JTB-15 | 2026-09-04 13:28:53 | 47.84730 | 17.26787 | 65° | 35km/h | 2031m | -10.7m/s | 0°C | 0% | 0hPa | 0V | 00:00:00 | 00:00:00 | 00:00:00 | |
| OM5KV | 2026-09-04 13:28:46 | 47.84711 | 17.26707 | 73° | 31km/h | 2114m | -12.8m/s | 0°C | 0% | 0hPa | 0V | 00:00:00 | 00:00:00 | 00:00:00 | |
| OM5KV | 2026-09-04 13:28:45 | 47.84709 | 17.26696 | 85° | 27km/h | 2126m | -11.1m/s | 0°C | 0% | 0hPa | 0V | 00:00:00 | 00:00:00 | 00:00:00 | |
| PETON7-10 | 2026-09-04 13:28:43 | 47.84706 | 17.26677 | 85° | 29km/h | 2150m | -12.9m/s | 0°C | 0% | 0hPa | 0V | 00:00:00 | 00:00:00 | 00:00:00 | |
| ATIDSZ-14 | 2026-09-04 13:28:42 | 47.84706 | 17.26666 | 79° | 26km/h | 2162m | -10.9m/s | 0°C | 0% | 0hPa | 0V | 00:00:00 | 00:00:00 | 00:00:00 | |
| OM5KV | 2026-09-04 13:28:38 | 47.84704 | 17.26625 | 91° | 29km/h | 2208m | -11.3m/s | 0°C | 0% | 0hPa | 0V | 00:00:00 | 00:00:00 | 00:00:00 | |
| OM5KV | 2026-09-04 13:28:35 | 47.84708 | 17.26591 | 117° | 29km/h | 2244m | -12.8m/s | 0°C | 0% | 0hPa | 0V | 00:00:00 | 00:00:00 | 00:00:00 | |
| OE3OSB-13 | 2026-09-04 13:28:34 | 47.84714 | 17.26569 | 118° | 33km/h | 2266m | -9.0m/s | 10.5°C | 73.5% | 784.5hPa | 0V | 00:00:00 | 00:00:00 | 00:00:00 | |
| PETON7-10 | 2026-09-04 13:28:33 | 47.84714 | 17.26569 | 119° | 37km/h | 2266m | -8.9m/s | 0°C | 0% | 0hPa | 0V | 00:00:00 | 00:00:00 | 00:00:00 | |
| OM5KV | 2026-09-04 13:28:29 | 47.84727 | 17.26518 | 96° | 35km/h | 2310m | -12.5m/s | 0°C | 0% | 0hPa | 0V | 00:00:00 | 00:00:00 | 00:00:00 | |
| OM5KV | 2026-09-04 13:28:26 | 47.84724 | 17.26479 | 86° | 35km/h | 2342m | -10.2m/s | 0°C | 0% | 0hPa | 0V | 00:00:00 | 00:00:00 | 00:00:00 | |
| OE3JTB-15 | 2026-09-04 13:28:25 | 47.84724 | 17.26466 | 93° | 47km/h | 2353m | -10.2m/s | 0°C | 0% | 0hPa | 0V | 00:00:00 | 00:00:00 | 00:00:00 | |
| OM5KV | 2026-09-04 13:28:23 | 47.84727 | 17.26439 | 101° | 38km/h | 2375m | -11.1m/s | 0°C | 0% | 0hPa | 0V | 00:00:00 | 00:00:00 | 00:00:00 | |
| ATIDSZ-14 | 2026-09-04 13:28:21 | 47.84728 | 17.26411 | 94° | 40km/h | 2395m | -9.9m/s | 0°C | 0% | 0hPa | 0V | 00:00:00 | 00:00:00 | 00:00:00 | |
| OM5KV | 2026-09-04 13:28:20 | 47.84730 | 17.26396 | 108° | 38km/h | 2406m | -11.1m/s | 0°C | 0% | 0hPa | 0V | 00:00:00 | 00:00:00 | 00:00:00 | |
| PETON7-10 | 2026-09-04 13:28:17 | 47.84739 | 17.26354 | 104° | 55km/h | 2440m | -11.9m/s | 0°C | 0% | 0hPa | 0V | 00:00:00 | 00:00:00 | 00:00:00 | |
| OM5KV | 2026-09-04 13:28:13 | 47.84756 | 17.26281 | 103° | 58km/h | 2486m | -11.2m/s | 0°C | 0% | 0hPa | 0V | 00:00:00 | 00:00:00 | 00:00:00 | |
| OM5KV | 2026-09-04 13:28:09 | 47.84777 | 17.26206 | 117° | 53km/h | 2535m | -15.3m/s | 0°C | 0% | 0hPa | 0V | 00:00:00 | 00:00:00 | 00:00:00 | |
| OE3JTB-15 | 2026-09-04 13:28:05 | 47.84801 | 17.26129 | 112° | 58km/h | 2593m | -13.5m/s | 0°C | 0% | 0hPa | 0V | 00:00:00 | 00:00:00 | 00:00:00 | |
| OE3OSB-13 | 2026-09-04 13:28:03 | 47.84824 | 17.26066 | 121° | 60km/h | 2631m | -12.6m/s | 10.0°C | 39.7% | 750.2hPa | 0V | 00:00:00 | 00:00:00 | 00:00:00 | |
| PETON7-10 | 2026-09-04 13:28:02 | 47.84824 | 17.26066 | 122° | 60km/h | 2631m | -12.5m/s | 0°C | 0% | 0hPa | 0V | 00:00:00 | 00:00:00 | 00:00:00 | |
| OM5KV | 2026-09-04 13:28:00 | 47.84843 | 17.26026 | 127° | 64km/h | 2657m | -13.2m/s | 0°C | 0% | 0hPa | 0V | 00:00:00 | 00:00:00 | 00:00:00 | |
| OM5KV | 2026-09-04 13:27:58 | 47.84863 | 17.25986 | 121° | 71km/h | 2681m | -12.4m/s | 0°C | 0% | 0hPa | 0V | 00:00:00 | 00:00:00 | 00:00:00 | |
| OM5KV | 2026-09-04 13:27:54 | 47.84896 | 17.25905 | 122° | 57km/h | 2729m | -11.9m/s | 0°C | 0% | 0hPa | 0V | 00:00:00 | 00:00:00 | 00:00:00 | |
| OM5KV | 2026-09-04 13:27:53 | 47.84903 | 17.25888 | 114° | 49km/h | 2742m | -11.9m/s | 0°C | 0% | 0hPa | 0V | 00:00:00 | 00:00:00 | 00:00:00 | |
| PETON7-10 | 2026-09-04 13:27:47 | 47.84947 | 17.25784 | 128° | 49km/h | 2819m | -11.3m/s | 0°C | 0% | 0hPa | 0V | 00:00:00 | 00:00:00 | 00:00:00 | |
| OE3JTB-15 | 2026-09-04 13:27:46 | 47.84955 | 17.25770 | 138° | 51km/h | 2833m | -14.6m/s | 0°C | 0% | 0hPa | 0V | 00:00:00 | 00:00:00 | 00:00:00 | |
| OM5KV | 2026-09-04 13:27:43 | 47.84977 | 17.25730 | 127° | 47km/h | 2871m | -10.4m/s | 0°C | 0% | 0hPa | 0V | 00:00:00 | 00:00:00 | 00:00:00 | |
| ATIDSZ-14 | 2026-09-04 13:27:40 | 47.84996 | 17.25684 | 120° | 49km/h | 2904m | -10.8m/s | 0°C | 0% | 0hPa | 0V | 00:00:00 | 00:00:00 | 00:00:00 | |
| OM5KV | 2026-09-04 13:27:35 | 47.85029 | 17.25612 | 119° | 55km/h | 2958m | -12.7m/s | 0°C | 0% | 0hPa | 0V | 00:00:00 | 00:00:00 | 00:00:00 | |
| OE3OSB-13 | 2026-09-04 13:27:32 | 47.85057 | 17.25531 | 114° | 62km/h | 3006m | -11.8m/s | 9.0°C | 52.5% | 716.7hPa | 0V | 00:00:00 | 00:00:00 | 00:00:00 | |
| OM5KV | 2026-09-04 13:27:30 | 47.85064 | 17.25512 | 127° | 53km/h | 3018m | -10.7m/s | 0°C | 0% | 0hPa | 0V | 00:00:00 | 00:00:00 | 00:00:00 | |
| OM5KV | 2026-09-04 13:27:29 | 47.85071 | 17.25496 | 126° | 57km/h | 3030m | -13.6m/s | 0°C | 0% | 0hPa | 0V | 00:00:00 | 00:00:00 | 00:00:00 | |
| OE3JTB-15 | 2026-09-04 13:27:26 | 47.85093 | 17.25446 | 120° | 58km/h | 3069m | -12.5m/s | 0°C | 0% | 0hPa | 0V | 00:00:00 | 00:00:00 | 00:00:00 | |
| OM5KV | 2026-09-04 13:27:24 | 47.85108 | 17.25409 | 121° | 57km/h | 3095m | -12.6m/s | 0°C | 0% | 0hPa | 0V | 00:00:00 | 00:00:00 | 00:00:00 | |
| OM5KV | 2026-09-04 13:27:23 | 47.85115 | 17.25392 | 128° | 53km/h | 3107m | -12.3m/s | 0°C | 0% | 0hPa | 0V | 00:00:00 | 00:00:00 | 00:00:00 | |
| ATIDSZ-14 | 2026-09-04 13:27:20 | 47.85145 | 17.25316 | 116° | 62km/h | 3155m | -11.8m/s | 0°C | 0% | 0hPa | 0V | 00:00:00 | 00:00:00 | 00:00:00 | |
| OM5KV | 2026-09-04 13:27:18 | 47.85153 | 17.25297 | 129° | 60km/h | 3167m | -12.0m/s | 0°C | 0% | 0hPa | 0V | 00:00:00 | 00:00:00 | 00:00:00 | |
| PETON7-10 | 2026-09-04 13:27:17 | 47.85162 | 17.25277 | 121° | 66km/h | 3180m | -11.9m/s | 0°C | 0% | 0hPa | 0V | 00:00:00 | 00:00:00 | 00:00:00 | |
| OM5KV | 2026-09-04 13:27:13 | 47.85194 | 17.25190 | 122° | 66km/h | 3228m | -13.2m/s | 0°C | 0% | 0hPa | 0V | 00:00:00 | 00:00:00 | 00:00:00 | |
| OM5KV | 2026-09-04 13:27:12 | 47.85203 | 17.25170 | 122° | 60km/h | 3241m | -12.0m/s | 0°C | 0% | 0hPa | 0V | 00:00:00 | 00:00:00 | 00:00:00 | |
| OM5KV | 2026-09-04 13:27:11 | 47.85210 | 17.25150 | 121° | 58km/h | 3254m | -12.9m/s | 0°C | 0% | 0hPa | 0V | 00:00:00 | 00:00:00 | 00:00:00 | |
| OM5KV | 2026-09-04 13:27:08 | 47.85232 | 17.25090 | 122° | 66km/h | 3290m | -12.0m/s | 0°C | 0% | 0hPa | 0V | 00:00:00 | 00:00:00 | 00:00:00 | |
| OE3JTB-15 | 2026-09-04 13:27:06 | 47.85248 | 17.25050 | 123° | 69km/h | 3317m | -13.1m/s | 0°C | 0% | 0hPa | 0V | 00:00:00 | 00:00:00 | 00:00:00 | |
| PETON7-10 | 2026-09-04 13:27:02 | 47.85290 | 17.24964 | 119° | 69km/h | 3365m | -11.7m/s | 0°C | 0% | 0hPa | 0V | 00:00:00 | 00:00:00 | 00:00:00 | |
| OE3OSB-13 | 2026-09-04 13:27:01 | 47.85311 | 17.24921 | 120° | 71km/h | 3390m | -11.6m/s | 7.9°C | 34.0% | 684.2hPa | 0V | 00:00:00 | 00:00:00 | 00:00:00 | |
| OM5KV | 2026-09-04 13:27:00 | 47.85311 | 17.24921 | 121° | 71km/h | 3391m | -11.6m/s | 0°C | 0% | 0hPa | 0V | 00:00:00 | 00:00:00 | 00:00:00 | |
| ATIDSZ-14 | 2026-09-04 13:26:58 | 47.85329 | 17.24877 | 122° | 66km/h | 3413m | -12.8m/s | 0°C | 0% | 0hPa | 0V | 00:00:00 | 00:00:00 | 00:00:00 | |
| OM5KV | 2026-09-04 13:26:55 | 47.85358 | 17.24813 | 127° | 69km/h | 3449m | -11.9m/s | 0°C | 0% | 0hPa | 0V | 00:00:00 | 00:00:00 | 00:00:00 | |
| OM5KV | 2026-09-04 13:26:50 | 47.85409 | 17.24710 | 133° | 71km/h | 3511m | -12.6m/s | 0°C | 0% | 0hPa | 0V | 00:00:00 | 00:00:00 | 00:00:00 | |
| PETON7-10 | 2026-09-04 13:26:47 | 47.85442 | 17.24653 | 128° | 69km/h | 3551m | -12.9m/s | 0°C | 0% | 0hPa | 0V | 00:00:00 | 00:00:00 | 00:00:00 | |
| OM5KV | 2026-09-04 13:26:44 | 47.85475 | 17.24591 | 129° | 73km/h | 3588m | -11.8m/s | 0°C | 0% | 0hPa | 0V | 00:00:00 | 00:00:00 | 00:00:00 | |
| OM5KV | 2026-09-04 13:26:41 | 47.85514 | 17.24528 | 134° | 69km/h | 3623m | -12.1m/s | 0°C | 0% | 0hPa | 0V | 00:00:00 | 00:00:00 | 00:00:00 | |
| OM5KV | 2026-09-04 13:26:38 | 47.85546 | 17.24474 | 134° | 71km/h | 3663m | -15.9m/s | 0°C | 0% | 0hPa | 0V | 00:00:00 | 00:00:00 | 00:00:00 | |
| OE3JTB-15 | 2026-09-04 13:26:36 | 47.85569 | 17.24434 | 132° | 68km/h | 3695m | -14.6m/s | 0°C | 0% | 0hPa | 0V | 00:00:00 | 00:00:00 | 00:00:00 | |
| OM5KV | 2026-09-04 13:26:34 | 47.85592 | 17.24398 | 137° | 71km/h | 3723m | -12.0m/s | 0°C | 0% | 0hPa | 0V | 00:00:00 | 00:00:00 | 00:00:00 | |
| OM5KV | 2026-09-04 13:26:33 | 47.85605 | 17.24381 | 137° | 66km/h | 3735m | -12.4m/s | 0°C | 0% | 0hPa | 0V | 00:00:00 | 00:00:00 | 00:00:00 | |
| PETON7-10 | 2026-09-04 13:26:32 | 47.85616 | 17.24364 | 135° | 62km/h | 3748m | -13.6m/s | 0°C | 0% | 0hPa | 0V | 00:00:00 | 00:00:00 | 00:00:00 | |
| OE3OSB-13 | 2026-09-04 13:26:29 | 47.85650 | 17.24313 | 131° | 66km/h | 3788m | -12.7m/s | 5.1°C | 66.5% | 651.8hPa | 0V | 00:00:00 | 00:00:00 | 00:00:00 | |
| OM5KV | 2026-09-04 13:26:28 | 47.85661 | 17.24295 | 135° | 62km/h | 3801m | -12.8m/s | 0°C | 0% | 0hPa | 0V | 00:00:00 | 00:00:00 | 00:00:00 | |
| OM5KV | 2026-09-04 13:26:27 | 47.85671 | 17.24277 | 134° | 64km/h | 3815m | -13.1m/s | 0°C | 0% | 0hPa | 0V | 00:00:00 | 00:00:00 | 00:00:00 | |
| OM5KV | 2026-09-04 13:26:21 | 47.85732 | 17.24175 | 131° | 60km/h | 3894m | -13.2m/s | 0°C | 0% | 0hPa | 0V | 00:00:00 | 00:00:00 | 00:00:00 | |
| ATIDSZ-14 | 2026-09-04 13:26:17 | 47.85770 | 17.24099 | 132° | 69km/h | 3950m | -15.7m/s | 0°C | 0% | 0hPa | 0V | 00:00:00 | 00:00:00 | 00:00:00 | |
| PETON7-10 | 2026-09-04 13:26:14 | 47.85803 | 17.24037 | 129° | 75km/h | 3989m | -13.1m/s | 0°C | 0% | 0hPa | 0V | 00:00:00 | 00:00:00 | 00:00:00 | |
| OM5KV | 2026-09-04 13:26:11 | 47.85834 | 17.23965 | 123° | 77km/h | 4026m | -12.8m/s | 0°C | 0% | 0hPa | 0V | 00:00:00 | 00:00:00 | 00:00:00 | |
| OM5KV | 2026-09-04 13:26:09 | 47.85856 | 17.23918 | 129° | 78km/h | 4053m | -13.2m/s | 0°C | 0% | 0hPa | 0V | 00:00:00 | 00:00:00 | 00:00:00 | |
| OE3JTB-15 | 2026-09-04 13:26:04 | 47.85918 | 17.23814 | 132° | 73km/h | 4125m | -13.1m/s | 0°C | 0% | 0hPa | 0V | 00:00:00 | 00:00:00 | 00:00:00 | |
| OM5KV | 2026-09-04 13:26:03 | 47.85932 | 17.23797 | 146° | 75km/h | 4137m | -11.8m/s | 0°C | 0% | 0hPa | 0V | 00:00:00 | 00:00:00 | 00:00:00 | |
| PETON7-10 | 2026-09-04 13:25:59 | 47.85988 | 17.23720 | 129° | 71km/h | 4189m | -13.1m/s | 0°C | 0% | 0hPa | 0V | 00:00:00 | 00:00:00 | 00:00:00 | |
| OM5KV | 2026-09-04 13:25:58 | 47.85999 | 17.23699 | 128° | 69km/h | 4203m | -13.8m/s | 0°C | 0% | 0hPa | 0V | 00:00:00 | 00:00:00 | 00:00:00 | |
| ATIDSZ-14 | 2026-09-04 13:25:57 | 47.86010 | 17.23677 | 129° | 75km/h | 4218m | -14.2m/s | 0°C | 0% | 0hPa | 0V | 00:00:00 | 00:00:00 | 00:00:00 | |
| OM5KV | 2026-09-04 13:25:52 | 47.86070 | 17.23575 | 129° | 77km/h | 4286m | -13.3m/s | 0°C | 0% | 0hPa | 0V | 00:00:00 | 00:00:00 | 00:00:00 | |
| OM5KV | 2026-09-04 13:25:51 | 47.86082 | 17.23553 | 129° | 80km/h | 4300m | -13.1m/s | 0°C | 0% | 0hPa | 0V | 00:00:00 | 00:00:00 | 00:00:00 | |
| OM5KV | 2026-09-04 13:25:47 | 47.86129 | 17.23467 | 138° | 75km/h | 4356m | -14.8m/s | 0°C | 0% | 0hPa | 0V | 00:00:00 | 00:00:00 | 00:00:00 | |
| PETON7-10 | 2026-09-04 13:25:44 | 47.86166 | 17.23413 | 131° | 69km/h | 4399m | -13.5m/s | 0°C | 0% | 0hPa | 0V | 00:00:00 | 00:00:00 | 00:00:00 | |
| OM5KV | 2026-09-04 13:25:42 | 47.86190 | 17.23375 | 133° | 73km/h | 4428m | -13.1m/s | 0°C | 0% | 0hPa | 0V | 00:00:00 | 00:00:00 | 00:00:00 | |
| ATIDSZ-14 | 2026-09-04 13:25:38 | 47.86252 | 17.23280 | 133° | 71km/h | 4494m | -13.0m/s | 0°C | 0% | 0hPa | 0V | 00:00:00 | 00:00:00 | 00:00:00 | |
| OM5KV | 2026-09-04 13:25:37 | 47.86252 | 17.23280 | 133° | 71km/h | 4494m | -13.0m/s | 0°C | 0% | 0hPa | 0V | 00:00:00 | 00:00:00 | 00:00:00 | |
| OM5KV | 2026-09-04 13:25:36 | 47.86264 | 17.23260 | 131° | 71km/h | 4507m | -12.0m/s | 0°C | 0% | 0hPa | 0V | 00:00:00 | 00:00:00 | 00:00:00 | |
| OM5KV | 2026-09-04 13:25:30 | 47.86334 | 17.23146 | 135° | 64km/h | 4583m | -11.0m/s | 0°C | 0% | 0hPa | 0V | 00:00:00 | 00:00:00 | 00:00:00 | |
| PETON7-10 | 2026-09-04 13:25:28 | 47.86358 | 17.23110 | 130° | 66km/h | 4609m | -14.0m/s | 0°C | 0% | 0hPa | 0V | 00:00:00 | 00:00:00 | 00:00:00 | |
| OE3OSB-13 | 2026-09-04 13:25:27 | 47.86379 | 17.23072 | 129° | 64km/h | 4634m | -13.0m/s | -1.4°C | 64.2% | 586.0hPa | 0V | 00:00:00 | 00:00:00 | 00:00:00 | |
| OM5KV | 2026-09-04 13:25:24 | 47.86402 | 17.23039 | 139° | 66km/h | 4660m | -12.7m/s | 0°C | 0% | 0hPa | 0V | 00:00:00 | 00:00:00 | 00:00:00 | |
| OM5KV | 2026-09-04 13:25:18 | 47.86474 | 17.22935 | 136° | 66km/h | 4745m | -12.9m/s | 0°C | 0% | 0hPa | 0V | 00:00:00 | 00:00:00 | 00:00:00 | |
| ATIDSZ-14 | 2026-09-04 13:25:17 | 47.86486 | 17.22917 | 137° | 71km/h | 4758m | -13.2m/s | 0°C | 0% | 0hPa | 0V | 00:00:00 | 00:00:00 | 00:00:00 | |
| OM5KV | 2026-09-04 13:25:13 | 47.86535 | 17.22845 | 132° | 66km/h | 4811m | -12.1m/s | 0°C | 0% | 0hPa | 0V | 00:00:00 | 00:00:00 | 00:00:00 | |
| PETON7-10 | 2026-09-04 13:25:12 | 47.86547 | 17.22827 | 134° | 68km/h | 4823m | -13.2m/s | 0°C | 0% | 0hPa | 0V | 00:00:00 | 00:00:00 | 00:00:00 | |
| OM5KV | 2026-09-04 13:25:10 | 47.86569 | 17.22792 | 136° | 66km/h | 4850m | -12.2m/s | 0°C | 0% | 0hPa | 0V | 00:00:00 | 00:00:00 | 00:00:00 | |
| OM5KV | 2026-09-04 13:25:08 | 47.86593 | 17.22757 | 137° | 71km/h | 4876m | -14.3m/s | 0°C | 0% | 0hPa | 0V | 00:00:00 | 00:00:00 | 00:00:00 | |
| OM5KV | 2026-09-04 13:25:02 | 47.86669 | 17.22647 | 138° | 71km/h | 4959m | -13.4m/s | 0°C | 0% | 0hPa | 0V | 00:00:00 | 00:00:00 | 00:00:00 | |
| OM5KV | 2026-09-04 13:25:01 | 47.86682 | 17.22628 | 135° | 71km/h | 4973m | -14.7m/s | 0°C | 0% | 0hPa | 0V | 00:00:00 | 00:00:00 | 00:00:00 | |
| PETON7-10 | 2026-09-04 13:24:57 | 47.86729 | 17.22558 | 139° | 62km/h | 5027m | -10.4m/s | 0°C | 0% | 0hPa | 0V | 00:00:00 | 00:00:00 | 00:00:00 | |
| OM5KV | 2026-09-04 13:24:56 | 47.86741 | 17.22541 | 138° | 66km/h | 5040m | -14.2m/s | 0°C | 0% | 0hPa | 0V | 00:00:00 | 00:00:00 | 00:00:00 | |
| OM5KV | 2026-09-04 13:24:55 | 47.86753 | 17.22523 | 134° | 62km/h | 5055m | -15.4m/s | 0°C | 0% | 0hPa | 0V | 00:00:00 | 00:00:00 | 00:00:00 | |
| OM5KV | 2026-09-04 13:24:50 | 47.86808 | 17.22446 | 138° | 64km/h | 5128m | -16.2m/s | 0°C | 0% | 0hPa | 0V | 00:00:00 | 00:00:00 | 00:00:00 | |
| OM5KV | 2026-09-04 13:24:49 | 47.86819 | 17.22429 | 132° | 62km/h | 5143m | -14.1m/s | 0°C | 0% | 0hPa | 0V | 00:00:00 | 00:00:00 | 00:00:00 | |
| OM5KV | 2026-09-04 13:24:47 | 47.86840 | 17.22396 | 137° | 62km/h | 5172m | -14.8m/s | 0°C | 0% | 0hPa | 0V | 00:00:00 | 00:00:00 | 00:00:00 | |
| OM5KV | 2026-09-04 13:24:42 | 47.86895 | 17.22311 | 140° | 64km/h | 5248m | -13.6m/s | 0°C | 0% | 0hPa | 0V | 00:00:00 | 00:00:00 | 00:00:00 | |
| PETON7-10 | 2026-09-04 13:24:39 | 47.86932 | 17.22262 | 135° | 73km/h | 5289m | -14.2m/s | 0°C | 0% | 0hPa | 0V | 00:00:00 | 00:00:00 | 00:00:00 | |
| ATIDSZ-14 | 2026-09-04 13:24:34 | 47.86997 | 17.22175 | 140° | 75km/h | 5363m | -14.5m/s | 0°C | 0% | 0hPa | 0V | 00:00:00 | 00:00:00 | 00:00:00 | |
| OM5KV | 2026-09-04 13:24:32 | 47.87023 | 17.22140 | 137° | 64km/h | 5391m | -14.0m/s | 0°C | 0% | 0hPa | 0V | 00:00:00 | 00:00:00 | 00:00:00 | |
| OM5KV | 2026-09-04 13:24:31 | 47.87036 | 17.22123 | 138° | 69km/h | 5406m | -14.4m/s | 0°C | 0% | 0hPa | 0V | 00:00:00 | 00:00:00 | 00:00:00 | |
| OM5KV | 2026-09-04 13:24:26 | 47.87106 | 17.22030 | 142° | 86km/h | 5478m | -13.9m/s | 0°C | 0% | 0hPa | 0V | 00:00:00 | 00:00:00 | 00:00:00 | |
| OM5KV | 2026-09-04 13:24:25 | 47.87122 | 17.22010 | 138° | 78km/h | 5492m | -14.3m/s | 0°C | 0% | 0hPa | 0V | 00:00:00 | 00:00:00 | 00:00:00 | |
| PETON7-10 | 2026-09-04 13:24:24 | 47.87137 | 17.21990 | 139° | 73km/h | 5506m | -13.6m/s | 0°C | 0% | 0hPa | 0V | 00:00:00 | 00:00:00 | 00:00:00 | |
| OM5KV | 2026-09-04 13:24:20 | 47.87194 | 17.21913 | 140° | 84km/h | 5561m | -13.9m/s | 0°C | 0% | 0hPa | 0V | 00:00:00 | 00:00:00 | 00:00:00 | |
| OM5KV | 2026-09-04 13:24:15 | 47.87260 | 17.21812 | 135° | 75km/h | 5635m | -13.0m/s | 0°C | 0% | 0hPa | 0V | 00:00:00 | 00:00:00 | 00:00:00 | |
| OM5KV | 2026-09-04 13:24:14 | 47.87273 | 17.21791 | 129° | 73km/h | 5649m | -15.2m/s | 0°C | 0% | 0hPa | 0V | 00:00:00 | 00:00:00 | 00:00:00 | |
| OE3JTB-15 | 2026-09-04 13:24:13 | 47.87285 | 17.21770 | 133° | 75km/h | 5663m | -13.7m/s | 0°C | 0% | 0hPa | 0V | 00:00:00 | 00:00:00 | 00:00:00 | |
| PETON7-10 | 2026-09-04 13:24:09 | 47.87333 | 17.21694 | 132° | 73km/h | 5718m | -14.1m/s | 0°C | 0% | 0hPa | 0V | 00:00:00 | 00:00:00 | 00:00:00 | |
| OM5KV | 2026-09-04 13:24:03 | 47.87406 | 17.21573 | 135° | 73km/h | 5809m | -14.2m/s | 0°C | 0% | 0hPa | 0V | 00:00:00 | 00:00:00 | 00:00:00 | |
| PETON7-10 | 2026-09-04 13:23:54 | 47.87527 | 17.21401 | 138° | 71km/h | 5936m | -14.0m/s | 0°C | 0% | 0hPa | 0V | 00:00:00 | 00:00:00 | 00:00:00 | |
| ATIDSZ-14 | 2026-09-04 13:23:52 | 47.87554 | 17.21364 | 136° | 73km/h | 5965m | -14.4m/s | 0°C | 0% | 0hPa | 0V | 00:00:00 | 00:00:00 | 00:00:00 | |
| OM5KV | 2026-09-04 13:23:51 | 47.87566 | 17.21345 | 137° | 73km/h | 5979m | -13.9m/s | 0°C | 0% | 0hPa | 0V | 00:00:00 | 00:00:00 | 00:00:00 | |
| OM5KV | 2026-09-04 13:23:45 | 47.87641 | 17.21245 | 143° | 73km/h | 6063m | -15.0m/s | 0°C | 0% | 0hPa | 0V | 00:00:00 | 00:00:00 | 00:00:00 | |
| PETON7-10 | 2026-09-04 13:23:39 | 47.87738 | 17.21149 | 153° | 75km/h | 6149m | -13.8m/s | 0°C | 0% | 0hPa | 0V | 00:00:00 | 00:00:00 | 00:00:00 | |
| OE3JTB-15 | 2026-09-04 13:23:37 | 47.87769 | 17.21117 | 142° | 73km/h | 6178m | -14.2m/s | 0°C | 0% | 0hPa | 0V | 00:00:00 | 00:00:00 | 00:00:00 | |
| OM5KV | 2026-09-04 13:23:33 | 47.87833 | 17.21049 | 144° | 78km/h | 6240m | -15.5m/s | 0°C | 0% | 0hPa | 0V | 00:00:00 | 00:00:00 | 00:00:00 | |
| ATIDSZ-14 | 2026-09-04 13:23:32 | 47.87849 | 17.21032 | 144° | 73km/h | 6255m | -14.9m/s | 0°C | 0% | 0hPa | 0V | 00:00:00 | 00:00:00 | 00:00:00 | |
| OM5KV | 2026-09-04 13:23:27 | 47.87925 | 17.20953 | 143° | 78km/h | 6334m | -15.4m/s | 0°C | 0% | 0hPa | 0V | 00:00:00 | 00:00:00 | 00:00:00 | |
| PETON7-10 | 2026-09-04 13:23:23 | 47.87989 | 17.20885 | 145° | 77km/h | 6392m | -14.6m/s | 0°C | 0% | 0hPa | 0V | 00:00:00 | 00:00:00 | 00:00:00 | |
| OM5KV | 2026-09-04 13:23:22 | 47.88005 | 17.20869 | 148° | 77km/h | 6407m | -15.2m/s | 0°C | 0% | 0hPa | 0V | 00:00:00 | 00:00:00 | 00:00:00 | |
| OM5KV | 2026-09-04 13:23:16 | 47.88089 | 17.20767 | 133° | 78km/h | 6493m | -14.9m/s | 0°C | 0% | 0hPa | 0V | 00:00:00 | 00:00:00 | 00:00:00 | |
| OM5KV | 2026-09-04 13:23:15 | 47.88103 | 17.20747 | 143° | 80km/h | 6508m | -14.4m/s | 0°C | 0% | 0hPa | 0V | 00:00:00 | 00:00:00 | 00:00:00 | |
| ATIDSZ-14 | 2026-09-04 13:23:11 | 47.88169 | 17.20671 | 133° | 84km/h | 6566m | -14.7m/s | 0°C | 0% | 0hPa | 0V | 00:00:00 | 00:00:00 | 00:00:00 | |
| PETON7-10 | 2026-09-04 13:23:08 | 47.88208 | 17.20607 | 140° | 80km/h | 6611m | -15.3m/s | 0°C | 0% | 0hPa | 0V | 00:00:00 | 00:00:00 | 00:00:00 | |
| OM5KV | 2026-09-04 13:23:05 | 47.88254 | 17.20547 | 136° | 84km/h | 6656m | -13.6m/s | 0°C | 0% | 0hPa | 0V | 00:00:00 | 00:00:00 | 00:00:00 | |
| OM5KV | 2026-09-04 13:23:04 | 47.88269 | 17.20524 | 135° | 82km/h | 6670m | -16.4m/s | 0°C | 0% | 0hPa | 0V | 00:00:00 | 00:00:00 | 00:00:00 | |
| OM5KV | 2026-09-04 13:22:59 | 47.88345 | 17.20423 | 139° | 80km/h | 6753m | -15.7m/s | 0°C | 0% | 0hPa | 0V | 00:00:00 | 00:00:00 | 00:00:00 | |
| OM5KV | 2026-09-04 13:22:58 | 47.88359 | 17.20401 | 135° | 80km/h | 6768m | -16.6m/s | 0°C | 0% | 0hPa | 0V | 00:00:00 | 00:00:00 | 00:00:00 | |
| OM5KV | 2026-09-04 13:22:57 | 47.88374 | 17.20379 | 136° | 84km/h | 6784m | -15.5m/s | 0°C | 0% | 0hPa | 0V | 00:00:00 | 00:00:00 | 00:00:00 | |
| PETON7-10 | 2026-09-04 13:22:53 | 47.88428 | 17.20294 | 139° | 80km/h | 6843m | -14.2m/s | 0°C | 0% | 0hPa | 0V | 00:00:00 | 00:00:00 | 00:00:00 | |
| OM5KV | 2026-09-04 13:22:52 | 47.88441 | 17.20275 | 139° | 69km/h | 6857m | -13.7m/s | 0°C | 0% | 0hPa | 0V | 00:00:00 | 00:00:00 | 00:00:00 | |
| ATIDSZ-14 | 2026-09-04 13:22:51 | 47.88454 | 17.20257 | 133° | 73km/h | 6871m | -15.0m/s | 0°C | 0% | 0hPa | 0V | 00:00:00 | 00:00:00 | 00:00:00 | |
| OM5KV | 2026-09-04 13:22:42 | 47.88542 | 17.20026 | 119° | 82km/h | 7014m | -17.4m/s | 0°C | 0% | 0hPa | 0V | 00:00:00 | 00:00:00 | 00:00:00 | |
| OM5KV | 2026-09-04 13:22:41 | 47.88552 | 17.19999 | 120° | 84km/h | 7031m | -17.2m/s | 0°C | 0% | 0hPa | 0V | 00:00:00 | 00:00:00 | 00:00:00 | |
| PETON7-10 | 2026-09-04 13:22:38 | 47.88583 | 17.19915 | 119° | 78km/h | 7077m | -14.2m/s | 0°C | 0% | 0hPa | 0V | 00:00:00 | 00:00:00 | 00:00:00 | |
| OM5KV | 2026-09-04 13:22:37 | 47.88595 | 17.19886 | 122° | 93km/h | 7091m | -14.3m/s | 0°C | 0% | 0hPa | 0V | 00:00:00 | 00:00:00 | 00:00:00 | |
| OM5KV | 2026-09-04 13:22:36 | 47.88618 | 17.19827 | 118° | 86km/h | 7120m | -14.3m/s | 0°C | 0% | 0hPa | 0V | 00:00:00 | 00:00:00 | 00:00:00 | |
| OM5KV | 2026-09-04 13:22:34 | 47.88627 | 17.19799 | 115° | 77km/h | 7134m | -14.4m/s | 0°C | 0% | 0hPa | 0V | 00:00:00 | 00:00:00 | 00:00:00 | |
| OM5KV | 2026-09-04 13:22:25 | 47.88731 | 17.19607 | 126° | 66km/h | 7273m | -14.7m/s | 0°C | 0% | 0hPa | 0V | 00:00:00 | 00:00:00 | 00:00:00 | |
| PETON7-10 | 2026-09-04 13:22:23 | 47.88754 | 17.19564 | 127° | 75km/h | 7302m | -15.0m/s | 0°C | 0% | 0hPa | 0V | 00:00:00 | 00:00:00 | 00:00:00 | |
| OE3OSB-13 | 2026-09-04 13:22:21 | 47.88815 | 17.19448 | 129° | 66km/h | 7384m | -17.1m/s | -18.0°C | 13.3% | 408.0hPa | 0V | 00:00:00 | 00:00:00 | 00:00:00 | |
| OE3JTB-15 | 2026-09-04 13:22:18 | 47.88815 | 17.19448 | 130° | 71km/h | 7384m | -17.1m/s | 0°C | 0% | 0hPa | 0V | 00:00:00 | 00:00:00 | 00:00:00 | |
| OM5KV | 2026-09-04 13:22:13 | 47.88864 | 17.19332 | 123° | 75km/h | 7469m | -16.4m/s | 0°C | 0% | 0hPa | 0V | 00:00:00 | 00:00:00 | 00:00:00 | |
| OM5KV | 2026-09-04 13:22:12 | 47.88875 | 17.19307 | 121° | 80km/h | 7485m | -17.1m/s | 0°C | 0% | 0hPa | 0V | 00:00:00 | 00:00:00 | 00:00:00 | |
| ATIDSZ-14 | 2026-09-04 13:22:10 | 47.88891 | 17.19257 | 113° | 78km/h | 7519m | -16.0m/s | 0°C | 0% | 0hPa | 0V | 00:00:00 | 00:00:00 | 00:00:00 | |
| PETON7-10 | 2026-09-04 13:22:08 | 47.88907 | 17.19203 | 119° | 77km/h | 7549m | -16.1m/s | 0°C | 0% | 0hPa | 0V | 00:00:00 | 00:00:00 | 00:00:00 | |
| OM5KV | 2026-09-04 13:22:07 | 47.88916 | 17.19177 | 121° | 80km/h | 7566m | -16.8m/s | 0°C | 0% | 0hPa | 0V | 00:00:00 | 00:00:00 | 00:00:00 | |
| OM5KV | 2026-09-04 13:22:02 | 47.88963 | 17.19049 | 124° | 77km/h | 7642m | -15.3m/s | 0°C | 0% | 0hPa | 0V | 00:00:00 | 00:00:00 | 00:00:00 | |
| OM5KV | 2026-09-04 13:22:01 | 47.88972 | 17.19023 | 114° | 75km/h | 7656m | -15.4m/s | 0°C | 0% | 0hPa | 0V | 00:00:00 | 00:00:00 | 00:00:00 | |
| OE3OSB-13 | 2026-09-04 13:21:50 | 47.89081 | 17.18721 | 125° | 73km/h | 7842m | -15.7m/s | -21.6°C | 26.7% | 383.2hPa | 0V | 00:00:00 | 00:00:00 | 00:00:00 | |
| OM5KV | 2026-09-04 13:21:46 | 47.89111 | 17.18650 | 126° | 71km/h | 7890m | -16.9m/s | 0°C | 0% | 0hPa | 0V | 00:00:00 | 00:00:00 | 00:00:00 | |
| PETON7-10 | 2026-09-04 13:21:38 | 47.89199 | 17.18467 | 129° | 66km/h | 8027m | -19.1m/s | 0°C | 0% | 0hPa | 0V | 00:00:00 | 00:00:00 | 00:00:00 | |
| OM5KV | 2026-09-04 13:21:36 | 47.89219 | 17.18424 | 126° | 73km/h | 8064m | -18.2m/s | 0°C | 0% | 0hPa | 0V | 00:00:00 | 00:00:00 | 00:00:00 | |
| PG1ADW-2 | 2026-09-04 13:21:34 | 47.89240 | 17.18382 | 128° | 64km/h | 8099m | -17.0m/s | 0°C | 0% | 0hPa | 0V | 00:00:00 | 00:00:00 | 00:00:00 | |
| ATIDSZ-14 | 2026-09-04 13:21:29 | 47.89289 | 17.18279 | 125° | 62km/h | 8185m | -16.1m/s | 0°C | 0% | 0hPa | 0V | 00:00:00 | 00:00:00 | 00:00:00 | |
| PETON7-10 | 2026-09-04 13:21:23 | 47.89333 | 17.18162 | 117° | 68km/h | 8275m | -15.2m/s | 0°C | 0% | 0hPa | 0V | 00:00:00 | 00:00:00 | 00:00:00 | |
| OM5KV | 2026-09-04 13:21:22 | 47.89340 | 17.18143 | 123° | 60km/h | 8290m | -15.5m/s | 0°C | 0% | 0hPa | 0V | 00:00:00 | 00:00:00 | 00:00:00 | |
| OE3OSB-13 | 2026-09-04 13:21:19 | 47.89376 | 17.18053 | 121° | 75km/h | 8356m | -17.3m/s | -25.9°C | 34.0% | 356.9hPa | 0V | 00:00:00 | 00:00:00 | 00:00:00 | |
| OM5KV | 2026-09-04 13:21:16 | 47.89393 | 17.18006 | 122° | 68km/h | 8389m | -15.9m/s | 0°C | 0% | 0hPa | 0V | 00:00:00 | 00:00:00 | 00:00:00 | |
| PG1ADW-2 | 2026-09-04 13:21:14 | 47.89411 | 17.17963 | 121° | 71km/h | 8421m | -14.3m/s | 0°C | 0% | 0hPa | 0V | 00:00:00 | 00:00:00 | 00:00:00 | |
| OM5KV | 2026-09-04 13:21:13 | 47.89420 | 17.17941 | 126° | 69km/h | 8435m | -14.5m/s | 0°C | 0% | 0hPa | 0V | 00:00:00 | 00:00:00 | 00:00:00 | |
| OM5KV | 2026-09-04 13:21:11 | 47.89439 | 17.17896 | 122° | 66km/h | 8466m | -15.6m/s | 0°C | 0% | 0hPa | 0V | 00:00:00 | 00:00:00 | 00:00:00 | |
| ATIDSZ-14 | 2026-09-04 13:21:09 | 47.89458 | 17.17851 | 122° | 73km/h | 8499m | -16.1m/s | 0°C | 0% | 0hPa | 0V | 00:00:00 | 00:00:00 | 00:00:00 | |
| PETON7-10 | 2026-09-04 13:21:08 | 47.89467 | 17.17828 | 120° | 66km/h | 8515m | -16.6m/s | 0°C | 0% | 0hPa | 0V | 00:00:00 | 00:00:00 | 00:00:00 | |
| OM5KV | 2026-09-04 13:21:05 | 47.89492 | 17.17755 | 113° | 80km/h | 8568m | -17.4m/s | 0°C | 0% | 0hPa | 0V | 00:00:00 | 00:00:00 | 00:00:00 | |
| OE3OSB-13 | 2026-09-04 13:20:48 | 47.89624 | 17.17377 | 112° | 69km/h | 8876m | -16.2m/s | -30.0°C | 61.7% | 331.6hPa | 0V | 00:00:00 | 00:00:00 | 00:00:00 | |
| OM5KV | 2026-09-04 13:20:47 | 47.89623 | 17.17377 | 114° | 71km/h | 8876m | -16.2m/s | 0°C | 0% | 0hPa | 0V | 00:00:00 | 00:00:00 | 00:00:00 | |
| OM5KV | 2026-09-04 13:20:46 | 47.89631 | 17.17354 | 118° | 68km/h | 8893m | -16.2m/s | 0°C | 0% | 0hPa | 0V | 00:00:00 | 00:00:00 | 00:00:00 | |
| OM5KV | 2026-09-04 13:20:43 | 47.89652 | 17.17295 | 114° | 55km/h | 8944m | -17.8m/s | 0°C | 0% | 0hPa | 0V | 00:00:00 | 00:00:00 | 00:00:00 | |
| OM5KV | 2026-09-04 13:20:40 | 47.89668 | 17.17235 | 115° | 62km/h | 8996m | -17.3m/s | 0°C | 0% | 0hPa | 0V | 00:00:00 | 00:00:00 | 00:00:00 | |
| PETON7-10 | 2026-09-04 13:20:38 | 47.89682 | 17.17195 | 118° | 64km/h | 9030m | -16.6m/s | 0°C | 0% | 0hPa | 0V | 00:00:00 | 00:00:00 | 00:00:00 | |
| OM5KV | 2026-09-04 13:20:37 | 47.89689 | 17.17175 | 117° | 64km/h | 9047m | -16.2m/s | 0°C | 0% | 0hPa | 0V | 00:00:00 | 00:00:00 | 00:00:00 | |
| OM5KV | 2026-09-04 13:20:34 | 47.89711 | 17.17112 | 118° | 62km/h | 9092m | -14.4m/s | 0°C | 0% | 0hPa | 0V | 00:00:00 | 00:00:00 | 00:00:00 | |
| ATIDSZ-14 | 2026-09-04 13:20:27 | 47.89758 | 17.16965 | 133° | 66km/h | 9201m | -17.8m/s | 0°C | 0% | 0hPa | 0V | 00:00:00 | 00:00:00 | 00:00:00 | |
| OM5KV | 2026-09-04 13:20:25 | 47.89778 | 17.16926 | 127° | 71km/h | 9235m | -17.0m/s | 0°C | 0% | 0hPa | 0V | 00:00:00 | 00:00:00 | 00:00:00 | |
| PETON7-10 | 2026-09-04 13:20:23 | 47.89817 | 17.16885 | 128° | 69km/h | 9266m | -16.1m/s | 0°C | 0% | 0hPa | 0V | 00:00:00 | 00:00:00 | 00:00:00 | |
| OE3OSB-13 | 2026-09-04 13:20:17 | 47.89878 | 17.16746 | 137° | 69km/h | 9382m | -16.2m/s | -34.2°C | 65.8% | 308.2hPa | 0V | 00:00:00 | 00:00:00 | 00:00:00 | |
| OM5KV | 2026-09-04 13:20:14 | 47.89902 | 17.16707 | 133° | 64km/h | 9416m | -17.5m/s | 0°C | 0% | 0hPa | 0V | 00:00:00 | 00:00:00 | 00:00:00 | |
| OM5KV | 2026-09-04 13:20:10 | 47.89946 | 17.16627 | 137° | 69km/h | 9481m | -17.3m/s | 0°C | 0% | 0hPa | 0V | 00:00:00 | 00:00:00 | 00:00:00 | |
| PETON7-10 | 2026-09-04 13:20:08 | 47.89970 | 17.16589 | 137° | 71km/h | 9515m | -17.2m/s | 0°C | 0% | 0hPa | 0V | 00:00:00 | 00:00:00 | 00:00:00 | |
| ATIDSZ-14 | 2026-09-04 13:20:05 | 47.90003 | 17.16533 | 127° | 69km/h | 9564m | -16.9m/s | 0°C | 0% | 0hPa | 0V | 00:00:00 | 00:00:00 | 00:00:00 | |
| OM5KV | 2026-09-04 13:20:04 | 47.90015 | 17.16512 | 137° | 77km/h | 9580m | -17.2m/s | 0°C | 0% | 0hPa | 0V | 00:00:00 | 00:00:00 | 00:00:00 | |
| OM5KV | 2026-09-04 13:19:58 | 47.90090 | 17.16394 | 133° | 77km/h | 9680m | -17.6m/s | 0°C | 0% | 0hPa | 0V | 00:00:00 | 00:00:00 | 00:00:00 | |
| OM5KV | 2026-09-04 13:19:53 | 47.90154 | 17.16293 | 131° | 73km/h | 9762m | -16.7m/s | 0°C | 0% | 0hPa | 0V | 00:00:00 | 00:00:00 | 00:00:00 | |
| PETON7-10 | 2026-09-04 13:19:52 | 47.90167 | 17.16271 | 135° | 78km/h | 9779m | -16.7m/s | 0°C | 0% | 0hPa | 0V | 00:00:00 | 00:00:00 | 00:00:00 | |
| OM5KV | 2026-09-04 13:19:47 | 47.90234 | 17.16164 | 131° | 82km/h | 9860m | -17.2m/s | 0°C | 0% | 0hPa | 0V | 00:00:00 | 00:00:00 | 00:00:00 | |
| OM5KV | 2026-09-04 13:19:46 | 47.90247 | 17.16142 | 135° | 77km/h | 9877m | -16.6m/s | 0°C | 0% | 0hPa | 0V | 00:00:00 | 00:00:00 | 00:00:00 | |
| OM5KV | 2026-09-04 13:19:42 | 47.90300 | 17.16052 | 138° | 78km/h | 9945m | -17.0m/s | 0°C | 0% | 0hPa | 0V | 00:00:00 | 00:00:00 | 00:00:00 | |
| OM5KV | 2026-09-04 13:19:39 | 47.90341 | 17.15985 | 135° | 82km/h | 9997m | -18.1m/s | 0°C | 0% | 0hPa | 0V | 00:00:00 | 00:00:00 | 00:00:00 | |
| PETON7-10 | 2026-09-04 13:19:37 | 47.90368 | 17.15939 | 131° | 77km/h | 10032m | -16.4m/s | 0°C | 0% | 0hPa | 0V | 00:00:00 | 00:00:00 | 00:00:00 | |
| OM5KV | 2026-09-04 13:19:34 | 47.90406 | 17.15874 | 126° | 68km/h | 10083m | -21.7m/s | 0°C | 0% | 0hPa | 0V | 00:00:00 | 00:00:00 | 00:00:00 | |
| OM5KV | 2026-09-04 13:19:28 | 47.90477 | 17.15744 | 131° | 80km/h | 10198m | -17.5m/s | 0°C | 0% | 0hPa | 0V | 00:00:00 | 00:00:00 | 00:00:00 | |
| OM5KV | 2026-09-04 13:19:27 | 47.90490 | 17.15720 | 130° | 82km/h | 10214m | -16.7m/s | 0°C | 0% | 0hPa | 0V | 00:00:00 | 00:00:00 | 00:00:00 | |
| PETON7-10 | 2026-09-04 13:19:22 | 47.90556 | 17.15595 | 130° | 89km/h | 10302m | -18.4m/s | 0°C | 0% | 0hPa | 0V | 00:00:00 | 00:00:00 | 00:00:00 | |
| OM5KV | 2026-09-04 13:19:17 | 47.90632 | 17.15468 | 135° | 93km/h | 10401m | -20.6m/s | 0°C | 0% | 0hPa | 0V | 00:00:00 | 00:00:00 | 00:00:00 | |
| OM5KV | 2026-09-04 13:19:16 | 47.90648 | 17.15442 | 133° | 89km/h | 10421m | -19.4m/s | 0°C | 0% | 0hPa | 0V | 00:00:00 | 00:00:00 | 00:00:00 | |
| OE3OSB-13 | 2026-09-04 13:19:15 | 47.90680 | 17.15396 | 136° | 91km/h | 10456m | -17.0m/s | -42.9°C | 51.0% | 263.0hPa | 0V | 00:00:00 | 00:00:00 | 00:00:00 | |
| OM5KV | 2026-09-04 13:19:11 | 47.90730 | 17.15319 | 132° | 89km/h | 10510m | -19.4m/s | 0°C | 0% | 0hPa | 0V | 00:00:00 | 00:00:00 | 00:00:00 | |
| OM5KV | 2026-09-04 13:19:10 | 47.90745 | 17.15296 | 137° | 82km/h | 10529m | -20.7m/s | 0°C | 0% | 0hPa | 0V | 00:00:00 | 00:00:00 | 00:00:00 | |
| PETON7-10 | 2026-09-04 13:19:06 | 47.90803 | 17.15213 | 136° | 80km/h | 10613m | -21.1m/s | 0°C | 0% | 0hPa | 0V | 00:00:00 | 00:00:00 | 00:00:00 | |
| OM5KV | 2026-09-04 13:19:05 | 47.90816 | 17.15191 | 131° | 80km/h | 10634m | -20.5m/s | 0°C | 0% | 0hPa | 0V | 00:00:00 | 00:00:00 | 00:00:00 | |
| OM5KV | 2026-09-04 13:19:04 | 47.90830 | 17.15168 | 132° | 84km/h | 10654m | -21.2m/s | 0°C | 0% | 0hPa | 0V | 00:00:00 | 00:00:00 | 00:00:00 | |
| ATIDSZ-14 | 2026-09-04 13:19:03 | 47.90842 | 17.15144 | 125° | 75km/h | 10675m | -20.2m/s | 0°C | 0% | 0hPa | 0V | 00:00:00 | 00:00:00 | 00:00:00 | |
| OM5KV | 2026-09-04 13:19:01 | 47.90862 | 17.15095 | 127° | 78km/h | 10717m | -20.9m/s | 0°C | 0% | 0hPa | 0V | 00:00:00 | 00:00:00 | 00:00:00 | |
| OE3OSB-13 | 2026-09-04 13:18:43 | 47.91080 | 17.14622 | 130° | 93km/h | 11062m | -18.5m/s | -48.0°C | 52.1% | 239.4hPa | 0V | 00:00:00 | 00:00:00 | 00:00:00 | |
| ATIDSZ-14 | 2026-09-04 13:18:42 | 47.91093 | 17.14595 | 126° | 84km/h | 11081m | -19.1m/s | 0°C | 0% | 0hPa | 0V | 00:00:00 | 00:00:00 | 00:00:00 | |
| OM5KV | 2026-09-04 13:18:39 | 47.91131 | 17.14521 | 126° | 75km/h | 11140m | -20.1m/s | 0°C | 0% | 0hPa | 0V | 00:00:00 | 00:00:00 | 00:00:00 | |
| PETON7-10 | 2026-09-04 13:18:36 | 47.91170 | 17.14450 | 132° | 88km/h | 11200m | -21.1m/s | 0°C | 0% | 0hPa | 0V | 00:00:00 | 00:00:00 | 00:00:00 | |
| OM5KV | 2026-09-04 13:18:33 | 47.91205 | 17.14374 | 125° | 84km/h | 11269m | -23.1m/s | 0°C | 0% | 0hPa | 0V | 00:00:00 | 00:00:00 | 00:00:00 | |
| OE5DXL-15 | 2026-09-04 13:18:26 | 47.91285 | 17.14192 | 124° | 91km/h | 11419m | -17.8m/s | 0°C | 0% | 0hPa | 0V | 00:00:00 | 00:00:00 | 00:00:00 | |
| OM5KV | 2026-09-04 13:18:25 | 47.91310 | 17.14134 | 120° | 99km/h | 11456m | -17.1m/s | 0°C | 0% | 0hPa | 0V | 00:00:00 | 00:00:00 | 00:00:00 | |
| PETON7-10 | 2026-09-04 13:18:21 | 47.91346 | 17.14037 | 122° | 93km/h | 11513m | -20.7m/s | 0°C | 0% | 0hPa | 0V | 00:00:00 | 00:00:00 | 00:00:00 | |
| OM5KV | 2026-09-04 13:18:19 | 47.91373 | 17.13983 | 127° | 86km/h | 11558m | -23.8m/s | 0°C | 0% | 0hPa | 0V | 00:00:00 | 00:00:00 | 00:00:00 | |
| OM5KV | 2026-09-04 13:18:18 | 47.91386 | 17.13957 | 129° | 86km/h | 11582m | -23.3m/s | 0°C | 0% | 0hPa | 0V | 00:00:00 | 00:00:00 | 00:00:00 | |
| OM5KV | 2026-09-04 13:18:17 | 47.91397 | 17.13932 | 120° | 69km/h | 11605m | -22.7m/s | 0°C | 0% | 0hPa | 0V | 00:00:00 | 00:00:00 | 00:00:00 | |
| OE3OSB-13 | 2026-09-04 13:18:13 | 47.91452 | 17.13794 | 120° | 88km/h | 11718m | -21.7m/s | -53.0°C | 40.9% | 216.2hPa | 0V | 00:00:00 | 00:00:00 | 00:00:00 | |
| OM5KV | 2026-09-04 13:18:11 | 47.91465 | 17.13764 | 127° | 99km/h | 11739m | -21.3m/s | 0°C | 0% | 0hPa | 0V | 00:00:00 | 00:00:00 | 00:00:00 | |
| OM5KV | 2026-09-04 13:18:07 | 47.91530 | 17.13650 | 133° | 104km/h | 11829m | -21.8m/s | 0°C | 0% | 0hPa | 0V | 00:00:00 | 00:00:00 | 00:00:00 | |
| PETON7-10 | 2026-09-04 13:18:05 | 47.91567 | 17.13597 | 141° | 77km/h | 11874m | -23.1m/s | 0°C | 0% | 0hPa | 0V | 00:00:00 | 00:00:00 | 00:00:00 | |
| OM5KV | 2026-09-04 13:18:02 | 47.91623 | 17.13530 | 145° | 93km/h | 11940m | -21.2m/s | 0°C | 0% | 0hPa | 0V | 00:00:00 | 00:00:00 | 00:00:00 | |
| OM5KV | 2026-09-04 13:18:01 | 47.91641 | 17.13510 | 146° | 91km/h | 11962m | -24.0m/s | 0°C | 0% | 0hPa | 0V | 00:00:00 | 00:00:00 | 00:00:00 | |
| ATIDSZ-14 | 2026-09-04 13:18:00 | 47.91660 | 17.13491 | 147° | 84km/h | 11986m | -24.0m/s | 0°C | 0% | 0hPa | 0V | 00:00:00 | 00:00:00 | 00:00:00 | |
| PG1ADW-2 | 2026-09-04 13:17:58 | 47.91692 | 17.13455 | 142° | 86km/h | 12031m | -21.6m/s | 0°C | 0% | 0hPa | 0V | 00:00:00 | 00:00:00 | 00:00:00 | |
| OM5KV | 2026-09-04 13:17:54 | 47.91752 | 17.13390 | 142° | 66km/h | 12119m | -23.1m/s | 0°C | 0% | 0hPa | 0V | 00:00:00 | 00:00:00 | 00:00:00 | |
| OM5KV | 2026-09-04 13:17:50 | 47.91806 | 17.13325 | 140° | 66km/h | 12207m | -23.7m/s | 0°C | 0% | 0hPa | 0V | 00:00:00 | 00:00:00 | 00:00:00 | |
| PETON7-10 | 2026-09-04 13:17:49 | 47.91817 | 17.13310 | 135° | 77km/h | 12232m | -25.5m/s | 0°C | 0% | 0hPa | 0V | 00:00:00 | 00:00:00 | 00:00:00 | |
| OM5KV | 2026-09-04 13:17:43 | 47.91888 | 17.13187 | 133° | 78km/h | 12373m | -23.2m/s | 0°C | 0% | 0hPa | 0V | 00:00:00 | 00:00:00 | 00:00:00 | |
| OE3OSB-13 | 2026-09-04 13:17:41 | 47.91913 | 17.13143 | 128° | 78km/h | 12418m | -20.1m/s | -59.0°C | 17.4% | 193.1hPa | 0V | 00:00:00 | 00:00:00 | 00:00:00 | |
| OM5KV | 2026-09-04 13:17:40 | 47.91925 | 17.13120 | 129° | 77km/h | 12439m | -23.3m/s | 0°C | 0% | 0hPa | 0V | 00:00:00 | 00:00:00 | 00:00:00 | |
| OM5KV | 2026-09-04 13:17:39 | 47.91938 | 17.13096 | 129° | 86km/h | 12463m | -23.4m/s | 0°C | 0% | 0hPa | 0V | 00:00:00 | 00:00:00 | 00:00:00 | |
| OM5KV | 2026-09-04 13:17:38 | 47.91951 | 17.13070 | 126° | 88km/h | 12486m | -24.0m/s | 0°C | 0% | 0hPa | 0V | 00:00:00 | 00:00:00 | 00:00:00 | |
| PETON7-10 | 2026-09-04 13:17:34 | 47.92010 | 17.12965 | 136° | 95km/h | 12580m | -23.3m/s | 0°C | 0% | 0hPa | 0V | 00:00:00 | 00:00:00 | 00:00:00 | |
| OE3JTB-15 | 2026-09-04 13:17:31 | 47.92062 | 17.12894 | 141° | 89km/h | 12651m | -22.7m/s | 0°C | 0% | 0hPa | 0V | 00:00:00 | 00:00:00 | 00:00:00 | |
| OM5KV | 2026-09-04 13:17:29 | 47.92099 | 17.12850 | 145° | 95km/h | 12698m | -25.1m/s | 0°C | 0% | 0hPa | 0V | 00:00:00 | 00:00:00 | 00:00:00 | |
| OE5DXL-15 | 2026-09-04 13:17:26 | 47.92155 | 17.12786 | 146° | 91km/h | 12772m | -25.1m/s | 0°C | 0% | 0hPa | 0V | 00:00:00 | 00:00:00 | 00:00:00 | |
| OM5KV | 2026-09-04 13:17:23 | 47.92213 | 17.12724 | 144° | 91km/h | 12841m | -20.1m/s | 0°C | 0% | 0hPa | 0V | 00:00:00 | 00:00:00 | 00:00:00 | |
| OM5KV | 2026-09-04 13:17:19 | 47.92292 | 17.12646 | 153° | 97km/h | 12931m | -25.6m/s | 0°C | 0% | 0hPa | 0V | 00:00:00 | 00:00:00 | 00:00:00 | |
| PETON7-10 | 2026-09-04 13:17:18 | 47.92312 | 17.12629 | 150° | 86km/h | 12956m | -23.6m/s | 0°C | 0% | 0hPa | 0V | 00:00:00 | 00:00:00 | 00:00:00 | |
| OM5KV | 2026-09-04 13:17:15 | 47.92370 | 17.12582 | 151° | 88km/h | 13027m | -23.5m/s | 0°C | 0% | 0hPa | 0V | 00:00:00 | 00:00:00 | 00:00:00 | |
| OE3OSB-13 | 2026-09-04 13:17:11 | 47.92470 | 17.12478 | 137° | 84km/h | 13173m | -25.4m/s | -65.5°C | 4.2% | 170.3hPa | 0V | 00:00:00 | 00:00:00 | 00:00:00 | |
| OM5KV | 2026-09-04 13:17:08 | 47.92485 | 17.12456 | 137° | 82km/h | 13198m | -25.7m/s | 0°C | 0% | 0hPa | 0V | 00:00:00 | 00:00:00 | 00:00:00 | |
| OM5KV | 2026-09-04 13:17:07 | 47.92501 | 17.12434 | 138° | 88km/h | 13225m | -24.9m/s | 0°C | 0% | 0hPa | 0V | 00:00:00 | 00:00:00 | 00:00:00 | |
| OM5KV | 2026-09-04 13:17:04 | 47.92553 | 17.12365 | 140° | 99km/h | 13301m | -24.4m/s | 0°C | 0% | 0hPa | 0V | 00:00:00 | 00:00:00 | 00:00:00 | |
| PETON7-10 | 2026-09-04 13:17:02 | 47.92592 | 17.12317 | 146° | 89km/h | 13351m | -25.1m/s | 0°C | 0% | 0hPa | 0V | 00:00:00 | 00:00:00 | 00:00:00 | |
| OM5KV | 2026-09-04 13:17:01 | 47.92612 | 17.12297 | 149° | 97km/h | 13376m | -24.5m/s | 0°C | 0% | 0hPa | 0V | 00:00:00 | 00:00:00 | 00:00:00 | |
| PG1ADW-2 | 2026-09-04 13:17:00 | 47.92633 | 17.12277 | 149° | 91km/h | 13401m | -24.4m/s | 0°C | 0% | 0hPa | 0V | 00:00:00 | 00:00:00 | 00:00:00 | |
| ATIDSZ-14 | 2026-09-04 13:16:58 | 47.92675 | 17.12240 | 152° | 100km/h | 13449m | -23.3m/s | 0°C | 0% | 0hPa | 0V | 00:00:00 | 00:00:00 | 00:00:00 | |
| OE5DXL-15 | 2026-09-04 13:16:56 | 47.92719 | 17.12204 | 151° | 86km/h | 13500m | -26.2m/s | 0°C | 0% | 0hPa | 0V | 00:00:00 | 00:00:00 | 00:00:00 | |
| OM5KV | 2026-09-04 13:16:52 | 47.92800 | 17.12138 | 151° | 84km/h | 13607m | -26.4m/s | 0°C | 0% | 0hPa | 0V | 00:00:00 | 00:00:00 | 00:00:00 | |
| PETON7-10 | 2026-09-04 13:16:47 | 47.92885 | 17.12054 | 140° | 91km/h | 13740m | -25.3m/s | 0°C | 0% | 0hPa | 0V | 00:00:00 | 00:00:00 | 00:00:00 | |
| OM5KV | 2026-09-04 13:16:44 | 47.92931 | 17.11993 | 139° | 86km/h | 13818m | -26.9m/s | 0°C | 0% | 0hPa | 0V | 00:00:00 | 00:00:00 | 00:00:00 | |
| OM5KV | 2026-09-04 13:16:39 | 47.93021 | 17.11882 | 146° | 102km/h | 13952m | -26.4m/s | 0°C | 0% | 0hPa | 0V | 00:00:00 | 00:00:00 | 00:00:00 | |
| OE3JTB-15 | 2026-09-04 13:16:38 | 47.93042 | 17.11861 | 147° | 82km/h | 13978m | -26.0m/s | 0°C | 0% | 0hPa | 0V | 00:00:00 | 00:00:00 | 00:00:00 | |
| ATIDSZ-14 | 2026-09-04 13:16:37 | 47.93064 | 17.11841 | 148° | 99km/h | 14004m | -25.4m/s | 0°C | 0% | 0hPa | 0V | 00:00:00 | 00:00:00 | 00:00:00 | |
| PG1ADW-2 | 2026-09-04 13:16:35 | 47.93104 | 17.11803 | 148° | 78km/h | 14056m | -25.2m/s | 0°C | 0% | 0hPa | 0V | 00:00:00 | 00:00:00 | 00:00:00 | |
| PETON7-10 | 2026-09-04 13:16:31 | 47.93172 | 17.11733 | 142° | 80km/h | 14161m | -28.1m/s | 0°C | 0% | 0hPa | 0V | 00:00:00 | 00:00:00 | 00:00:00 | |
| OM5KV | 2026-09-04 13:16:28 | 47.93215 | 17.11677 | 139° | 73km/h | 14247m | -27.6m/s | 0°C | 0% | 0hPa | 0V | 00:00:00 | 00:00:00 | 00:00:00 | |
| OM5KV | 2026-09-04 13:16:25 | 47.93258 | 17.11617 | 134° | 80km/h | 14332m | -27.3m/s | 0°C | 0% | 0hPa | 0V | 00:00:00 | 00:00:00 | 00:00:00 | |
| OM5KV | 2026-09-04 13:16:17 | 47.93373 | 17.11432 | 134° | 80km/h | 14563m | -29.9m/s | 0°C | 0% | 0hPa | 0V | 00:00:00 | 00:00:00 | 00:00:00 | |
| PETON7-10 | 2026-09-04 13:16:16 | 47.93386 | 17.11410 | 128° | 66km/h | 14593m | -28.6m/s | 0°C | 0% | 0hPa | 0V | 00:00:00 | 00:00:00 | 00:00:00 | |
| PG1ADW-2 | 2026-09-04 13:16:14 | 47.93410 | 17.11364 | 131° | 60km/h | 14652m | -27.7m/s | 0°C | 0% | 0hPa | 0V | 00:00:00 | 00:00:00 | 00:00:00 | |
| OM5KV | 2026-09-04 13:16:13 | 47.93425 | 17.11342 | 136° | 82km/h | 14681m | -27.8m/s | 0°C | 0% | 0hPa | 0V | 00:00:00 | 00:00:00 | 00:00:00 | |
| OE3JTB-15 | 2026-09-04 13:16:09 | 47.93478 | 17.11263 | 132° | 60km/h | 14795m | -28.0m/s | 0°C | 0% | 0hPa | 0V | 00:00:00 | 00:00:00 | 00:00:00 | |
| OE3OSB-13 | 2026-09-04 13:16:08 | 47.93500 | 17.11231 | 138° | 53km/h | 14856m | -30.2m/s | -56.2°C | 0.0% | 128.4hPa | 0V | 00:00:00 | 00:00:00 | 00:00:00 | |
| OM5KV | 2026-09-04 13:16:07 | 47.93500 | 17.11231 | 139° | 53km/h | 14857m | -30.2m/s | 0°C | 0% | 0hPa | 0V | 00:00:00 | 00:00:00 | 00:00:00 | |
| OM5KV | 2026-09-04 13:16:02 | 47.93553 | 17.11158 | 136° | 58km/h | 15006m | -28.9m/s | 0°C | 0% | 0hPa | 0V | 00:00:00 | 00:00:00 | 00:00:00 | |
| PETON7-10 | 2026-09-04 13:16:01 | 47.93563 | 17.11142 | 128° | 62km/h | 15035m | -28.9m/s | 0°C | 0% | 0hPa | 0V | 00:00:00 | 00:00:00 | 00:00:00 | |
| OM5KV | 2026-09-04 13:16:00 | 47.93571 | 17.11124 | 122° | 58km/h | 15064m | -29.1m/s | 0°C | 0% | 0hPa | 0V | 00:00:00 | 00:00:00 | 00:00:00 | |
| OE5DXL-15 | 2026-09-04 13:15:56 | 47.93597 | 17.11040 | 111° | 55km/h | 15185m | -30.2m/s | 0°C | 0% | 0hPa | 0V | 00:00:00 | 00:00:00 | 00:00:00 | |
| ATIDSZ-14 | 2026-09-04 13:15:55 | 47.93603 | 17.11016 | 112° | 69km/h | 15215m | -29.6m/s | 0°C | 0% | 0hPa | 0V | 00:00:00 | 00:00:00 | 00:00:00 | |
| OM5KV | 2026-09-04 13:15:54 | 47.93610 | 17.10992 | 116° | 68km/h | 15245m | -30.6m/s | 0°C | 0% | 0hPa | 0V | 00:00:00 | 00:00:00 | 00:00:00 | |
| OM5KV | 2026-09-04 13:15:51 | 47.93631 | 17.10927 | 117° | 62km/h | 15338m | -31.0m/s | 0°C | 0% | 0hPa | 0V | 00:00:00 | 00:00:00 | 00:00:00 | |
| OM5KV | 2026-09-04 13:15:50 | 47.93638 | 17.10906 | 119° | 62km/h | 15370m | -31.2m/s | 0°C | 0% | 0hPa | 0V | 00:00:00 | 00:00:00 | 00:00:00 | |
| OM5KV | 2026-09-04 13:15:49 | 47.93645 | 17.10885 | 112° | 57km/h | 15402m | -30.2m/s | 0°C | 0% | 0hPa | 0V | 00:00:00 | 00:00:00 | 00:00:00 | |
| PETON7-10 | 2026-09-04 13:15:44 | 47.93669 | 17.10778 | 111° | 53km/h | 15561m | -31.8m/s | 0°C | 0% | 0hPa | 0V | 00:00:00 | 00:00:00 | 00:00:00 | |
| OE3JTB-15 | 2026-09-04 13:15:40 | 47.93690 | 17.10695 | 114° | 47km/h | 15689m | -29.8m/s | 0°C | 0% | 0hPa | 0V | 00:00:00 | 00:00:00 | 00:00:00 | |
| OE5MMP-10 | 2026-09-04 13:15:39 | 47.93695 | 17.10676 | 112° | 49km/h | 15720m | -31.3m/s | 0°C | 0% | 0hPa | 0V | 00:00:00 | 00:00:00 | 00:00:00 | |
| OE3OSB-13 | 2026-09-04 13:15:37 | 47.93708 | 17.10621 | 104° | 53km/h | 15820m | -32.1m/s | -57.8°C | 0.0% | 109.6hPa | 0V | 00:00:00 | 00:00:00 | 00:00:00 | |
| ATIDSZ-14 | 2026-09-04 13:15:34 | 47.93714 | 17.10583 | 103° | 49km/h | 15885m | -30.7m/s | 0°C | 0% | 0hPa | 0V | 00:00:00 | 00:00:00 | 00:00:00 | |
| PETON7-10 | 2026-09-04 13:15:29 | 47.93725 | 17.10502 | 89° | 46km/h | 16046m | -31.4m/s | 0°C | 0% | 0hPa | 0V | 00:00:00 | 00:00:00 | 00:00:00 | |
| OE5DXL-15 | 2026-09-04 13:15:26 | 47.93727 | 17.10453 | 99° | 40km/h | 16144m | -32.5m/s | 0°C | 0% | 0hPa | 0V | 00:00:00 | 00:00:00 | 00:00:00 | |
| OM5KV | 2026-09-04 13:15:23 | 47.93736 | 17.10401 | 111° | 46km/h | 16245m | -32.9m/s | 0°C | 0% | 0hPa | 0V | 00:00:00 | 00:00:00 | 00:00:00 | |
| OM5KV | 2026-09-04 13:15:19 | 47.93755 | 17.10319 | 117° | 51km/h | 16413m | -32.7m/s | 0°C | 0% | 0hPa | 0V | 00:00:00 | 00:00:00 | 00:00:00 | |
| OM5KV | 2026-09-04 13:15:15 | 47.93772 | 17.10271 | 120° | 46km/h | 16513m | -31.5m/s | 0°C | 0% | 0hPa | 0V | 00:00:00 | 00:00:00 | 00:00:00 | |
| ATIDSZ-14 | 2026-09-04 13:15:13 | 47.93784 | 17.10243 | 128° | 42km/h | 16579m | -32.3m/s | 0°C | 0% | 0hPa | 0V | 00:00:00 | 00:00:00 | 00:00:00 | |
| PETON7-10 | 2026-09-04 13:15:12 | 47.93790 | 17.10232 | 128° | 33km/h | 16612m | -32.7m/s | 0°C | 0% | 0hPa | 0V | 00:00:00 | 00:00:00 | 00:00:00 | |
| OE3JTB-15 | 2026-09-04 13:15:11 | 47.93795 | 17.10222 | 122° | 38km/h | 16645m | -32.8m/s | 0°C | 0% | 0hPa | 0V | 00:00:00 | 00:00:00 | 00:00:00 | |
| OE5MMP-10 | 2026-09-04 13:15:09 | 47.93802 | 17.10202 | 121° | 33km/h | 16712m | -32.4m/s | 0°C | 0% | 0hPa | 0V | 00:00:00 | 00:00:00 | 00:00:00 | |
| OE3OSB-13 | 2026-09-04 13:15:06 | 47.93820 | 17.10162 | 131° | 31km/h | 16845m | -33.3m/s | -57.8°C | 0.0% | 92.4hPa | 0V | 00:00:00 | 00:00:00 | 00:00:00 | |
| OE5MMP-10 | 2026-09-04 13:14:59 | 47.93854 | 17.10103 | 131° | 42km/h | 17049m | -33.0m/s | 0°C | 0% | 0hPa | 0V | 00:00:00 | 00:00:00 | 00:00:00 | |
| PETON7-10 | 2026-09-04 13:14:56 | 47.93874 | 17.10069 | 129° | 40km/h | 17152m | -34.1m/s | 0°C | 0% | 0hPa | 0V | 00:00:00 | 00:00:00 | 00:00:00 | |
| ATIDSZ-14 | 2026-09-04 13:14:53 | 47.93896 | 17.10032 | 134° | 44km/h | 17256m | -35.2m/s | 0°C | 0% | 0hPa | 0V | 00:00:00 | 00:00:00 | 00:00:00 | |
| OM5KV | 2026-09-04 13:14:50 | 47.93919 | 17.09999 | 137° | 42km/h | 17364m | -35.2m/s | 0°C | 0% | 0hPa | 0V | 00:00:00 | 00:00:00 | 00:00:00 | |
| OE5MMP-10 | 2026-09-04 13:14:49 | 47.93927 | 17.09989 | 142° | 37km/h | 17400m | -35.0m/s | 0°C | 0% | 0hPa | 0V | 00:00:00 | 00:00:00 | 00:00:00 | |
| OM5KV | 2026-09-04 13:14:45 | 47.93952 | 17.09952 | 141° | 40km/h | 17543m | -35.4m/s | 0°C | 0% | 0hPa | 0V | 00:00:00 | 00:00:00 | 00:00:00 | |
| OE3JTB-15 | 2026-09-04 13:14:42 | 47.93976 | 17.09923 | 137° | 27km/h | 17650m | -37.4m/s | 0°C | 0% | 0hPa | 0V | 00:00:00 | 00:00:00 | 00:00:00 | |
| PETON7-10 | 2026-09-04 13:14:41 | 47.93982 | 17.09916 | 149° | 31km/h | 17688m | -37.1m/s | 0°C | 0% | 0hPa | 0V | 00:00:00 | 00:00:00 | 00:00:00 | |
| OM5KV | 2026-09-04 13:14:40 | 47.93995 | 17.09903 | 140° | 33km/h | 17762m | -36.2m/s | 0°C | 0% | 0hPa | 0V | 00:00:00 | 00:00:00 | 00:00:00 | |
| OE5MMP-10 | 2026-09-04 13:14:39 | 47.93994 | 17.09903 | 139° | 27km/h | 17762m | -36.2m/s | 0°C | 0% | 0hPa | 0V | 00:00:00 | 00:00:00 | 00:00:00 | |
| OE3OSB-13 | 2026-09-04 13:14:35 | 47.94013 | 17.09865 | 121° | 24km/h | 17946m | -36.0m/s | -54.2°C | 0.0% | 76.7hPa | 0V | 00:00:00 | 00:00:00 | 00:00:00 | |
| ATIDSZ-14 | 2026-09-04 13:14:33 | 47.94014 | 17.09856 | 93° | 27km/h | 17984m | -36.2m/s | 0°C | 0% | 0hPa | 0V | 00:00:00 | 00:00:00 | 00:00:00 | |
| OE5MMP-10 | 2026-09-04 13:14:29 | 47.94018 | 17.09811 | 108° | 33km/h | 18130m | -37.3m/s | 0°C | 0% | 0hPa | 0V | 00:00:00 | 00:00:00 | 00:00:00 | |
| OE5DXL-15 | 2026-09-04 13:14:26 | 47.94024 | 17.09767 | 105° | 18km/h | 18248m | -38.3m/s | 0°C | 0% | 0hPa | 0V | 00:00:00 | 00:00:00 | 00:00:00 | |
| OE5MMP-10 | 2026-09-04 13:14:18 | 47.94037 | 17.09688 | 79° | 20km/h | 18575m | -41.5m/s | 0°C | 0% | 0hPa | 0V | 00:00:00 | 00:00:00 | 00:00:00 | |
| OE3JTB-15 | 2026-09-04 13:14:13 | 47.94034 | 17.09652 | 93° | 15km/h | 18781m | -39.6m/s | 0°C | 0% | 0hPa | 0V | 00:00:00 | 00:00:00 | 00:00:00 | |
| ATIDSZ-14 | 2026-09-04 13:14:12 | 47.94034 | 17.09646 | 78° | 16km/h | 18822m | -40.5m/s | 0°C | 0% | 0hPa | 0V | 00:00:00 | 00:00:00 | 00:00:00 | |
| PETON7-10 | 2026-09-04 13:14:11 | 47.94033 | 17.09640 | 92° | 13km/h | 18863m | -41.0m/s | 0°C | 0% | 0hPa | 0V | 00:00:00 | 00:00:00 | 00:00:00 | |
| OE5MMP-10 | 2026-09-04 13:14:08 | 47.94033 | 17.09619 | 94° | 13km/h | 18991m | -42.6m/s | 0°C | 0% | 0hPa | 0V | 00:00:00 | 00:00:00 | 00:00:00 | |
| OE3OSB-13 | 2026-09-04 13:14:05 | 47.94031 | 17.09595 | 64° | 11km/h | 19208m | -42.6m/s | -56.0°C | 0.0% | 62.1hPa | 0V | 00:00:00 | 00:00:00 | 00:00:00 | |
| OK1ALN | 2026-09-04 13:14:02 | 47.94030 | 17.09591 | 65° | 13km/h | 19252m | -42.9m/s | 0°C | 0% | 0hPa | 0V | 00:00:00 | 00:00:00 | 00:00:00 | |
| OE5MMP-10 | 2026-09-04 13:13:58 | 47.94027 | 17.09569 | 94° | 13km/h | 19423m | -42.4m/s | 0°C | 0% | 0hPa | 0V | 00:00:00 | 00:00:00 | 00:00:00 | |
| OE5DXL-15 | 2026-09-04 13:13:56 | 47.94028 | 17.09560 | 122° | 16km/h | 19509m | -42.0m/s | 0°C | 0% | 0hPa | 0V | 00:00:00 | 00:00:00 | 00:00:00 | |
| ATIDSZ-14 | 2026-09-04 13:13:52 | 47.94032 | 17.09542 | 107° | 16km/h | 19682m | -42.9m/s | 0°C | 0% | 0hPa | 0V | 00:00:00 | 00:00:00 | 00:00:00 | |
| OE5MMP-10 | 2026-09-04 13:13:48 | 47.94035 | 17.09519 | 109° | 15km/h | 19859m | -43.3m/s | 0°C | 0% | 0hPa | 0V | 00:00:00 | 00:00:00 | 00:00:00 | |
| OE3JTB-15 | 2026-09-04 13:13:44 | 47.94039 | 17.09497 | 133° | 15km/h | 20032m | -42.5m/s | 0°C | 0% | 0hPa | 0V | 00:00:00 | 00:00:00 | 00:00:00 | |
| PETON7-10 | 2026-09-04 13:13:41 | 47.94042 | 17.09484 | 113° | 18km/h | 20163m | -44.5m/s | 0°C | 0% | 0hPa | 0V | 00:00:00 | 00:00:00 | 00:00:00 | |
| OE5MMP-10 | 2026-09-04 13:13:38 | 47.94044 | 17.09471 | 99° | 20km/h | 20299m | -45.2m/s | 0°C | 0% | 0hPa | 0V | 00:00:00 | 00:00:00 | 00:00:00 | |
| OE3OSB-13 | 2026-09-04 13:13:33 | 47.94043 | 17.09430 | 87° | 20km/h | 20579m | -45.3m/s | -55.2°C | 0.0% | 49.2hPa | 0V | 00:00:00 | 00:00:00 | 00:00:00 | |
| ATIDSZ-14 | 2026-09-04 13:13:31 | 47.94043 | 17.09421 | 98° | 24km/h | 20625m | -44.5m/s | 0°C | 0% | 0hPa | 0V | 00:00:00 | 00:00:00 | 00:00:00 | |
| OE5MMP-10 | 2026-09-04 13:13:28 | 47.94049 | 17.09399 | 114° | 16km/h | 20760m | -45.4m/s | 0°C | 0% | 0hPa | 0V | 00:00:00 | 00:00:00 | 00:00:00 | |
| PETON7-10 | 2026-09-04 13:13:26 | 47.94053 | 17.09385 | 116° | 9km/h | 20852m | -46.3m/s | 0°C | 0% | 0hPa | 0V | 00:00:00 | 00:00:00 | 00:00:00 | |
| OK1ALN | 2026-09-04 13:13:22 | 47.94062 | 17.09365 | 124° | 15km/h | 21042m | -47.0m/s | 0°C | 0% | 0hPa | 0V | 00:00:00 | 00:00:00 | 00:00:00 | |
| OE5MMP-10 | 2026-09-04 13:13:18 | 47.94073 | 17.09351 | 147° | 4km/h | 21237m | -47.5m/s | 0°C | 0% | 0hPa | 0V | 00:00:00 | 00:00:00 | 00:00:00 | |
| OE3JTB-15 | 2026-09-04 13:13:15 | 47.94073 | 17.09351 | 323° | 7km/h | 21383m | -49.5m/s | 0°C | 0% | 0hPa | 0V | 00:00:00 | 00:00:00 | 00:00:00 | |
| ATIDSZ-14 | 2026-09-04 13:13:11 | 47.94068 | 17.09353 | 62° | 2km/h | 21585m | -49.4m/s | 0°C | 0% | 0hPa | 0V | 00:00:00 | 00:00:00 | 00:00:00 | |
| PETON7-10 | 2026-09-04 13:13:10 | 47.94068 | 17.09354 | 279° | 9km/h | 21634m | -49.4m/s | 0°C | 0% | 0hPa | 0V | 00:00:00 | 00:00:00 | 00:00:00 | |
| OE3OSB-13 | 2026-09-04 13:13:02 | 47.94053 | 17.09353 | 12° | 9km/h | 22091m | -52.6m/s | -52.1°C | 0.0% | 37.9hPa | 0V | 00:00:00 | 00:00:00 | 00:00:00 | |
| OK1ALN | 2026-09-04 13:13:01 | 47.94053 | 17.09353 | 13° | 11km/h | 22091m | -52.6m/s | 0°C | 0% | 0hPa | 0V | 00:00:00 | 00:00:00 | 00:00:00 | |
| OE5MMP-10 | 2026-09-04 13:12:58 | 47.94047 | 17.09346 | 69° | 9km/h | 22249m | -52.2m/s | 0°C | 0% | 0hPa | 0V | 00:00:00 | 00:00:00 | 00:00:00 | |
| PG1ADW-2 | 2026-09-04 13:12:57 | 47.94046 | 17.09342 | 87° | 7km/h | 22302m | -52.7m/s | 0°C | 0% | 0hPa | 0V | 00:00:00 | 00:00:00 | 00:00:00 | |
| OE5DXL-15 | 2026-09-04 13:12:56 | 47.94045 | 17.09338 | 91° | 9km/h | 22355m | -52.6m/s | 0°C | 0% | 0hPa | 0V | 00:00:00 | 00:00:00 | 00:00:00 | |
| PETON7-10 | 2026-09-04 13:12:55 | 47.94046 | 17.09333 | 120° | 7km/h | 22407m | -52.4m/s | 0°C | 0% | 0hPa | 0V | 00:00:00 | 00:00:00 | 00:00:00 | |
| HA6NAB-11 | 2026-09-04 13:12:53 | 47.94048 | 17.09327 | 112° | 11km/h | 22512m | -51.3m/s | 0°C | 0% | 0hPa | 0V | 00:00:00 | 00:00:00 | 00:00:00 | |
| ATIDSZ-14 | 2026-09-04 13:12:51 | 47.94047 | 17.09319 | 110° | 9km/h | 22615m | -51.7m/s | 0°C | 0% | 0hPa | 0V | 00:00:00 | 00:00:00 | 00:00:00 | |
| HA6NAB-11 | 2026-09-04 13:12:47 | 47.94047 | 17.09308 | 45° | 9km/h | 22830m | -53.2m/s | 0°C | 0% | 0hPa | 0V | 00:00:00 | 00:00:00 | 00:00:00 | |
| OE5MMP-10 | 2026-09-04 13:12:46 | 47.94045 | 17.09305 | 31° | 7km/h | 22883m | -53.2m/s | 0°C | 0% | 0hPa | 0V | 00:00:00 | 00:00:00 | 00:00:00 | |
| HA6NAB-11 | 2026-09-04 13:12:41 | 47.94040 | 17.09293 | 70° | 5km/h | 23156m | -54.8m/s | 0°C | 0% | 0hPa | 0V | 00:00:00 | 00:00:00 | 00:00:00 | |
| PETON7-10 | 2026-09-04 13:12:40 | 47.94039 | 17.09290 | 82° | 7km/h | 23211m | -55.1m/s | 0°C | 0% | 0hPa | 0V | 00:00:00 | 00:00:00 | 00:00:00 | |
| OE5MMP-10 | 2026-09-04 13:12:36 | 47.94040 | 17.09277 | 130° | 7km/h | 23437m | -57.0m/s | 0°C | 0% | 0hPa | 0V | 00:00:00 | 00:00:00 | 00:00:00 | |
| HA6NAB-11 | 2026-09-04 13:12:35 | 47.94042 | 17.09275 | 142° | 9km/h | 23494m | -57.0m/s | 0°C | 0% | 0hPa | 0V | 00:00:00 | 00:00:00 | 00:00:00 | |
| OE3OSB-13 | 2026-09-04 13:12:31 | 47.94047 | 17.09264 | 134° | 4km/h | 23784m | -58.7m/s | -50.6°C | 0.0% | 27.9hPa | 0V | 00:00:00 | 00:00:00 | 00:00:00 | |
| HA6NAB-11 | 2026-09-04 13:12:30 | 47.94047 | 17.09264 | 135° | 5km/h | 23784m | -58.7m/s | 0°C | 0% | 0hPa | 0V | 00:00:00 | 00:00:00 | 00:00:00 | |
| OE5DXL-15 | 2026-09-04 13:12:26 | 47.94052 | 17.09258 | 88° | 9km/h | 24020m | -58.4m/s | 0°C | 0% | 0hPa | 0V | 00:00:00 | 00:00:00 | 00:00:00 | |
| PETON7-10 | 2026-09-04 13:12:25 | 47.94052 | 17.09256 | 81° | 7km/h | 24079m | -57.9m/s | 0°C | 0% | 0hPa | 0V | 00:00:00 | 00:00:00 | 00:00:00 | |
| HA6NAB-11 | 2026-09-04 13:12:24 | 47.94052 | 17.09253 | 108° | 9km/h | 24136m | -56.3m/s | 0°C | 0% | 0hPa | 0V | 00:00:00 | 00:00:00 | 00:00:00 | |
| OK1ALN | 2026-09-04 13:12:20 | 47.94057 | 17.09236 | 138° | 16km/h | 24357m | -53.0m/s | 0°C | 0% | 0hPa | 0V | 00:00:00 | 00:00:00 | 00:00:00 | |
| OE3JTB-15 | 2026-09-04 13:12:17 | 47.94065 | 17.09225 | 145° | 5km/h | 24520m | -56.3m/s | 0°C | 0% | 0hPa | 0V | 00:00:00 | 00:00:00 | 00:00:00 | |
| ATIDSZ-14 | 2026-09-04 13:12:10 | 47.94082 | 17.09212 | 0° | 0km/h | 24894m | -49.6m/s | 0°C | 0% | 0hPa | 0V | 00:00:00 | 00:00:00 | 00:00:00 | |
| PETON7-10 | 2026-09-04 13:12:07 | 47.94083 | 17.09217 | 239° | 5km/h | 25032m | -43.9m/s | 0°C | 0% | 0hPa | 0V | 00:00:00 | 00:00:00 | 00:00:00 | |
| OE5MMP-10 | 2026-09-04 13:12:03 | 47.94088 | 17.09222 | 98° | 5km/h | 25212m | -47.9m/s | 0°C | 0% | 0hPa | 0V | 00:00:00 | 00:00:00 | 00:00:00 | |
| OE3OSB-13 | 2026-09-04 13:12:00 | 47.94091 | 17.09220 | 189° | 4km/h | 25413m | -49.6m/s | -48.8°C | 0.0% | 20.6hPa | 0V | 00:00:00 | 00:00:00 | 00:00:00 | |
| OE5DXL-15 | 2026-09-04 13:11:56 | 47.94094 | 17.09220 | 209° | 18km/h | 25574m | -56.2m/s | 0°C | 0% | 0hPa | 0V | 00:00:00 | 00:00:00 | 00:00:00 | |
| OE5MMP-10 | 2026-09-04 13:11:53 | 47.94096 | 17.09225 | 251° | 2km/h | 25745m | -56.1m/s | 0°C | 0% | 0hPa | 0V | 00:00:00 | 00:00:00 | 00:00:00 | |
| OE3JTB-15 | 2026-09-04 13:11:48 | 47.94091 | 17.09226 | 347° | 9km/h | 26004m | -48.7m/s | 0°C | 0% | 0hPa | 0V | 00:00:00 | 00:00:00 | 00:00:00 | |
| PETON7-10 | 2026-09-04 13:11:47 | 47.94088 | 17.09229 | 319° | 11km/h | 26053m | -48.4m/s | 0°C | 0% | 0hPa | 0V | 00:00:00 | 00:00:00 | 00:00:00 | |
| OE5MMP-10 | 2026-09-04 13:11:43 | 47.94078 | 17.09234 | 357° | 11km/h | 26260m | -54.6m/s | 0°C | 0% | 0hPa | 0V | 00:00:00 | 00:00:00 | 00:00:00 | |
| ATIDSZ-14 | 2026-09-04 13:11:39 | 47.94067 | 17.09230 | 42° | 13km/h | 26494m | -64.8m/s | 0°C | 0% | 0hPa | 0V | 00:00:00 | 00:00:00 | 00:00:00 | |
| PG1ADW-2 | 2026-09-04 13:11:37 | 47.94062 | 17.09226 | 33° | 13km/h | 26631m | -69.3m/s | 0°C | 0% | 0hPa | 0V | 00:00:00 | 00:00:00 | 00:00:00 | |
| OE5MMP-10 | 2026-09-04 13:11:33 | 47.94055 | 17.09212 | 78° | 7km/h | 26898m | -60.7m/s | 0°C | 0% | 0hPa | 0V | 00:00:00 | 00:00:00 | 00:00:00 | |
| PETON7-10 | 2026-09-04 13:11:32 | 47.94054 | 17.09209 | 78° | 7km/h | 26958m | -58.1m/s | 0°C | 0% | 0hPa | 0V | 00:00:00 | 00:00:00 | 00:00:00 | |
| OE3OSB-13 | 2026-09-04 13:11:29 | 47.94052 | 17.09199 | 74° | 7km/h | 27191m | -62.0m/s | -46.0°C | 0.0% | 14.6hPa | 0V | 00:00:00 | 00:00:00 | 00:00:00 | |
| OE5MMP-10 | 2026-09-04 13:11:23 | 47.94052 | 17.09190 | 130° | 9km/h | 27547m | -74.0m/s | 0°C | 0% | 0hPa | 0V | 00:00:00 | 00:00:00 | 00:00:00 | |
| OE3JTB-15 | 2026-09-04 13:11:19 | 47.94051 | 17.09182 | 47° | 18km/h | 27826m | -65.3m/s | 0°C | 0% | 0hPa | 0V | 00:00:00 | 00:00:00 | 00:00:00 | |
| PETON7-10 | 2026-09-04 13:11:15 | 47.94046 | 17.09166 | 80° | 16km/h | 28085m | -66.5m/s | 0°C | 0% | 0hPa | 0V | 00:00:00 | 00:00:00 | 00:00:00 | |
| OE5MMP-10 | 2026-09-04 13:11:13 | 47.94045 | 17.09158 | 103° | 20km/h | 28220m | -65.9m/s | 0°C | 0% | 0hPa | 0V | 00:00:00 | 00:00:00 | 00:00:00 | |
| PETON7-10 | 2026-09-04 13:11:00 | 47.94043 | 17.09068 | 82° | 24km/h | 29037m | -68.6m/s | 0°C | 0% | 0hPa | 0V | 00:00:00 | 00:00:00 | 00:00:00 | |
| OE3OSB-13 | 2026-09-04 13:10:58 | 47.94026 | 17.09001 | 65° | 31km/h | 29430m | -62.5m/s | -41.0°C | 0.0% | 9.1hPa | 0V | 00:00:00 | 00:00:00 | 00:00:00 | |
| OE3JTB-15 | 2026-09-04 13:10:50 | 47.94014 | 17.08960 | 64° | 22km/h | 29696m | -67.8m/s | 0°C | 0% | 0hPa | 0V | 00:00:00 | 00:00:00 | 00:00:00 | |
| OE5MMP-10 | 2026-09-04 13:10:46 | 47.94003 | 17.08932 | 54° | 22km/h | 29972m | -70.4m/s | 0°C | 0% | 0hPa | 0V | 00:00:00 | 00:00:00 | 00:00:00 | |
| PETON7-10 | 2026-09-04 13:10:45 | 47.94000 | 17.08926 | 58° | 20km/h | 30043m | -70.3m/s | 0°C | 0% | 0hPa | 0V | 00:00:00 | 00:00:00 | 00:00:00 | |
| ATIDSZ-14 | 2026-09-04 13:10:37 | 47.93969 | 17.08881 | 52° | 22km/h | 30615m | -72.8m/s | 0°C | 0% | 0hPa | 0V | 00:00:00 | 00:00:00 | 00:00:00 | |
| OE5MMP-10 | 2026-09-04 13:10:36 | 47.93966 | 17.08874 | 66° | 20km/h | 30688m | -71.9m/s | 0°C | 0% | 0hPa | 0V | 00:00:00 | 00:00:00 | 00:00:00 | |
| OE5DXL-15 | 2026-09-04 13:10:32 | 47.93956 | 17.08843 | 71° | 22km/h | 30990m | -77.4m/s | 0°C | 0% | 0hPa | 0V | 00:00:00 | 00:00:00 | 00:00:00 | |
| OK1ALN | 2026-09-04 13:10:30 | 47.93954 | 17.08829 | 75° | 16km/h | 31141m | -72.8m/s | 0°C | 0% | 0hPa | 0V | 00:00:00 | 00:00:00 | 00:00:00 | |
| OE5MMP-10 | 2026-09-04 13:10:25 | 47.93947 | 17.08801 | 77° | 22km/h | 31493m | -69.9m/s | 0°C | 0% | 0hPa | 0V | 00:00:00 | 00:00:00 | 00:00:00 | |
| OE3JTB-15 | 2026-09-04 13:10:21 | 47.93944 | 17.08772 | 88° | 24km/h | 31775m | -71.0m/s | 0°C | 0% | 0hPa | 0V | 00:00:00 | 00:00:00 | 00:00:00 | |
| ATIDSZ-14 | 2026-09-04 13:10:16 | 47.93947 | 17.08732 | 106° | 20km/h | 32120m | -63.7m/s | 0°C | 0% | 0hPa | 0V | 00:00:00 | 00:00:00 | 00:00:00 | |
| OE5MMP-10 | 2026-09-04 13:10:15 | 47.93947 | 17.08725 | 87° | 22km/h | 32182m | -59.4m/s | 0°C | 0% | 0hPa | 0V | 00:00:00 | 00:00:00 | 00:00:00 | |
| PETON7-10 | 2026-09-04 13:10:09 | 47.93958 | 17.08682 | 129° | 33km/h | 32428m | -22.9m/s | 0°C | 0% | 0hPa | 0V | 00:00:00 | 00:00:00 | 00:00:00 | |
| OK1ALN | 2026-09-04 13:10:04 | 47.93987 | 17.08626 | 133° | 29km/h | 32458m | 9.3m/s | 0°C | 0% | 0hPa | 0V | 00:00:00 | 00:00:00 | 00:00:00 | |
| OE5DXL-15 | 2026-09-04 13:10:02 | 47.93988 | 17.08622 | 1° | 31km/h | 32442m | 6.1m/s | 0°C | 0% | 0hPa | 0V | 00:00:00 | 00:00:00 | 00:00:00 | |
| OE5MMP-10 | 2026-09-04 13:10:00 | 47.93979 | 17.08618 | 41° | 29km/h | 32428m | 10.0m/s | 0°C | 0% | 0hPa | 0V | 00:00:00 | 00:00:00 | 00:00:00 | |
| OE3OSB-13 | 2026-09-04 13:09:55 | 47.93989 | 17.08559 | 135° | 20km/h | 32384m | 4.1m/s | -39.1°C | 0.1% | 4.3hPa | 0V | 00:00:00 | 00:00:00 | 00:00:00 | |
| ATIDSZ-14 | 2026-09-04 13:09:53 | 47.93992 | 17.08552 | 118° | 26km/h | 32380m | 4.6m/s | 0°C | 0% | 0hPa | 0V | 00:00:00 | 00:00:00 | 00:00:00 | |
| OE3JTB-15 | 2026-09-04 13:09:50 | 47.93989 | 17.08517 | 64° | 31km/h | 32358m | 6.2m/s | 0°C | 0% | 0hPa | 0V | 00:00:00 | 00:00:00 | 00:00:00 | |
| OK1ALN | 2026-09-04 13:09:44 | 47.93989 | 17.08462 | 121° | 40km/h | 32316m | 8.0m/s | 0°C | 0% | 0hPa | 0V | 00:00:00 | 00:00:00 | 00:00:00 | |
| OE5MMP-10 | 2026-09-04 13:09:40 | 47.93993 | 17.08408 | 60° | 35km/h | 32290m | 10.1m/s | 0°C | 0% | 0hPa | 0V | 00:00:00 | 00:00:00 | 00:00:00 | |
| ATIDSZ-14 | 2026-09-04 13:09:33 | 47.93980 | 17.08322 | 85° | 38km/h | 32244m | 8.6m/s | 0°C | 0% | 0hPa | 0V | 00:00:00 | 00:00:00 | 00:00:00 | |
| OE5DXL-15 | 2026-09-04 13:09:32 | 47.93977 | 17.08310 | 67° | 24km/h | 32236m | 9.0m/s | 0°C | 0% | 0hPa | 0V | 00:00:00 | 00:00:00 | 00:00:00 | |
| OE5MMP-10 | 2026-09-04 13:09:28 | 47.93959 | 17.08271 | 73° | 27km/h | 32206m | 7.0m/s | 0°C | 0% | 0hPa | 0V | 00:00:00 | 00:00:00 | 00:00:00 | |
| OE3OSB-13 | 2026-09-04 13:09:24 | 47.93958 | 17.08233 | 74° | 7km/h | 32172m | 4.5m/s | -38.8°C | 0.1% | 4.6hPa | 0V | 00:00:00 | 00:00:00 | 00:00:00 | |
| OK1ALN | 2026-09-04 13:09:22 | 47.93956 | 17.08229 | 57° | 18km/h | 32167m | 5.2m/s | 0°C | 0% | 0hPa | 0V | 00:00:00 | 00:00:00 | 00:00:00 | |
| OE3JTB-15 | 2026-09-04 13:09:19 | 47.93945 | 17.08191 | 68° | 22km/h | 32144m | 4.5m/s | 0°C | 0% | 0hPa | 0V | 00:00:00 | 00:00:00 | 00:00:00 | |
| OE5MMP-10 | 2026-09-04 13:09:14 | 47.93929 | 17.08151 | 298° | 22km/h | 32110m | 6.3m/s | 0°C | 0% | 0hPa | 0V | 00:00:00 | 00:00:00 | 00:00:00 | |
| ATIDSZ-14 | 2026-09-04 13:09:12 | 47.93929 | 17.08146 | 92° | 18km/h | 32096m | 7.5m/s | 0°C | 0% | 0hPa | 0V | 00:00:00 | 00:00:00 | 00:00:00 | |
| OE5MMP-10 | 2026-09-04 13:09:04 | 47.93902 | 17.08076 | 86° | 18km/h | 32043m | 8.9m/s | 0°C | 0% | 0hPa | 0V | 00:00:00 | 00:00:00 | 00:00:00 | |
| OE5DXL-15 | 2026-09-04 13:09:02 | 47.93902 | 17.08060 | 91° | 24km/h | 32031m | 5.3m/s | 0°C | 0% | 0hPa | 0V | 00:00:00 | 00:00:00 | 00:00:00 | |
| OK1ALN | 2026-09-04 13:09:00 | 47.93899 | 17.08054 | 9° | 9km/h | 32015m | 7.9m/s | 0°C | 0% | 0hPa | 0V | 00:00:00 | 00:00:00 | 00:00:00 | |
| OE3OSB-13 | 2026-09-04 13:08:53 | 47.93864 | 17.08010 | 340° | 15km/h | 31960m | 10.3m/s | -38.9°C | 0.1% | 4.9hPa | 0V | 00:00:00 | 00:00:00 | 00:00:00 | |
| ATIDSZ-14 | 2026-09-04 13:08:52 | 47.93864 | 17.08010 | 342° | 16km/h | 31960m | 10.3m/s | 0°C | 0% | 0hPa | 0V | 00:00:00 | 00:00:00 | 00:00:00 | |
| OE3JTB-15 | 2026-09-04 13:08:47 | 47.93846 | 17.08015 | 59° | 26km/h | 31923m | 6.2m/s | 0°C | 0% | 0hPa | 0V | 00:00:00 | 00:00:00 | 00:00:00 | |
| OE5MMP-10 | 2026-09-04 13:08:42 | 47.93816 | 17.07986 | 27° | 20km/h | 31890m | 5.8m/s | 0°C | 0% | 0hPa | 0V | 00:00:00 | 00:00:00 | 00:00:00 | |
| OK1ALN | 2026-09-04 13:08:40 | 47.93808 | 17.07975 | 68° | 20km/h | 31876m | 6.9m/s | 0°C | 0% | 0hPa | 0V | 00:00:00 | 00:00:00 | 00:00:00 | |
| OE5DXL-15 | 2026-09-04 13:08:32 | 47.93778 | 17.07960 | 103° | 22km/h | 31820m | 7.9m/s | 0°C | 0% | 0hPa | 0V | 00:00:00 | 00:00:00 | 00:00:00 | |
| ATIDSZ-14 | 2026-09-04 13:08:27 | 47.93756 | 17.07932 | 326° | 38km/h | 31784m | 6.2m/s | 0°C | 0% | 0hPa | 0V | 00:00:00 | 00:00:00 | 00:00:00 | |
| OE5MMP-10 | 2026-09-04 13:08:22 | 47.93746 | 17.07929 | 70° | 20km/h | 31753m | 9.1m/s | 0°C | 0% | 0hPa | 0V | 00:00:00 | 00:00:00 | 00:00:00 | |
| OK1ALN | 2026-09-04 13:08:19 | 47.93725 | 17.07897 | 15° | 31km/h | 31737m | 5.8m/s | 0°C | 0% | 0hPa | 0V | 00:00:00 | 00:00:00 | 00:00:00 | |
| OE3JTB-15 | 2026-09-04 13:08:15 | 47.93720 | 17.07906 | 184° | 18km/h | 31706m | 4.8m/s | 0°C | 0% | 0hPa | 0V | 00:00:00 | 00:00:00 | 00:00:00 | |
| OE5MMP-10 | 2026-09-04 13:08:11 | 47.93706 | 17.07892 | 36° | 16km/h | 31675m | 6.0m/s | 0°C | 0% | 0hPa | 0V | 00:00:00 | 00:00:00 | 00:00:00 | |
| ATIDSZ-14 | 2026-09-04 13:08:06 | 47.93702 | 17.07866 | 239° | 2km/h | 31639m | 7.9m/s | 0°C | 0% | 0hPa | 0V | 00:00:00 | 00:00:00 | 00:00:00 | |
| OE5DXL-15 | 2026-09-04 13:08:02 | 47.93696 | 17.07869 | 68° | 22km/h | 31612m | 7.9m/s | 0°C | 0% | 0hPa | 0V | 00:00:00 | 00:00:00 | 00:00:00 | |
| OE3OSB-13 | 2026-09-04 13:07:51 | 47.93705 | 17.07803 | 73° | 15km/h | 31526m | 8.7m/s | -38.9°C | 0.2% | 5.5hPa | 0V | 00:00:00 | 00:00:00 | 00:00:00 | |
| OE5MMP-10 | 2026-09-04 13:07:46 | 47.93696 | 17.07767 | 99° | 26km/h | 31497m | 5.7m/s | 0°C | 0% | 0hPa | 0V | 00:00:00 | 00:00:00 | 00:00:00 | |
| ATIDSZ-14 | 2026-09-04 13:07:43 | 47.93706 | 17.07743 | 169° | 18km/h | 31477m | 9.7m/s | 0°C | 0% | 0hPa | 0V | 00:00:00 | 00:00:00 | 00:00:00 | |
| OK1ALN | 2026-09-04 13:07:36 | 47.93706 | 17.07688 | 75° | 40km/h | 31425m | 6.8m/s | 0°C | 0% | 0hPa | 0V | 00:00:00 | 00:00:00 | 00:00:00 | |
| OE5MMP-10 | 2026-09-04 13:07:35 | 47.93703 | 17.07676 | 72° | 24km/h | 31419m | 6.5m/s | 0°C | 0% | 0hPa | 0V | 00:00:00 | 00:00:00 | 00:00:00 | |
| OE5DXL-15 | 2026-09-04 13:07:32 | 47.93703 | 17.07656 | 144° | 27km/h | 31401m | 8.3m/s | 0°C | 0% | 0hPa | 0V | 00:00:00 | 00:00:00 | 00:00:00 | |
| PG1ADW-2 | 2026-09-04 13:07:30 | 47.93714 | 17.07647 | 154° | 29km/h | 31389m | 6.2m/s | 0°C | 0% | 0hPa | 0V | 00:00:00 | 00:00:00 | 00:00:00 | |
| OE5MMP-10 | 2026-09-04 13:07:24 | 47.93705 | 17.07597 | 81° | 26km/h | 31343m | 7.5m/s | 0°C | 0% | 0hPa | 0V | 00:00:00 | 00:00:00 | 00:00:00 | |
| OE3OSB-13 | 2026-09-04 13:07:21 | 47.93715 | 17.07561 | 352° | 7km/h | 31307m | 3.5m/s | -38.9°C | 0.2% | 5.8hPa | 0V | 00:00:00 | 00:00:00 | 00:00:00 | |
| OE3JTB-15 | 2026-09-04 13:07:17 | 47.93710 | 17.07552 | 70° | 35km/h | 31298m | 7.9m/s | 0°C | 0% | 0hPa | 0V | 00:00:00 | 00:00:00 | 00:00:00 | |
| OK1ALN | 2026-09-04 13:07:15 | 47.93708 | 17.07525 | 98° | 53km/h | 31279m | 5.9m/s | 0°C | 0% | 0hPa | 0V | 00:00:00 | 00:00:00 | 00:00:00 | |
| OE5MMP-10 | 2026-09-04 13:07:14 | 47.93709 | 17.07505 | 95° | 42km/h | 31275m | 4.4m/s | 0°C | 0% | 0hPa | 0V | 00:00:00 | 00:00:00 | 00:00:00 | |
| OE5DXL-15 | 2026-09-04 13:07:02 | 47.93691 | 17.07363 | 60° | 35km/h | 31191m | 4.7m/s | 0°C | 0% | 0hPa | 0V | 00:00:00 | 00:00:00 | 00:00:00 | |
| ATIDSZ-14 | 2026-09-04 13:07:01 | 47.93687 | 17.07352 | 75° | 31km/h | 31186m | 5.8m/s | 0°C | 0% | 0hPa | 0V | 00:00:00 | 00:00:00 | 00:00:00 | |
| OE3OSB-13 | 2026-09-04 13:06:49 | 47.93651 | 17.07196 | 25° | 20km/h | 31099m | 8.1m/s | -38.4°C | 0.2% | 6.2hPa | 0V | 00:00:00 | 00:00:00 | 00:00:00 | |
| OE3JTB-15 | 2026-09-04 13:06:48 | 47.93651 | 17.07196 | 26° | 37km/h | 31099m | 8.1m/s | 0°C | 0% | 0hPa | 0V | 00:00:00 | 00:00:00 | 00:00:00 | |
| OE5MMP-10 | 2026-09-04 13:06:41 | 47.93629 | 17.07114 | 52° | 33km/h | 31052m | 9.3m/s | 0°C | 0% | 0hPa | 0V | 00:00:00 | 00:00:00 | 00:00:00 | |
| ATIDSZ-14 | 2026-09-04 13:06:38 | 47.93610 | 17.07086 | 66° | 24km/h | 31031m | 8.2m/s | 0°C | 0% | 0hPa | 0V | 00:00:00 | 00:00:00 | 00:00:00 | |
| PETON7-10 | 2026-09-04 13:06:37 | 47.93608 | 17.07077 | 85° | 26km/h | 31023m | 7.8m/s | 0°C | 0% | 0hPa | 0V | 00:00:00 | 00:00:00 | 00:00:00 | |
| OE5DXL-15 | 2026-09-04 13:06:32 | 47.93592 | 17.07027 | 36° | 31km/h | 30991m | 5.3m/s | 0°C | 0% | 0hPa | 0V | 00:00:00 | 00:00:00 | 00:00:00 | |
| OE5MMP-10 | 2026-09-04 13:06:31 | 47.93587 | 17.07020 | 62° | 33km/h | 30986m | 5.0m/s | 0°C | 0% | 0hPa | 0V | 00:00:00 | 00:00:00 | 00:00:00 | |
| OE5MMP-10 | 2026-09-04 13:06:21 | 47.93553 | 17.06918 | 82° | 29km/h | 30920m | 5.8m/s | 0°C | 0% | 0hPa | 0V | 00:00:00 | 00:00:00 | 00:00:00 | |
| OE3JTB-15 | 2026-09-04 13:06:19 | 47.93547 | 17.06886 | 62° | 33km/h | 30906m | 7.2m/s | 0°C | 0% | 0hPa | 0V | 00:00:00 | 00:00:00 | 00:00:00 | |
| OE3OSB-13 | 2026-09-04 13:06:18 | 47.93531 | 17.06860 | 39° | 42km/h | 30893m | 5.4m/s | -40.2°C | 0.1% | 6.5hPa | 0V | 00:00:00 | 00:00:00 | 00:00:00 | |
| ATIDSZ-14 | 2026-09-04 13:06:17 | 47.93531 | 17.06860 | 40° | 42km/h | 30893m | 5.4m/s | 0°C | 0% | 0hPa | 0V | 00:00:00 | 00:00:00 | 00:00:00 | |
| PETON7-10 | 2026-09-04 13:06:16 | 47.93523 | 17.06851 | 37° | 31km/h | 30888m | 6.2m/s | 0°C | 0% | 0hPa | 0V | 00:00:00 | 00:00:00 | 00:00:00 | |
| OE5MMP-10 | 2026-09-04 13:06:10 | 47.93505 | 17.06798 | 49° | 31km/h | 30847m | 6.8m/s | 0°C | 0% | 0hPa | 0V | 00:00:00 | 00:00:00 | 00:00:00 | |
| OE5DXL-15 | 2026-09-04 13:06:02 | 47.93462 | 17.06734 | 14° | 29km/h | 30792m | 5.8m/s | 0°C | 0% | 0hPa | 0V | 00:00:00 | 00:00:00 | 00:00:00 | |
| PETON7-10 | 2026-09-04 13:06:01 | 47.93456 | 17.06730 | 26° | 33km/h | 30786m | 7.8m/s | 0°C | 0% | 0hPa | 0V | 00:00:00 | 00:00:00 | 00:00:00 | |
| OE3OSB-13 | 2026-09-04 13:05:47 | 47.93354 | 17.06633 | 46° | 33km/h | 30682m | 4.5m/s | -40.5°C | 0.1% | 6.8hPa | 0V | 00:00:00 | 00:00:00 | 00:00:00 | |
| PETON7-10 | 2026-09-04 13:05:46 | 47.93354 | 17.06633 | 47° | 27km/h | 30683m | 4.5m/s | 0°C | 0% | 0hPa | 0V | 00:00:00 | 00:00:00 | 00:00:00 | |
| OE5MMP-10 | 2026-09-04 13:05:38 | 47.93315 | 17.06602 | 70° | 20km/h | 30628m | 5.0m/s | 0°C | 0% | 0hPa | 0V | 00:00:00 | 00:00:00 | 00:00:00 | |
| ATIDSZ-14 | 2026-09-04 13:05:35 | 47.93304 | 17.06586 | 37° | 37km/h | 30608m | 7.3m/s | 0°C | 0% | 0hPa | 0V | 00:00:00 | 00:00:00 | 00:00:00 | |
| PETON7-10 | 2026-09-04 13:05:31 | 47.93278 | 17.06560 | 30° | 16km/h | 30583m | 7.0m/s | 0°C | 0% | 0hPa | 0V | 00:00:00 | 00:00:00 | 00:00:00 | |
| OE5DXL-15 | 2026-09-04 13:05:30 | 47.93277 | 17.06560 | 278° | 16km/h | 30576m | 6.9m/s | 0°C | 0% | 0hPa | 0V | 00:00:00 | 00:00:00 | 00:00:00 | |
| OE5MMP-10 | 2026-09-04 13:05:28 | 47.93276 | 17.06565 | 319° | 18km/h | 30561m | 6.5m/s | 0°C | 0% | 0hPa | 0V | 00:00:00 | 00:00:00 | 00:00:00 | |
| OE3JTB-15 | 2026-09-04 13:05:21 | 47.93247 | 17.06545 | 23° | 18km/h | 30519m | 10.4m/s | 0°C | 0% | 0hPa | 0V | 00:00:00 | 00:00:00 | 00:00:00 | |
| OE5MMP-10 | 2026-09-04 13:05:18 | 47.93239 | 17.06542 | 213° | 22km/h | 30503m | 10.3m/s | 0°C | 0% | 0hPa | 0V | 00:00:00 | 00:00:00 | 00:00:00 | |
| ATIDSZ-14 | 2026-09-04 13:05:15 | 47.93248 | 17.06545 | 183° | 5km/h | 30482m | 4.3m/s | 0°C | 0% | 0hPa | 0V | 00:00:00 | 00:00:00 | 00:00:00 | |
| PETON7-10 | 2026-09-04 13:05:12 | 47.93236 | 17.06537 | 29° | 20km/h | 30458m | 4.8m/s | 0°C | 0% | 0hPa | 0V | 00:00:00 | 00:00:00 | 00:00:00 | |
| OE5MMP-10 | 2026-09-04 13:05:08 | 47.93220 | 17.06516 | 227° | 15km/h | 30435m | 5.6m/s | 0°C | 0% | 0hPa | 0V | 00:00:00 | 00:00:00 | 00:00:00 | |
| OE5DXL-15 | 2026-09-04 13:05:00 | 47.93210 | 17.06487 | 4° | 20km/h | 30382m | 9.3m/s | 0°C | 0% | 0hPa | 0V | 00:00:00 | 00:00:00 | 00:00:00 | |
| OE3OSB-13 | 2026-09-04 13:04:45 | 47.93150 | 17.06453 | 96° | 7km/h | 30272m | 10.3m/s | -40.6°C | 0.2% | 7.6hPa | 0V | 00:00:00 | 00:00:00 | 00:00:00 | |
| PETON7-10 | 2026-09-04 13:04:42 | 47.93152 | 17.06443 | 110° | 22km/h | 30258m | 6.2m/s | 0°C | 0% | 0hPa | 0V | 00:00:00 | 00:00:00 | 00:00:00 | |
| ATIDSZ-14 | 2026-09-04 13:04:32 | 47.93129 | 17.06416 | 193° | 20km/h | 30190m | 6.7m/s | 0°C | 0% | 0hPa | 0V | 00:00:00 | 00:00:00 | 00:00:00 | |
| OE5DXL-15 | 2026-09-04 13:04:30 | 47.93139 | 17.06415 | 153° | 20km/h | 30177m | 7.6m/s | 0°C | 0% | 0hPa | 0V | 00:00:00 | 00:00:00 | 00:00:00 | |
| OE5MMP-10 | 2026-09-04 13:04:28 | 47.93141 | 17.06405 | 65° | 16km/h | 30163m | 7.1m/s | 0°C | 0% | 0hPa | 0V | 00:00:00 | 00:00:00 | 00:00:00 | |
| PETON7-10 | 2026-09-04 13:04:25 | 47.93126 | 17.06396 | 359° | 22km/h | 30141m | 4.5m/s | 0°C | 0% | 0hPa | 0V | 00:00:00 | 00:00:00 | 00:00:00 | |
| OE3JTB-15 | 2026-09-04 13:04:23 | 47.93119 | 17.06394 | 33° | 20km/h | 30130m | 8.3m/s | 0°C | 0% | 0hPa | 0V | 00:00:00 | 00:00:00 | 00:00:00 | |
| OE5MMP-10 | 2026-09-04 13:04:17 | 47.93130 | 17.06391 | 350° | 22km/h | 30092m | 4.3m/s | 0°C | 0% | 0hPa | 0V | 00:00:00 | 00:00:00 | 00:00:00 | |
| OE3OSB-13 | 2026-09-04 13:04:14 | 47.93119 | 17.06362 | 120° | 26km/h | 30068m | 5.3m/s | -41.3°C | 0.2% | 7.9hPa | 0V | 00:00:00 | 00:00:00 | 00:00:00 | |
| PETON7-10 | 2026-09-04 13:04:10 | 47.93130 | 17.06356 | 258° | 18km/h | 30046m | 6.4m/s | 0°C | 0% | 0hPa | 0V | 00:00:00 | 00:00:00 | 00:00:00 | |
| ATIDSZ-14 | 2026-09-04 13:04:09 | 47.93129 | 17.06360 | 321° | 13km/h | 30040m | 5.6m/s | 0°C | 0% | 0hPa | 0V | 00:00:00 | 00:00:00 | 00:00:00 | |
| OE5MMP-10 | 2026-09-04 13:04:07 | 47.93123 | 17.06357 | 47° | 16km/h | 30025m | 8.1m/s | 0°C | 0% | 0hPa | 0V | 00:00:00 | 00:00:00 | 00:00:00 | |
| OK1ALN | 2026-09-04 13:04:02 | 47.93123 | 17.06309 | 81° | 20km/h | 29992m | 6.4m/s | 0°C | 0% | 0hPa | 0V | 00:00:00 | 00:00:00 | 00:00:00 | |
| OE5DXL-15 | 2026-09-04 13:04:00 | 47.93119 | 17.06295 | 74° | 31km/h | 29976m | 8.1m/s | 0°C | 0% | 0hPa | 0V | 00:00:00 | 00:00:00 | 00:00:00 | |
| OE3OSB-13 | 2026-09-04 13:03:43 | 47.93100 | 17.06148 | 75° | 35km/h | 29856m | 9.5m/s | -41.2°C | 0.1% | 8.3hPa | 0V | 00:00:00 | 00:00:00 | 00:00:00 | |
| OE5MMP-10 | 2026-09-04 13:03:42 | 47.93100 | 17.06148 | 76° | 37km/h | 29856m | 9.5m/s | 0°C | 0% | 0hPa | 0V | 00:00:00 | 00:00:00 | 00:00:00 | |
| PETON7-10 | 2026-09-04 13:03:41 | 47.93092 | 17.06116 | 69° | 38km/h | 29842m | 5.3m/s | 0°C | 0% | 0hPa | 0V | 00:00:00 | 00:00:00 | 00:00:00 | |
| OE5MMP-10 | 2026-09-04 13:03:31 | 47.93066 | 17.06010 | 71° | 40km/h | 29780m | 7.5m/s | 0°C | 0% | 0hPa | 0V | 00:00:00 | 00:00:00 | 00:00:00 | |
| OE5DXL-15 | 2026-09-04 13:03:30 | 47.93063 | 17.05990 | 81° | 40km/h | 29774m | 4.4m/s | 0°C | 0% | 0hPa | 0V | 00:00:00 | 00:00:00 | 00:00:00 | |
| ATIDSZ-14 | 2026-09-04 13:03:26 | 47.93055 | 17.05943 | 49° | 26km/h | 29748m | 5.8m/s | 0°C | 0% | 0hPa | 0V | 00:00:00 | 00:00:00 | 00:00:00 | |
| PETON7-10 | 2026-09-04 13:03:25 | 47.93049 | 17.05935 | 44° | 46km/h | 29743m | 3.6m/s | 0°C | 0% | 0hPa | 0V | 00:00:00 | 00:00:00 | 00:00:00 | |
| OE5MMP-10 | 2026-09-04 13:03:21 | 47.93030 | 17.05872 | 67° | 44km/h | 29717m | 6.6m/s | 0°C | 0% | 0hPa | 0V | 00:00:00 | 00:00:00 | 00:00:00 | |
| OE3OSB-13 | 2026-09-04 13:03:12 | 47.92967 | 17.05724 | 54° | 42km/h | 29643m | 9.9m/s | -42.0°C | 0.1% | 8.8hPa | 0V | 00:00:00 | 00:00:00 | 00:00:00 | |
| PETON7-10 | 2026-09-04 13:03:10 | 47.92967 | 17.05724 | 55° | 37km/h | 29643m | 9.8m/s | 0°C | 0% | 0hPa | 0V | 00:00:00 | 00:00:00 | 00:00:00 | |
| ATIDSZ-14 | 2026-09-04 13:03:05 | 47.92943 | 17.05644 | 59° | 22km/h | 29608m | 7.3m/s | 0°C | 0% | 0hPa | 0V | 00:00:00 | 00:00:00 | 00:00:00 | |
| OE5MMP-10 | 2026-09-04 13:03:00 | 47.92925 | 17.05608 | 53° | 29km/h | 29576m | 7.5m/s | 0°C | 0% | 0hPa | 0V | 00:00:00 | 00:00:00 | 00:00:00 | |
| OK1ALN | 2026-09-04 13:02:59 | 47.92919 | 17.05598 | 46° | 38km/h | 29569m | 8.0m/s | 0°C | 0% | 0hPa | 0V | 00:00:00 | 00:00:00 | 00:00:00 | |
| OE3JTB-15 | 2026-09-04 13:02:56 | 47.92898 | 17.05568 | 58° | 26km/h | 29550m | 6.8m/s | 0°C | 0% | 0hPa | 0V | 00:00:00 | 00:00:00 | 00:00:00 | |
| PETON7-10 | 2026-09-04 13:02:54 | 47.92893 | 17.05543 | 91° | 31km/h | 29534m | 4.8m/s | 0°C | 0% | 0hPa | 0V | 00:00:00 | 00:00:00 | 00:00:00 | |
| OE5MMP-10 | 2026-09-04 13:02:50 | 47.92884 | 17.05521 | 13° | 26km/h | 29508m | 5.5m/s | 0°C | 0% | 0hPa | 0V | 00:00:00 | 00:00:00 | 00:00:00 | |
| ATIDSZ-14 | 2026-09-04 13:02:44 | 47.92871 | 17.05465 | 113° | 15km/h | 29476m | 5.4m/s | 0°C | 0% | 0hPa | 0V | 00:00:00 | 00:00:00 | 00:00:00 | |
| OE3OSB-13 | 2026-09-04 13:02:41 | 47.92851 | 17.05453 | 27° | 46km/h | 29450m | 6.5m/s | -42.3°C | 0.0% | 9.2hPa | 0V | 00:00:00 | 00:00:00 | 00:00:00 | |
| OE5MMP-10 | 2026-09-04 13:02:40 | 47.92850 | 17.05452 | 28° | 22km/h | 29450m | 6.5m/s | 0°C | 0% | 0hPa | 0V | 00:00:00 | 00:00:00 | 00:00:00 | |
| PETON7-10 | 2026-09-04 13:02:39 | 47.92842 | 17.05443 | 49° | 24km/h | 29445m | 4.3m/s | 0°C | 0% | 0hPa | 0V | 00:00:00 | 00:00:00 | 00:00:00 | |
| OE5MMP-10 | 2026-09-04 13:02:30 | 47.92828 | 17.05399 | 36° | 20km/h | 29389m | 5.9m/s | 0°C | 0% | 0hPa | 0V | 00:00:00 | 00:00:00 | 00:00:00 | |
| PETON7-10 | 2026-09-04 13:02:24 | 47.92805 | 17.05360 | 132° | 20km/h | 29348m | 7.6m/s | 0°C | 0% | 0hPa | 0V | 00:00:00 | 00:00:00 | 00:00:00 | |
| ATIDSZ-14 | 2026-09-04 13:02:21 | 47.92809 | 17.05351 | 73° | 11km/h | 29328m | 6.2m/s | 0°C | 0% | 0hPa | 0V | 00:00:00 | 00:00:00 | 00:00:00 | |
| OE5MMP-10 | 2026-09-04 13:02:20 | 47.92807 | 17.05345 | 62° | 24km/h | 29321m | 8.7m/s | 0°C | 0% | 0hPa | 0V | 00:00:00 | 00:00:00 | 00:00:00 | |
| OK1ALN | 2026-09-04 13:02:19 | 47.92803 | 17.05336 | 60° | 37km/h | 29313m | 6.2m/s | 0°C | 0% | 0hPa | 0V | 00:00:00 | 00:00:00 | 00:00:00 | |
| OE3OSB-13 | 2026-09-04 13:02:10 | 47.92785 | 17.05275 | 69° | 38km/h | 29254m | 5.4m/s | -43.5°C | 0.0% | 9.6hPa | 0V | 00:00:00 | 00:00:00 | 00:00:00 | |
| OE5MMP-10 | 2026-09-04 13:02:09 | 47.92785 | 17.05275 | 70° | 22km/h | 29255m | 5.4m/s | 0°C | 0% | 0hPa | 0V | 00:00:00 | 00:00:00 | 00:00:00 | |
| OE5DXL-15 | 2026-09-04 13:02:00 | 47.92780 | 17.05231 | 148° | 20km/h | 29192m | 5.4m/s | 0°C | 0% | 0hPa | 0V | 00:00:00 | 00:00:00 | 00:00:00 | |
| OE5MMP-10 | 2026-09-04 13:01:59 | 47.92781 | 17.05227 | 74° | 22km/h | 29187m | 5.5m/s | 0°C | 0% | 0hPa | 0V | 00:00:00 | 00:00:00 | 00:00:00 | |
| OK1ALN | 2026-09-04 13:01:58 | 47.92779 | 17.05219 | 71° | 29km/h | 29179m | 8.9m/s | 0°C | 0% | 0hPa | 0V | 00:00:00 | 00:00:00 | 00:00:00 | |
| PETON7-10 | 2026-09-04 13:01:54 | 47.92765 | 17.05181 | 25° | 16km/h | 29158m | 8.1m/s | 0°C | 0% | 0hPa | 0V | 00:00:00 | 00:00:00 | 00:00:00 | |
| OE5MMP-10 | 2026-09-04 13:01:49 | 47.92780 | 17.05183 | 131° | 15km/h | 29128m | 5.7m/s | 0°C | 0% | 0hPa | 0V | 00:00:00 | 00:00:00 | 00:00:00 | |
| PETON7-10 | 2026-09-04 13:01:40 | 47.92772 | 17.05140 | 73° | 20km/h | 29068m | 7.9m/s | 0°C | 0% | 0hPa | 0V | 00:00:00 | 00:00:00 | 00:00:00 | |
| OE3OSB-13 | 2026-09-04 13:01:39 | 47.92771 | 17.05137 | 71° | 11km/h | 29062m | 5.7m/s | -44.5°C | 0.0% | 10.0hPa | 0V | 00:00:00 | 00:00:00 | 00:00:00 | |
| OE5MMP-10 | 2026-09-04 13:01:38 | 47.92771 | 17.05136 | 72° | 18km/h | 29062m | 5.7m/s | 0°C | 0% | 0hPa | 0V | 00:00:00 | 00:00:00 | 00:00:00 | |
| OK1ALN | 2026-09-04 13:01:37 | 47.92770 | 17.05130 | 75° | 22km/h | 29056m | 4.9m/s | 0°C | 0% | 0hPa | 0V | 00:00:00 | 00:00:00 | 00:00:00 | |
| OE5DXL-15 | 2026-09-04 13:01:30 | 47.92760 | 17.05088 | 299° | 18km/h | 29012m | 4.0m/s | 0°C | 0% | 0hPa | 0V | 00:00:00 | 00:00:00 | 00:00:00 | |
| OE3JTB-15 | 2026-09-04 13:01:29 | 47.92760 | 17.05090 | 203° | 20km/h | 29007m | 6.6m/s | 0°C | 0% | 0hPa | 0V | 00:00:00 | 00:00:00 | 00:00:00 | |
| OE5MMP-10 | 2026-09-04 13:01:28 | 47.92763 | 17.05089 | 150° | 24km/h | 29000m | 8.5m/s | 0°C | 0% | 0hPa | 0V | 00:00:00 | 00:00:00 | 00:00:00 | |
| PETON7-10 | 2026-09-04 13:01:24 | 47.92765 | 17.05042 | 42° | 18km/h | 28976m | 5.5m/s | 0°C | 0% | 0hPa | 0V | 00:00:00 | 00:00:00 | 00:00:00 | |
| OE5MMP-10 | 2026-09-04 13:01:18 | 47.92755 | 17.05035 | 103° | 16km/h | 28936m | 7.5m/s | 0°C | 0% | 0hPa | 0V | 00:00:00 | 00:00:00 | 00:00:00 | |
| ATIDSZ-14 | 2026-09-04 13:01:17 | 47.92755 | 17.05028 | 81° | 20km/h | 28929m | 5.8m/s | 0°C | 0% | 0hPa | 0V | 00:00:00 | 00:00:00 | 00:00:00 | |
| OK1ALN | 2026-09-04 13:01:16 | 47.92753 | 17.05020 | 72° | 22km/h | 28923m | 5.4m/s | 0°C | 0% | 0hPa | 0V | 00:00:00 | 00:00:00 | 00:00:00 | |
| PETON7-10 | 2026-09-04 13:01:10 | 47.92749 | 17.04983 | 66° | 20km/h | 28879m | 5.7m/s | 0°C | 0% | 0hPa | 0V | 00:00:00 | 00:00:00 | 00:00:00 | |
| OE3OSB-13 | 2026-09-04 13:01:09 | 47.92749 | 17.04974 | 113° | 18km/h | 28865m | 7.6m/s | -44.7°C | 0.1% | 10.4hPa | 0V | 00:00:00 | 00:00:00 | 00:00:00 | |
| OE5DXL-15 | 2026-09-04 13:01:00 | 47.92741 | 17.04919 | 67° | 20km/h | 28817m | 4.9m/s | 0°C | 0% | 0hPa | 0V | 00:00:00 | 00:00:00 | 00:00:00 | |
| OE5MMP-10 | 2026-09-04 13:00:58 | 47.92739 | 17.04903 | 70° | 18km/h | 28805m | 9.1m/s | 0°C | 0% | 0hPa | 0V | 00:00:00 | 00:00:00 | 00:00:00 | |
| ATIDSZ-14 | 2026-09-04 13:00:57 | 47.92737 | 17.04896 | 76° | 20km/h | 28796m | 8.1m/s | 0°C | 0% | 0hPa | 0V | 00:00:00 | 00:00:00 | 00:00:00 | |
| OK1ALN | 2026-09-04 13:00:55 | 47.92731 | 17.04883 | 54° | 20km/h | 28782m | 5.1m/s | 0°C | 0% | 0hPa | 0V | 00:00:00 | 00:00:00 | 00:00:00 | |
| PETON7-10 | 2026-09-04 13:00:54 | 47.92729 | 17.04877 | 67° | 20km/h | 28775m | 7.0m/s | 0°C | 0% | 0hPa | 0V | 00:00:00 | 00:00:00 | 00:00:00 | |
| OE5MMP-10 | 2026-09-04 13:00:46 | 47.92710 | 17.04834 | 69° | 20km/h | 28723m | 6.4m/s | 0°C | 0% | 0hPa | 0V | 00:00:00 | 00:00:00 | 00:00:00 | |
| PETON7-10 | 2026-09-04 13:00:39 | 47.92691 | 17.04793 | 45° | 16km/h | 28674m | 5.4m/s | 0°C | 0% | 0hPa | 0V | 00:00:00 | 00:00:00 | 00:00:00 | |
| ATIDSZ-14 | 2026-09-04 13:00:37 | 47.92683 | 17.04787 | 21° | 20km/h | 28661m | 5.1m/s | 0°C | 0% | 0hPa | 0V | 00:00:00 | 00:00:00 | 00:00:00 | |
| OE3OSB-13 | 2026-09-04 13:00:36 | 47.92672 | 17.04781 | 34° | 24km/h | 28648m | 8.7m/s | -45.6°C | 0.1% | 10.9hPa | 0V | 00:00:00 | 00:00:00 | 00:00:00 | |
| OE5MMP-10 | 2026-09-04 13:00:35 | 47.92672 | 17.04781 | 35° | 15km/h | 28648m | 8.7m/s | 0°C | 0% | 0hPa | 0V | 00:00:00 | 00:00:00 | 00:00:00 | |
| OK1ALN | 2026-09-04 13:00:34 | 47.92668 | 17.04775 | 50° | 24km/h | 28641m | 6.0m/s | 0°C | 0% | 0hPa | 0V | 00:00:00 | 00:00:00 | 00:00:00 | |
| OE3JTB-15 | 2026-09-04 13:00:30 | 47.92653 | 17.04747 | 5° | 16km/h | 28606m | 5.9m/s | 0°C | 0% | 0hPa | 0V | 00:00:00 | 00:00:00 | 00:00:00 | |
| OE5MMP-10 | 2026-09-04 13:00:24 | 47.92642 | 17.04736 | 19° | 15km/h | 28576m | 3.8m/s | 0°C | 0% | 0hPa | 0V | 00:00:00 | 00:00:00 | 00:00:00 | |
| PETON7-10 | 2026-09-04 13:00:23 | 47.92638 | 17.04735 | 354° | 15km/h | 28572m | 5.5m/s | 0°C | 0% | 0hPa | 0V | 00:00:00 | 00:00:00 | 00:00:00 | |
| ATIDSZ-14 | 2026-09-04 13:00:18 | 47.92627 | 17.04712 | 37° | 18km/h | 28519m | 6.3m/s | 0°C | 0% | 0hPa | 0V | 00:00:00 | 00:00:00 | 00:00:00 | |
| OE5MMP-10 | 2026-09-04 13:00:14 | 47.92621 | 17.04702 | 55° | 16km/h | 28506m | 5.4m/s | 0°C | 0% | 0hPa | 0V | 00:00:00 | 00:00:00 | 00:00:00 | |
| PETON7-10 | 2026-09-04 13:00:08 | 47.92601 | 17.04673 | 69° | 15km/h | 28468m | 8.9m/s | 0°C | 0% | 0hPa | 0V | 00:00:00 | 00:00:00 | 00:00:00 | |
| OE3OSB-13 | 2026-09-04 13:00:06 | 47.92600 | 17.04654 | 45° | 18km/h | 28436m | 5.9m/s | -45.4°C | 0.1% | 11.4hPa | 0V | 00:00:00 | 00:00:00 | 00:00:00 | |
| OE5MMP-10 | 2026-09-04 13:00:04 | 47.92599 | 17.04654 | 46° | 15km/h | 28436m | 5.8m/s | 0°C | 0% | 0hPa | 0V | 00:00:00 | 00:00:00 | 00:00:00 | |
| OE5DXL-15 | 2026-09-04 13:00:00 | 47.92586 | 17.04631 | 62° | 13km/h | 28412m | 5.7m/s | 0°C | 0% | 0hPa | 0V | 00:00:00 | 00:00:00 | 00:00:00 | |
| ATIDSZ-14 | 2026-09-04 12:59:56 | 47.92577 | 17.04618 | 45° | 7km/h | 28385m | 8.3m/s | 0°C | 0% | 0hPa | 0V | 00:00:00 | 00:00:00 | 00:00:00 | |
| OE5MMP-10 | 2026-09-04 12:59:54 | 47.92576 | 17.04613 | 89° | 11km/h | 28369m | 5.6m/s | 0°C | 0% | 0hPa | 0V | 00:00:00 | 00:00:00 | 00:00:00 | |
| PETON7-10 | 2026-09-04 12:59:52 | 47.92574 | 17.04607 | 34° | 13km/h | 28356m | 8.1m/s | 0°C | 0% | 0hPa | 0V | 00:00:00 | 00:00:00 | 00:00:00 | |
| OE5MMP-10 | 2026-09-04 12:59:44 | 47.92552 | 17.04603 | 58° | 15km/h | 28301m | 5.9m/s | 0°C | 0% | 0hPa | 0V | 00:00:00 | 00:00:00 | 00:00:00 | |
| PETON7-10 | 2026-09-04 12:59:36 | 47.92529 | 17.04584 | 355° | 16km/h | 28246m | 7.4m/s | 0°C | 0% | 0hPa | 0V | 00:00:00 | 00:00:00 | 00:00:00 | |
| ATIDSZ-14 | 2026-09-04 12:59:35 | 47.92527 | 17.04584 | 6° | 7km/h | 28238m | 7.9m/s | 0°C | 0% | 0hPa | 0V | 00:00:00 | 00:00:00 | 00:00:00 | |
| OE5MMP-10 | 2026-09-04 12:59:34 | 47.92526 | 17.04584 | 125° | 15km/h | 28230m | 6.6m/s | 0°C | 0% | 0hPa | 0V | 00:00:00 | 00:00:00 | 00:00:00 | |
| OE3JTB-15 | 2026-09-04 12:59:31 | 47.92523 | 17.04576 | 42° | 16km/h | 28213m | 4.5m/s | 0°C | 0% | 0hPa | 0V | 00:00:00 | 00:00:00 | 00:00:00 | |
| OE5DXL-15 | 2026-09-04 12:59:29 | 47.92514 | 17.04566 | 40° | 15km/h | 28199m | 10.9m/s | 0°C | 0% | 0hPa | 0V | 00:00:00 | 00:00:00 | 00:00:00 | |
| OE5MMP-10 | 2026-09-04 12:59:24 | 47.92496 | 17.04566 | 339° | 15km/h | 28163m | 4.9m/s | 0°C | 0% | 0hPa | 0V | 00:00:00 | 00:00:00 | 00:00:00 | |
| PETON7-10 | 2026-09-04 12:59:19 | 47.92491 | 17.04551 | 74° | 16km/h | 28134m | 9.9m/s | 0°C | 0% | 0hPa | 0V | 00:00:00 | 00:00:00 | 00:00:00 | |
| OE5MMP-10 | 2026-09-04 12:59:14 | 47.92475 | 17.04542 | 301° | 13km/h | 28097m | 4.9m/s | 0°C | 0% | 0hPa | 0V | 00:00:00 | 00:00:00 | 00:00:00 | |
| ATIDSZ-14 | 2026-09-04 12:59:13 | 47.92474 | 17.04544 | 250° | 7km/h | 28093m | 4.0m/s | 0°C | 0% | 0hPa | 0V | 00:00:00 | 00:00:00 | 00:00:00 | |
| OE5MMP-10 | 2026-09-04 12:59:04 | 47.92471 | 17.04516 | 4° | 20km/h | 28034m | 8.3m/s | 0°C | 0% | 0hPa | 0V | 00:00:00 | 00:00:00 | 00:00:00 | |
| PETON7-10 | 2026-09-04 12:59:03 | 47.92465 | 17.04517 | 339° | 16km/h | 28028m | 3.9m/s | 0°C | 0% | 0hPa | 0V | 00:00:00 | 00:00:00 | 00:00:00 | |
| OE3JTB-15 | 2026-09-04 12:59:02 | 47.92461 | 17.04520 | 315° | 15km/h | 28024m | 4.2m/s | 0°C | 0% | 0hPa | 0V | 00:00:00 | 00:00:00 | 00:00:00 | |
| OE5DXL-15 | 2026-09-04 12:58:59 | 47.92464 | 17.04514 | 110° | 18km/h | 28005m | 3.5m/s | 0°C | 0% | 0hPa | 0V | 00:00:00 | 00:00:00 | 00:00:00 | |
| OE5MMP-10 | 2026-09-04 12:58:54 | 47.92454 | 17.04484 | 359° | 15km/h | 27980m | 6.3m/s | 0°C | 0% | 0hPa | 0V | 00:00:00 | 00:00:00 | 00:00:00 | |
| OK1ALN | 2026-09-04 12:58:53 | 47.92450 | 17.04482 | 28° | 18km/h | 27972m | 11.1m/s | 0°C | 0% | 0hPa | 0V | 00:00:00 | 00:00:00 | 00:00:00 | |
| ATIDSZ-14 | 2026-09-04 12:58:52 | 47.92447 | 17.04478 | 41° | 20km/h | 27963m | 6.9m/s | 0°C | 0% | 0hPa | 0V | 00:00:00 | 00:00:00 | 00:00:00 | |
| PETON7-10 | 2026-09-04 12:58:48 | 47.92436 | 17.04464 | 55° | 11km/h | 27936m | 5.3m/s | 0°C | 0% | 0hPa | 0V | 00:00:00 | 00:00:00 | 00:00:00 | |
| OE5MMP-10 | 2026-09-04 12:58:44 | 47.92431 | 17.04451 | 46° | 16km/h | 27909m | 6.7m/s | 0°C | 0% | 0hPa | 0V | 00:00:00 | 00:00:00 | 00:00:00 | |
| PETON7-10 | 2026-09-04 12:58:33 | 47.92399 | 17.04428 | 60° | 11km/h | 27830m | 6.6m/s | 0°C | 0% | 0hPa | 0V | 00:00:00 | 00:00:00 | 00:00:00 | |
| OE3JTB-15 | 2026-09-04 12:58:32 | 47.92397 | 17.04424 | 45° | 11km/h | 27824m | 6.0m/s | 0°C | 0% | 0hPa | 0V | 00:00:00 | 00:00:00 | 00:00:00 | |
| ATIDSZ-14 | 2026-09-04 12:58:30 | 47.92390 | 17.04418 | 6° | 11km/h | 27811m | 9.0m/s | 0°C | 0% | 0hPa | 0V | 00:00:00 | 00:00:00 | 00:00:00 | |
| OE5MMP-10 | 2026-09-04 12:58:23 | 47.92392 | 17.04417 | 284° | 11km/h | 27767m | 6.6m/s | 0°C | 0% | 0hPa | 0V | 00:00:00 | 00:00:00 | 00:00:00 | |
| PETON7-10 | 2026-09-04 12:58:18 | 47.92386 | 17.04422 | 169° | 11km/h | 27734m | 7.1m/s | 0°C | 0% | 0hPa | 0V | 00:00:00 | 00:00:00 | 00:00:00 | |
| OE5MMP-10 | 2026-09-04 12:58:12 | 47.92405 | 17.04437 | 223° | 13km/h | 27689m | 5.7m/s | 0°C | 0% | 0hPa | 0V | 00:00:00 | 00:00:00 | 00:00:00 | |
| OK1ALN | 2026-09-04 12:58:11 | 47.92406 | 17.04439 | 281° | 9km/h | 27682m | 8.7m/s | 0°C | 0% | 0hPa | 0V | 00:00:00 | 00:00:00 | 00:00:00 | |
| ATIDSZ-14 | 2026-09-04 12:58:09 | 47.92406 | 17.04447 | 249° | 11km/h | 27670m | 5.4m/s | 0°C | 0% | 0hPa | 0V | 00:00:00 | 00:00:00 | 00:00:00 | |
| OE5MMP-10 | 2026-09-04 12:58:02 | 47.92430 | 17.04449 | 196° | 13km/h | 27618m | 7.6m/s | 0°C | 0% | 0hPa | 0V | 00:00:00 | 00:00:00 | 00:00:00 | |
| PETON7-10 | 2026-09-04 12:58:01 | 47.92430 | 17.04448 | 46° | 13km/h | 27611m | 5.5m/s | 0°C | 0% | 0hPa | 0V | 00:00:00 | 00:00:00 | 00:00:00 | |
| OE5MMP-10 | 2026-09-04 12:57:52 | 47.92454 | 17.04423 | 156° | 16km/h | 27553m | 9.1m/s | 0°C | 0% | 0hPa | 0V | 00:00:00 | 00:00:00 | 00:00:00 | |
| OK1ALN | 2026-09-04 12:57:50 | 47.92454 | 17.04424 | 311° | 7km/h | 27541m | 6.5m/s | 0°C | 0% | 0hPa | 0V | 00:00:00 | 00:00:00 | 00:00:00 | |
| ATIDSZ-14 | 2026-09-04 12:57:49 | 47.92452 | 17.04425 | 360° | 11km/h | 27533m | 8.3m/s | 0°C | 0% | 0hPa | 0V | 00:00:00 | 00:00:00 | 00:00:00 | |
| PETON7-10 | 2026-09-04 12:57:46 | 47.92447 | 17.04409 | 95° | 18km/h | 27513m | 7.0m/s | 0°C | 0% | 0hPa | 0V | 00:00:00 | 00:00:00 | 00:00:00 | |
| OE5MMP-10 | 2026-09-04 12:57:40 | 47.92456 | 17.04378 | 62° | 18km/h | 27472m | 6.9m/s | 0°C | 0% | 0hPa | 0V | 00:00:00 | 00:00:00 | 00:00:00 | |
| OE3JTB-15 | 2026-09-04 12:57:32 | 47.92455 | 17.04326 | 95° | 18km/h | 27419m | 4.4m/s | 0°C | 0% | 0hPa | 0V | 00:00:00 | 00:00:00 | 00:00:00 | |
| PETON7-10 | 2026-09-04 12:57:31 | 47.92455 | 17.04322 | 79° | 20km/h | 27412m | 7.9m/s | 0°C | 0% | 0hPa | 0V | 00:00:00 | 00:00:00 | 00:00:00 | |
| OE5MMP-10 | 2026-09-04 12:57:30 | 47.92454 | 17.04318 | 58° | 22km/h | 27405m | 7.6m/s | 0°C | 0% | 0hPa | 0V | 00:00:00 | 00:00:00 | 00:00:00 | |
| ATIDSZ-14 | 2026-09-04 12:57:29 | 47.92451 | 17.04312 | 67° | 22km/h | 27397m | 7.4m/s | 0°C | 0% | 0hPa | 0V | 00:00:00 | 00:00:00 | 00:00:00 | |
| OK1ALN | 2026-09-04 12:57:28 | 47.92448 | 17.04304 | 56° | 29km/h | 27390m | 5.3m/s | 0°C | 0% | 0hPa | 0V | 00:00:00 | 00:00:00 | 00:00:00 | |
| OE5MMP-10 | 2026-09-04 12:57:20 | 47.92423 | 17.04240 | 43° | 16km/h | 27341m | 7.6m/s | 0°C | 0% | 0hPa | 0V | 00:00:00 | 00:00:00 | 00:00:00 | |
| PETON7-10 | 2026-09-04 12:57:17 | 47.92407 | 17.04227 | 41° | 13km/h | 27317m | 8.5m/s | 0°C | 0% | 0hPa | 0V | 00:00:00 | 00:00:00 | 00:00:00 | |
| OE5MMP-10 | 2026-09-04 12:57:10 | 47.92396 | 17.04198 | 60° | 11km/h | 27274m | 9.3m/s | 0°C | 0% | 0hPa | 0V | 00:00:00 | 00:00:00 | 00:00:00 | |
| ATIDSZ-14 | 2026-09-04 12:57:08 | 47.92393 | 17.04189 | 53° | 16km/h | 27259m | 7.4m/s | 0°C | 0% | 0hPa | 0V | 00:00:00 | 00:00:00 | 00:00:00 | |
| OK1ALN | 2026-09-04 12:57:07 | 47.92390 | 17.04186 | 41° | 11km/h | 27250m | 7.0m/s | 0°C | 0% | 0hPa | 0V | 00:00:00 | 00:00:00 | 00:00:00 | |
| OE3JTB-15 | 2026-09-04 12:57:03 | 47.92381 | 17.04175 | 65° | 7km/h | 27217m | 5.4m/s | 0°C | 0% | 0hPa | 0V | 00:00:00 | 00:00:00 | 00:00:00 | |
| PETON7-10 | 2026-09-04 12:57:01 | 47.92380 | 17.04173 | 28° | 7km/h | 27210m | 8.7m/s | 0°C | 0% | 0hPa | 0V | 00:00:00 | 00:00:00 | 00:00:00 | |
| OE3OSB-13 | 2026-09-04 12:57:00 | 47.92380 | 17.04176 | 118° | 0km/h | 27190m | 8.6m/s | -47.4°C | 0.0% | 14.8hPa | 0V | 00:00:00 | 00:00:00 | 00:00:00 | |
| OE5MMP-10 | 2026-09-04 12:56:50 | 47.92380 | 17.04169 | 174° | 11km/h | 27138m | 4.5m/s | 0°C | 0% | 0hPa | 0V | 00:00:00 | 00:00:00 | 00:00:00 | |
| ATIDSZ-14 | 2026-09-04 12:56:49 | 47.92385 | 17.04172 | 219° | 15km/h | 27124m | 5.6m/s | 0°C | 0% | 0hPa | 0V | 00:00:00 | 00:00:00 | 00:00:00 | |
| OK1ALN | 2026-09-04 12:56:47 | 47.92388 | 17.04176 | 230° | 15km/h | 27118m | 5.9m/s | 0°C | 0% | 0hPa | 0V | 00:00:00 | 00:00:00 | 00:00:00 | |
| PETON7-10 | 2026-09-04 12:56:44 | 47.92391 | 17.04176 | 80° | 9km/h | 27098m | 5.4m/s | 0°C | 0% | 0hPa | 0V | 00:00:00 | 00:00:00 | 00:00:00 | |
| OE5MMP-10 | 2026-09-04 12:56:40 | 47.92387 | 17.04169 | 112° | 9km/h | 27073m | 9.1m/s | 0°C | 0% | 0hPa | 0V | 00:00:00 | 00:00:00 | 00:00:00 | |
| OE3JTB-15 | 2026-09-04 12:56:34 | 47.92396 | 17.04153 | 94° | 16km/h | 27015m | 6.4m/s | 0°C | 0% | 0hPa | 0V | 00:00:00 | 00:00:00 | 00:00:00 | |
| OE5MMP-10 | 2026-09-04 12:56:30 | 47.92395 | 17.04143 | 66° | 16km/h | 27001m | 6.7m/s | 0°C | 0% | 0hPa | 0V | 00:00:00 | 00:00:00 | 00:00:00 | |
| PETON7-10 | 2026-09-04 12:56:29 | 47.92393 | 17.04140 | 40° | 16km/h | 26995m | 4.9m/s | 0°C | 0% | 0hPa | 0V | 00:00:00 | 00:00:00 | 00:00:00 | |
| OE3OSB-13 | 2026-09-04 12:56:28 | 47.92391 | 17.04136 | 100° | 4km/h | 26982m | 8.0m/s | -47.9°C | 0.0% | 15.4hPa | 0V | 00:00:00 | 00:00:00 | 00:00:00 | |
| ATIDSZ-14 | 2026-09-04 12:56:26 | 47.92392 | 17.04134 | 102° | 9km/h | 26975m | 4.9m/s | 0°C | 0% | 0hPa | 0V | 00:00:00 | 00:00:00 | 00:00:00 | |
| OK1ALN | 2026-09-04 12:56:25 | 47.92392 | 17.04129 | 91° | 13km/h | 26971m | 4.6m/s | 0°C | 0% | 0hPa | 0V | 00:00:00 | 00:00:00 | 00:00:00 | |
| OE5MMP-10 | 2026-09-04 12:56:19 | 47.92378 | 17.04090 | 75° | 20km/h | 26931m | 5.5m/s | 0°C | 0% | 0hPa | 0V | 00:00:00 | 00:00:00 | 00:00:00 | |
| PETON7-10 | 2026-09-04 12:56:14 | 47.92362 | 17.04061 | 55° | 15km/h | 26899m | 9.6m/s | 0°C | 0% | 0hPa | 0V | 00:00:00 | 00:00:00 | 00:00:00 | |
| OE5MMP-10 | 2026-09-04 12:56:09 | 47.92348 | 17.04027 | 29° | 13km/h | 26868m | 6.3m/s | 0°C | 0% | 0hPa | 0V | 00:00:00 | 00:00:00 | 00:00:00 | |
| ATIDSZ-14 | 2026-09-04 12:56:04 | 47.92337 | 17.04005 | 55° | 15km/h | 26836m | 5.3m/s | 0°C | 0% | 0hPa | 0V | 00:00:00 | 00:00:00 | 00:00:00 | |
| OE3OSB-13 | 2026-09-04 12:55:57 | 47.92325 | 17.03986 | 6° | 16km/h | 26785m | 4.4m/s | -48.1°C | 0.0% | 16.0hPa | 0V | 00:00:00 | 00:00:00 | 00:00:00 | |
| OE5MMP-10 | 2026-09-04 12:55:49 | 47.92319 | 17.03981 | 109° | 7km/h | 26741m | 7.1m/s | 0°C | 0% | 0hPa | 0V | 00:00:00 | 00:00:00 | 00:00:00 | |
| ATIDSZ-14 | 2026-09-04 12:55:44 | 47.92324 | 17.03988 | 283° | 15km/h | 26711m | 6.3m/s | 0°C | 0% | 0hPa | 0V | 00:00:00 | 00:00:00 | 00:00:00 | |
| PETON7-10 | 2026-09-04 12:55:43 | 47.92324 | 17.03992 | 288° | 5km/h | 26704m | 7.0m/s | 0°C | 0% | 0hPa | 0V | 00:00:00 | 00:00:00 | 00:00:00 | |
| OE5MMP-10 | 2026-09-04 12:55:39 | 47.92324 | 17.03995 | 357° | 7km/h | 26677m | 7.1m/s | 0°C | 0% | 0hPa | 0V | 00:00:00 | 00:00:00 | 00:00:00 | |
| OE3JTB-15 | 2026-09-04 12:55:36 | 47.92319 | 17.04002 | 309° | 15km/h | 26623m | 6.5m/s | 0°C | 0% | 0hPa | 0V | 00:00:00 | 00:00:00 | 00:00:00 | |
| OE5MMP-10 | 2026-09-04 12:55:28 | 47.92316 | 17.04001 | 47° | 9km/h | 26602m | 6.0m/s | 0°C | 0% | 0hPa | 0V | 00:00:00 | 00:00:00 | 00:00:00 | |
| OE3OSB-13 | 2026-09-04 12:55:27 | 47.92309 | 17.03998 | 333° | 7km/h | 26581m | 4.5m/s | -48.2°C | 0.0% | 16.7hPa | 0V | 00:00:00 | 00:00:00 | 00:00:00 | |
| ATIDSZ-14 | 2026-09-04 12:55:22 | 47.92308 | 17.03999 | 59° | 2km/h | 26562m | 4.1m/s | 0°C | 0% | 0hPa | 0V | 00:00:00 | 00:00:00 | 00:00:00 | |
| OE5MMP-10 | 2026-09-04 12:55:18 | 47.92293 | 17.04001 | 360° | 15km/h | 26536m | 7.9m/s | 0°C | 0% | 0hPa | 0V | 00:00:00 | 00:00:00 | 00:00:00 | |
| PETON7-10 | 2026-09-04 12:55:13 | 47.92272 | 17.03988 | 359° | 15km/h | 26506m | 6.4m/s | 0°C | 0% | 0hPa | 0V | 00:00:00 | 00:00:00 | 00:00:00 | |
| OE3JTB-15 | 2026-09-04 12:55:08 | 47.92234 | 17.03983 | 31° | 13km/h | 26444m | 7.1m/s | 0°C | 0% | 0hPa | 0V | 00:00:00 | 00:00:00 | 00:00:00 | |
| ATIDSZ-14 | 2026-09-04 12:55:02 | 47.92232 | 17.03977 | 69° | 7km/h | 26429m | 6.7m/s | 0°C | 0% | 0hPa | 0V | 00:00:00 | 00:00:00 | 00:00:00 | |
| OK1ALN | 2026-09-04 12:55:01 | 47.92231 | 17.03976 | 351° | 7km/h | 26422m | 8.1m/s | 0°C | 0% | 0hPa | 0V | 00:00:00 | 00:00:00 | 00:00:00 | |
| OE3OSB-13 | 2026-09-04 12:54:55 | 47.92209 | 17.03977 | 20° | 13km/h | 26377m | 3.4m/s | -48.0°C | 0.0% | 17.3hPa | 0V | 00:00:00 | 00:00:00 | 00:00:00 | |
| OE5MMP-10 | 2026-09-04 12:54:48 | 47.92214 | 17.03980 | 269° | 9km/h | 26339m | 5.9m/s | 0°C | 0% | 0hPa | 0V | 00:00:00 | 00:00:00 | 00:00:00 | |
| PETON7-10 | 2026-09-04 12:54:42 | 47.92209 | 17.03988 | 213° | 16km/h | 26301m | 4.6m/s | 0°C | 0% | 0hPa | 0V | 00:00:00 | 00:00:00 | 00:00:00 | |
| OK1ALN | 2026-09-04 12:54:41 | 47.92211 | 17.03991 | 226° | 16km/h | 26296m | 6.4m/s | 0°C | 0% | 0hPa | 0V | 00:00:00 | 00:00:00 | 00:00:00 | |
| OE5MMP-10 | 2026-09-04 12:54:38 | 47.92224 | 17.03997 | 167° | 16km/h | 26275m | 4.9m/s | 0°C | 0% | 0hPa | 0V | 00:00:00 | 00:00:00 | 00:00:00 | |
| OE3JTB-15 | 2026-09-04 12:54:35 | 47.92210 | 17.04014 | 233° | 16km/h | 26220m | 6.3m/s | 0°C | 0% | 0hPa | 0V | 00:00:00 | 00:00:00 | 00:00:00 | |
| OE5MMP-10 | 2026-09-04 12:54:28 | 47.92220 | 17.04027 | 212° | 15km/h | 26207m | 7.4m/s | 0°C | 0% | 0hPa | 0V | 00:00:00 | 00:00:00 | 00:00:00 | |
| PETON7-10 | 2026-09-04 12:54:27 | 47.92224 | 17.04030 | 196° | 15km/h | 26201m | 4.4m/s | 0°C | 0% | 0hPa | 0V | 00:00:00 | 00:00:00 | 00:00:00 | |
| PG1ADW-2 | 2026-09-04 12:54:25 | 47.92223 | 17.04029 | 4° | 11km/h | 26188m | 9.0m/s | 0°C | 0% | 0hPa | 0V | 00:00:00 | 00:00:00 | 00:00:00 | |
| OE3OSB-13 | 2026-09-04 12:54:24 | 47.92218 | 17.04036 | 301° | 18km/h | 26176m | 5.1m/s | -49.1°C | 0.0% | 18.0hPa | 0V | 00:00:00 | 00:00:00 | 00:00:00 | |
| OK1ALN | 2026-09-04 12:54:20 | 47.92220 | 17.04051 | 230° | 20km/h | 26157m | 5.1m/s | 0°C | 0% | 0hPa | 0V | 00:00:00 | 00:00:00 | 00:00:00 | |
| ATIDSZ-14 | 2026-09-04 12:54:19 | 47.92227 | 17.04065 | 238° | 22km/h | 26143m | 4.8m/s | 0°C | 0% | 0hPa | 0V | 00:00:00 | 00:00:00 | 00:00:00 | |
| OE5MMP-10 | 2026-09-04 12:54:18 | 47.92227 | 17.04065 | 238° | 15km/h | 26143m | 4.7m/s | 0°C | 0% | 0hPa | 0V | 00:00:00 | 00:00:00 | 00:00:00 | |
| PETON7-10 | 2026-09-04 12:54:12 | 47.92226 | 17.04079 | 322° | 13km/h | 26102m | 5.7m/s | 0°C | 0% | 0hPa | 0V | 00:00:00 | 00:00:00 | 00:00:00 | |
| OE5MMP-10 | 2026-09-04 12:54:08 | 47.92231 | 17.04096 | 196° | 13km/h | 26074m | 4.9m/s | 0°C | 0% | 0hPa | 0V | 00:00:00 | 00:00:00 | 00:00:00 | |
| OE3JTB-15 | 2026-09-04 12:54:06 | 47.92239 | 17.04117 | 345° | 11km/h | 26027m | 8.2m/s | 0°C | 0% | 0hPa | 0V | 00:00:00 | 00:00:00 | 00:00:00 | |
| OK1ALN | 2026-09-04 12:54:00 | 47.92238 | 17.04118 | 328° | 5km/h | 26020m | 6.5m/s | 0°C | 0% | 0hPa | 0V | 00:00:00 | 00:00:00 | 00:00:00 | |
| OE3OSB-13 | 2026-09-04 12:53:53 | 47.92260 | 17.04133 | 227° | 11km/h | 25965m | 7.0m/s | -49.3°C | 0.1% | 18.8hPa | 0V | 00:00:00 | 00:00:00 | 00:00:00 | |
| OE5MMP-10 | 2026-09-04 12:53:48 | 47.92261 | 17.04134 | 331° | 13km/h | 25939m | 4.3m/s | 0°C | 0% | 0hPa | 0V | 00:00:00 | 00:00:00 | 00:00:00 | |
| PETON7-10 | 2026-09-04 12:53:42 | 47.92278 | 17.04136 | 179° | 15km/h | 25903m | 8.8m/s | 0°C | 0% | 0hPa | 0V | 00:00:00 | 00:00:00 | 00:00:00 | |
| OK1ALN | 2026-09-04 12:53:39 | 47.92276 | 17.04136 | 22° | 7km/h | 25880m | 6.2m/s | 0°C | 0% | 0hPa | 0V | 00:00:00 | 00:00:00 | 00:00:00 | |
| ATIDSZ-14 | 2026-09-04 12:53:37 | 47.92277 | 17.04132 | 150° | 16km/h | 25866m | 4.9m/s | 0°C | 0% | 0hPa | 0V | 00:00:00 | 00:00:00 | 00:00:00 | |
| OE5MMP-10 | 2026-09-04 12:53:35 | 47.92288 | 17.04130 | 193° | 13km/h | 25854m | 7.3m/s | 0°C | 0% | 0hPa | 0V | 00:00:00 | 00:00:00 | 00:00:00 | |
| OE3JTB-15 | 2026-09-04 12:53:31 | 47.92309 | 17.04114 | 112° | 9km/h | 25798m | 7.7m/s | 0°C | 0% | 0hPa | 0V | 00:00:00 | 00:00:00 | 00:00:00 | |
| OE5MMP-10 | 2026-09-04 12:53:25 | 47.92310 | 17.04112 | 141° | 11km/h | 25792m | 6.5m/s | 0°C | 0% | 0hPa | 0V | 00:00:00 | 00:00:00 | 00:00:00 | |
| OE3OSB-13 | 2026-09-04 12:53:21 | 47.92325 | 17.04112 | 194° | 15km/h | 25768m | 7.7m/s | -49.1°C | 0.1% | 19.5hPa | 0V | 00:00:00 | 00:00:00 | 00:00:00 | |
| OK1ALN | 2026-09-04 12:53:19 | 47.92330 | 17.04110 | 142° | 13km/h | 25754m | 7.6m/s | 0°C | 0% | 0hPa | 0V | 00:00:00 | 00:00:00 | 00:00:00 | |
| ATIDSZ-14 | 2026-09-04 12:53:17 | 47.92333 | 17.04105 | 166° | 4km/h | 25740m | 8.0m/s | 0°C | 0% | 0hPa | 0V | 00:00:00 | 00:00:00 | 00:00:00 | |
| OE5MMP-10 | 2026-09-04 12:53:15 | 47.92334 | 17.04107 | 250° | 9km/h | 25727m | 7.4m/s | 0°C | 0% | 0hPa | 0V | 00:00:00 | 00:00:00 | 00:00:00 | |
| PETON7-10 | 2026-09-04 12:53:10 | 47.92343 | 17.04100 | 190° | 7km/h | 25692m | 7.9m/s | 0°C | 0% | 0hPa | 0V | 00:00:00 | 00:00:00 | 00:00:00 | |
| OE5MMP-10 | 2026-09-04 12:53:04 | 47.92349 | 17.04088 | 140° | 9km/h | 25651m | 7.1m/s | 0°C | 0% | 0hPa | 0V | 00:00:00 | 00:00:00 | 00:00:00 | |
| OE3OSB-13 | 2026-09-04 12:52:50 | 47.92375 | 17.04078 | 128° | 2km/h | 25554m | 7.3m/s | -49.1°C | 0.1% | 20.3hPa | 0V | 00:00:00 | 00:00:00 | 00:00:00 | |
| OE5MMP-10 | 2026-09-04 12:52:44 | 47.92371 | 17.04068 | 108° | 5km/h | 25515m | 8.9m/s | 0°C | 0% | 0hPa | 0V | 00:00:00 | 00:00:00 | 00:00:00 | |
| OE5DXL-15 | 2026-09-04 12:52:43 | 47.92372 | 17.04065 | 118° | 9km/h | 25508m | 4.5m/s | 0°C | 0% | 0hPa | 0V | 00:00:00 | 00:00:00 | 00:00:00 | |
| PETON7-10 | 2026-09-04 12:52:40 | 47.92378 | 17.04060 | 213° | 9km/h | 25488m | 6.1m/s | 0°C | 0% | 0hPa | 0V | 00:00:00 | 00:00:00 | 00:00:00 | |
| PG1ADW-2 | 2026-09-04 12:52:37 | 47.92380 | 17.04061 | 99° | 15km/h | 25467m | 4.4m/s | 0°C | 0% | 0hPa | 0V | 00:00:00 | 00:00:00 | 00:00:00 | |
| ATIDSZ-14 | 2026-09-04 12:52:33 | 47.92384 | 17.04058 | 246° | 7km/h | 25445m | 4.5m/s | 0°C | 0% | 0hPa | 0V | 00:00:00 | 00:00:00 | 00:00:00 | |
| OE3JTB-15 | 2026-09-04 12:52:30 | 47.92405 | 17.04064 | 164° | 11km/h | 25392m | 4.6m/s | 0°C | 0% | 0hPa | 0V | 00:00:00 | 00:00:00 | 00:00:00 | |
| PETON7-10 | 2026-09-04 12:52:25 | 47.92405 | 17.04064 | 164° | 11km/h | 25392m | 4.6m/s | 0°C | 0% | 0hPa | 0V | 00:00:00 | 00:00:00 | 00:00:00 | |
| OE5MMP-10 | 2026-09-04 12:52:20 | 47.92417 | 17.04063 | 144° | 11km/h | 25359m | 6.9m/s | 0°C | 0% | 0hPa | 0V | 00:00:00 | 00:00:00 | 00:00:00 | |
| OE3OSB-13 | 2026-09-04 12:52:19 | 47.92419 | 17.04061 | 126° | 11km/h | 25352m | 5.7m/s | -49.3°C | 0.1% | 21.1hPa | 0V | 00:00:00 | 00:00:00 | 00:00:00 | |
| OK1ALN | 2026-09-04 12:52:17 | 47.92423 | 17.04052 | 141° | 13km/h | 25340m | 8.2m/s | 0°C | 0% | 0hPa | 0V | 00:00:00 | 00:00:00 | 00:00:00 | |
| ATIDSZ-14 | 2026-09-04 12:52:13 | 47.92432 | 17.04050 | 134° | 7km/h | 25316m | 5.5m/s | 0°C | 0% | 0hPa | 0V | 00:00:00 | 00:00:00 | 00:00:00 | |
| OE5DXL-15 | 2026-09-04 12:52:12 | 47.92433 | 17.04048 | 116° | 11km/h | 25311m | 5.8m/s | 0°C | 0% | 0hPa | 0V | 00:00:00 | 00:00:00 | 00:00:00 | |
| OE5MMP-10 | 2026-09-04 12:52:10 | 47.92436 | 17.04042 | 153° | 7km/h | 25299m | 5.3m/s | 0°C | 0% | 0hPa | 0V | 00:00:00 | 00:00:00 | 00:00:00 | |
| OE5MMP-10 | 2026-09-04 12:52:00 | 47.92448 | 17.04025 | 137° | 9km/h | 25235m | 5.6m/s | 0°C | 0% | 0hPa | 0V | 00:00:00 | 00:00:00 | 00:00:00 | |
| OE3OSB-13 | 2026-09-04 12:51:48 | 47.92480 | 17.04015 | 162° | 20km/h | 25152m | 7.3m/s | -49.1°C | 0.1% | 21.9hPa | 0V | 00:00:00 | 00:00:00 | 00:00:00 | |
| OE5MMP-10 | 2026-09-04 12:51:38 | 47.92504 | 17.04003 | 164° | 11km/h | 25090m | 8.2m/s | 0°C | 0% | 0hPa | 0V | 00:00:00 | 00:00:00 | 00:00:00 | |
| OK1ALN | 2026-09-04 12:51:35 | 47.92512 | 17.03994 | 144° | 13km/h | 25068m | 7.7m/s | 0°C | 0% | 0hPa | 0V | 00:00:00 | 00:00:00 | 00:00:00 | |
| ATIDSZ-14 | 2026-09-04 12:51:33 | 47.92516 | 17.03992 | 169° | 4km/h | 25055m | 5.8m/s | 0°C | 0% | 0hPa | 0V | 00:00:00 | 00:00:00 | 00:00:00 | |
| OE5MMP-10 | 2026-09-04 12:51:28 | 47.92526 | 17.03995 | 184° | 13km/h | 25024m | 4.3m/s | 0°C | 0% | 0hPa | 0V | 00:00:00 | 00:00:00 | 00:00:00 | |
| PETON7-10 | 2026-09-04 12:51:23 | 47.92542 | 17.03977 | 42° | 11km/h | 24998m | 9.6m/s | 0°C | 0% | 0hPa | 0V | 00:00:00 | 00:00:00 | 00:00:00 | |
| OE3OSB-13 | 2026-09-04 12:51:18 | 47.92552 | 17.03967 | 141° | 16km/h | 24950m | 5.7m/s | -49.7°C | 0.2% | 22.7hPa | 0V | 00:00:00 | 00:00:00 | 00:00:00 | |
| OE5MMP-10 | 2026-09-04 12:51:14 | 47.92556 | 17.03961 | 116° | 16km/h | 24938m | 6.8m/s | 0°C | 0% | 0hPa | 0V | 00:00:00 | 00:00:00 | 00:00:00 | |
| ATIDSZ-14 | 2026-09-04 12:51:11 | 47.92556 | 17.03949 | 66° | 7km/h | 24921m | 10.1m/s | 0°C | 0% | 0hPa | 0V | 00:00:00 | 00:00:00 | 00:00:00 | |
| OE5DXL-15 | 2026-09-04 12:51:08 | 47.92565 | 17.03944 | 163° | 16km/h | 24901m | 7.8m/s | 0°C | 0% | 0hPa | 0V | 00:00:00 | 00:00:00 | 00:00:00 | |
| OE5MMP-10 | 2026-09-04 12:51:04 | 47.92583 | 17.03926 | 155° | 11km/h | 24877m | 4.3m/s | 0°C | 0% | 0hPa | 0V | 00:00:00 | 00:00:00 | 00:00:00 | |
| OE3OSB-13 | 2026-09-04 12:50:46 | 47.92628 | 17.03859 | 119° | 24km/h | 24756m | 7.7m/s | -50.1°C | 0.2% | 23.6hPa | 0V | 00:00:00 | 00:00:00 | 00:00:00 | |
| OE5MMP-10 | 2026-09-04 12:50:43 | 47.92634 | 17.03839 | 112° | 26km/h | 24742m | 4.0m/s | 0°C | 0% | 0hPa | 0V | 00:00:00 | 00:00:00 | 00:00:00 | |
| PETON7-10 | 2026-09-04 12:50:38 | 47.92656 | 17.03817 | 153° | 18km/h | 24707m | 4.7m/s | 0°C | 0% | 0hPa | 0V | 00:00:00 | 00:00:00 | 00:00:00 | |
| OE5DXL-15 | 2026-09-04 12:50:37 | 47.92658 | 17.03813 | 120° | 24km/h | 24702m | 4.7m/s | 0°C | 0% | 0hPa | 0V | 00:00:00 | 00:00:00 | 00:00:00 | |
| OE5MMP-10 | 2026-09-04 12:50:33 | 47.92672 | 17.03790 | 128° | 22km/h | 24675m | 7.3m/s | 0°C | 0% | 0hPa | 0V | 00:00:00 | 00:00:00 | 00:00:00 | |
| OE5MMP-10 | 2026-09-04 12:50:23 | 47.92700 | 17.03722 | 120° | 26km/h | 24610m | 5.0m/s | 0°C | 0% | 0hPa | 0V | 00:00:00 | 00:00:00 | 00:00:00 | |
| OE3OSB-13 | 2026-09-04 12:50:15 | 47.92725 | 17.03642 | 105° | 20km/h | 24553m | 6.0m/s | -49.7°C | 0.3% | 24.4hPa | 0V | 00:00:00 | 00:00:00 | 00:00:00 | |
| OE5MMP-10 | 2026-09-04 12:50:13 | 47.92726 | 17.03633 | 107° | 27km/h | 24547m | 5.4m/s | 0°C | 0% | 0hPa | 0V | 00:00:00 | 00:00:00 | 00:00:00 | |
| ATIDSZ-14 | 2026-09-04 12:50:11 | 47.92732 | 17.03612 | 115° | 29km/h | 24533m | 5.2m/s | 0°C | 0% | 0hPa | 0V | 00:00:00 | 00:00:00 | 00:00:00 | |
| PETON7-10 | 2026-09-04 12:50:08 | 47.92734 | 17.03575 | 75° | 22km/h | 24513m | 5.6m/s | 0°C | 0% | 0hPa | 0V | 00:00:00 | 00:00:00 | 00:00:00 | |
| OE5DXL-15 | 2026-09-04 12:50:07 | 47.92732 | 17.03564 | 81° | 22km/h | 24508m | 4.2m/s | 0°C | 0% | 0hPa | 0V | 00:00:00 | 00:00:00 | 00:00:00 | |
| OE5MMP-10 | 2026-09-04 12:50:03 | 47.92741 | 17.03539 | 134° | 24km/h | 24481m | 6.7m/s | 0°C | 0% | 0hPa | 0V | 00:00:00 | 00:00:00 | 00:00:00 | |
| OE3OSB-13 | 2026-09-04 12:49:44 | 47.92741 | 17.03379 | 86° | 22km/h | 24358m | 3.0m/s | -49.6°C | 0.2% | 25.3hPa | 0V | 00:00:00 | 00:00:00 | 00:00:00 | |
| OE5MMP-10 | 2026-09-04 12:49:43 | 47.92741 | 17.03379 | 87° | 15km/h | 24358m | 3.0m/s | 0°C | 0% | 0hPa | 0V | 00:00:00 | 00:00:00 | 00:00:00 | |
| OE5DXL-15 | 2026-09-04 12:49:37 | 47.92738 | 17.03346 | 60° | 11km/h | 24320m | 7.3m/s | 0°C | 0% | 0hPa | 0V | 00:00:00 | 00:00:00 | 00:00:00 | |
| OE5MMP-10 | 2026-09-04 12:49:33 | 47.92732 | 17.03326 | 90° | 11km/h | 24296m | 6.4m/s | 0°C | 0% | 0hPa | 0V | 00:00:00 | 00:00:00 | 00:00:00 | |
| OK1ALN | 2026-09-04 12:49:30 | 47.92732 | 17.03312 | 85° | 15km/h | 24273m | 5.8m/s | 0°C | 0% | 0hPa | 0V | 00:00:00 | 00:00:00 | 00:00:00 | |
| ATIDSZ-14 | 2026-09-04 12:49:28 | 47.92731 | 17.03304 | 102° | 7km/h | 24259m | 5.6m/s | 0°C | 0% | 0hPa | 0V | 00:00:00 | 00:00:00 | 00:00:00 | |
| OE5MMP-10 | 2026-09-04 12:49:22 | 47.92719 | 17.03286 | 184° | 9km/h | 24220m | 6.3m/s | 0°C | 0% | 0hPa | 0V | 00:00:00 | 00:00:00 | 00:00:00 | |
| OE3OSB-13 | 2026-09-04 12:49:13 | 47.92712 | 17.03255 | 27° | 13km/h | 24158m | 7.1m/s | -49.9°C | 0.2% | 26.3hPa | 0V | 00:00:00 | 00:00:00 | 00:00:00 | |
| OE5MMP-10 | 2026-09-04 12:49:12 | 47.92712 | 17.03255 | 28° | 7km/h | 24158m | 7.1m/s | 0°C | 0% | 0hPa | 0V | 00:00:00 | 00:00:00 | 00:00:00 | |
| OK1ALN | 2026-09-04 12:49:10 | 47.92709 | 17.03254 | 11° | 4km/h | 24149m | 6.9m/s | 0°C | 0% | 0hPa | 0V | 00:00:00 | 00:00:00 | 00:00:00 | |
| OE5DXL-15 | 2026-09-04 12:49:07 | 47.92706 | 17.03245 | 67° | 7km/h | 24121m | 8.2m/s | 0°C | 0% | 0hPa | 0V | 00:00:00 | 00:00:00 | 00:00:00 | |
| OE3JTB-15 | 2026-09-04 12:49:06 | 47.92703 | 17.03243 | 8° | 9km/h | 24094m | 7.1m/s | 0°C | 0% | 0hPa | 0V | 00:00:00 | 00:00:00 | 00:00:00 | |
| OE5MMP-10 | 2026-09-04 12:49:02 | 47.92700 | 17.03242 | 24° | 5km/h | 24088m | 3.8m/s | 0°C | 0% | 0hPa | 0V | 00:00:00 | 00:00:00 | 00:00:00 | |
| PG1ADW-2 | 2026-09-04 12:48:59 | 47.92694 | 17.03241 | 264° | 9km/h | 24071m | 5.1m/s | 0°C | 0% | 0hPa | 0V | 00:00:00 | 00:00:00 | 00:00:00 | |
| OE5MMP-10 | 2026-09-04 12:48:52 | 47.92700 | 17.03239 | 156° | 9km/h | 24025m | 9.5m/s | 0°C | 0% | 0hPa | 0V | 00:00:00 | 00:00:00 | 00:00:00 | |
| PETON7-10 | 2026-09-04 12:48:51 | 47.92701 | 17.03237 | 124° | 11km/h | 24011m | 6.3m/s | 0°C | 0% | 0hPa | 0V | 00:00:00 | 00:00:00 | 00:00:00 | |
| OK1ALN | 2026-09-04 12:48:49 | 47.92702 | 17.03237 | 192° | 7km/h | 24004m | 7.6m/s | 0°C | 0% | 0hPa | 0V | 00:00:00 | 00:00:00 | 00:00:00 | |
| OE3OSB-13 | 2026-09-04 12:48:42 | 47.92724 | 17.03225 | 169° | 16km/h | 23953m | 4.6m/s | -51.0°C | 0.2% | 27.3hPa | 0V | 00:00:00 | 00:00:00 | 00:00:00 | |
| OE5DXL-15 | 2026-09-04 12:48:37 | 47.92734 | 17.03218 | 167° | 16km/h | 23929m | 5.2m/s | 0°C | 0% | 0hPa | 0V | 00:00:00 | 00:00:00 | 00:00:00 | |
| OE5MMP-10 | 2026-09-04 12:48:32 | 47.92754 | 17.03209 | 151° | 16km/h | 23900m | 7.9m/s | 0°C | 0% | 0hPa | 0V | 00:00:00 | 00:00:00 | 00:00:00 | |
| OK1ALN | 2026-09-04 12:48:29 | 47.92765 | 17.03203 | 162° | 15km/h | 23878m | 7.1m/s | 0°C | 0% | 0hPa | 0V | 00:00:00 | 00:00:00 | 00:00:00 | |
| ATIDSZ-14 | 2026-09-04 12:48:26 | 47.92774 | 17.03192 | 149° | 15km/h | 23857m | 7.5m/s | 0°C | 0% | 0hPa | 0V | 00:00:00 | 00:00:00 | 00:00:00 | |
| OE5MMP-10 | 2026-09-04 12:48:22 | 47.92789 | 17.03182 | 139° | 15km/h | 23834m | 6.5m/s | 0°C | 0% | 0hPa | 0V | 00:00:00 | 00:00:00 | 00:00:00 | |
| PG1ADW-2 | 2026-09-04 12:48:16 | 47.92805 | 17.03155 | 117° | 16km/h | 23795m | 5.8m/s | 0°C | 0% | 0hPa | 0V | 00:00:00 | 00:00:00 | 00:00:00 | |
| OE3OSB-13 | 2026-09-04 12:48:11 | 47.92820 | 17.03132 | 116° | 20km/h | 23755m | 6.5m/s | -50.9°C | 0.2% | 28.3hPa | 0V | 00:00:00 | 00:00:00 | 00:00:00 | |
| OE5MMP-10 | 2026-09-04 12:48:10 | 47.92820 | 17.03132 | 117° | 16km/h | 23755m | 6.5m/s | 0°C | 0% | 0hPa | 0V | 00:00:00 | 00:00:00 | 00:00:00 | |
| OK1ALN | 2026-09-04 12:48:08 | 47.92823 | 17.03119 | 94° | 15km/h | 23742m | 8.1m/s | 0°C | 0% | 0hPa | 0V | 00:00:00 | 00:00:00 | 00:00:00 | |
| OE5DXL-15 | 2026-09-04 12:48:07 | 47.92822 | 17.03114 | 68° | 13km/h | 23735m | 6.0m/s | 0°C | 0% | 0hPa | 0V | 00:00:00 | 00:00:00 | 00:00:00 | |
| ATIDSZ-14 | 2026-09-04 12:48:05 | 47.92820 | 17.03104 | 72° | 18km/h | 23721m | 9.7m/s | 0°C | 0% | 0hPa | 0V | 00:00:00 | 00:00:00 | 00:00:00 | |
| OE3JTB-15 | 2026-09-04 12:48:03 | 47.92817 | 17.03082 | 142° | 13km/h | 23686m | 7.6m/s | 0°C | 0% | 0hPa | 0V | 00:00:00 | 00:00:00 | 00:00:00 | |
| OE5MMP-10 | 2026-09-04 12:48:00 | 47.92817 | 17.03082 | 142° | 13km/h | 23686m | 7.6m/s | 0°C | 0% | 0hPa | 0V | 00:00:00 | 00:00:00 | 00:00:00 | |
| PG1ADW-2 | 2026-09-04 12:47:55 | 47.92813 | 17.03058 | 42° | 11km/h | 23654m | 5.1m/s | 0°C | 0% | 0hPa | 0V | 00:00:00 | 00:00:00 | 00:00:00 | |
| OE5MMP-10 | 2026-09-04 12:47:50 | 47.92812 | 17.03042 | 203° | 9km/h | 23620m | 5.4m/s | 0°C | 0% | 0hPa | 0V | 00:00:00 | 00:00:00 | 00:00:00 | |
| OK1ALN | 2026-09-04 12:47:48 | 47.92814 | 17.03043 | 179° | 5km/h | 23606m | 8.9m/s | 0°C | 0% | 0hPa | 0V | 00:00:00 | 00:00:00 | 00:00:00 | |
| ATIDSZ-14 | 2026-09-04 12:47:44 | 47.92815 | 17.03030 | 56° | 15km/h | 23581m | 4.8m/s | 0°C | 0% | 0hPa | 0V | 00:00:00 | 00:00:00 | 00:00:00 | |
| OE3OSB-13 | 2026-09-04 12:47:40 | 47.92820 | 17.03005 | 127° | 7km/h | 23548m | 5.9m/s | -52.3°C | 0.2% | 29.3hPa | 0V | 00:00:00 | 00:00:00 | 00:00:00 | |
| OE5DXL-15 | 2026-09-04 12:47:37 | 47.92823 | 17.02999 | 137° | 13km/h | 23535m | 7.8m/s | 0°C | 0% | 0hPa | 0V | 00:00:00 | 00:00:00 | 00:00:00 | |
| OE3JTB-15 | 2026-09-04 12:47:33 | 47.92829 | 17.02964 | 107° | 13km/h | 23495m | 6.9m/s | 0°C | 0% | 0hPa | 0V | 00:00:00 | 00:00:00 | 00:00:00 | |
| OE5MMP-10 | 2026-09-04 12:47:30 | 47.92830 | 17.02960 | 112° | 11km/h | 23489m | 6.3m/s | 0°C | 0% | 0hPa | 0V | 00:00:00 | 00:00:00 | 00:00:00 | |
| OK1ALN | 2026-09-04 12:47:27 | 47.92831 | 17.02954 | 118° | 4km/h | 23469m | 6.4m/s | 0°C | 0% | 0hPa | 0V | 00:00:00 | 00:00:00 | 00:00:00 | |
| ATIDSZ-14 | 2026-09-04 12:47:24 | 47.92838 | 17.02942 | 120° | 20km/h | 23446m | 7.5m/s | 0°C | 0% | 0hPa | 0V | 00:00:00 | 00:00:00 | 00:00:00 | |
| OE5MMP-10 | 2026-09-04 12:47:20 | 47.92843 | 17.02917 | 116° | 15km/h | 23421m | 4.0m/s | 0°C | 0% | 0hPa | 0V | 00:00:00 | 00:00:00 | 00:00:00 | |
| PETON7-10 | 2026-09-04 12:47:17 | 47.92846 | 17.02906 | 95° | 13km/h | 23402m | 4.4m/s | 0°C | 0% | 0hPa | 0V | 00:00:00 | 00:00:00 | 00:00:00 | |
| OE5MMP-10 | 2026-09-04 12:47:10 | 47.92849 | 17.02870 | 61° | 13km/h | 23360m | 9.3m/s | 0°C | 0% | 0hPa | 0V | 00:00:00 | 00:00:00 | 00:00:00 | |
| OE3OSB-13 | 2026-09-04 12:47:09 | 47.92849 | 17.02865 | 91° | 4km/h | 23346m | 6.6m/s | -53.1°C | 0.2% | 30.4hPa | 0V | 00:00:00 | 00:00:00 | 00:00:00 | |
| OK1ALN | 2026-09-04 12:47:08 | 47.92849 | 17.02863 | 79° | 4km/h | 23339m | 7.7m/s | 0°C | 0% | 0hPa | 0V | 00:00:00 | 00:00:00 | 00:00:00 | |
| OE5DXL-15 | 2026-09-04 12:47:07 | 47.92849 | 17.02863 | 78° | 13km/h | 23339m | 7.7m/s | 0°C | 0% | 0hPa | 0V | 00:00:00 | 00:00:00 | 00:00:00 | |
| ATIDSZ-14 | 2026-09-04 12:47:04 | 47.92845 | 17.02847 | 95° | 22km/h | 23313m | 5.9m/s | 0°C | 0% | 0hPa | 0V | 00:00:00 | 00:00:00 | 00:00:00 | |
| OE5MMP-10 | 2026-09-04 12:46:59 | 47.92840 | 17.02821 | 55° | 11km/h | 23288m | 6.4m/s | 0°C | 0% | 0hPa | 0V | 00:00:00 | 00:00:00 | 00:00:00 | |
| PETON7-10 | 2026-09-04 12:46:58 | 47.92838 | 17.02816 | 67° | 11km/h | 23281m | 7.0m/s | 0°C | 0% | 0hPa | 0V | 00:00:00 | 00:00:00 | 00:00:00 | |
| OE5MMP-10 | 2026-09-04 12:46:49 | 47.92827 | 17.02785 | 21° | 11km/h | 23224m | 5.8m/s | 0°C | 0% | 0hPa | 0V | 00:00:00 | 00:00:00 | 00:00:00 | |
| OK1ALN | 2026-09-04 12:46:46 | 47.92821 | 17.02780 | 39° | 13km/h | 23205m | 4.7m/s | 0°C | 0% | 0hPa | 0V | 00:00:00 | 00:00:00 | 00:00:00 | |
| PETON7-10 | 2026-09-04 12:46:43 | 47.92812 | 17.02777 | 10° | 15km/h | 23190m | 6.0m/s | 0°C | 0% | 0hPa | 0V | 00:00:00 | 00:00:00 | 00:00:00 | |
| OE5MMP-10 | 2026-09-04 12:46:39 | 47.92801 | 17.02766 | 33° | 15km/h | 23161m | 9.6m/s | 0°C | 0% | 0hPa | 0V | 00:00:00 | 00:00:00 | 00:00:00 | |
| OE3OSB-13 | 2026-09-04 12:46:38 | 47.92794 | 17.02766 | 356° | 15km/h | 23146m | 8.0m/s | -53.2°C | 0.2% | 31.5hPa | 0V | 00:00:00 | 00:00:00 | 00:00:00 | |
| OE5DXL-15 | 2026-09-04 12:46:37 | 47.92794 | 17.02766 | 357° | 18km/h | 23146m | 8.0m/s | 0°C | 0% | 0hPa | 0V | 00:00:00 | 00:00:00 | 00:00:00 | |
| OE3JTB-15 | 2026-09-04 12:46:35 | 47.92778 | 17.02769 | 330° | 20km/h | 23118m | 6.9m/s | 0°C | 0% | 0hPa | 0V | 00:00:00 | 00:00:00 | 00:00:00 | |
| OE5MMP-10 | 2026-09-04 12:46:29 | 47.92767 | 17.02768 | 30° | 20km/h | 23099m | 5.0m/s | 0°C | 0% | 0hPa | 0V | 00:00:00 | 00:00:00 | 00:00:00 | |
| PETON7-10 | 2026-09-04 12:46:28 | 47.92762 | 17.02764 | 20° | 22km/h | 23092m | 8.4m/s | 0°C | 0% | 0hPa | 0V | 00:00:00 | 00:00:00 | 00:00:00 | |
| OK1ALN | 2026-09-04 12:46:25 | 47.92749 | 17.02762 | 5° | 18km/h | 23072m | 10.5m/s | 0°C | 0% | 0hPa | 0V | 00:00:00 | 00:00:00 | 00:00:00 | |
| ATIDSZ-14 | 2026-09-04 12:46:22 | 47.92734 | 17.02758 | 354° | 24km/h | 23050m | 7.5m/s | 0°C | 0% | 0hPa | 0V | 00:00:00 | 00:00:00 | 00:00:00 | |
| OE5MMP-10 | 2026-09-04 12:46:18 | 47.92708 | 17.02762 | 17° | 18km/h | 23026m | 5.4m/s | 0°C | 0% | 0hPa | 0V | 00:00:00 | 00:00:00 | 00:00:00 | |
| PETON7-10 | 2026-09-04 12:46:13 | 47.92685 | 17.02756 | 16° | 15km/h | 22994m | 5.8m/s | 0°C | 0% | 0hPa | 0V | 00:00:00 | 00:00:00 | 00:00:00 | |
| OE3OSB-13 | 2026-09-04 12:46:07 | 47.92651 | 17.02751 | 28° | 22km/h | 22947m | 7.4m/s | -52.3°C | 0.2% | 32.6hPa | 0V | 00:00:00 | 00:00:00 | 00:00:00 | |
| OK1ALN | 2026-09-04 12:46:04 | 47.92643 | 17.02747 | 361° | 15km/h | 22937m | 6.5m/s | 0°C | 0% | 0hPa | 0V | 00:00:00 | 00:00:00 | 00:00:00 | |
| ATIDSZ-14 | 2026-09-04 12:46:01 | 47.92638 | 17.02747 | 5° | 4km/h | 22916m | 4.7m/s | 0°C | 0% | 0hPa | 0V | 00:00:00 | 00:00:00 | 00:00:00 | |
| PETON7-10 | 2026-09-04 12:45:58 | 47.92629 | 17.02767 | 354° | 13km/h | 22900m | 4.7m/s | 0°C | 0% | 0hPa | 0V | 00:00:00 | 00:00:00 | 00:00:00 | |
| OE5MMP-10 | 2026-09-04 12:45:57 | 47.92625 | 17.02750 | 10° | 13km/h | 22894m | 7.9m/s | 0°C | 0% | 0hPa | 0V | 00:00:00 | 00:00:00 | 00:00:00 | |
| OE5MMP-10 | 2026-09-04 12:45:46 | 47.92597 | 17.02733 | 323° | 5km/h | 22825m | 8.4m/s | 0°C | 0% | 0hPa | 0V | 00:00:00 | 00:00:00 | 00:00:00 | |
| PETON7-10 | 2026-09-04 12:45:43 | 47.92594 | 17.02730 | 32° | 5km/h | 22805m | 7.8m/s | 0°C | 0% | 0hPa | 0V | 00:00:00 | 00:00:00 | 00:00:00 | |
| ATIDSZ-14 | 2026-09-04 12:45:40 | 47.92589 | 17.02729 | 28° | 5km/h | 22784m | 5.7m/s | 0°C | 0% | 0hPa | 0V | 00:00:00 | 00:00:00 | 00:00:00 | |
| PG1ADW-2 | 2026-09-04 12:45:39 | 47.92589 | 17.02728 | 95° | 7km/h | 22778m | 5.4m/s | 0°C | 0% | 0hPa | 0V | 00:00:00 | 00:00:00 | 00:00:00 | |
| OE5DXL-15 | 2026-09-04 12:45:37 | 47.92590 | 17.02727 | 192° | 13km/h | 22766m | 3.3m/s | 0°C | 0% | 0hPa | 0V | 00:00:00 | 00:00:00 | 00:00:00 | |
| OE5MMP-10 | 2026-09-04 12:45:36 | 47.92591 | 17.02727 | 211° | 7km/h | 22761m | 5.3m/s | 0°C | 0% | 0hPa | 0V | 00:00:00 | 00:00:00 | 00:00:00 | |
| OE3OSB-13 | 2026-09-04 12:45:35 | 47.92591 | 17.02726 | 107° | 5km/h | 22753m | 8.7m/s | -52.6°C | 0.2% | 33.8hPa | 0V | 00:00:00 | 00:00:00 | 00:00:00 | |
| PETON7-10 | 2026-09-04 12:45:28 | 47.92588 | 17.02709 | 79° | 15km/h | 22711m | 4.6m/s | 0°C | 0% | 0hPa | 0V | 00:00:00 | 00:00:00 | 00:00:00 | |
| OE5MMP-10 | 2026-09-04 12:45:26 | 47.92589 | 17.02703 | 119° | 13km/h | 22700m | 2.4m/s | 0°C | 0% | 0hPa | 0V | 00:00:00 | 00:00:00 | 00:00:00 | |
| OK1ALN | 2026-09-04 12:45:22 | 47.92598 | 17.02678 | 105° | 26km/h | 22673m | 4.3m/s | 0°C | 0% | 0hPa | 0V | 00:00:00 | 00:00:00 | 00:00:00 | |
| ATIDSZ-14 | 2026-09-04 12:45:19 | 47.92603 | 17.02663 | 171° | 7km/h | 22656m | 4.6m/s | 0°C | 0% | 0hPa | 0V | 00:00:00 | 00:00:00 | 00:00:00 | |
| OE5MMP-10 | 2026-09-04 12:45:16 | 47.92607 | 17.02653 | 116° | 16km/h | 22638m | 5.6m/s | 0°C | 0% | 0hPa | 0V | 00:00:00 | 00:00:00 | 00:00:00 | |
| PG1ADW-2 | 2026-09-04 12:45:14 | 47.92612 | 17.02640 | 126° | 24km/h | 22625m | 4.6m/s | 0°C | 0% | 0hPa | 0V | 00:00:00 | 00:00:00 | 00:00:00 | |
| PETON7-10 | 2026-09-04 12:45:13 | 47.92615 | 17.02632 | 114° | 16km/h | 22620m | 6.4m/s | 0°C | 0% | 0hPa | 0V | 00:00:00 | 00:00:00 | 00:00:00 | |
| OE5DXL-15 | 2026-09-04 12:45:07 | 47.92619 | 17.02596 | 108° | 16km/h | 22585m | 9.9m/s | 0°C | 0% | 0hPa | 0V | 00:00:00 | 00:00:00 | 00:00:00 | |
| OE5MMP-10 | 2026-09-04 12:45:06 | 47.92619 | 17.02592 | 81° | 16km/h | 22578m | 6.1m/s | 0°C | 0% | 0hPa | 0V | 00:00:00 | 00:00:00 | 00:00:00 | |
| OE3OSB-13 | 2026-09-04 12:45:05 | 47.92620 | 17.02580 | 106° | 20km/h | 22564m | 7.0m/s | -52.2°C | 0.2% | 35.0hPa | 0V | 00:00:00 | 00:00:00 | 00:00:00 | |
| OK1ALN | 2026-09-04 12:45:01 | 47.92626 | 17.02555 | 101° | 26km/h | 22545m | 6.1m/s | 0°C | 0% | 0hPa | 0V | 00:00:00 | 00:00:00 | 00:00:00 | |
| OE5MMP-10 | 2026-09-04 12:44:56 | 47.92626 | 17.02530 | 31° | 15km/h | 22515m | 7.4m/s | 0°C | 0% | 0hPa | 0V | 00:00:00 | 00:00:00 | 00:00:00 | |
| ATIDSZ-14 | 2026-09-04 12:44:54 | 47.92623 | 17.02526 | 62° | 9km/h | 22503m | 6.1m/s | 0°C | 0% | 0hPa | 0V | 00:00:00 | 00:00:00 | 00:00:00 | |
| OE5MMP-10 | 2026-09-04 12:44:46 | 47.92625 | 17.02479 | 69° | 18km/h | 22450m | 5.9m/s | 0°C | 0% | 0hPa | 0V | 00:00:00 | 00:00:00 | 00:00:00 | |
| PETON7-10 | 2026-09-04 12:44:40 | 47.92623 | 17.02448 | 100° | 22km/h | 22413m | 7.2m/s | 0°C | 0% | 0hPa | 0V | 00:00:00 | 00:00:00 | 00:00:00 | |
| OE5DXL-15 | 2026-09-04 12:44:37 | 47.92622 | 17.02417 | 82° | 15km/h | 22392m | 7.5m/s | 0°C | 0% | 0hPa | 0V | 00:00:00 | 00:00:00 | 00:00:00 | |
| OE5MMP-10 | 2026-09-04 12:44:36 | 47.92621 | 17.02408 | 92° | 16km/h | 22386m | 4.1m/s | 0°C | 0% | 0hPa | 0V | 00:00:00 | 00:00:00 | 00:00:00 | |
| OE3OSB-13 | 2026-09-04 12:44:34 | 47.92618 | 17.02383 | 81° | 11km/h | 22360m | 7.3m/s | -53.1°C | 0.3% | 36.2hPa | 0V | 00:00:00 | 00:00:00 | 00:00:00 | |
| OE5MMP-10 | 2026-09-04 12:44:26 | 47.92615 | 17.02344 | 66° | 15km/h | 22326m | 7.1m/s | 0°C | 0% | 0hPa | 0V | 00:00:00 | 00:00:00 | 00:00:00 | |
| ATIDSZ-14 | 2026-09-04 12:44:24 | 47.92612 | 17.02334 | 66° | 11km/h | 22314m | 5.9m/s | 0°C | 0% | 0hPa | 0V | 00:00:00 | 00:00:00 | 00:00:00 | |
| PG1ADW-2 | 2026-09-04 12:44:23 | 47.92611 | 17.02330 | 62° | 11km/h | 22307m | 7.6m/s | 0°C | 0% | 0hPa | 0V | 00:00:00 | 00:00:00 | 00:00:00 | |
| OE5MMP-10 | 2026-09-04 12:44:16 | 47.92604 | 17.02302 | 18° | 11km/h | 22265m | 6.2m/s | 0°C | 0% | 0hPa | 0V | 00:00:00 | 00:00:00 | 00:00:00 | |
| PETON7-10 | 2026-09-04 12:44:09 | 47.92582 | 17.02297 | 334° | 15km/h | 22218m | 3.7m/s | 0°C | 0% | 0hPa | 0V | 00:00:00 | 00:00:00 | 00:00:00 | |
| OE5MMP-10 | 2026-09-04 12:44:06 | 47.92577 | 17.02302 | 348° | 16km/h | 22199m | 5.4m/s | 0°C | 0% | 0hPa | 0V | 00:00:00 | 00:00:00 | 00:00:00 | |
| ATIDSZ-14 | 2026-09-04 12:44:03 | 47.92564 | 17.02308 | 332° | 18km/h | 22181m | 3.8m/s | 0°C | 0% | 0hPa | 0V | 00:00:00 | 00:00:00 | 00:00:00 | |
| OE3OSB-13 | 2026-09-04 12:44:02 | 47.92558 | 17.02315 | 338° | 16km/h | 22171m | 7.6m/s | -53.6°C | 0.3% | 37.5hPa | 0V | 00:00:00 | 00:00:00 | 00:00:00 | |
| OE5MMP-10 | 2026-09-04 12:43:56 | 47.92542 | 17.02332 | 305° | 20km/h | 22141m | 6.5m/s | 0°C | 0% | 0hPa | 0V | 00:00:00 | 00:00:00 | 00:00:00 | |
| PETON7-10 | 2026-09-04 12:43:54 | 47.92534 | 17.02343 | 341° | 20km/h | 22126m | 5.1m/s | 0°C | 0% | 0hPa | 0V | 00:00:00 | 00:00:00 | 00:00:00 | |
| OE5MMP-10 | 2026-09-04 12:43:46 | 47.92508 | 17.02382 | 299° | 15km/h | 22079m | 5.3m/s | 0°C | 0% | 0hPa | 0V | 00:00:00 | 00:00:00 | 00:00:00 | |
| ATIDSZ-14 | 2026-09-04 12:43:41 | 47.92491 | 17.02412 | 309° | 18km/h | 22044m | 7.3m/s | 0°C | 0% | 0hPa | 0V | 00:00:00 | 00:00:00 | 00:00:00 | |
| PETON7-10 | 2026-09-04 12:43:39 | 47.92488 | 17.02422 | 270° | 9km/h | 22031m | 6.3m/s | 0°C | 0% | 0hPa | 0V | 00:00:00 | 00:00:00 | 00:00:00 | |
| OE5DXL-15 | 2026-09-04 12:43:36 | 47.92484 | 17.02429 | 328° | 7km/h | 22010m | 5.1m/s | 0°C | 0% | 0hPa | 0V | 00:00:00 | 00:00:00 | 00:00:00 | |
| OE5MMP-10 | 2026-09-04 12:43:35 | 47.92483 | 17.02431 | 300° | 9km/h | 22004m | 6.5m/s | 0°C | 0% | 0hPa | 0V | 00:00:00 | 00:00:00 | 00:00:00 | |
| OE3OSB-13 | 2026-09-04 12:43:33 | 47.92477 | 17.02454 | 322° | 9km/h | 21975m | 6.0m/s | -53.3°C | 0.3% | 38.8hPa | 0V | 00:00:00 | 00:00:00 | 00:00:00 | |
| OE5MMP-10 | 2026-09-04 12:43:25 | 47.92475 | 17.02462 | 43° | 5km/h | 21938m | 5.4m/s | 0°C | 0% | 0hPa | 0V | 00:00:00 | 00:00:00 | 00:00:00 | |
| PETON7-10 | 2026-09-04 12:43:22 | 47.92476 | 17.02462 | 210° | 7km/h | 21921m | 5.0m/s | 0°C | 0% | 0hPa | 0V | 00:00:00 | 00:00:00 | 00:00:00 | |
| ATIDSZ-14 | 2026-09-04 12:43:19 | 47.92472 | 17.02463 | 336° | 7km/h | 21902m | 6.5m/s | 0°C | 0% | 0hPa | 0V | 00:00:00 | 00:00:00 | 00:00:00 | |
| OE5MMP-10 | 2026-09-04 12:43:15 | 47.92472 | 17.02470 | 263° | 7km/h | 21875m | 6.0m/s | 0°C | 0% | 0hPa | 0V | 00:00:00 | 00:00:00 | 00:00:00 | |
| PETON7-10 | 2026-09-04 12:43:07 | 47.92463 | 17.02476 | 304° | 11km/h | 21827m | 8.1m/s | 0°C | 0% | 0hPa | 0V | 00:00:00 | 00:00:00 | 00:00:00 | |
| OE5DXL-15 | 2026-09-04 12:43:06 | 47.92462 | 17.02480 | 264° | 9km/h | 21819m | 6.0m/s | 0°C | 0% | 0hPa | 0V | 00:00:00 | 00:00:00 | 00:00:00 | |
| OE5MMP-10 | 2026-09-04 12:43:04 | 47.92463 | 17.02485 | 283° | 13km/h | 21806m | 7.4m/s | 0°C | 0% | 0hPa | 0V | 00:00:00 | 00:00:00 | 00:00:00 | |
| OE3OSB-13 | 2026-09-04 12:43:00 | 47.92455 | 17.02496 | 321° | 15km/h | 21775m | 8.7m/s | -52.9°C | 0.4% | 40.1hPa | 0V | 00:00:00 | 00:00:00 | 00:00:00 | |
| ATIDSZ-14 | 2026-09-04 12:42:57 | 47.92447 | 17.02504 | 314° | 18km/h | 21762m | 6.8m/s | 0°C | 0% | 0hPa | 0V | 00:00:00 | 00:00:00 | 00:00:00 | |
| OE5MMP-10 | 2026-09-04 12:42:53 | 47.92442 | 17.02522 | 358° | 9km/h | 21737m | 4.3m/s | 0°C | 0% | 0hPa | 0V | 00:00:00 | 00:00:00 | 00:00:00 | |
| PETON7-10 | 2026-09-04 12:42:52 | 47.92442 | 17.02523 | 317° | 9km/h | 21731m | 8.1m/s | 0°C | 0% | 0hPa | 0V | 00:00:00 | 00:00:00 | 00:00:00 | |
| PG1ADW-2 | 2026-09-04 12:42:48 | 47.92436 | 17.02532 | 335° | 7km/h | 21705m | 4.6m/s | 0°C | 0% | 0hPa | 0V | 00:00:00 | 00:00:00 | 00:00:00 | |
| OE5MMP-10 | 2026-09-04 12:42:42 | 47.92428 | 17.02546 | 359° | 5km/h | 21669m | 6.1m/s | 0°C | 0% | 0hPa | 0V | 00:00:00 | 00:00:00 | 00:00:00 | |
| OE3JTB-15 | 2026-09-04 12:42:40 | 47.92423 | 17.02553 | 9° | 5km/h | 21633m | 5.9m/s | 0°C | 0% | 0hPa | 0V | 00:00:00 | 00:00:00 | 00:00:00 | |
| PETON7-10 | 2026-09-04 12:42:37 | 47.92423 | 17.02553 | 9° | 5km/h | 21633m | 5.9m/s | 0°C | 0% | 0hPa | 0V | 00:00:00 | 00:00:00 | 00:00:00 | |
| OE5DXL-15 | 2026-09-04 12:42:36 | 47.92422 | 17.02552 | 21° | 5km/h | 21628m | 4.9m/s | 0°C | 0% | 0hPa | 0V | 00:00:00 | 00:00:00 | 00:00:00 | |
| OE5MMP-10 | 2026-09-04 12:42:32 | 47.92421 | 17.02548 | 88° | 5km/h | 21602m | 5.9m/s | 0°C | 0% | 0hPa | 0V | 00:00:00 | 00:00:00 | 00:00:00 | |
| OE3OSB-13 | 2026-09-04 12:42:29 | 47.92419 | 17.02543 | 277° | 5km/h | 21577m | 6.7m/s | -53.1°C | 0.5% | 41.5hPa | 0V | 00:00:00 | 00:00:00 | 00:00:00 | |
| PG1ADW-2 | 2026-09-04 12:42:24 | 47.92418 | 17.02567 | 219° | 4km/h | 21550m | 2.8m/s | 0°C | 0% | 0hPa | 0V | 00:00:00 | 00:00:00 | 00:00:00 | |
| PETON7-10 | 2026-09-04 12:42:22 | 47.92419 | 17.02551 | 131° | 5km/h | 21539m | 7.9m/s | 0°C | 0% | 0hPa | 0V | 00:00:00 | 00:00:00 | 00:00:00 | |
| OE5MMP-10 | 2026-09-04 12:42:21 | 47.92419 | 17.02549 | 107° | 5km/h | 21532m | 6.6m/s | 0°C | 0% | 0hPa | 0V | 00:00:00 | 00:00:00 | 00:00:00 | |
| ATIDSZ-14 | 2026-09-04 12:42:16 | 47.92425 | 17.02547 | 193° | 5km/h | 21495m | 8.0m/s | 0°C | 0% | 0hPa | 0V | 00:00:00 | 00:00:00 | 00:00:00 | |
| OE5MMP-10 | 2026-09-04 12:42:10 | 47.92424 | 17.02547 | 96° | 7km/h | 21457m | 4.7m/s | 0°C | 0% | 0hPa | 0V | 00:00:00 | 00:00:00 | 00:00:00 | |
| PETON7-10 | 2026-09-04 12:42:07 | 47.92427 | 17.02539 | 173° | 4km/h | 21440m | 5.4m/s | 0°C | 0% | 0hPa | 0V | 00:00:00 | 00:00:00 | 00:00:00 | |
| OE5DXL-15 | 2026-09-04 12:42:06 | 47.92428 | 17.02538 | 156° | 7km/h | 21433m | 7.3m/s | 0°C | 0% | 0hPa | 0V | 00:00:00 | 00:00:00 | 00:00:00 | |
| OE5MMP-10 | 2026-09-04 12:42:00 | 47.92430 | 17.02542 | 223° | 4km/h | 21397m | 7.5m/s | 0°C | 0% | 0hPa | 0V | 00:00:00 | 00:00:00 | 00:00:00 | |
| OE3OSB-13 | 2026-09-04 12:41:58 | 47.92433 | 17.02542 | 175° | 0km/h | 21378m | 2.9m/s | -53.3°C | 0.5% | 43.0hPa | 0V | 00:00:00 | 00:00:00 | 00:00:00 | |
| ATIDSZ-14 | 2026-09-04 12:41:56 | 47.92433 | 17.02542 | 258° | 4km/h | 21374m | 6.1m/s | 0°C | 0% | 0hPa | 0V | 00:00:00 | 00:00:00 | 00:00:00 | |
| PETON7-10 | 2026-09-04 12:41:51 | 47.92434 | 17.02536 | 222° | 9km/h | 21342m | 5.7m/s | 0°C | 0% | 0hPa | 0V | 00:00:00 | 00:00:00 | 00:00:00 | |
| OE5MMP-10 | 2026-09-04 12:41:50 | 47.92435 | 17.02536 | 169° | 9km/h | 21335m | 7.8m/s | 0°C | 0% | 0hPa | 0V | 00:00:00 | 00:00:00 | 00:00:00 | |
| OE5MMP-10 | 2026-09-04 12:41:40 | 47.92447 | 17.02508 | 158° | 15km/h | 21281m | 5.4m/s | 0°C | 0% | 0hPa | 0V | 00:00:00 | 00:00:00 | 00:00:00 | |
| OE5DXL-15 | 2026-09-04 12:41:36 | 47.92459 | 17.02493 | 125° | 20km/h | 21257m | 4.6m/s | 0°C | 0% | 0hPa | 0V | 00:00:00 | 00:00:00 | 00:00:00 | |
| PETON7-10 | 2026-09-04 12:41:35 | 47.92460 | 17.02490 | 108° | 18km/h | 21253m | 4.9m/s | 0°C | 0% | 0hPa | 0V | 00:00:00 | 00:00:00 | 00:00:00 | |
| OE3JTB-15 | 2026-09-04 12:41:34 | 47.92468 | 17.02472 | 125° | 22km/h | 21227m | 8.4m/s | 0°C | 0% | 0hPa | 0V | 00:00:00 | 00:00:00 | 00:00:00 | |
| OE5MMP-10 | 2026-09-04 12:41:30 | 47.92470 | 17.02467 | 129° | 18km/h | 21220m | 5.5m/s | 0°C | 0% | 0hPa | 0V | 00:00:00 | 00:00:00 | 00:00:00 | |
| OE3OSB-13 | 2026-09-04 12:41:27 | 47.92476 | 17.02437 | 87° | 22km/h | 21194m | 7.9m/s | -53.3°C | 0.5% | 44.4hPa | 0V | 00:00:00 | 00:00:00 | 00:00:00 | |
| PG1ADW-2 | 2026-09-04 12:41:26 | 47.92476 | 17.02437 | 88° | 20km/h | 21194m | 7.9m/s | 0°C | 0% | 0hPa | 0V | 00:00:00 | 00:00:00 | 00:00:00 | |
| OE5MMP-10 | 2026-09-04 12:41:20 | 47.92483 | 17.02401 | 121° | 26km/h | 21158m | 3.8m/s | 0°C | 0% | 0hPa | 0V | 00:00:00 | 00:00:00 | 00:00:00 | |
| PETON7-10 | 2026-09-04 12:41:19 | 47.92485 | 17.02395 | 114° | 26km/h | 21153m | 5.5m/s | 0°C | 0% | 0hPa | 0V | 00:00:00 | 00:00:00 | 00:00:00 | |
| ATIDSZ-14 | 2026-09-04 12:41:15 | 47.92487 | 17.02354 | 87° | 29km/h | 21131m | 2.5m/s | 0°C | 0% | 0hPa | 0V | 00:00:00 | 00:00:00 | 00:00:00 | |
| OE5MMP-10 | 2026-09-04 12:41:10 | 47.92495 | 17.02309 | 122° | 22km/h | 21103m | 5.3m/s | 0°C | 0% | 0hPa | 0V | 00:00:00 | 00:00:00 | 00:00:00 | |
| OE5DXL-15 | 2026-09-04 12:41:06 | 47.92505 | 17.02279 | 108° | 15km/h | 21080m | 6.3m/s | 0°C | 0% | 0hPa | 0V | 00:00:00 | 00:00:00 | 00:00:00 | |
| PETON7-10 | 2026-09-04 12:41:04 | 47.92507 | 17.02260 | 82° | 15km/h | 21066m | 5.7m/s | 0°C | 0% | 0hPa | 0V | 00:00:00 | 00:00:00 | 00:00:00 | |
| OE5MMP-10 | 2026-09-04 12:41:00 | 47.92506 | 17.02234 | 93° | 15km/h | 21040m | 6.5m/s | 0°C | 0% | 0hPa | 0V | 00:00:00 | 00:00:00 | 00:00:00 | |
| OE3OSB-13 | 2026-09-04 12:40:56 | 47.92511 | 17.02203 | 95° | 20km/h | 21012m | 7.8m/s | -54.1°C | 0.5% | 45.7hPa | 0V | 00:00:00 | 00:00:00 | 00:00:00 | |
| ATIDSZ-14 | 2026-09-04 12:40:55 | 47.92510 | 17.02203 | 97° | 22km/h | 21013m | 7.8m/s | 0°C | 0% | 0hPa | 0V | 00:00:00 | 00:00:00 | 00:00:00 | |
| PG1ADW-2 | 2026-09-04 12:40:52 | 47.92508 | 17.02185 | 70° | 18km/h | 20996m | 6.9m/s | 0°C | 0% | 0hPa | 0V | 00:00:00 | 00:00:00 | 00:00:00 | |
| OE5MMP-10 | 2026-09-04 12:40:50 | 47.92507 | 17.02177 | 100° | 11km/h | 20984m | 6.5m/s | 0°C | 0% | 0hPa | 0V | 00:00:00 | 00:00:00 | 00:00:00 | |
| PETON7-10 | 2026-09-04 12:40:48 | 47.92507 | 17.02171 | 71° | 13km/h | 20970m | 4.4m/s | 0°C | 0% | 0hPa | 0V | 00:00:00 | 00:00:00 | 00:00:00 | |
| OE5MMP-10 | 2026-09-04 12:40:40 | 47.92508 | 17.02139 | 142° | 15km/h | 20924m | 3.8m/s | 0°C | 0% | 0hPa | 0V | 00:00:00 | 00:00:00 | 00:00:00 | |
| OE5DXL-15 | 2026-09-04 12:40:36 | 47.92511 | 17.02119 | 98° | 16km/h | 20902m | 9.1m/s | 0°C | 0% | 0hPa | 0V | 00:00:00 | 00:00:00 | 00:00:00 | |
| ATIDSZ-14 | 2026-09-04 12:40:34 | 47.92513 | 17.02103 | 98° | 20km/h | 20890m | 5.8m/s | 0°C | 0% | 0hPa | 0V | 00:00:00 | 00:00:00 | 00:00:00 | |
| OE3JTB-15 | 2026-09-04 12:40:30 | 47.92509 | 17.02071 | 91° | 20km/h | 20849m | 5.5m/s | 0°C | 0% | 0hPa | 0V | 00:00:00 | 00:00:00 | 00:00:00 | |
| OE3OSB-13 | 2026-09-04 12:40:25 | 47.92514 | 17.02046 | 114° | 24km/h | 20831m | 4.3m/s | -54.0°C | 0.5% | 47.2hPa | 0V | 00:00:00 | 00:00:00 | 00:00:00 | |
| OE5MMP-10 | 2026-09-04 12:40:20 | 47.92512 | 17.02027 | 31° | 20km/h | 20809m | 7.7m/s | 0°C | 0% | 0hPa | 0V | 00:00:00 | 00:00:00 | 00:00:00 | |
| PETON7-10 | 2026-09-04 12:40:14 | 47.92516 | 17.01997 | 115° | 24km/h | 20773m | 8.3m/s | 0°C | 0% | 0hPa | 0V | 00:00:00 | 00:00:00 | 00:00:00 | |
| ATIDSZ-14 | 2026-09-04 12:40:13 | 47.92519 | 17.01987 | 125° | 29km/h | 20767m | 3.9m/s | 0°C | 0% | 0hPa | 0V | 00:00:00 | 00:00:00 | 00:00:00 | |
| OE5MMP-10 | 2026-09-04 12:40:10 | 47.92525 | 17.01963 | 94° | 22km/h | 20750m | 6.1m/s | 0°C | 0% | 0hPa | 0V | 00:00:00 | 00:00:00 | 00:00:00 | |
| OE5DXL-15 | 2026-09-04 12:40:06 | 47.92530 | 17.01937 | 106° | 29km/h | 20727m | 2.5m/s | 0°C | 0% | 0hPa | 0V | 00:00:00 | 00:00:00 | 00:00:00 | |
| OE3JTB-15 | 2026-09-04 12:40:01 | 47.92542 | 17.01889 | 107° | 29km/h | 20700m | 3.4m/s | 0°C | 0% | 0hPa | 0V | 00:00:00 | 00:00:00 | 00:00:00 | |
| OE5MMP-10 | 2026-09-04 12:40:00 | 47.92544 | 17.01878 | 102° | 27km/h | 20695m | 6.2m/s | 0°C | 0% | 0hPa | 0V | 00:00:00 | 00:00:00 | 00:00:00 | |
| OE3OSB-13 | 2026-09-04 12:39:54 | 47.92554 | 17.01806 | 96° | 27km/h | 20652m | 9.2m/s | -55.1°C | 0.6% | 48.6hPa | 0V | 00:00:00 | 00:00:00 | 00:00:00 | |
| ATIDSZ-14 | 2026-09-04 12:39:52 | 47.92556 | 17.01797 | 103° | 26km/h | 20645m | 2.8m/s | 0°C | 0% | 0hPa | 0V | 00:00:00 | 00:00:00 | 00:00:00 | |
| OE5MMP-10 | 2026-09-04 12:39:50 | 47.92555 | 17.01778 | 80° | 29km/h | 20637m | 2.9m/s | 0°C | 0% | 0hPa | 0V | 00:00:00 | 00:00:00 | 00:00:00 | |
| PETON7-10 | 2026-09-04 12:39:43 | 47.92546 | 17.01701 | 88° | 29km/h | 20594m | 7.7m/s | 0°C | 0% | 0hPa | 0V | 00:00:00 | 00:00:00 | 00:00:00 | |
| OE5MMP-10 | 2026-09-04 12:39:40 | 47.92548 | 17.01667 | 91° | 31km/h | 20575m | 5.6m/s | 0°C | 0% | 0hPa | 0V | 00:00:00 | 00:00:00 | 00:00:00 | |
| OE5DXL-15 | 2026-09-04 12:39:36 | 47.92540 | 17.01623 | 78° | 24km/h | 20551m | 3.8m/s | 0°C | 0% | 0hPa | 0V | 00:00:00 | 00:00:00 | 00:00:00 | |
| OE3JTB-15 | 2026-09-04 12:39:32 | 47.92532 | 17.01567 | 89° | 22km/h | 20522m | 4.4m/s | 0°C | 0% | 0hPa | 0V | 00:00:00 | 00:00:00 | 00:00:00 | |
| OE5MMP-10 | 2026-09-04 12:39:30 | 47.92532 | 17.01557 | 81° | 27km/h | 20517m | 5.3m/s | 0°C | 0% | 0hPa | 0V | 00:00:00 | 00:00:00 | 00:00:00 | |
| OE3OSB-13 | 2026-09-04 12:39:23 | 47.92502 | 17.01491 | 65° | 22km/h | 20471m | 6.3m/s | -54.5°C | 0.7% | 50.2hPa | 0V | 00:00:00 | 00:00:00 | 00:00:00 | |
| OE5MMP-10 | 2026-09-04 12:39:20 | 47.92499 | 17.01476 | 90° | 26km/h | 20457m | 6.0m/s | 0°C | 0% | 0hPa | 0V | 00:00:00 | 00:00:00 | 00:00:00 | |
| ATIDSZ-14 | 2026-09-04 12:39:13 | 47.92475 | 17.01417 | 65° | 20km/h | 20409m | 6.0m/s | 0°C | 0% | 0hPa | 0V | 00:00:00 | 00:00:00 | 00:00:00 | |
| OE5MMP-10 | 2026-09-04 12:39:08 | 47.92474 | 17.01394 | 103° | 16km/h | 20378m | 8.4m/s | 0°C | 0% | 0hPa | 0V | 00:00:00 | 00:00:00 | 00:00:00 | |
| OE5DXL-15 | 2026-09-04 12:39:06 | 47.92473 | 17.01381 | 82° | 9km/h | 20367m | 5.6m/s | 0°C | 0% | 0hPa | 0V | 00:00:00 | 00:00:00 | 00:00:00 | |
| OE3JTB-15 | 2026-09-04 12:39:03 | 47.92468 | 17.01359 | 68° | 9km/h | 20340m | 8.6m/s | 0°C | 0% | 0hPa | 0V | 00:00:00 | 00:00:00 | 00:00:00 | |
| OE3OSB-13 | 2026-09-04 12:38:52 | 47.92463 | 17.01311 | 55° | 5km/h | 20269m | 4.9m/s | -53.3°C | 0.8% | 52.0hPa | 0V | 00:00:00 | 00:00:00 | 00:00:00 | |
| ATIDSZ-14 | 2026-09-04 12:38:51 | 47.92463 | 17.01311 | 56° | 5km/h | 20269m | 4.9m/s | 0°C | 0% | 0hPa | 0V | 00:00:00 | 00:00:00 | 00:00:00 | |
| OE5MMP-10 | 2026-09-04 12:38:48 | 47.92462 | 17.01308 | 221° | 5km/h | 20252m | 5.8m/s | 0°C | 0% | 0hPa | 0V | 00:00:00 | 00:00:00 | 00:00:00 | |
| PETON7-10 | 2026-09-04 12:38:43 | 47.92463 | 17.01300 | 82° | 9km/h | 20222m | 8.2m/s | 0°C | 0% | 0hPa | 0V | 00:00:00 | 00:00:00 | 00:00:00 | |
| PG1ADW-2 | 2026-09-04 12:38:41 | 47.92466 | 17.01293 | 130° | 15km/h | 20209m | 5.7m/s | 0°C | 0% | 0hPa | 0V | 00:00:00 | 00:00:00 | 00:00:00 | |
| OE5MMP-10 | 2026-09-04 12:38:37 | 47.92467 | 17.01289 | 189° | 11km/h | 20186m | 8.3m/s | 0°C | 0% | 0hPa | 0V | 00:00:00 | 00:00:00 | 00:00:00 | |
| OE5DXL-15 | 2026-09-04 12:38:36 | 47.92469 | 17.01289 | 171° | 16km/h | 20179m | 7.4m/s | 0°C | 0% | 0hPa | 0V | 00:00:00 | 00:00:00 | 00:00:00 | |
| PETON7-10 | 2026-09-04 12:38:28 | 47.92489 | 17.01278 | 142° | 18km/h | 20133m | 5.1m/s | 0°C | 0% | 0hPa | 0V | 00:00:00 | 00:00:00 | 00:00:00 | |
| OE5MMP-10 | 2026-09-04 12:38:26 | 47.92493 | 17.01273 | 157° | 18km/h | 20121m | 5.8m/s | 0°C | 0% | 0hPa | 0V | 00:00:00 | 00:00:00 | 00:00:00 | |
| OE3OSB-13 | 2026-09-04 12:38:21 | 47.92516 | 17.01253 | 152° | 22km/h | 20084m | 5.5m/s | -53.8°C | 0.7% | 53.7hPa | 0V | 00:00:00 | 00:00:00 | 00:00:00 | |
| OE5MMP-10 | 2026-09-04 12:38:16 | 47.92534 | 17.01240 | 162° | 22km/h | 20059m | 7.3m/s | 0°C | 0% | 0hPa | 0V | 00:00:00 | 00:00:00 | 00:00:00 | |
| PETON7-10 | 2026-09-04 12:38:13 | 47.92551 | 17.01226 | 128° | 16km/h | 20039m | 5.9m/s | 0°C | 0% | 0hPa | 0V | 00:00:00 | 00:00:00 | 00:00:00 | |
| ATIDSZ-14 | 2026-09-04 12:38:07 | 47.92570 | 17.01192 | 121° | 13km/h | 20001m | 5.0m/s | 0°C | 0% | 0hPa | 0V | 00:00:00 | 00:00:00 | 00:00:00 | |
| OE3JTB-15 | 2026-09-04 12:38:05 | 47.92575 | 17.01184 | 153° | 11km/h | 19988m | 4.7m/s | 0°C | 0% | 0hPa | 0V | 00:00:00 | 00:00:00 | 00:00:00 | |
| OE3OSB-13 | 2026-09-04 12:37:50 | 47.92594 | 17.01119 | 56° | 5km/h | 19898m | 5.6m/s | -55.6°C | 0.8% | 55.4hPa | 0V | 00:00:00 | 00:00:00 | 00:00:00 | |
| ATIDSZ-14 | 2026-09-04 12:37:46 | 47.92590 | 17.01108 | 65° | 9km/h | 19882m | 7.0m/s | 0°C | 0% | 0hPa | 0V | 00:00:00 | 00:00:00 | 00:00:00 | |
| OE5MMP-10 | 2026-09-04 12:37:45 | 47.92589 | 17.01106 | 98° | 11km/h | 19876m | 5.0m/s | 0°C | 0% | 0hPa | 0V | 00:00:00 | 00:00:00 | 00:00:00 | |
| PETON7-10 | 2026-09-04 12:37:43 | 47.92592 | 17.01103 | 156° | 9km/h | 19865m | 7.0m/s | 0°C | 0% | 0hPa | 0V | 00:00:00 | 00:00:00 | 00:00:00 | |
| OE5DXL-15 | 2026-09-04 12:37:36 | 47.92602 | 17.01094 | 38° | 7km/h | 19825m | 5.9m/s | 0°C | 0% | 0hPa | 0V | 00:00:00 | 00:00:00 | 00:00:00 | |
| OE5MMP-10 | 2026-09-04 12:37:34 | 47.92598 | 17.01093 | 314° | 7km/h | 19814m | 4.9m/s | 0°C | 0% | 0hPa | 0V | 00:00:00 | 00:00:00 | 00:00:00 | |
| PETON7-10 | 2026-09-04 12:37:27 | 47.92608 | 17.01103 | 249° | 5km/h | 19778m | 5.3m/s | 0°C | 0% | 0hPa | 0V | 00:00:00 | 00:00:00 | 00:00:00 | |
| ATIDSZ-14 | 2026-09-04 12:37:25 | 47.92608 | 17.01102 | 100° | 7km/h | 19767m | 4.1m/s | 0°C | 0% | 0hPa | 0V | 00:00:00 | 00:00:00 | 00:00:00 | |
| OE5MMP-10 | 2026-09-04 12:37:24 | 47.92609 | 17.01100 | 115° | 5km/h | 19762m | 6.4m/s | 0°C | 0% | 0hPa | 0V | 00:00:00 | 00:00:00 | 00:00:00 | |
| OE3OSB-13 | 2026-09-04 12:37:19 | 47.92612 | 17.01112 | 280° | 9km/h | 19726m | 3.6m/s | -54.7°C | 0.8% | 57.0hPa | 0V | 00:00:00 | 00:00:00 | 00:00:00 | |
| PG1ADW-2 | 2026-09-04 12:37:16 | 47.92612 | 17.01114 | 302° | 9km/h | 19721m | 6.4m/s | 0°C | 0% | 0hPa | 0V | 00:00:00 | 00:00:00 | 00:00:00 | |
| OE5MMP-10 | 2026-09-04 12:37:14 | 47.92612 | 17.01112 | 127° | 7km/h | 19711m | 5.2m/s | 0°C | 0% | 0hPa | 0V | 00:00:00 | 00:00:00 | 00:00:00 | |
| PETON7-10 | 2026-09-04 12:37:12 | 47.92615 | 17.01111 | 185° | 11km/h | 19701m | 3.7m/s | 0°C | 0% | 0hPa | 0V | 00:00:00 | 00:00:00 | 00:00:00 | |
| OE3JTB-15 | 2026-09-04 12:37:07 | 47.92617 | 17.01118 | 289° | 16km/h | 19676m | 3.6m/s | 0°C | 0% | 0hPa | 0V | 00:00:00 | 00:00:00 | 00:00:00 | |
| OE5DXL-15 | 2026-09-04 12:37:06 | 47.92616 | 17.01122 | 292° | 15km/h | 19674m | 0.7m/s | 0°C | 0% | 0hPa | 0V | 00:00:00 | 00:00:00 | 00:00:00 | |
| ATIDSZ-14 | 2026-09-04 12:37:04 | 47.92616 | 17.01124 | 97° | 7km/h | 19661m | 6.8m/s | 0°C | 0% | 0hPa | 0V | 00:00:00 | 00:00:00 | 00:00:00 | |
| OE5MMP-10 | 2026-09-04 12:37:03 | 47.92617 | 17.01120 | 123° | 13km/h | 19656m | 3.9m/s | 0°C | 0% | 0hPa | 0V | 00:00:00 | 00:00:00 | 00:00:00 | |
| OE3OSB-13 | 2026-09-04 12:36:48 | 47.92660 | 17.01074 | 129° | 11km/h | 19565m | 6.9m/s | -55.2°C | 0.7% | 58.6hPa | 0V | 00:00:00 | 00:00:00 | 00:00:00 | |
| ATIDSZ-14 | 2026-09-04 12:36:44 | 47.92662 | 17.01066 | 104° | 15km/h | 19556m | 6.6m/s | 0°C | 0% | 0hPa | 0V | 00:00:00 | 00:00:00 | 00:00:00 | |
| PETON7-10 | 2026-09-04 12:36:42 | 47.92665 | 17.01052 | 111° | 22km/h | 19546m | 4.5m/s | 0°C | 0% | 0hPa | 0V | 00:00:00 | 00:00:00 | 00:00:00 | |
| OE5MMP-10 | 2026-09-04 12:36:41 | 47.92667 | 17.01044 | 109° | 22km/h | 19541m | 5.7m/s | 0°C | 0% | 0hPa | 0V | 00:00:00 | 00:00:00 | 00:00:00 | |
| OE5DXL-15 | 2026-09-04 12:36:36 | 47.92685 | 17.01013 | 156° | 27km/h | 19517m | 6.3m/s | 0°C | 0% | 0hPa | 0V | 00:00:00 | 00:00:00 | 00:00:00 | |
| OE5MMP-10 | 2026-09-04 12:36:30 | 47.92715 | 17.00986 | 138° | 31km/h | 19489m | 4.8m/s | 0°C | 0% | 0hPa | 0V | 00:00:00 | 00:00:00 | 00:00:00 | |
| PETON7-10 | 2026-09-04 12:36:27 | 47.92731 | 17.00967 | 138° | 29km/h | 19475m | 5.2m/s | 0°C | 0% | 0hPa | 0V | 00:00:00 | 00:00:00 | 00:00:00 | |
| ATIDSZ-14 | 2026-09-04 12:36:23 | 47.92747 | 17.00937 | 131° | 22km/h | 19454m | 4.6m/s | 0°C | 0% | 0hPa | 0V | 00:00:00 | 00:00:00 | 00:00:00 | |
| OE5MMP-10 | 2026-09-04 12:36:19 | 47.92764 | 17.00900 | 125° | 33km/h | 19435m | 3.6m/s | 0°C | 0% | 0hPa | 0V | 00:00:00 | 00:00:00 | 00:00:00 | |
| OE3OSB-13 | 2026-09-04 12:36:17 | 47.92786 | 17.00864 | 127° | 33km/h | 19415m | 6.2m/s | -56.9°C | 0.6% | 60.1hPa | 0V | 00:00:00 | 00:00:00 | 00:00:00 | |
| PG1ADW-2 | 2026-09-04 12:36:15 | 47.92786 | 17.00863 | 128° | 24km/h | 19415m | 6.2m/s | 0°C | 0% | 0hPa | 0V | 00:00:00 | 00:00:00 | 00:00:00 | |
| PETON7-10 | 2026-09-04 12:36:12 | 47.92799 | 17.00834 | 117° | 24km/h | 19400m | 5.2m/s | 0°C | 0% | 0hPa | 0V | 00:00:00 | 00:00:00 | 00:00:00 | |
| OE5MMP-10 | 2026-09-04 12:36:09 | 47.92804 | 17.00806 | 99° | 24km/h | 19385m | 4.6m/s | 0°C | 0% | 0hPa | 0V | 00:00:00 | 00:00:00 | 00:00:00 | |
| OE5DXL-15 | 2026-09-04 12:36:05 | 47.92805 | 17.00774 | 97° | 22km/h | 19366m | 5.1m/s | 0°C | 0% | 0hPa | 0V | 00:00:00 | 00:00:00 | 00:00:00 | |
| ATIDSZ-14 | 2026-09-04 12:36:02 | 47.92809 | 17.00740 | 106° | 29km/h | 19351m | 4.6m/s | 0°C | 0% | 0hPa | 0V | 00:00:00 | 00:00:00 | 00:00:00 | |
| OE3OSB-13 | 2026-09-04 12:35:45 | 47.92841 | 17.00609 | 92° | 18km/h | 19258m | 6.2m/s | -56.9°C | 0.7% | 61.7hPa | 0V | 00:00:00 | 00:00:00 | 00:00:00 | |
| PETON7-10 | 2026-09-04 12:35:42 | 47.92842 | 17.00594 | 106° | 26km/h | 19248m | 6.3m/s | 0°C | 0% | 0hPa | 0V | 00:00:00 | 00:00:00 | 00:00:00 | |
| OE5MMP-10 | 2026-09-04 12:35:39 | 47.92851 | 17.00569 | 121° | 24km/h | 19232m | 5.8m/s | 0°C | 0% | 0hPa | 0V | 00:00:00 | 00:00:00 | 00:00:00 | |
| OE5DXL-15 | 2026-09-04 12:35:35 | 47.92862 | 17.00535 | 114° | 26km/h | 19210m | 3.6m/s | 0°C | 0% | 0hPa | 0V | 00:00:00 | 00:00:00 | 00:00:00 | |
| PG1ADW-2 | 2026-09-04 12:35:34 | 47.92864 | 17.00526 | 110° | 24km/h | 19205m | 5.7m/s | 0°C | 0% | 0hPa | 0V | 00:00:00 | 00:00:00 | 00:00:00 | |
| OE3JTB-15 | 2026-09-04 12:35:32 | 47.92874 | 17.00485 | 121° | 27km/h | 19180m | 3.5m/s | 0°C | 0% | 0hPa | 0V | 00:00:00 | 00:00:00 | 00:00:00 | |
| OE5MMP-10 | 2026-09-04 12:35:28 | 47.92878 | 17.00476 | 119° | 29km/h | 19174m | 7.5m/s | 0°C | 0% | 0hPa | 0V | 00:00:00 | 00:00:00 | 00:00:00 | |
| PETON7-10 | 2026-09-04 12:35:26 | 47.92884 | 17.00459 | 123° | 27km/h | 19163m | 4.8m/s | 0°C | 0% | 0hPa | 0V | 00:00:00 | 00:00:00 | 00:00:00 | |
| ATIDSZ-14 | 2026-09-04 12:35:22 | 47.92901 | 17.00423 | 123° | 24km/h | 19140m | 5.4m/s | 0°C | 0% | 0hPa | 0V | 00:00:00 | 00:00:00 | 00:00:00 | |
| OE3OSB-13 | 2026-09-04 12:35:14 | 47.92932 | 17.00345 | 110° | 26km/h | 19091m | 5.9m/s | -57.0°C | 0.7% | 63.5hPa | 0V | 00:00:00 | 00:00:00 | 00:00:00 | |
| PETON7-10 | 2026-09-04 12:35:11 | 47.92935 | 17.00325 | 101° | 22km/h | 19080m | 4.6m/s | 0°C | 0% | 0hPa | 0V | 00:00:00 | 00:00:00 | 00:00:00 | |
| OE5MMP-10 | 2026-09-04 12:35:06 | 47.92947 | 17.00283 | 128° | 24km/h | 19054m | 4.5m/s | 0°C | 0% | 0hPa | 0V | 00:00:00 | 00:00:00 | 00:00:00 | |
| OE5DXL-15 | 2026-09-04 12:35:05 | 47.92950 | 17.00277 | 132° | 22km/h | 19048m | 6.5m/s | 0°C | 0% | 0hPa | 0V | 00:00:00 | 00:00:00 | 00:00:00 | |
| ATIDSZ-14 | 2026-09-04 12:35:01 | 47.92962 | 17.00240 | 93° | 26km/h | 19028m | 3.8m/s | 0°C | 0% | 0hPa | 0V | 00:00:00 | 00:00:00 | 00:00:00 | |
| OE3OSB-13 | 2026-09-04 12:34:43 | 47.93002 | 17.00095 | 113° | 20km/h | 18934m | 5.4m/s | -57.2°C | 0.9% | 65.2hPa | 0V | 00:00:00 | 00:00:00 | 00:00:00 | |
| ATIDSZ-14 | 2026-09-04 12:34:41 | 47.93005 | 17.00088 | 127° | 24km/h | 18929m | 5.3m/s | 0°C | 0% | 0hPa | 0V | 00:00:00 | 00:00:00 | 00:00:00 | |
| PETON7-10 | 2026-09-04 12:34:40 | 47.93008 | 17.00080 | 132° | 18km/h | 18925m | 3.4m/s | 0°C | 0% | 0hPa | 0V | 00:00:00 | 00:00:00 | 00:00:00 | |
| OE5DXL-15 | 2026-09-04 12:34:35 | 47.93014 | 17.00048 | 117° | 20km/h | 18900m | 5.7m/s | 0°C | 0% | 0hPa | 0V | 00:00:00 | 00:00:00 | 00:00:00 | |
| OE3JTB-15 | 2026-09-04 12:34:32 | 47.93021 | 17.00028 | 128° | 22km/h | 18876m | 5.9m/s | 0°C | 0% | 0hPa | 0V | 00:00:00 | 00:00:00 | 00:00:00 | |
| PETON7-10 | 2026-09-04 12:34:25 | 47.93030 | 16.99993 | 93° | 20km/h | 18851m | 4.1m/s | 0°C | 0% | 0hPa | 0V | 00:00:00 | 00:00:00 | 00:00:00 | |
| ATIDSZ-14 | 2026-09-04 12:34:21 | 47.93035 | 16.99970 | 103° | 15km/h | 18831m | 6.1m/s | 0°C | 0% | 0hPa | 0V | 00:00:00 | 00:00:00 | 00:00:00 | |
| PG1ADW-2 | 2026-09-04 12:34:18 | 47.93039 | 16.99949 | 114° | 24km/h | 18814m | 5.0m/s | 0°C | 0% | 0hPa | 0V | 00:00:00 | 00:00:00 | 00:00:00 | |
| OE5MMP-10 | 2026-09-04 12:34:15 | 47.93041 | 16.99920 | 83° | 26km/h | 18798m | 3.4m/s | 0°C | 0% | 0hPa | 0V | 00:00:00 | 00:00:00 | 00:00:00 | |
| PETON7-10 | 2026-09-04 12:34:10 | 47.93046 | 16.99879 | 103° | 26km/h | 18772m | 4.1m/s | 0°C | 0% | 0hPa | 0V | 00:00:00 | 00:00:00 | 00:00:00 | |
| OE5DXL-15 | 2026-09-04 12:34:05 | 47.93050 | 16.99827 | 70° | 27km/h | 18747m | 4.8m/s | 0°C | 0% | 0hPa | 0V | 00:00:00 | 00:00:00 | 00:00:00 | |
| OE3JTB-15 | 2026-09-04 12:34:03 | 47.93048 | 16.99796 | 108° | 29km/h | 18728m | 3.9m/s | 0°C | 0% | 0hPa | 0V | 00:00:00 | 00:00:00 | 00:00:00 | |
| ATIDSZ-14 | 2026-09-04 12:34:01 | 47.93048 | 16.99796 | 108° | 24km/h | 18728m | 4.0m/s | 0°C | 0% | 0hPa | 0V | 00:00:00 | 00:00:00 | 00:00:00 | |
| PETON7-10 | 2026-09-04 12:33:55 | 47.93052 | 16.99742 | 98° | 29km/h | 18698m | 4.5m/s | 0°C | 0% | 0hPa | 0V | 00:00:00 | 00:00:00 | 00:00:00 | |
| OE5MMP-10 | 2026-09-04 12:33:42 | 47.93051 | 16.99609 | 112° | 29km/h | 18631m | 4.7m/s | 0°C | 0% | 0hPa | 0V | 00:00:00 | 00:00:00 | 00:00:00 | |
| OE3OSB-13 | 2026-09-04 12:33:41 | 47.93056 | 16.99585 | 99° | 31km/h | 18620m | 5.1m/s | -55.3°C | 1.0% | 68.8hPa | 0V | 00:00:00 | 00:00:00 | 00:00:00 | |
| ATIDSZ-14 | 2026-09-04 12:33:40 | 47.93056 | 16.99585 | 101° | 31km/h | 18620m | 5.1m/s | 0°C | 0% | 0hPa | 0V | 00:00:00 | 00:00:00 | 00:00:00 | |
| PETON7-10 | 2026-09-04 12:33:38 | 47.93057 | 16.99559 | 92° | 35km/h | 18610m | 5.7m/s | 0°C | 0% | 0hPa | 0V | 00:00:00 | 00:00:00 | 00:00:00 | |
| OE5DXL-15 | 2026-09-04 12:33:35 | 47.93057 | 16.99525 | 88° | 27km/h | 18597m | 5.8m/s | 0°C | 0% | 0hPa | 0V | 00:00:00 | 00:00:00 | 00:00:00 | |
| OE3JTB-15 | 2026-09-04 12:33:34 | 47.93061 | 16.99501 | 113° | 27km/h | 18583m | 5.7m/s | 0°C | 0% | 0hPa | 0V | 00:00:00 | 00:00:00 | 00:00:00 | |
| PG1ADW-2 | 2026-09-04 12:33:32 | 47.93061 | 16.99501 | 113° | 38km/h | 18583m | 5.7m/s | 0°C | 0% | 0hPa | 0V | 00:00:00 | 00:00:00 | 00:00:00 | |
| OE5MMP-10 | 2026-09-04 12:33:31 | 47.93064 | 16.99488 | 109° | 37km/h | 18577m | 5.5m/s | 0°C | 0% | 0hPa | 0V | 00:00:00 | 00:00:00 | 00:00:00 | |
| PETON7-10 | 2026-09-04 12:33:23 | 47.93073 | 16.99375 | 101° | 24km/h | 18535m | 5.0m/s | 0°C | 0% | 0hPa | 0V | 00:00:00 | 00:00:00 | 00:00:00 | |
| OE5MMP-10 | 2026-09-04 12:33:21 | 47.93078 | 16.99354 | 116° | 24km/h | 18524m | 5.2m/s | 0°C | 0% | 0hPa | 0V | 00:00:00 | 00:00:00 | 00:00:00 | |
| ATIDSZ-14 | 2026-09-04 12:33:20 | 47.93081 | 16.99345 | 114° | 24km/h | 18520m | 3.4m/s | 0°C | 0% | 0hPa | 0V | 00:00:00 | 00:00:00 | 00:00:00 | |
| OE5MMP-10 | 2026-09-04 12:33:11 | 47.93090 | 16.99275 | 101° | 24km/h | 18474m | 5.2m/s | 0°C | 0% | 0hPa | 0V | 00:00:00 | 00:00:00 | 00:00:00 | |
| OE3OSB-13 | 2026-09-04 12:33:10 | 47.93093 | 16.99257 | 98° | 26km/h | 18465m | 3.9m/s | -56.1°C | 1.3% | 70.6hPa | 0V | 00:00:00 | 00:00:00 | 00:00:00 | |
| PG1ADW-2 | 2026-09-04 12:33:09 | 47.93093 | 16.99257 | 99° | 33km/h | 18465m | 3.8m/s | 0°C | 0% | 0hPa | 0V | 00:00:00 | 00:00:00 | 00:00:00 | |
| PETON7-10 | 2026-09-04 12:33:08 | 47.93094 | 16.99247 | 90° | 20km/h | 18459m | 6.1m/s | 0°C | 0% | 0hPa | 0V | 00:00:00 | 00:00:00 | 00:00:00 | |
| OE5DXL-15 | 2026-09-04 12:33:05 | 47.93094 | 16.99217 | 101° | 20km/h | 18443m | 6.4m/s | 0°C | 0% | 0hPa | 0V | 00:00:00 | 00:00:00 | 00:00:00 | |
| OE3JTB-15 | 2026-09-04 12:33:04 | 47.93097 | 16.99189 | 94° | 20km/h | 18423m | 5.3m/s | 0°C | 0% | 0hPa | 0V | 00:00:00 | 00:00:00 | 00:00:00 | |
| OE5MMP-10 | 2026-09-04 12:33:01 | 47.93097 | 16.99189 | 94° | 22km/h | 18423m | 5.3m/s | 0°C | 0% | 0hPa | 0V | 00:00:00 | 00:00:00 | 00:00:00 | |
| ATIDSZ-14 | 2026-09-04 12:33:00 | 47.93097 | 16.99183 | 103° | 18km/h | 18417m | 5.7m/s | 0°C | 0% | 0hPa | 0V | 00:00:00 | 00:00:00 | 00:00:00 | |
| PETON7-10 | 2026-09-04 12:32:52 | 47.93104 | 16.99117 | 88° | 20km/h | 18374m | 6.2m/s | 0°C | 0% | 0hPa | 0V | 00:00:00 | 00:00:00 | 00:00:00 | |
| OE5MMP-10 | 2026-09-04 12:32:51 | 47.93104 | 16.99111 | 85° | 20km/h | 18368m | 4.5m/s | 0°C | 0% | 0hPa | 0V | 00:00:00 | 00:00:00 | 00:00:00 | |
| OE5MMP-10 | 2026-09-04 12:32:41 | 47.93102 | 16.99040 | 78° | 22km/h | 18315m | 4.0m/s | 0°C | 0% | 0hPa | 0V | 00:00:00 | 00:00:00 | 00:00:00 | |
| OE3OSB-13 | 2026-09-04 12:32:39 | 47.93103 | 16.99015 | 97° | 26km/h | 18299m | 3.8m/s | -55.1°C | 1.5% | 72.6hPa | 0V | 00:00:00 | 00:00:00 | 00:00:00 | |
| OE3JTB-15 | 2026-09-04 12:32:35 | 47.93098 | 16.98967 | 64° | 26km/h | 18268m | 6.1m/s | 0°C | 0% | 0hPa | 0V | 00:00:00 | 00:00:00 | 00:00:00 | |
| OE5MMP-10 | 2026-09-04 12:32:31 | 47.93096 | 16.98962 | 56° | 22km/h | 18262m | 5.0m/s | 0°C | 0% | 0hPa | 0V | 00:00:00 | 00:00:00 | 00:00:00 | |
| PETON7-10 | 2026-09-04 12:32:22 | 47.93087 | 16.98884 | 67° | 24km/h | 18217m | 5.7m/s | 0°C | 0% | 0hPa | 0V | 00:00:00 | 00:00:00 | 00:00:00 | |
| OE5MMP-10 | 2026-09-04 12:32:21 | 47.93085 | 16.98878 | 49° | 24km/h | 18211m | 5.3m/s | 0°C | 0% | 0hPa | 0V | 00:00:00 | 00:00:00 | 00:00:00 | |
| ATIDSZ-14 | 2026-09-04 12:32:18 | 47.93079 | 16.98861 | 90° | 18km/h | 18197m | 5.5m/s | 0°C | 0% | 0hPa | 0V | 00:00:00 | 00:00:00 | 00:00:00 | |
| OE5MMP-10 | 2026-09-04 12:32:11 | 47.93071 | 16.98787 | 64° | 24km/h | 18162m | 5.9m/s | 0°C | 0% | 0hPa | 0V | 00:00:00 | 00:00:00 | 00:00:00 | |
| OE3OSB-13 | 2026-09-04 12:32:09 | 47.93060 | 16.98756 | 88° | 35km/h | 18141m | 4.1m/s | -54.6°C | 1.7% | 74.5hPa | 0V | 00:00:00 | 00:00:00 | 00:00:00 | |
| PETON7-10 | 2026-09-04 12:32:07 | 47.93060 | 16.98756 | 89° | 31km/h | 18141m | 4.0m/s | 0°C | 0% | 0hPa | 0V | 00:00:00 | 00:00:00 | 00:00:00 | |
| OE5DXL-15 | 2026-09-04 12:32:05 | 47.93057 | 16.98727 | 74° | 24km/h | 18128m | 6.3m/s | 0°C | 0% | 0hPa | 0V | 00:00:00 | 00:00:00 | 00:00:00 | |
| OE5MMP-10 | 2026-09-04 12:31:58 | 47.93042 | 16.98653 | 80° | 22km/h | 18093m | 4.0m/s | 0°C | 0% | 0hPa | 0V | 00:00:00 | 00:00:00 | 00:00:00 | |
| ATIDSZ-14 | 2026-09-04 12:31:57 | 47.93041 | 16.98645 | 92° | 22km/h | 18089m | 4.0m/s | 0°C | 0% | 0hPa | 0V | 00:00:00 | 00:00:00 | 00:00:00 | |
| PETON7-10 | 2026-09-04 12:31:52 | 47.93032 | 16.98595 | 50° | 18km/h | 18058m | 5.8m/s | 0°C | 0% | 0hPa | 0V | 00:00:00 | 00:00:00 | 00:00:00 | |
| OE5MMP-10 | 2026-09-04 12:31:48 | 47.93029 | 16.98570 | 109° | 18km/h | 18033m | 6.2m/s | 0°C | 0% | 0hPa | 0V | 00:00:00 | 00:00:00 | 00:00:00 | |
| OE5MMP-10 | 2026-09-04 12:31:38 | 47.93038 | 16.98511 | 123° | 18km/h | 17973m | 7.8m/s | 0°C | 0% | 0hPa | 0V | 00:00:00 | 00:00:00 | 00:00:00 | |
| OE3OSB-13 | 2026-09-04 12:31:37 | 47.93045 | 16.98494 | 119° | 20km/h | 17962m | 5.5m/s | -53.9°C | 1.8% | 76.8hPa | 0V | 00:00:00 | 00:00:00 | 00:00:00 | |
| OE5DXL-15 | 2026-09-04 12:31:35 | 47.93047 | 16.98488 | 109° | 22km/h | 17956m | 6.5m/s | 0°C | 0% | 0hPa | 0V | 00:00:00 | 00:00:00 | 00:00:00 | |
| OE5MMP-10 | 2026-09-04 12:31:28 | 47.93067 | 16.98450 | 106° | 20km/h | 17916m | 10.0m/s | 0°C | 0% | 0hPa | 0V | 00:00:00 | 00:00:00 | 00:00:00 | |
| PETON7-10 | 2026-09-04 12:31:22 | 47.93069 | 16.98429 | 147° | 26km/h | 17882m | 5.0m/s | 0°C | 0% | 0hPa | 0V | 00:00:00 | 00:00:00 | 00:00:00 | |
| ATIDSZ-14 | 2026-09-04 12:31:18 | 47.93090 | 16.98395 | 128° | 20km/h | 17852m | 5.0m/s | 0°C | 0% | 0hPa | 0V | 00:00:00 | 00:00:00 | 00:00:00 | |
| OE5MMP-10 | 2026-09-04 12:31:17 | 47.93090 | 16.98395 | 127° | 26km/h | 17852m | 5.0m/s | 0°C | 0% | 0hPa | 0V | 00:00:00 | 00:00:00 | 00:00:00 | |
| OE5MMP-10 | 2026-09-04 12:31:07 | 47.93142 | 16.98332 | 138° | 38km/h | 17791m | 6.0m/s | 0°C | 0% | 0hPa | 0V | 00:00:00 | 00:00:00 | 00:00:00 | |
| PETON7-10 | 2026-09-04 12:31:05 | 47.93156 | 16.98317 | 148° | 42km/h | 17781m | 6.0m/s | 0°C | 0% | 0hPa | 0V | 00:00:00 | 00:00:00 | 00:00:00 | |
| OE5MMP-10 | 2026-09-04 12:30:57 | 47.93228 | 16.98270 | 156° | 46km/h | 17728m | 5.2m/s | 0°C | 0% | 0hPa | 0V | 00:00:00 | 00:00:00 | 00:00:00 | |
| PETON7-10 | 2026-09-04 12:30:50 | 47.93299 | 16.98215 | 149° | 49km/h | 17689m | 6.6m/s | 0°C | 0% | 0hPa | 0V | 00:00:00 | 00:00:00 | 00:00:00 | |
| OE5MMP-10 | 2026-09-04 12:30:47 | 47.93329 | 16.98188 | 147° | 51km/h | 17670m | 6.7m/s | 0°C | 0% | 0hPa | 0V | 00:00:00 | 00:00:00 | 00:00:00 | |
| OE5MMP-10 | 2026-09-04 12:30:37 | 47.93434 | 16.98080 | 140° | 53km/h | 17613m | 6.7m/s | 0°C | 0% | 0hPa | 0V | 00:00:00 | 00:00:00 | 00:00:00 | |
| OE3OSB-13 | 2026-09-04 12:30:35 | 47.93462 | 16.98039 | 138° | 47km/h | 17595m | 7.6m/s | -55.3°C | 1.7% | 81.6hPa | 0V | 00:00:00 | 00:00:00 | 00:00:00 | |
| OE5MMP-10 | 2026-09-04 12:30:27 | 47.93538 | 16.97953 | 136° | 53km/h | 17552m | 7.8m/s | 0°C | 0% | 0hPa | 0V | 00:00:00 | 00:00:00 | 00:00:00 | |
| PETON7-10 | 2026-09-04 12:30:20 | 47.93599 | 16.97852 | 140° | 37km/h | 17512m | 8.2m/s | 0°C | 0% | 0hPa | 0V | 00:00:00 | 00:00:00 | 00:00:00 | |
| OE5MMP-10 | 2026-09-04 12:30:18 | 47.93631 | 16.97819 | 140° | 37km/h | 17496m | 3.2m/s | 0°C | 0% | 0hPa | 0V | 00:00:00 | 00:00:00 | 00:00:00 | |
| ATIDSZ-14 | 2026-09-04 12:30:14 | 47.93651 | 16.97788 | 122° | 26km/h | 17478m | 4.5m/s | 0°C | 0% | 0hPa | 0V | 00:00:00 | 00:00:00 | 00:00:00 | |
| OE5MMP-10 | 2026-09-04 12:30:07 | 47.93687 | 16.97721 | 136° | 37km/h | 17439m | 5.0m/s | 0°C | 0% | 0hPa | 0V | 00:00:00 | 00:00:00 | 00:00:00 | |
| PETON7-10 | 2026-09-04 12:30:06 | 47.93701 | 16.97702 | 142° | 35km/h | 17427m | 4.7m/s | 0°C | 0% | 0hPa | 0V | 00:00:00 | 00:00:00 | 00:00:00 | |
| OE5DXL-15 | 2026-09-04 12:30:05 | 47.93701 | 16.97702 | 142° | 33km/h | 17427m | 4.7m/s | 0°C | 0% | 0hPa | 0V | 00:00:00 | 00:00:00 | 00:00:00 | |
| OE5MMP-10 | 2026-09-04 12:29:57 | 47.93747 | 16.97621 | 146° | 31km/h | 17387m | 6.0m/s | 0°C | 0% | 0hPa | 0V | 00:00:00 | 00:00:00 | 00:00:00 | |
| ATIDSZ-14 | 2026-09-04 12:29:54 | 47.93769 | 16.97596 | 142° | 35km/h | 17370m | 3.0m/s | 0°C | 0% | 0hPa | 0V | 00:00:00 | 00:00:00 | 00:00:00 | |
| PETON7-10 | 2026-09-04 12:29:50 | 47.93792 | 16.97567 | 134° | 31km/h | 17349m | 5.6m/s | 0°C | 0% | 0hPa | 0V | 00:00:00 | 00:00:00 | 00:00:00 | |
| OE5MMP-10 | 2026-09-04 12:29:47 | 47.93806 | 16.97546 | 137° | 29km/h | 17331m | 6.4m/s | 0°C | 0% | 0hPa | 0V | 00:00:00 | 00:00:00 | 00:00:00 | |
| OE5MMP-10 | 2026-09-04 12:29:37 | 47.93868 | 16.97475 | 154° | 37km/h | 17273m | 8.7m/s | 0°C | 0% | 0hPa | 0V | 00:00:00 | 00:00:00 | 00:00:00 | |
| OE5DXL-15 | 2026-09-04 12:29:35 | 47.93885 | 16.97462 | 150° | 40km/h | 17261m | 5.8m/s | 0°C | 0% | 0hPa | 0V | 00:00:00 | 00:00:00 | 00:00:00 | |
| ATIDSZ-14 | 2026-09-04 12:29:34 | 47.93893 | 16.97455 | 147° | 37km/h | 17256m | 3.3m/s | 0°C | 0% | 0hPa | 0V | 00:00:00 | 00:00:00 | 00:00:00 | |
| OE3JTB-15 | 2026-09-04 12:29:32 | 47.93936 | 16.97399 | 140° | 42km/h | 17225m | 5.0m/s | 0°C | 0% | 0hPa | 0V | 00:00:00 | 00:00:00 | 00:00:00 | |
| OE5MMP-10 | 2026-09-04 12:29:27 | 47.93944 | 16.97389 | 148° | 40km/h | 17219m | 5.9m/s | 0°C | 0% | 0hPa | 0V | 00:00:00 | 00:00:00 | 00:00:00 | |
| PETON7-10 | 2026-09-04 12:29:20 | 47.94001 | 16.97325 | 125° | 42km/h | 17180m | 2.3m/s | 0°C | 0% | 0hPa | 0V | 00:00:00 | 00:00:00 | 00:00:00 | |
| OE5MMP-10 | 2026-09-04 12:29:17 | 47.94020 | 16.97286 | 133° | 44km/h | 17164m | 4.0m/s | 0°C | 0% | 0hPa | 0V | 00:00:00 | 00:00:00 | 00:00:00 | |
| ATIDSZ-14 | 2026-09-04 12:29:13 | 47.94049 | 16.97236 | 133° | 40km/h | 17143m | 5.6m/s | 0°C | 0% | 0hPa | 0V | 00:00:00 | 00:00:00 | 00:00:00 | |
| OE5MMP-10 | 2026-09-04 12:29:07 | 47.94086 | 16.97160 | 133° | 40km/h | 17109m | 5.3m/s | 0°C | 0% | 0hPa | 0V | 00:00:00 | 00:00:00 | 00:00:00 | |
| OE5DXL-15 | 2026-09-04 12:29:05 | 47.94099 | 16.97136 | 126° | 38km/h | 17100m | 3.7m/s | 0°C | 0% | 0hPa | 0V | 00:00:00 | 00:00:00 | 00:00:00 | |
| OE3OSB-13 | 2026-09-04 12:29:01 | 47.94127 | 16.97077 | 117° | 38km/h | 17072m | 3.6m/s | -57.3°C | 2.2% | 89.1hPa | 0V | 00:00:00 | 00:00:00 | 00:00:00 | |
| OE5MMP-10 | 2026-09-04 12:28:57 | 47.94142 | 16.97038 | 130° | 37km/h | 17058m | 4.6m/s | 0°C | 0% | 0hPa | 0V | 00:00:00 | 00:00:00 | 00:00:00 | |
| ATIDSZ-14 | 2026-09-04 12:28:52 | 47.94168 | 16.96983 | 128° | 37km/h | 17030m | 5.4m/s | 0°C | 0% | 0hPa | 0V | 00:00:00 | 00:00:00 | 00:00:00 | |
| PETON7-10 | 2026-09-04 12:28:48 | 47.94189 | 16.96932 | 129° | 38km/h | 17006m | 5.6m/s | 0°C | 0% | 0hPa | 0V | 00:00:00 | 00:00:00 | 00:00:00 | |
| OE5MMP-10 | 2026-09-04 12:28:47 | 47.94195 | 16.96920 | 123° | 37km/h | 17001m | 5.6m/s | 0°C | 0% | 0hPa | 0V | 00:00:00 | 00:00:00 | 00:00:00 | |
| OE5MMP-10 | 2026-09-04 12:28:37 | 47.94240 | 16.96797 | 125° | 37km/h | 16944m | 7.9m/s | 0°C | 0% | 0hPa | 0V | 00:00:00 | 00:00:00 | 00:00:00 | |
| OE5DXL-15 | 2026-09-04 12:28:35 | 47.94251 | 16.96770 | 121° | 37km/h | 16932m | 5.8m/s | 0°C | 0% | 0hPa | 0V | 00:00:00 | 00:00:00 | 00:00:00 | |
| PETON7-10 | 2026-09-04 12:28:33 | 47.94262 | 16.96747 | 122° | 38km/h | 16921m | 4.4m/s | 0°C | 0% | 0hPa | 0V | 00:00:00 | 00:00:00 | 00:00:00 | |
| ATIDSZ-14 | 2026-09-04 12:28:32 | 47.94266 | 16.96735 | 112° | 33km/h | 16917m | 2.1m/s | 0°C | 0% | 0hPa | 0V | 00:00:00 | 00:00:00 | 00:00:00 | |
| OE3OSB-13 | 2026-09-04 12:28:30 | 47.94272 | 16.96698 | 107° | 29km/h | 16900m | 3.1m/s | -57.4°C | 2.3% | 91.7hPa | 0V | 00:00:00 | 00:00:00 | 00:00:00 | |
| OE5MMP-10 | 2026-09-04 12:28:27 | 47.94276 | 16.96674 | 110° | 44km/h | 16890m | 3.6m/s | 0°C | 0% | 0hPa | 0V | 00:00:00 | 00:00:00 | 00:00:00 | |
| PETON7-10 | 2026-09-04 12:28:18 | 47.94319 | 16.96547 | 112° | 33km/h | 16841m | 7.9m/s | 0°C | 0% | 0hPa | 0V | 00:00:00 | 00:00:00 | 00:00:00 | |
| OE5MMP-10 | 2026-09-04 12:28:17 | 47.94323 | 16.96536 | 108° | 31km/h | 16836m | 4.5m/s | 0°C | 0% | 0hPa | 0V | 00:00:00 | 00:00:00 | 00:00:00 | |
| ATIDSZ-14 | 2026-09-04 12:28:11 | 47.94345 | 16.96465 | 115° | 33km/h | 16806m | 5.6m/s | 0°C | 0% | 0hPa | 0V | 00:00:00 | 00:00:00 | 00:00:00 | |
| OE5MMP-10 | 2026-09-04 12:28:07 | 47.94355 | 16.96421 | 104° | 27km/h | 16785m | 5.6m/s | 0°C | 0% | 0hPa | 0V | 00:00:00 | 00:00:00 | 00:00:00 | |
| OE5DXL-15 | 2026-09-04 12:28:05 | 47.94356 | 16.96402 | 92° | 22km/h | 16772m | 5.2m/s | 0°C | 0% | 0hPa | 0V | 00:00:00 | 00:00:00 | 00:00:00 | |
| PETON7-10 | 2026-09-04 12:28:02 | 47.94360 | 16.96372 | 107° | 24km/h | 16755m | 5.5m/s | 0°C | 0% | 0hPa | 0V | 00:00:00 | 00:00:00 | 00:00:00 | |
| OE3OSB-13 | 2026-09-04 12:27:59 | 47.94367 | 16.96333 | 120° | 24km/h | 16731m | 5.1m/s | -57.3°C | 2.7% | 94.3hPa | 0V | 00:00:00 | 00:00:00 | 00:00:00 | |
| OE5MMP-10 | 2026-09-04 12:27:56 | 47.94371 | 16.96317 | 97° | 20km/h | 16719m | 4.0m/s | 0°C | 0% | 0hPa | 0V | 00:00:00 | 00:00:00 | 00:00:00 | |
| ATIDSZ-14 | 2026-09-04 12:27:51 | 47.94371 | 16.96275 | 81° | 24km/h | 16690m | 3.8m/s | 0°C | 0% | 0hPa | 0V | 00:00:00 | 00:00:00 | 00:00:00 | |
| PG1ADW-2 | 2026-09-04 12:27:50 | 47.94371 | 16.96267 | 78° | 22km/h | 16684m | 7.2m/s | 0°C | 0% | 0hPa | 0V | 00:00:00 | 00:00:00 | 00:00:00 | |
| PETON7-10 | 2026-09-04 12:27:47 | 47.94372 | 16.96245 | 97° | 24km/h | 16667m | 2.4m/s | 0°C | 0% | 0hPa | 0V | 00:00:00 | 00:00:00 | 00:00:00 | |
| OE5MMP-10 | 2026-09-04 12:27:36 | 47.94388 | 16.96152 | 100° | 26km/h | 16607m | 5.7m/s | 0°C | 0% | 0hPa | 0V | 00:00:00 | 00:00:00 | 00:00:00 | |
| OE5DXL-15 | 2026-09-04 12:27:35 | 47.94390 | 16.96144 | 116° | 27km/h | 16602m | 4.3m/s | 0°C | 0% | 0hPa | 0V | 00:00:00 | 00:00:00 | 00:00:00 | |
| PETON7-10 | 2026-09-04 12:27:32 | 47.94398 | 16.96112 | 112° | 27km/h | 16585m | 6.1m/s | 0°C | 0% | 0hPa | 0V | 00:00:00 | 00:00:00 | 00:00:00 | |
| ATIDSZ-14 | 2026-09-04 12:27:30 | 47.94404 | 16.96090 | 113° | 37km/h | 16572m | 2.9m/s | 0°C | 0% | 0hPa | 0V | 00:00:00 | 00:00:00 | 00:00:00 | |
| OE3OSB-13 | 2026-09-04 12:27:28 | 47.94412 | 16.96065 | 116° | 13km/h | 16553m | 6.2m/s | -56.3°C | 2.9% | 97.1hPa | 0V | 00:00:00 | 00:00:00 | 00:00:00 | |
| PG1ADW-2 | 2026-09-04 12:27:27 | 47.94412 | 16.96065 | 117° | 37km/h | 16553m | 6.1m/s | 0°C | 0% | 0hPa | 0V | 00:00:00 | 00:00:00 | 00:00:00 | |
| OE5MMP-10 | 2026-09-04 12:27:26 | 47.94413 | 16.96060 | 118° | 22km/h | 16548m | 3.2m/s | 0°C | 0% | 0hPa | 0V | 00:00:00 | 00:00:00 | 00:00:00 | |
| PETON7-10 | 2026-09-04 12:27:17 | 47.94436 | 16.95974 | 95° | 24km/h | 16496m | 8.3m/s | 0°C | 0% | 0hPa | 0V | 00:00:00 | 00:00:00 | 00:00:00 | |
| OE5MMP-10 | 2026-09-04 12:27:12 | 47.94447 | 16.95950 | 112° | 33km/h | 16464m | 3.5m/s | 0°C | 0% | 0hPa | 0V | 00:00:00 | 00:00:00 | 00:00:00 | |
| ATIDSZ-14 | 2026-09-04 12:27:09 | 47.94462 | 16.95902 | 116° | 47km/h | 16445m | 7.7m/s | 0°C | 0% | 0hPa | 0V | 00:00:00 | 00:00:00 | 00:00:00 | |
| OE5DXL-15 | 2026-09-04 12:27:05 | 47.94467 | 16.95856 | 84° | 44km/h | 16421m | 5.0m/s | 0°C | 0% | 0hPa | 0V | 00:00:00 | 00:00:00 | 00:00:00 | |
| PETON7-10 | 2026-09-04 12:27:02 | 47.94472 | 16.95825 | 119° | 42km/h | 16403m | 8.4m/s | 0°C | 0% | 0hPa | 0V | 00:00:00 | 00:00:00 | 00:00:00 | |
| OE3OSB-13 | 2026-09-04 12:26:57 | 47.94504 | 16.95754 | 121° | 38km/h | 16363m | 3.8m/s | -56.1°C | 3.4% | 100.1hPa | 0V | 00:00:00 | 00:00:00 | 00:00:00 | |
| OE5MMP-10 | 2026-09-04 12:26:49 | 47.94541 | 16.95652 | 107° | 49km/h | 16328m | 6.6m/s | 0°C | 0% | 0hPa | 0V | 00:00:00 | 00:00:00 | 00:00:00 | |
| OE5MMP-10 | 2026-09-04 12:26:39 | 47.94589 | 16.95482 | 117° | 47km/h | 16274m | 7.6m/s | 0°C | 0% | 0hPa | 0V | 00:00:00 | 00:00:00 | 00:00:00 | |
| PG1ADW-2 | 2026-09-04 12:26:38 | 47.94596 | 16.95465 | 118° | 47km/h | 16266m | 3.5m/s | 0°C | 0% | 0hPa | 0V | 00:00:00 | 00:00:00 | 00:00:00 | |
| OE5DXL-15 | 2026-09-04 12:26:35 | 47.94608 | 16.95415 | 102° | 47km/h | 16252m | 3.6m/s | 0°C | 0% | 0hPa | 0V | 00:00:00 | 00:00:00 | 00:00:00 | |
| PETON7-10 | 2026-09-04 12:26:32 | 47.94616 | 16.95366 | 108° | 46km/h | 16232m | 7.7m/s | 0°C | 0% | 0hPa | 0V | 00:00:00 | 00:00:00 | 00:00:00 | |
| OE5MMP-10 | 2026-09-04 12:26:29 | 47.94627 | 16.95315 | 116° | 40km/h | 16213m | 4.2m/s | 0°C | 0% | 0hPa | 0V | 00:00:00 | 00:00:00 | 00:00:00 | |
| ATIDSZ-14 | 2026-09-04 12:26:27 | 47.94636 | 16.95286 | 109° | 42km/h | 16204m | 2.5m/s | 0°C | 0% | 0hPa | 0V | 00:00:00 | 00:00:00 | 00:00:00 | |
| OE3OSB-13 | 2026-09-04 12:26:26 | 47.94642 | 16.95256 | 106° | 40km/h | 16192m | 7.4m/s | -56.5°C | 3.8% | 103.0hPa | 0V | 00:00:00 | 00:00:00 | 00:00:00 | |
| OE5MMP-10 | 2026-09-04 12:26:19 | 47.94658 | 16.95164 | 109° | 49km/h | 16157m | 6.1m/s | 0°C | 0% | 0hPa | 0V | 00:00:00 | 00:00:00 | 00:00:00 | |
| PETON7-10 | 2026-09-04 12:26:17 | 47.94665 | 16.95126 | 105° | 49km/h | 16149m | 4.9m/s | 0°C | 0% | 0hPa | 0V | 00:00:00 | 00:00:00 | 00:00:00 | |
| PG1ADW-2 | 2026-09-04 12:26:11 | 47.94686 | 16.95016 | 104° | 53km/h | 16117m | 9.6m/s | 0°C | 0% | 0hPa | 0V | 00:00:00 | 00:00:00 | 00:00:00 | |
| OE5MMP-10 | 2026-09-04 12:26:08 | 47.94694 | 16.94962 | 101° | 51km/h | 16098m | 4.2m/s | 0°C | 0% | 0hPa | 0V | 00:00:00 | 00:00:00 | 00:00:00 | |
| ATIDSZ-14 | 2026-09-04 12:26:06 | 47.94699 | 16.94927 | 106° | 44km/h | 16087m | 4.2m/s | 0°C | 0% | 0hPa | 0V | 00:00:00 | 00:00:00 | 00:00:00 | |
| OE5DXL-15 | 2026-09-04 12:26:05 | 47.94702 | 16.94910 | 103° | 49km/h | 16083m | 5.0m/s | 0°C | 0% | 0hPa | 0V | 00:00:00 | 00:00:00 | 00:00:00 | |
| PETON7-10 | 2026-09-04 12:26:02 | 47.94711 | 16.94853 | 104° | 51km/h | 16068m | 9.1m/s | 0°C | 0% | 0hPa | 0V | 00:00:00 | 00:00:00 | 00:00:00 | |
| OE3OSB-13 | 2026-09-04 12:25:55 | 47.94727 | 16.94701 | 98° | 53km/h | 16022m | 4.6m/s | -56.9°C | 4.4% | 106.0hPa | 0V | 00:00:00 | 00:00:00 | 00:00:00 | |
| OE3JTB-15 | 2026-09-04 12:25:54 | 47.94733 | 16.94645 | 101° | 47km/h | 16005m | 4.4m/s | 0°C | 0% | 0hPa | 0V | 00:00:00 | 00:00:00 | 00:00:00 | |
| PETON7-10 | 2026-09-04 12:25:47 | 47.94744 | 16.94570 | 108° | 47km/h | 15983m | 4.4m/s | 0°C | 0% | 0hPa | 0V | 00:00:00 | 00:00:00 | 00:00:00 | |
| OE5MMP-10 | 2026-09-04 12:25:46 | 47.94748 | 16.94553 | 108° | 47km/h | 15977m | 7.7m/s | 0°C | 0% | 0hPa | 0V | 00:00:00 | 00:00:00 | 00:00:00 | |
| PG1ADW-2 | 2026-09-04 12:25:43 | 47.94756 | 16.94499 | 101° | 49km/h | 15959m | 4.9m/s | 0°C | 0% | 0hPa | 0V | 00:00:00 | 00:00:00 | 00:00:00 | |
| OE5MMP-10 | 2026-09-04 12:25:36 | 47.94781 | 16.94383 | 108° | 46km/h | 15922m | 2.8m/s | 0°C | 0% | 0hPa | 0V | 00:00:00 | 00:00:00 | 00:00:00 | |
| OE5DXL-15 | 2026-09-04 12:25:35 | 47.94785 | 16.94367 | 107° | 51km/h | 15918m | 4.6m/s | 0°C | 0% | 0hPa | 0V | 00:00:00 | 00:00:00 | 00:00:00 | |
| PETON7-10 | 2026-09-04 12:25:32 | 47.94792 | 16.94320 | 101° | 49km/h | 15900m | 7.1m/s | 0°C | 0% | 0hPa | 0V | 00:00:00 | 00:00:00 | 00:00:00 | |
| OE5MMP-10 | 2026-09-04 12:25:26 | 47.94820 | 16.94220 | 121° | 51km/h | 15869m | 5.9m/s | 0°C | 0% | 0hPa | 0V | 00:00:00 | 00:00:00 | 00:00:00 | |
| OE3JTB-15 | 2026-09-04 12:25:24 | 47.94851 | 16.94134 | 119° | 57km/h | 15843m | 5.4m/s | 0°C | 0% | 0hPa | 0V | 00:00:00 | 00:00:00 | 00:00:00 | |
| PETON7-10 | 2026-09-04 12:25:17 | 47.94873 | 16.94065 | 118° | 58km/h | 15817m | 5.0m/s | 0°C | 0% | 0hPa | 0V | 00:00:00 | 00:00:00 | 00:00:00 | |
| OE5MMP-10 | 2026-09-04 12:25:16 | 47.94880 | 16.94046 | 115° | 55km/h | 15812m | 6.8m/s | 0°C | 0% | 0hPa | 0V | 00:00:00 | 00:00:00 | 00:00:00 | |
| OE5MMP-10 | 2026-09-04 12:25:06 | 47.94940 | 16.93859 | 115° | 58km/h | 15752m | 5.8m/s | 0°C | 0% | 0hPa | 0V | 00:00:00 | 00:00:00 | 00:00:00 | |
| ATIDSZ-14 | 2026-09-04 12:25:04 | 47.94951 | 16.93815 | 109° | 68km/h | 15739m | 4.7m/s | 0°C | 0% | 0hPa | 0V | 00:00:00 | 00:00:00 | 00:00:00 | |
| PETON7-10 | 2026-09-04 12:25:02 | 47.94962 | 16.93771 | 116° | 60km/h | 15728m | 5.0m/s | 0°C | 0% | 0hPa | 0V | 00:00:00 | 00:00:00 | 00:00:00 | |
| OE3OSB-13 | 2026-09-04 12:24:53 | 47.95032 | 16.93578 | 118° | 60km/h | 15673m | 5.2m/s | -57.2°C | 5.9% | 112.2hPa | 0V | 00:00:00 | 00:00:00 | 00:00:00 | |
| PG1ADW-2 | 2026-09-04 12:24:49 | 47.95053 | 16.93514 | 116° | 64km/h | 15659m | 8.8m/s | 0°C | 0% | 0hPa | 0V | 00:00:00 | 00:00:00 | 00:00:00 | |
| OE5MMP-10 | 2026-09-04 12:24:46 | 47.95075 | 16.93453 | 121° | 64km/h | 15643m | 4.5m/s | 0°C | 0% | 0hPa | 0V | 00:00:00 | 00:00:00 | 00:00:00 | |
| ATIDSZ-14 | 2026-09-04 12:24:44 | 47.95092 | 16.93411 | 123° | 60km/h | 15631m | 7.2m/s | 0°C | 0% | 0hPa | 0V | 00:00:00 | 00:00:00 | 00:00:00 | |
| OE5DXL-15 | 2026-09-04 12:24:35 | 47.95169 | 16.93225 | 121° | 66km/h | 15581m | 4.9m/s | 0°C | 0% | 0hPa | 0V | 00:00:00 | 00:00:00 | 00:00:00 | |
| PETON7-10 | 2026-09-04 12:24:31 | 47.95199 | 16.93141 | 116° | 64km/h | 15562m | 7.8m/s | 0°C | 0% | 0hPa | 0V | 00:00:00 | 00:00:00 | 00:00:00 | |
| OE5MMP-10 | 2026-09-04 12:24:30 | 47.95205 | 16.93119 | 114° | 68km/h | 15555m | 5.9m/s | 0°C | 0% | 0hPa | 0V | 00:00:00 | 00:00:00 | 00:00:00 | |
| PG1ADW-2 | 2026-09-04 12:24:25 | 47.95238 | 16.93007 | 114° | 68km/h | 15522m | 7.0m/s | 0°C | 0% | 0hPa | 0V | 00:00:00 | 00:00:00 | 00:00:00 | |
| OE3OSB-13 | 2026-09-04 12:24:22 | 47.95266 | 16.92921 | 122° | 64km/h | 15498m | 6.0m/s | -57.4°C | 6.7% | 115.5hPa | 0V | 00:00:00 | 00:00:00 | 00:00:00 | |
| PETON7-10 | 2026-09-04 12:24:16 | 47.95311 | 16.92810 | 119° | 66km/h | 15469m | 8.3m/s | 0°C | 0% | 0hPa | 0V | 00:00:00 | 00:00:00 | 00:00:00 | |
| OE5MMP-10 | 2026-09-04 12:24:13 | 47.95336 | 16.92749 | 124° | 66km/h | 15451m | 3.2m/s | 0°C | 0% | 0hPa | 0V | 00:00:00 | 00:00:00 | 00:00:00 | |
| OE5DXL-15 | 2026-09-04 12:24:05 | 47.95408 | 16.92555 | 116° | 68km/h | 15407m | 3.5m/s | 0°C | 0% | 0hPa | 0V | 00:00:00 | 00:00:00 | 00:00:00 | |
| OE5MMP-10 | 2026-09-04 12:24:03 | 47.95414 | 16.92536 | 117° | 66km/h | 15402m | 7.3m/s | 0°C | 0% | 0hPa | 0V | 00:00:00 | 00:00:00 | 00:00:00 | |
| PG1ADW-2 | 2026-09-04 12:24:01 | 47.95430 | 16.92493 | 121° | 69km/h | 15391m | 5.9m/s | 0°C | 0% | 0hPa | 0V | 00:00:00 | 00:00:00 | 00:00:00 | |
| OE3OSB-13 | 2026-09-04 12:23:51 | 47.95528 | 16.92251 | 118° | 66km/h | 15329m | 4.8m/s | -58.4°C | 7.6% | 118.9hPa | 0V | 00:00:00 | 00:00:00 | 00:00:00 | |
| OE5MMP-10 | 2026-09-04 12:23:50 | 47.95528 | 16.92251 | 119° | 71km/h | 15329m | 4.8m/s | 0°C | 0% | 0hPa | 0V | 00:00:00 | 00:00:00 | 00:00:00 | |
| PETON7-10 | 2026-09-04 12:23:46 | 47.95557 | 16.92154 | 106° | 68km/h | 15308m | 5.8m/s | 0°C | 0% | 0hPa | 0V | 00:00:00 | 00:00:00 | 00:00:00 | |
| PG1ADW-2 | 2026-09-04 12:23:41 | 47.95592 | 16.92030 | 128° | 62km/h | 15282m | 7.5m/s | 0°C | 0% | 0hPa | 0V | 00:00:00 | 00:00:00 | 00:00:00 | |
| OE5MMP-10 | 2026-09-04 12:23:40 | 47.95601 | 16.92011 | 127° | 60km/h | 15276m | 3.6m/s | 0°C | 0% | 0hPa | 0V | 00:00:00 | 00:00:00 | 00:00:00 | |
| OE5DXL-15 | 2026-09-04 12:23:34 | 47.95634 | 16.91892 | 117° | 55km/h | 15243m | 6.8m/s | 0°C | 0% | 0hPa | 0V | 00:00:00 | 00:00:00 | 00:00:00 | |
| PETON7-10 | 2026-09-04 12:23:30 | 47.95670 | 16.91805 | 134° | 55km/h | 15218m | 6.7m/s | 0°C | 0% | 0hPa | 0V | 00:00:00 | 00:00:00 | 00:00:00 | |
| OE3JTB-15 | 2026-09-04 12:23:26 | 47.95720 | 16.91697 | 116° | 51km/h | 15183m | 4.3m/s | 0°C | 0% | 0hPa | 0V | 00:00:00 | 00:00:00 | 00:00:00 | |
| ATIDSZ-14 | 2026-09-04 12:23:21 | 47.95738 | 16.91646 | 126° | 57km/h | 15166m | 6.2m/s | 0°C | 0% | 0hPa | 0V | 00:00:00 | 00:00:00 | 00:00:00 | |
| OE3OSB-13 | 2026-09-04 12:23:20 | 47.95757 | 16.91614 | 134° | 55km/h | 15157m | 4.3m/s | -58.7°C | 9.3% | 122.2hPa | 0V | 00:00:00 | 00:00:00 | 00:00:00 | |
| PG1ADW-2 | 2026-09-04 12:23:16 | 47.95784 | 16.91576 | 140° | 51km/h | 15140m | 3.1m/s | 0°C | 0% | 0hPa | 0V | 00:00:00 | 00:00:00 | 00:00:00 | |
| PETON7-10 | 2026-09-04 12:23:15 | 47.95793 | 16.91565 | 140° | 51km/h | 15136m | 5.3m/s | 0°C | 0% | 0hPa | 0V | 00:00:00 | 00:00:00 | 00:00:00 | |
| OE5MMP-10 | 2026-09-04 12:23:07 | 47.95872 | 16.91462 | 143° | 49km/h | 15097m | 4.7m/s | 0°C | 0% | 0hPa | 0V | 00:00:00 | 00:00:00 | 00:00:00 | |
| OE5DXL-15 | 2026-09-04 12:23:04 | 47.95904 | 16.91429 | 145° | 55km/h | 15084m | 3.1m/s | 0°C | 0% | 0hPa | 0V | 00:00:00 | 00:00:00 | 00:00:00 | |
| PETON7-10 | 2026-09-04 12:23:00 | 47.95948 | 16.91383 | 147° | 51km/h | 15066m | 4.3m/s | 0°C | 0% | 0hPa | 0V | 00:00:00 | 00:00:00 | 00:00:00 | |
| OE3OSB-13 | 2026-09-04 12:22:49 | 47.96073 | 16.91243 | 146° | 49km/h | 15009m | 4.2m/s | -59.2°C | 10.9% | 125.3hPa | 0V | 00:00:00 | 00:00:00 | 00:00:00 | |
| OE5MMP-10 | 2026-09-04 12:22:45 | 47.96107 | 16.91217 | 154° | 60km/h | 14995m | 5.9m/s | 0°C | 0% | 0hPa | 0V | 00:00:00 | 00:00:00 | 00:00:00 | |
| ATIDSZ-14 | 2026-09-04 12:22:40 | 47.96168 | 16.91158 | 150° | 62km/h | 14971m | 5.2m/s | 0°C | 0% | 0hPa | 0V | 00:00:00 | 00:00:00 | 00:00:00 | |
| PG1ADW-2 | 2026-09-04 12:22:36 | 47.96220 | 16.91109 | 142° | 64km/h | 14952m | 5.5m/s | 0°C | 0% | 0hPa | 0V | 00:00:00 | 00:00:00 | 00:00:00 | |
| OE5DXL-15 | 2026-09-04 12:22:34 | 47.96245 | 16.91076 | 138° | 66km/h | 14943m | 5.3m/s | 0°C | 0% | 0hPa | 0V | 00:00:00 | 00:00:00 | 00:00:00 | |
| PETON7-10 | 2026-09-04 12:22:29 | 47.96307 | 16.91003 | 145° | 66km/h | 14921m | 5.5m/s | 0°C | 0% | 0hPa | 0V | 00:00:00 | 00:00:00 | 00:00:00 | |
| OE3JTB-15 | 2026-09-04 12:22:27 | 47.96369 | 16.90934 | 142° | 71km/h | 14898m | 6.2m/s | 0°C | 0% | 0hPa | 0V | 00:00:00 | 00:00:00 | 00:00:00 | |
| ATIDSZ-14 | 2026-09-04 12:22:20 | 47.96423 | 16.90869 | 144° | 71km/h | 14879m | 3.4m/s | 0°C | 0% | 0hPa | 0V | 00:00:00 | 00:00:00 | 00:00:00 | |
| OE3OSB-13 | 2026-09-04 12:22:17 | 47.96462 | 16.90819 | 138° | 64km/h | 14864m | 5.3m/s | -60.8°C | 12.9% | 128.4hPa | 0V | 00:00:00 | 00:00:00 | 00:00:00 | |
| PETON7-10 | 2026-09-04 12:22:14 | 47.96499 | 16.90768 | 135° | 71km/h | 14850m | 5.9m/s | 0°C | 0% | 0hPa | 0V | 00:00:00 | 00:00:00 | 00:00:00 | |
| OE5MMP-10 | 2026-09-04 12:22:04 | 47.96626 | 16.90581 | 129° | 75km/h | 14803m | 3.4m/s | 0°C | 0% | 0hPa | 0V | 00:00:00 | 00:00:00 | 00:00:00 | |
| ATIDSZ-14 | 2026-09-04 12:22:00 | 47.96676 | 16.90499 | 134° | 75km/h | 14786m | 5.6m/s | 0°C | 0% | 0hPa | 0V | 00:00:00 | 00:00:00 | 00:00:00 | |
| PETON7-10 | 2026-09-04 12:21:59 | 47.96689 | 16.90478 | 133° | 73km/h | 14781m | 3.7m/s | 0°C | 0% | 0hPa | 0V | 00:00:00 | 00:00:00 | 00:00:00 | |
| OE3JTB-15 | 2026-09-04 12:21:58 | 47.96716 | 16.90438 | 138° | 73km/h | 14772m | 4.6m/s | 0°C | 0% | 0hPa | 0V | 00:00:00 | 00:00:00 | 00:00:00 | |
| OE5MMP-10 | 2026-09-04 12:21:54 | 47.96755 | 16.90379 | 130° | 73km/h | 14758m | 3.9m/s | 0°C | 0% | 0hPa | 0V | 00:00:00 | 00:00:00 | 00:00:00 | |
| PG1ADW-2 | 2026-09-04 12:21:46 | 47.96853 | 16.90210 | 134° | 75km/h | 14722m | 4.1m/s | 0°C | 0% | 0hPa | 0V | 00:00:00 | 00:00:00 | 00:00:00 | |
| OE5MMP-10 | 2026-09-04 12:21:44 | 47.96878 | 16.90168 | 132° | 71km/h | 14712m | 3.3m/s | 0°C | 0% | 0hPa | 0V | 00:00:00 | 00:00:00 | 00:00:00 | |
| PETON7-10 | 2026-09-04 12:21:42 | 47.96905 | 16.90128 | 140° | 73km/h | 14703m | 4.2m/s | 0°C | 0% | 0hPa | 0V | 00:00:00 | 00:00:00 | 00:00:00 | |
| ATIDSZ-14 | 2026-09-04 12:21:39 | 47.96944 | 16.90073 | 136° | 69km/h | 14689m | 2.7m/s | 0°C | 0% | 0hPa | 0V | 00:00:00 | 00:00:00 | 00:00:00 | |
| OE5MMP-10 | 2026-09-04 12:21:34 | 47.97022 | 16.89959 | 141° | 77km/h | 14662m | 5.2m/s | 0°C | 0% | 0hPa | 0V | 00:00:00 | 00:00:00 | 00:00:00 | |
| OE3JTB-15 | 2026-09-04 12:21:29 | 47.97098 | 16.89873 | 147° | 80km/h | 14638m | 4.6m/s | 0°C | 0% | 0hPa | 0V | 00:00:00 | 00:00:00 | 00:00:00 | |
| PETON7-10 | 2026-09-04 12:21:26 | 47.97128 | 16.89839 | 140° | 82km/h | 14628m | 6.2m/s | 0°C | 0% | 0hPa | 0V | 00:00:00 | 00:00:00 | 00:00:00 | |
| PG1ADW-2 | 2026-09-04 12:21:24 | 47.97158 | 16.89799 | 140° | 78km/h | 14619m | 5.5m/s | 0°C | 0% | 0hPa | 0V | 00:00:00 | 00:00:00 | 00:00:00 | |
| OE5MMP-10 | 2026-09-04 12:21:23 | 47.97174 | 16.89779 | 141° | 82km/h | 14614m | 4.0m/s | 0°C | 0% | 0hPa | 0V | 00:00:00 | 00:00:00 | 00:00:00 | |
| ATIDSZ-14 | 2026-09-04 12:21:18 | 47.97255 | 16.89677 | 142° | 82km/h | 14590m | 3.4m/s | 0°C | 0% | 0hPa | 0V | 00:00:00 | 00:00:00 | 00:00:00 | |
| OE3OSB-13 | 2026-09-04 12:21:15 | 47.97314 | 16.89594 | 138° | 80km/h | 14571m | 4.2m/s | -62.4°C | 17.5% | 134.8hPa | 0V | 00:00:00 | 00:00:00 | 00:00:00 | |
| OE5MMP-10 | 2026-09-04 12:21:13 | 47.97330 | 16.89573 | 140° | 77km/h | 14567m | 4.5m/s | 0°C | 0% | 0hPa | 0V | 00:00:00 | 00:00:00 | 00:00:00 | |
| PETON7-10 | 2026-09-04 12:21:11 | 47.97361 | 16.89532 | 139° | 77km/h | 14557m | 5.0m/s | 0°C | 0% | 0hPa | 0V | 00:00:00 | 00:00:00 | 00:00:00 | |
| OE5DXL-15 | 2026-09-04 12:21:04 | 47.97460 | 16.89397 | 139° | 73km/h | 14525m | 3.0m/s | 0°C | 0% | 0hPa | 0V | 00:00:00 | 00:00:00 | 00:00:00 | |
| OE5MMP-10 | 2026-09-04 12:21:00 | 47.97518 | 16.89315 | 139° | 75km/h | 14506m | 5.4m/s | 0°C | 0% | 0hPa | 0V | 00:00:00 | 00:00:00 | 00:00:00 | |
| OE3OSB-13 | 2026-09-04 12:20:44 | 47.97748 | 16.88995 | 129° | 64km/h | 14427m | 4.8m/s | -64.3°C | 19.8% | 138.2hPa | 0V | 00:00:00 | 00:00:00 | 00:00:00 | |
| PETON7-10 | 2026-09-04 12:20:38 | 47.97807 | 16.88903 | 136° | 69km/h | 14403m | 4.9m/s | 0°C | 0% | 0hPa | 0V | 00:00:00 | 00:00:00 | 00:00:00 | |
| OE5MMP-10 | 2026-09-04 12:20:37 | 47.97820 | 16.88886 | 139° | 71km/h | 14398m | 3.7m/s | 0°C | 0% | 0hPa | 0V | 00:00:00 | 00:00:00 | 00:00:00 | |
| OE5DXL-15 | 2026-09-04 12:20:34 | 47.97862 | 16.88839 | 145° | 71km/h | 14383m | 6.0m/s | 0°C | 0% | 0hPa | 0V | 00:00:00 | 00:00:00 | 00:00:00 | |
| OE3JTB-15 | 2026-09-04 12:20:31 | 47.97929 | 16.88762 | 141° | 73km/h | 14359m | 5.8m/s | 0°C | 0% | 0hPa | 0V | 00:00:00 | 00:00:00 | 00:00:00 | |
| OE5MMP-10 | 2026-09-04 12:20:25 | 47.97987 | 16.88696 | 145° | 73km/h | 14340m | 4.9m/s | 0°C | 0% | 0hPa | 0V | 00:00:00 | 00:00:00 | 00:00:00 | |
| PETON7-10 | 2026-09-04 12:20:23 | 47.98016 | 16.88663 | 141° | 71km/h | 14329m | 3.7m/s | 0°C | 0% | 0hPa | 0V | 00:00:00 | 00:00:00 | 00:00:00 | |
| ATIDSZ-14 | 2026-09-04 12:20:17 | 47.98099 | 16.88559 | 140° | 75km/h | 14300m | 5.7m/s | 0°C | 0% | 0hPa | 0V | 00:00:00 | 00:00:00 | 00:00:00 | |
| OE3OSB-13 | 2026-09-04 12:20:13 | 47.98166 | 16.88458 | 137° | 69km/h | 14276m | 4.6m/s | -65.4°C | 22.2% | 141.8hPa | 0V | 00:00:00 | 00:00:00 | 00:00:00 | |
| PETON7-10 | 2026-09-04 12:20:08 | 47.98217 | 16.88387 | 137° | 73km/h | 14257m | 4.9m/s | 0°C | 0% | 0hPa | 0V | 00:00:00 | 00:00:00 | 00:00:00 | |
| OE5DXL-15 | 2026-09-04 12:20:04 | 47.98271 | 16.88309 | 133° | 71km/h | 14237m | 4.1m/s | 0°C | 0% | 0hPa | 0V | 00:00:00 | 00:00:00 | 00:00:00 | |
| OE3JTB-15 | 2026-09-04 12:20:02 | 47.98331 | 16.88205 | 133° | 69km/h | 14211m | 4.8m/s | 0°C | 0% | 0hPa | 0V | 00:00:00 | 00:00:00 | 00:00:00 | |
| ATIDSZ-14 | 2026-09-04 12:19:56 | 47.98371 | 16.88145 | 135° | 73km/h | 14196m | 6.8m/s | 0°C | 0% | 0hPa | 0V | 00:00:00 | 00:00:00 | 00:00:00 | |
| PETON7-10 | 2026-09-04 12:19:53 | 47.98408 | 16.88089 | 136° | 68km/h | 14180m | 6.1m/s | 0°C | 0% | 0hPa | 0V | 00:00:00 | 00:00:00 | 00:00:00 | |
| PG1ADW-2 | 2026-09-04 12:19:48 | 47.98465 | 16.87992 | 134° | 71km/h | 14154m | 4.3m/s | 0°C | 0% | 0hPa | 0V | 00:00:00 | 00:00:00 | 00:00:00 | |
| OE3OSB-13 | 2026-09-04 12:19:42 | 47.98551 | 16.87861 | 134° | 68km/h | 14118m | 6.2m/s | -65.0°C | 25.3% | 145.7hPa | 0V | 00:00:00 | 00:00:00 | 00:00:00 | |
| PETON7-10 | 2026-09-04 12:19:38 | 47.98588 | 16.87808 | 140° | 73km/h | 14103m | 5.9m/s | 0°C | 0% | 0hPa | 0V | 00:00:00 | 00:00:00 | 00:00:00 | |
| ATIDSZ-14 | 2026-09-04 12:19:36 | 47.98614 | 16.87774 | 139° | 66km/h | 14094m | 6.0m/s | 0°C | 0% | 0hPa | 0V | 00:00:00 | 00:00:00 | 00:00:00 | |
| OE3JTB-15 | 2026-09-04 12:19:34 | 47.98680 | 16.87692 | 140° | 78km/h | 14067m | 5.2m/s | 0°C | 0% | 0hPa | 0V | 00:00:00 | 00:00:00 | 00:00:00 | |
| PETON7-10 | 2026-09-04 12:19:22 | 47.98810 | 16.87526 | 141° | 78km/h | 14020m | 7.3m/s | 0°C | 0% | 0hPa | 0V | 00:00:00 | 00:00:00 | 00:00:00 | |
| PG1ADW-2 | 2026-09-04 12:19:19 | 47.98854 | 16.87473 | 144° | 80km/h | 14004m | 6.2m/s | 0°C | 0% | 0hPa | 0V | 00:00:00 | 00:00:00 | 00:00:00 | |
| ATIDSZ-14 | 2026-09-04 12:19:16 | 47.98902 | 16.87418 | 142° | 78km/h | 13988m | 4.8m/s | 0°C | 0% | 0hPa | 0V | 00:00:00 | 00:00:00 | 00:00:00 | |
| OE3OSB-13 | 2026-09-04 12:19:11 | 47.98993 | 16.87304 | 139° | 80km/h | 13956m | 5.3m/s | -64.2°C | 28.2% | 149.8hPa | 0V | 00:00:00 | 00:00:00 | 00:00:00 | |
| PETON7-10 | 2026-09-04 12:19:06 | 47.99061 | 16.87230 | 144° | 82km/h | 13937m | 3.6m/s | 0°C | 0% | 0hPa | 0V | 00:00:00 | 00:00:00 | 00:00:00 | |
| OE5DXL-15 | 2026-09-04 12:19:03 | 47.99114 | 16.87172 | 140° | 84km/h | 13921m | 6.3m/s | 0°C | 0% | 0hPa | 0V | 00:00:00 | 00:00:00 | 00:00:00 | |
| ATIDSZ-14 | 2026-09-04 12:18:52 | 47.99291 | 16.86968 | 142° | 91km/h | 13859m | 10.1m/s | 0°C | 0% | 0hPa | 0V | 00:00:00 | 00:00:00 | 00:00:00 | |
| PETON7-10 | 2026-09-04 12:18:49 | 47.99342 | 16.86911 | 146° | 86km/h | 13839m | 5.3m/s | 0°C | 0% | 0hPa | 0V | 00:00:00 | 00:00:00 | 00:00:00 | |
| OE3OSB-13 | 2026-09-04 12:18:40 | 47.99525 | 16.86708 | 142° | 78km/h | 13774m | 3.9m/s | -64.9°C | 29.8% | 154.4hPa | 0V | 00:00:00 | 00:00:00 | 00:00:00 | |
| OE5DXL-15 | 2026-09-04 12:18:33 | 47.99623 | 16.86591 | 137° | 78km/h | 13741m | 9.6m/s | 0°C | 0% | 0hPa | 0V | 00:00:00 | 00:00:00 | 00:00:00 | |
| PETON7-10 | 2026-09-04 12:18:32 | 47.99638 | 16.86569 | 136° | 82km/h | 13734m | 4.2m/s | 0°C | 0% | 0hPa | 0V | 00:00:00 | 00:00:00 | 00:00:00 | |
| ATIDSZ-14 | 2026-09-04 12:18:31 | 47.99653 | 16.86547 | 137° | 84km/h | 13728m | 8.1m/s | 0°C | 0% | 0hPa | 0V | 00:00:00 | 00:00:00 | 00:00:00 | |
| PETON7-10 | 2026-09-04 12:18:16 | 47.99869 | 16.86217 | 132° | 75km/h | 13636m | 3.9m/s | 0°C | 0% | 0hPa | 0V | 00:00:00 | 00:00:00 | 00:00:00 | |
| PG1ADW-2 | 2026-09-04 12:18:15 | 47.99882 | 16.86194 | 132° | 75km/h | 13631m | 5.0m/s | 0°C | 0% | 0hPa | 0V | 00:00:00 | 00:00:00 | 00:00:00 | |
| ATIDSZ-14 | 2026-09-04 12:18:11 | 47.99939 | 16.86116 | 145° | 73km/h | 13611m | 6.7m/s | 0°C | 0% | 0hPa | 0V | 00:00:00 | 00:00:00 | 00:00:00 | |
| OE3OSB-13 | 2026-09-04 12:18:09 | 47.99985 | 16.86068 | 144° | 68km/h | 13592m | 4.8m/s | -65.4°C | 29.3% | 159.2hPa | 0V | 00:00:00 | 00:00:00 | 00:00:00 | |
| OE3JTB-15 | 2026-09-04 12:18:06 | 48.00055 | 16.85987 | 140° | 77km/h | 13564m | 6.3m/s | 0°C | 0% | 0hPa | 0V | 00:00:00 | 00:00:00 | 00:00:00 | |
| OE5DXL-15 | 2026-09-04 12:18:03 | 48.00055 | 16.85987 | 140° | 80km/h | 13564m | 6.3m/s | 0°C | 0% | 0hPa | 0V | 00:00:00 | 00:00:00 | 00:00:00 | |
| PETON7-10 | 2026-09-04 12:18:01 | 48.00084 | 16.85947 | 137° | 77km/h | 13551m | 7.4m/s | 0°C | 0% | 0hPa | 0V | 00:00:00 | 00:00:00 | 00:00:00 | |
| ATIDSZ-14 | 2026-09-04 12:17:51 | 48.00245 | 16.85792 | 154° | 71km/h | 13494m | 9.1m/s | 0°C | 0% | 0hPa | 0V | 00:00:00 | 00:00:00 | 00:00:00 | |
| PETON7-10 | 2026-09-04 12:17:46 | 48.00330 | 16.85723 | 156° | 82km/h | 13469m | 6.4m/s | 0°C | 0% | 0hPa | 0V | 00:00:00 | 00:00:00 | 00:00:00 | |
| OE3OSB-13 | 2026-09-04 12:17:38 | 48.00492 | 16.85598 | 152° | 82km/h | 13413m | 5.9m/s | -65.0°C | 28.9% | 164.2hPa | 0V | 00:00:00 | 00:00:00 | 00:00:00 | |
| OE3JTB-15 | 2026-09-04 12:17:35 | 48.00590 | 16.85523 | 155° | 88km/h | 13380m | 4.0m/s | 0°C | 0% | 0hPa | 0V | 00:00:00 | 00:00:00 | 00:00:00 | |
| OE5DXL-15 | 2026-09-04 12:17:32 | 48.00590 | 16.85523 | 155° | 95km/h | 13380m | 4.0m/s | 0°C | 0% | 0hPa | 0V | 00:00:00 | 00:00:00 | 00:00:00 | |
| PETON7-10 | 2026-09-04 12:17:31 | 48.00610 | 16.85510 | 154° | 86km/h | 13374m | 8.6m/s | 0°C | 0% | 0hPa | 0V | 00:00:00 | 00:00:00 | 00:00:00 | |
| PG1ADW-2 | 2026-09-04 12:17:30 | 48.00628 | 16.85497 | 157° | 91km/h | 13368m | 3.9m/s | 0°C | 0% | 0hPa | 0V | 00:00:00 | 00:00:00 | 00:00:00 | |
| PETON7-10 | 2026-09-04 12:17:16 | 48.00906 | 16.85292 | 156° | 89km/h | 13287m | 7.5m/s | 0°C | 0% | 0hPa | 0V | 00:00:00 | 00:00:00 | 00:00:00 | |
| ATIDSZ-14 | 2026-09-04 12:17:10 | 48.01031 | 16.85202 | 153° | 88km/h | 13251m | 7.0m/s | 0°C | 0% | 0hPa | 0V | 00:00:00 | 00:00:00 | 00:00:00 | |
| OE3OSB-13 | 2026-09-04 12:17:07 | 48.01113 | 16.85146 | 156° | 91km/h | 13231m | 2.4m/s | -64.1°C | 28.1% | 169.3hPa | 0V | 00:00:00 | 00:00:00 | 00:00:00 | |
| OE3JTB-15 | 2026-09-04 12:17:06 | 48.01171 | 16.85104 | 152° | 99km/h | 13217m | 5.4m/s | 0°C | 0% | 0hPa | 0V | 00:00:00 | 00:00:00 | 00:00:00 | |
| PETON7-10 | 2026-09-04 12:17:01 | 48.01206 | 16.85073 | 150° | 102km/h | 13209m | 5.6m/s | 0°C | 0% | 0hPa | 0V | 00:00:00 | 00:00:00 | 00:00:00 | |
| ATIDSZ-14 | 2026-09-04 12:16:50 | 48.01452 | 16.84877 | 152° | 97km/h | 13141m | 7.5m/s | 0°C | 0% | 0hPa | 0V | 00:00:00 | 00:00:00 | 00:00:00 | |
| PETON7-10 | 2026-09-04 12:16:45 | 48.01566 | 16.84769 | 146° | 99km/h | 13112m | 4.2m/s | 0°C | 0% | 0hPa | 0V | 00:00:00 | 00:00:00 | 00:00:00 | |
| PG1ADW-2 | 2026-09-04 12:16:39 | 48.01692 | 16.84650 | 144° | 99km/h | 13076m | 5.3m/s | 0°C | 0% | 0hPa | 0V | 00:00:00 | 00:00:00 | 00:00:00 | |
| OE3OSB-13 | 2026-09-04 12:16:36 | 48.01771 | 16.84558 | 142° | 97km/h | 13055m | 7.4m/s | -64.2°C | 28.5% | 174.4hPa | 0V | 00:00:00 | 00:00:00 | 00:00:00 | |
| PETON7-10 | 2026-09-04 12:16:30 | 48.01873 | 16.84448 | 147° | 99km/h | 13029m | 3.8m/s | 0°C | 0% | 0hPa | 0V | 00:00:00 | 00:00:00 | 00:00:00 | |
| PG1ADW-2 | 2026-09-04 12:16:19 | 48.02099 | 16.84208 | 142° | 99km/h | 12961m | 5.1m/s | 0°C | 0% | 0hPa | 0V | 00:00:00 | 00:00:00 | 00:00:00 | |
| PETON7-10 | 2026-09-04 12:16:15 | 48.02174 | 16.84111 | 145° | 100km/h | 12933m | 5.9m/s | 0°C | 0% | 0hPa | 0V | 00:00:00 | 00:00:00 | 00:00:00 | |
| ATIDSZ-14 | 2026-09-04 12:16:09 | 48.02296 | 16.83981 | 141° | 97km/h | 12898m | 6.8m/s | 0°C | 0% | 0hPa | 0V | 00:00:00 | 00:00:00 | 00:00:00 | |
| OE5DXL-15 | 2026-09-04 12:16:06 | 48.02357 | 16.83910 | 143° | 99km/h | 12880m | 7.3m/s | 0°C | 0% | 0hPa | 0V | 00:00:00 | 00:00:00 | 00:00:00 | |
| OE3OSB-13 | 2026-09-04 12:16:05 | 48.02396 | 16.83862 | 139° | 97km/h | 12870m | 3.4m/s | -62.8°C | 29.3% | 179.9hPa | 0V | 00:00:00 | 00:00:00 | 00:00:00 | |
| PETON7-10 | 2026-09-04 12:16:00 | 48.02475 | 16.83767 | 144° | 102km/h | 12846m | 6.0m/s | 0°C | 0% | 0hPa | 0V | 00:00:00 | 00:00:00 | 00:00:00 | |
| PG1ADW-2 | 2026-09-04 12:15:58 | 48.02516 | 16.83718 | 140° | 97km/h | 12836m | 5.1m/s | 0°C | 0% | 0hPa | 0V | 00:00:00 | 00:00:00 | 00:00:00 | |
| ATIDSZ-14 | 2026-09-04 12:15:48 | 48.02708 | 16.83482 | 139° | 104km/h | 12788m | 6.5m/s | 0°C | 0% | 0hPa | 0V | 00:00:00 | 00:00:00 | 00:00:00 | |
| PETON7-10 | 2026-09-04 12:15:45 | 48.02769 | 16.83399 | 139° | 91km/h | 12772m | 7.0m/s | 0°C | 0% | 0hPa | 0V | 00:00:00 | 00:00:00 | 00:00:00 | |
| OE3JTB-15 | 2026-09-04 12:15:39 | 48.02913 | 16.83211 | 140° | 97km/h | 12725m | 6.7m/s | 0°C | 0% | 0hPa | 0V | 00:00:00 | 00:00:00 | 00:00:00 | |
| OE5DXL-15 | 2026-09-04 12:15:35 | 48.02953 | 16.83157 | 137° | 95km/h | 12715m | 4.9m/s | 0°C | 0% | 0hPa | 0V | 00:00:00 | 00:00:00 | 00:00:00 | |
| OE3OSB-13 | 2026-09-04 12:15:34 | 48.02987 | 16.83112 | 138° | 82km/h | 12704m | 4.0m/s | -61.4°C | 29.7% | 185.0hPa | 0V | 00:00:00 | 00:00:00 | 00:00:00 | |
| PETON7-10 | 2026-09-04 12:15:30 | 48.03039 | 16.83050 | 143° | 99km/h | 12689m | 3.6m/s | 0°C | 0% | 0hPa | 0V | 00:00:00 | 00:00:00 | 00:00:00 | |
| ATIDSZ-14 | 2026-09-04 12:15:27 | 48.03098 | 16.82975 | 137° | 100km/h | 12676m | 3.8m/s | 0°C | 0% | 0hPa | 0V | 00:00:00 | 00:00:00 | 00:00:00 | |
| PETON7-10 | 2026-09-04 12:15:15 | 48.03312 | 16.82672 | 133° | 95km/h | 12622m | 4.9m/s | 0°C | 0% | 0hPa | 0V | 00:00:00 | 00:00:00 | 00:00:00 | |
| PG1ADW-2 | 2026-09-04 12:15:09 | 48.03414 | 16.82525 | 142° | 93km/h | 12592m | 6.2m/s | 0°C | 0% | 0hPa | 0V | 00:00:00 | 00:00:00 | 00:00:00 | |
| ATIDSZ-14 | 2026-09-04 12:15:07 | 48.03455 | 16.82476 | 140° | 104km/h | 12584m | 1.9m/s | 0°C | 0% | 0hPa | 0V | 00:00:00 | 00:00:00 | 00:00:00 | |
| OE5DXL-15 | 2026-09-04 12:15:05 | 48.03492 | 16.82425 | 137° | 93km/h | 12575m | 5.2m/s | 0°C | 0% | 0hPa | 0V | 00:00:00 | 00:00:00 | 00:00:00 | |
| PETON7-10 | 2026-09-04 12:15:00 | 48.03570 | 16.82293 | 137° | 93km/h | 12553m | 4.2m/s | 0°C | 0% | 0hPa | 0V | 00:00:00 | 00:00:00 | 00:00:00 | |
| PG1ADW-2 | 2026-09-04 12:14:47 | 48.03814 | 16.81961 | 138° | 95km/h | 12474m | 4.0m/s | 0°C | 0% | 0hPa | 0V | 00:00:00 | 00:00:00 | 00:00:00 | |
| PETON7-10 | 2026-09-04 12:14:45 | 48.03834 | 16.81934 | 139° | 95km/h | 12470m | 3.1m/s | 0°C | 0% | 0hPa | 0V | 00:00:00 | 00:00:00 | 00:00:00 | |
| OE3JTB-15 | 2026-09-04 12:14:41 | 48.03930 | 16.81808 | 145° | 93km/h | 12445m | 6.9m/s | 0°C | 0% | 0hPa | 0V | 00:00:00 | 00:00:00 | 00:00:00 | |
| OE5DXL-15 | 2026-09-04 12:14:35 | 48.04006 | 16.81703 | 134° | 93km/h | 12422m | 4.2m/s | 0°C | 0% | 0hPa | 0V | 00:00:00 | 00:00:00 | 00:00:00 | |
| OE3OSB-13 | 2026-09-04 12:14:31 | 48.04102 | 16.81573 | 139° | 95km/h | 12396m | 5.7m/s | -58.6°C | 31.9% | 194.5hPa | 0V | 00:00:00 | 00:00:00 | 00:00:00 | |
| PETON7-10 | 2026-09-04 12:14:30 | 48.04101 | 16.81573 | 140° | 91km/h | 12396m | 5.7m/s | 0°C | 0% | 0hPa | 0V | 00:00:00 | 00:00:00 | 00:00:00 | |
| ATIDSZ-14 | 2026-09-04 12:14:26 | 48.04167 | 16.81470 | 135° | 91km/h | 12375m | 4.0m/s | 0°C | 0% | 0hPa | 0V | 00:00:00 | 00:00:00 | 00:00:00 | |
| PG1ADW-2 | 2026-09-04 12:14:25 | 48.04182 | 16.81447 | 137° | 88km/h | 12372m | 2.5m/s | 0°C | 0% | 0hPa | 0V | 00:00:00 | 00:00:00 | 00:00:00 | |
| PETON7-10 | 2026-09-04 12:14:15 | 48.04345 | 16.81200 | 133° | 89km/h | 12318m | 5.7m/s | 0°C | 0% | 0hPa | 0V | 00:00:00 | 00:00:00 | 00:00:00 | |
| OE3JTB-15 | 2026-09-04 12:14:11 | 48.04405 | 16.81096 | 131° | 89km/h | 12296m | 5.2m/s | 0°C | 0% | 0hPa | 0V | 00:00:00 | 00:00:00 | 00:00:00 | |
| OE5DXL-15 | 2026-09-04 12:14:05 | 48.04493 | 16.80943 | 131° | 89km/h | 12270m | 4.7m/s | 0°C | 0% | 0hPa | 0V | 00:00:00 | 00:00:00 | 00:00:00 | |
| PETON7-10 | 2026-09-04 12:14:00 | 48.04567 | 16.80812 | 130° | 88km/h | 12250m | 4.4m/s | 0°C | 0% | 0hPa | 0V | 00:00:00 | 00:00:00 | 00:00:00 | |
| PETON7-10 | 2026-09-04 12:13:45 | 48.04785 | 16.80437 | 137° | 88km/h | 12177m | 4.5m/s | 0°C | 0% | 0hPa | 0V | 00:00:00 | 00:00:00 | 00:00:00 | |
| PG1ADW-2 | 2026-09-04 12:13:44 | 48.04801 | 16.80414 | 137° | 88km/h | 12173m | 3.4m/s | 0°C | 0% | 0hPa | 0V | 00:00:00 | 00:00:00 | 00:00:00 | |
| OE5DXL-15 | 2026-09-04 12:13:35 | 48.04931 | 16.80190 | 135° | 86km/h | 12126m | 3.7m/s | 0°C | 0% | 0hPa | 0V | 00:00:00 | 00:00:00 | 00:00:00 | |
| PETON7-10 | 2026-09-04 12:13:30 | 48.05017 | 16.80060 | 126° | 82km/h | 12099m | 4.7m/s | 0°C | 0% | 0hPa | 0V | 00:00:00 | 00:00:00 | 00:00:00 | |
| OE3OSB-13 | 2026-09-04 12:13:29 | 48.05032 | 16.80004 | 135° | 91km/h | 12092m | 4.0m/s | -56.1°C | 34.6% | 204.5hPa | 0V | 00:00:00 | 00:00:00 | 00:00:00 | |
| OE3JTB-15 | 2026-09-04 12:13:27 | 48.05049 | 16.79981 | 141° | 80km/h | 12088m | 4.6m/s | 0°C | 0% | 0hPa | 0V | 00:00:00 | 00:00:00 | 00:00:00 | |
| ATIDSZ-14 | 2026-09-04 12:13:25 | 48.05082 | 16.79937 | 135° | 86km/h | 12077m | 5.6m/s | 0°C | 0% | 0hPa | 0V | 00:00:00 | 00:00:00 | 00:00:00 | |
| PG1ADW-2 | 2026-09-04 12:13:22 | 48.05118 | 16.79856 | 116° | 73km/h | 12057m | 6.1m/s | 0°C | 0% | 0hPa | 0V | 00:00:00 | 00:00:00 | 00:00:00 | |
| PETON7-10 | 2026-09-04 12:13:15 | 48.05197 | 16.79699 | 134° | 80km/h | 12018m | 5.7m/s | 0°C | 0% | 0hPa | 0V | 00:00:00 | 00:00:00 | 00:00:00 | |
| ATIDSZ-14 | 2026-09-04 12:13:03 | 48.05357 | 16.79442 | 134° | 82km/h | 11949m | 9.4m/s | 0°C | 0% | 0hPa | 0V | 00:00:00 | 00:00:00 | 00:00:00 | |
| PG1ADW-2 | 2026-09-04 12:13:02 | 48.05373 | 16.79421 | 143° | 77km/h | 11941m | 6.5m/s | 0°C | 0% | 0hPa | 0V | 00:00:00 | 00:00:00 | 00:00:00 | |
| PETON7-10 | 2026-09-04 12:13:00 | 48.05409 | 16.79383 | 145° | 73km/h | 11929m | 4.0m/s | 0°C | 0% | 0hPa | 0V | 00:00:00 | 00:00:00 | 00:00:00 | |
| OE3OSB-13 | 2026-09-04 12:12:58 | 48.05457 | 16.79322 | 134° | 84km/h | 11914m | 8.8m/s | -54.7°C | 37.0% | 210.3hPa | 0V | 00:00:00 | 00:00:00 | 00:00:00 | |
| OE3JTB-15 | 2026-09-04 12:12:57 | 48.05457 | 16.79322 | 135° | 71km/h | 11915m | 8.7m/s | 0°C | 0% | 0hPa | 0V | 00:00:00 | 00:00:00 | 00:00:00 | |
| PETON7-10 | 2026-09-04 12:12:45 | 48.05595 | 16.79083 | 137° | 71km/h | 11843m | 6.0m/s | 0°C | 0% | 0hPa | 0V | 00:00:00 | 00:00:00 | 00:00:00 | |
| ATIDSZ-14 | 2026-09-04 12:12:43 | 48.05622 | 16.79044 | 136° | 69km/h | 11832m | 6.0m/s | 0°C | 0% | 0hPa | 0V | 00:00:00 | 00:00:00 | 00:00:00 | |
| PETON7-10 | 2026-09-04 12:12:30 | 48.05785 | 16.78791 | 122° | 71km/h | 11761m | 3.8m/s | 0°C | 0% | 0hPa | 0V | 00:00:00 | 00:00:00 | 00:00:00 | |
| OE3OSB-13 | 2026-09-04 12:12:27 | 48.05831 | 16.78711 | 139° | 75km/h | 11744m | 4.9m/s | -53.1°C | 37.0% | 216.2hPa | 0V | 00:00:00 | 00:00:00 | 00:00:00 | |
| ATIDSZ-14 | 2026-09-04 12:12:22 | 48.05882 | 16.78634 | 133° | 71km/h | 11723m | 5.2m/s | 0°C | 0% | 0hPa | 0V | 00:00:00 | 00:00:00 | 00:00:00 | |
| PG1ADW-2 | 2026-09-04 12:12:20 | 48.05907 | 16.78591 | 129° | 73km/h | 11713m | 4.3m/s | 0°C | 0% | 0hPa | 0V | 00:00:00 | 00:00:00 | 00:00:00 | |
| OE5DXL-15 | 2026-09-04 12:12:15 | 48.05966 | 16.78489 | 140° | 77km/h | 11686m | 3.6m/s | 0°C | 0% | 0hPa | 0V | 00:00:00 | 00:00:00 | 00:00:00 | |
| ATIDSZ-14 | 2026-09-04 12:12:01 | 48.06149 | 16.78201 | 138° | 80km/h | 11625m | 3.9m/s | 0°C | 0% | 0hPa | 0V | 00:00:00 | 00:00:00 | 00:00:00 | |
| PETON7-10 | 2026-09-04 12:12:00 | 48.06163 | 16.78180 | 135° | 78km/h | 11620m | 6.1m/s | 0°C | 0% | 0hPa | 0V | 00:00:00 | 00:00:00 | 00:00:00 | |
| OE3OSB-13 | 2026-09-04 12:11:56 | 48.06233 | 16.78073 | 128° | 75km/h | 11595m | 6.2m/s | -51.8°C | 38.1% | 221.3hPa | 0V | 00:00:00 | 00:00:00 | 00:00:00 | |
| PETON7-10 | 2026-09-04 12:11:45 | 48.06355 | 16.77857 | 123° | 77km/h | 11553m | 4.7m/s | 0°C | 0% | 0hPa | 0V | 00:00:00 | 00:00:00 | 00:00:00 | |
| OE5DXL-15 | 2026-09-04 12:11:44 | 48.06366 | 16.77833 | 128° | 75km/h | 11549m | 3.3m/s | 0°C | 0% | 0hPa | 0V | 00:00:00 | 00:00:00 | 00:00:00 | |
| ATIDSZ-14 | 2026-09-04 12:11:41 | 48.06401 | 16.77774 | 134° | 64km/h | 11533m | 2.1m/s | 0°C | 0% | 0hPa | 0V | 00:00:00 | 00:00:00 | 00:00:00 | |
| PG1ADW-2 | 2026-09-04 12:11:39 | 48.06425 | 16.77733 | 131° | 78km/h | 11524m | 3.9m/s | 0°C | 0% | 0hPa | 0V | 00:00:00 | 00:00:00 | 00:00:00 | |
| PETON7-10 | 2026-09-04 12:11:30 | 48.06543 | 16.77546 | 143° | 77km/h | 11475m | 5.4m/s | 0°C | 0% | 0hPa | 0V | 00:00:00 | 00:00:00 | 00:00:00 | |
| OE3OSB-13 | 2026-09-04 12:11:25 | 48.06628 | 16.77422 | 124° | 69km/h | 11443m | 4.9m/s | -50.5°C | 40.4% | 226.7hPa | 0V | 00:00:00 | 00:00:00 | 00:00:00 | |
| ATIDSZ-14 | 2026-09-04 12:11:21 | 48.06662 | 16.77356 | 133° | 68km/h | 11423m | 4.6m/s | 0°C | 0% | 0hPa | 0V | 00:00:00 | 00:00:00 | 00:00:00 | |
| PG1ADW-2 | 2026-09-04 12:11:17 | 48.06713 | 16.77277 | 133° | 78km/h | 11403m | 2.9m/s | 0°C | 0% | 0hPa | 0V | 00:00:00 | 00:00:00 | 00:00:00 | |
| PETON7-10 | 2026-09-04 12:11:15 | 48.06740 | 16.77233 | 135° | 78km/h | 11389m | 6.3m/s | 0°C | 0% | 0hPa | 0V | 00:00:00 | 00:00:00 | 00:00:00 | |
| OE5DXL-15 | 2026-09-04 12:11:14 | 48.06753 | 16.77212 | 133° | 77km/h | 11385m | 2.7m/s | 0°C | 0% | 0hPa | 0V | 00:00:00 | 00:00:00 | 00:00:00 | |
| ATIDSZ-14 | 2026-09-04 12:11:01 | 48.06927 | 16.76938 | 131° | 69km/h | 11313m | 5.7m/s | 0°C | 0% | 0hPa | 0V | 00:00:00 | 00:00:00 | 00:00:00 | |
| PETON7-10 | 2026-09-04 12:11:00 | 48.06938 | 16.76918 | 127° | 77km/h | 11307m | 7.1m/s | 0°C | 0% | 0hPa | 0V | 00:00:00 | 00:00:00 | 00:00:00 | |
| OE3OSB-13 | 2026-09-04 12:10:54 | 48.07028 | 16.76758 | 129° | 73km/h | 11272m | 6.0m/s | -49.1°C | 41.9% | 232.9hPa | 0V | 00:00:00 | 00:00:00 | 00:00:00 | |
| PETON7-10 | 2026-09-04 12:10:45 | 48.07124 | 16.76582 | 130° | 77km/h | 11236m | 2.7m/s | 0°C | 0% | 0hPa | 0V | 00:00:00 | 00:00:00 | 00:00:00 | |
| OE5DXL-15 | 2026-09-04 12:10:43 | 48.07147 | 16.76537 | 128° | 73km/h | 11228m | 5.1m/s | 0°C | 0% | 0hPa | 0V | 00:00:00 | 00:00:00 | 00:00:00 | |
| ATIDSZ-14 | 2026-09-04 12:10:40 | 48.07184 | 16.76473 | 136° | 82km/h | 11214m | 3.5m/s | 0°C | 0% | 0hPa | 0V | 00:00:00 | 00:00:00 | 00:00:00 | |
| PG1ADW-2 | 2026-09-04 12:10:35 | 48.07249 | 16.76368 | 136° | 75km/h | 11192m | 2.7m/s | 0°C | 0% | 0hPa | 0V | 00:00:00 | 00:00:00 | 00:00:00 | |
| PETON7-10 | 2026-09-04 12:10:29 | 48.07321 | 16.76240 | 131° | 73km/h | 11165m | 6.5m/s | 0°C | 0% | 0hPa | 0V | 00:00:00 | 00:00:00 | 00:00:00 | |
| OE3OSB-13 | 2026-09-04 12:10:23 | 48.07404 | 16.76098 | 123° | 69km/h | 11130m | 3.1m/s | -47.9°C | 42.8% | 238.0hPa | 0V | 00:00:00 | 00:00:00 | 00:00:00 | |
| ATIDSZ-14 | 2026-09-04 12:10:20 | 48.07425 | 16.76053 | 128° | 77km/h | 11122m | 3.7m/s | 0°C | 0% | 0hPa | 0V | 00:00:00 | 00:00:00 | 00:00:00 | |
| PG1ADW-2 | 2026-09-04 12:10:15 | 48.07484 | 16.75951 | 137° | 68km/h | 11093m | 5.6m/s | 0°C | 0% | 0hPa | 0V | 00:00:00 | 00:00:00 | 00:00:00 | |
| PETON7-10 | 2026-09-04 12:10:14 | 48.07497 | 16.75934 | 137° | 73km/h | 11088m | 4.3m/s | 0°C | 0% | 0hPa | 0V | 00:00:00 | 00:00:00 | 00:00:00 | |
| OE3OSB-13 | 2026-09-04 12:09:52 | 48.07791 | 16.75472 | 129° | 78km/h | 10953m | 5.2m/s | -46.3°C | 41.2% | 244.6hPa | 0V | 00:00:00 | 00:00:00 | 00:00:00 | |
| PG1ADW-2 | 2026-09-04 12:09:47 | 48.07836 | 16.75397 | 133° | 77km/h | 10933m | 5.6m/s | 0°C | 0% | 0hPa | 0V | 00:00:00 | 00:00:00 | 00:00:00 | |
| PETON7-10 | 2026-09-04 12:09:44 | 48.07867 | 16.75342 | 131° | 73km/h | 10919m | 5.9m/s | 0°C | 0% | 0hPa | 0V | 00:00:00 | 00:00:00 | 00:00:00 | |
| ATIDSZ-14 | 2026-09-04 12:09:38 | 48.07947 | 16.75210 | 134° | 71km/h | 10885m | 4.0m/s | 0°C | 0% | 0hPa | 0V | 00:00:00 | 00:00:00 | 00:00:00 | |
| OE3JTB-15 | 2026-09-04 12:09:33 | 48.08045 | 16.75023 | 130° | 77km/h | 10831m | 5.7m/s | 0°C | 0% | 0hPa | 0V | 00:00:00 | 00:00:00 | 00:00:00 | |
| PETON7-10 | 2026-09-04 12:09:29 | 48.08045 | 16.75023 | 130° | 73km/h | 10831m | 5.7m/s | 0°C | 0% | 0hPa | 0V | 00:00:00 | 00:00:00 | 00:00:00 | |
| PG1ADW-2 | 2026-09-04 12:09:25 | 48.08097 | 16.74927 | 127° | 77km/h | 10809m | 4.6m/s | 0°C | 0% | 0hPa | 0V | 00:00:00 | 00:00:00 | 00:00:00 | |
| OE3OSB-13 | 2026-09-04 12:09:21 | 48.08161 | 16.74815 | 129° | 77km/h | 10782m | 5.9m/s | -44.9°C | 37.9% | 251.0hPa | 0V | 00:00:00 | 00:00:00 | 00:00:00 | |
| PETON7-10 | 2026-09-04 12:09:12 | 48.08247 | 16.74648 | 130° | 75km/h | 10744m | 5.3m/s | 0°C | 0% | 0hPa | 0V | 00:00:00 | 00:00:00 | 00:00:00 | |
| OE3OSB-13 | 2026-09-04 12:08:50 | 48.08517 | 16.74126 | 130° | 77km/h | 10618m | 3.8m/s | -43.7°C | 29.9% | 257.6hPa | 0V | 00:00:00 | 00:00:00 | 00:00:00 | |
| PETON7-10 | 2026-09-04 12:08:40 | 48.08623 | 16.73926 | 131° | 78km/h | 10571m | 4.9m/s | 0°C | 0% | 0hPa | 0V | 00:00:00 | 00:00:00 | 00:00:00 | |
| PG1ADW-2 | 2026-09-04 12:08:37 | 48.08660 | 16.73854 | 126° | 78km/h | 10556m | 5.0m/s | 0°C | 0% | 0hPa | 0V | 00:00:00 | 00:00:00 | 00:00:00 | |
| ATIDSZ-14 | 2026-09-04 12:08:36 | 48.08672 | 16.73829 | 127° | 80km/h | 10552m | 4.1m/s | 0°C | 0% | 0hPa | 0V | 00:00:00 | 00:00:00 | 00:00:00 | |
| PETON7-10 | 2026-09-04 12:08:25 | 48.08804 | 16.73584 | 124° | 80km/h | 10497m | 4.3m/s | 0°C | 0% | 0hPa | 0V | 00:00:00 | 00:00:00 | 00:00:00 | |
| OE5DXL-15 | 2026-09-04 12:08:24 | 48.08816 | 16.73558 | 124° | 80km/h | 10492m | 5.6m/s | 0°C | 0% | 0hPa | 0V | 00:00:00 | 00:00:00 | 00:00:00 | |
| OE3OSB-13 | 2026-09-04 12:08:19 | 48.08893 | 16.73415 | 128° | 75km/h | 10458m | 4.4m/s | -42.4°C | 30.0% | 263.8hPa | 0V | 00:00:00 | 00:00:00 | 00:00:00 | |
| PG1ADW-2 | 2026-09-04 12:08:17 | 48.08905 | 16.73393 | 129° | 78km/h | 10454m | 3.0m/s | 0°C | 0% | 0hPa | 0V | 00:00:00 | 00:00:00 | 00:00:00 | |
| ATIDSZ-14 | 2026-09-04 12:08:15 | 48.08929 | 16.73349 | 131° | 78km/h | 10442m | 4.1m/s | 0°C | 0% | 0hPa | 0V | 00:00:00 | 00:00:00 | 00:00:00 | |
| PETON7-10 | 2026-09-04 12:08:09 | 48.09004 | 16.73207 | 122° | 80km/h | 10408m | 4.8m/s | 0°C | 0% | 0hPa | 0V | 00:00:00 | 00:00:00 | 00:00:00 | |
| OE3OSB-13 | 2026-09-04 12:07:48 | 48.09276 | 16.72686 | 132° | 82km/h | 10291m | 3.4m/s | -41.0°C | 39.8% | 270.5hPa | 0V | 00:00:00 | 00:00:00 | 00:00:00 | |
| OE3JTB-15 | 2026-09-04 12:07:47 | 48.09332 | 16.72601 | 139° | 77km/h | 10273m | 5.1m/s | 0°C | 0% | 0hPa | 0V | 00:00:00 | 00:00:00 | 00:00:00 | |
| PG1ADW-2 | 2026-09-04 12:07:39 | 48.09383 | 16.72511 | 125° | 80km/h | 10254m | 5.5m/s | 0°C | 0% | 0hPa | 0V | 00:00:00 | 00:00:00 | 00:00:00 | |
| PETON7-10 | 2026-09-04 12:07:37 | 48.09403 | 16.72470 | 129° | 82km/h | 10244m | 3.3m/s | 0°C | 0% | 0hPa | 0V | 00:00:00 | 00:00:00 | 00:00:00 | |
| ATIDSZ-14 | 2026-09-04 12:07:32 | 48.09472 | 16.72354 | 135° | 86km/h | 10222m | 6.8m/s | 0°C | 0% | 0hPa | 0V | 00:00:00 | 00:00:00 | 00:00:00 | |
| OE5DXL-15 | 2026-09-04 12:07:23 | 48.09595 | 16.72145 | 135° | 80km/h | 10177m | 3.7m/s | 0°C | 0% | 0hPa | 0V | 00:00:00 | 00:00:00 | 00:00:00 | |
| PETON7-10 | 2026-09-04 12:07:22 | 48.09610 | 16.72122 | 137° | 82km/h | 10172m | 5.4m/s | 0°C | 0% | 0hPa | 0V | 00:00:00 | 00:00:00 | 00:00:00 | |
| PG1ADW-2 | 2026-09-04 12:07:19 | 48.09650 | 16.72053 | 127° | 80km/h | 10151m | 9.1m/s | 0°C | 0% | 0hPa | 0V | 00:00:00 | 00:00:00 | 00:00:00 | |
| OE3OSB-13 | 2026-09-04 12:07:16 | 48.09690 | 16.71986 | 134° | 82km/h | 10133m | 5.8m/s | -39.6°C | 37.4% | 277.0hPa | 0V | 00:00:00 | 00:00:00 | 00:00:00 | |
| ATIDSZ-14 | 2026-09-04 12:07:12 | 48.09747 | 16.71891 | 131° | 77km/h | 10111m | 3.7m/s | 0°C | 0% | 0hPa | 0V | 00:00:00 | 00:00:00 | 00:00:00 | |
| PETON7-10 | 2026-09-04 12:07:07 | 48.09818 | 16.71781 | 135° | 82km/h | 10081m | 6.4m/s | 0°C | 0% | 0hPa | 0V | 00:00:00 | 00:00:00 | 00:00:00 | |
| OE3OSB-13 | 2026-09-04 12:06:45 | 48.10108 | 16.71282 | 137° | 84km/h | 9960m | 5.9m/s | -38.1°C | 37.8% | 284.4hPa | 0V | 00:00:00 | 00:00:00 | 00:00:00 | |
| PETON7-10 | 2026-09-04 12:06:37 | 48.10215 | 16.71115 | 130° | 78km/h | 9913m | 6.2m/s | 0°C | 0% | 0hPa | 0V | 00:00:00 | 00:00:00 | 00:00:00 | |
| PG1ADW-2 | 2026-09-04 12:06:34 | 48.10257 | 16.71054 | 138° | 84km/h | 9898m | 6.6m/s | 0°C | 0% | 0hPa | 0V | 00:00:00 | 00:00:00 | 00:00:00 | |
| ATIDSZ-14 | 2026-09-04 12:06:31 | 48.10297 | 16.70992 | 130° | 68km/h | 9882m | 8.7m/s | 0°C | 0% | 0hPa | 0V | 00:00:00 | 00:00:00 | 00:00:00 | |
| PETON7-10 | 2026-09-04 12:06:21 | 48.10430 | 16.70766 | 128° | 78km/h | 9813m | 7.7m/s | 0°C | 0% | 0hPa | 0V | 00:00:00 | 00:00:00 | 00:00:00 | |
| OE5DXL-15 | 2026-09-04 12:06:19 | 48.10455 | 16.70720 | 132° | 77km/h | 9800m | 4.3m/s | 0°C | 0% | 0hPa | 0V | 00:00:00 | 00:00:00 | 00:00:00 | |
| OE3OSB-13 | 2026-09-04 12:06:14 | 48.10542 | 16.70590 | 137° | 84km/h | 9766m | 4.1m/s | -36.4°C | 25.9% | 292.5hPa | 0V | 00:00:00 | 00:00:00 | 00:00:00 | |
| ATIDSZ-14 | 2026-09-04 12:06:10 | 48.10584 | 16.70530 | 134° | 71km/h | 9750m | 4.2m/s | 0°C | 0% | 0hPa | 0V | 00:00:00 | 00:00:00 | 00:00:00 | |
| PG1ADW-2 | 2026-09-04 12:06:08 | 48.10610 | 16.70489 | 136° | 78km/h | 9738m | 3.7m/s | 0°C | 0% | 0hPa | 0V | 00:00:00 | 00:00:00 | 00:00:00 | |
| PETON7-10 | 2026-09-04 12:06:06 | 48.10639 | 16.70443 | 131° | 82km/h | 9725m | 5.4m/s | 0°C | 0% | 0hPa | 0V | 00:00:00 | 00:00:00 | 00:00:00 | |
| OE3OSB-13 | 2026-09-04 12:05:44 | 48.10979 | 16.69913 | 131° | 78km/h | 9578m | 7.6m/s | -34.9°C | 36.1% | 300.4hPa | 0V | 00:00:00 | 00:00:00 | 00:00:00 | |
| PETON7-10 | 2026-09-04 12:05:36 | 48.11053 | 16.69773 | 133° | 78km/h | 9539m | 5.9m/s | 0°C | 0% | 0hPa | 0V | 00:00:00 | 00:00:00 | 00:00:00 | |
| ATIDSZ-14 | 2026-09-04 12:05:29 | 48.11156 | 16.69623 | 142° | 80km/h | 9497m | 3.3m/s | 0°C | 0% | 0hPa | 0V | 00:00:00 | 00:00:00 | 00:00:00 | |
| PG1ADW-2 | 2026-09-04 12:05:26 | 48.11197 | 16.69562 | 131° | 77km/h | 9481m | 3.2m/s | 0°C | 0% | 0hPa | 0V | 00:00:00 | 00:00:00 | 00:00:00 | |
| PETON7-10 | 2026-09-04 12:05:21 | 48.11268 | 16.69458 | 140° | 77km/h | 9454m | 6.1m/s | 0°C | 0% | 0hPa | 0V | 00:00:00 | 00:00:00 | 00:00:00 | |
| OE5DXL-15 | 2026-09-04 12:05:14 | 48.11373 | 16.69322 | 134° | 73km/h | 9408m | 4.4m/s | 0°C | 0% | 0hPa | 0V | 00:00:00 | 00:00:00 | 00:00:00 | |
| OE3OSB-13 | 2026-09-04 12:05:12 | 48.11411 | 16.69260 | 134° | 69km/h | 9391m | 4.8m/s | -33.5°C | 42.9% | 308.8hPa | 0V | 00:00:00 | 00:00:00 | 00:00:00 | |
| ATIDSZ-14 | 2026-09-04 12:05:07 | 48.11466 | 16.69181 | 139° | 80km/h | 9371m | 4.4m/s | 0°C | 0% | 0hPa | 0V | 00:00:00 | 00:00:00 | 00:00:00 | |
| PG1ADW-2 | 2026-09-04 12:05:06 | 48.11482 | 16.69161 | 141° | 71km/h | 9367m | 3.8m/s | 0°C | 0% | 0hPa | 0V | 00:00:00 | 00:00:00 | 00:00:00 | |
| PETON7-10 | 2026-09-04 12:05:05 | 48.11497 | 16.69143 | 140° | 71km/h | 9363m | 4.6m/s | 0°C | 0% | 0hPa | 0V | 00:00:00 | 00:00:00 | 00:00:00 | |
| PETON7-10 | 2026-09-04 12:04:50 | 48.11689 | 16.68856 | 133° | 69km/h | 9279m | 7.4m/s | 0°C | 0% | 0hPa | 0V | 00:00:00 | 00:00:00 | 00:00:00 | |
| ATIDSZ-14 | 2026-09-04 12:04:46 | 48.11732 | 16.68780 | 131° | 64km/h | 9252m | 4.9m/s | 0°C | 0% | 0hPa | 0V | 00:00:00 | 00:00:00 | 00:00:00 | |
| OE3OSB-13 | 2026-09-04 12:04:41 | 48.11809 | 16.68657 | 132° | 64km/h | 9218m | 4.0m/s | -32.3°C | 42.3% | 316.7hPa | 0V | 00:00:00 | 00:00:00 | 00:00:00 | |
| OE5DXL-15 | 2026-09-04 12:04:37 | 48.11843 | 16.68604 | 130° | 71km/h | 9199m | 5.0m/s | 0°C | 0% | 0hPa | 0V | 00:00:00 | 00:00:00 | 00:00:00 | |
| PETON7-10 | 2026-09-04 12:04:35 | 48.11865 | 16.68564 | 127° | 71km/h | 9185m | 5.1m/s | 0°C | 0% | 0hPa | 0V | 00:00:00 | 00:00:00 | 00:00:00 | |
| ATIDSZ-14 | 2026-09-04 12:04:25 | 48.11987 | 16.68370 | 133° | 66km/h | 9128m | 6.2m/s | 0°C | 0% | 0hPa | 0V | 00:00:00 | 00:00:00 | 00:00:00 | |
| PETON7-10 | 2026-09-04 12:04:20 | 48.12052 | 16.68269 | 137° | 75km/h | 9099m | 5.2m/s | 0°C | 0% | 0hPa | 0V | 00:00:00 | 00:00:00 | 00:00:00 | |
| PG1ADW-2 | 2026-09-04 12:04:17 | 48.12092 | 16.68216 | 145° | 71km/h | 9082m | 5.1m/s | 0°C | 0% | 0hPa | 0V | 00:00:00 | 00:00:00 | 00:00:00 | |
| OE3JTB-15 | 2026-09-04 12:04:16 | 48.12146 | 16.68135 | 123° | 71km/h | 9060m | 6.5m/s | 0°C | 0% | 0hPa | 0V | 00:00:00 | 00:00:00 | 00:00:00 | |
| OE3OSB-13 | 2026-09-04 12:04:10 | 48.12193 | 16.68042 | 136° | 75km/h | 9041m | 4.8m/s | -31.0°C | 47.7% | 324.7hPa | 0V | 00:00:00 | 00:00:00 | 00:00:00 | |
| PETON7-10 | 2026-09-04 12:04:06 | 48.12248 | 16.67972 | 140° | 69km/h | 9025m | 6.7m/s | 0°C | 0% | 0hPa | 0V | 00:00:00 | 00:00:00 | 00:00:00 | |
| ATIDSZ-14 | 2026-09-04 12:04:04 | 48.12262 | 16.67954 | 138° | 75km/h | 9019m | 5.3m/s | 0°C | 0% | 0hPa | 0V | 00:00:00 | 00:00:00 | 00:00:00 | |
| PG1ADW-2 | 2026-09-04 12:03:48 | 48.12447 | 16.67634 | 129° | 64km/h | 8916m | 4.1m/s | 0°C | 0% | 0hPa | 0V | 00:00:00 | 00:00:00 | 00:00:00 | |
| OE3JTB-15 | 2026-09-04 12:03:47 | 48.12487 | 16.67560 | 130° | 66km/h | 8892m | 7.7m/s | 0°C | 0% | 0hPa | 0V | 00:00:00 | 00:00:00 | 00:00:00 | |
| ATIDSZ-14 | 2026-09-04 12:03:42 | 48.12511 | 16.67521 | 139° | 71km/h | 8878m | 6.5m/s | 0°C | 0% | 0hPa | 0V | 00:00:00 | 00:00:00 | 00:00:00 | |
| OE3OSB-13 | 2026-09-04 12:03:39 | 48.12557 | 16.67448 | 124° | 62km/h | 8858m | 1.4m/s | -29.4°C | 47.2% | 333.5hPa | 0V | 00:00:00 | 00:00:00 | 00:00:00 | |
| OE5DXL-15 | 2026-09-04 12:03:38 | 48.12557 | 16.67448 | 125° | 64km/h | 8858m | 1.3m/s | 0°C | 0% | 0hPa | 0V | 00:00:00 | 00:00:00 | 00:00:00 | |
| PETON7-10 | 2026-09-04 12:03:35 | 48.12587 | 16.67389 | 135° | 66km/h | 8839m | 8.8m/s | 0°C | 0% | 0hPa | 0V | 00:00:00 | 00:00:00 | 00:00:00 | |
| ATIDSZ-14 | 2026-09-04 12:03:21 | 48.12730 | 16.67124 | 135° | 66km/h | 8751m | 5.9m/s | 0°C | 0% | 0hPa | 0V | 00:00:00 | 00:00:00 | 00:00:00 | |
| OE3JTB-15 | 2026-09-04 12:03:17 | 48.12801 | 16.66995 | 134° | 66km/h | 8701m | 5.2m/s | 0°C | 0% | 0hPa | 0V | 00:00:00 | 00:00:00 | 00:00:00 | |
| OE3OSB-13 | 2026-09-04 12:03:08 | 48.12867 | 16.66861 | 127° | 62km/h | 8658m | 4.8m/s | -27.6°C | 45.3% | 343.0hPa | 0V | 00:00:00 | 00:00:00 | 00:00:00 | |
| PETON7-10 | 2026-09-04 12:03:05 | 48.12888 | 16.66823 | 129° | 66km/h | 8648m | 3.8m/s | 0°C | 0% | 0hPa | 0V | 00:00:00 | 00:00:00 | 00:00:00 | |
| ATIDSZ-14 | 2026-09-04 12:02:59 | 48.12940 | 16.66701 | 125° | 66km/h | 8620m | 8.8m/s | 0°C | 0% | 0hPa | 0V | 00:00:00 | 00:00:00 | 00:00:00 | |
| PETON7-10 | 2026-09-04 12:02:50 | 48.13038 | 16.66516 | 123° | 66km/h | 8571m | 4.6m/s | 0°C | 0% | 0hPa | 0V | 00:00:00 | 00:00:00 | 00:00:00 | |
| OE3JTB-15 | 2026-09-04 12:02:48 | 48.13087 | 16.66412 | 123° | 69km/h | 8548m | 5.4m/s | 0°C | 0% | 0hPa | 0V | 00:00:00 | 00:00:00 | 00:00:00 | |
| ATIDSZ-14 | 2026-09-04 12:02:38 | 48.13156 | 16.66276 | 131° | 75km/h | 8505m | 7.1m/s | 0°C | 0% | 0hPa | 0V | 00:00:00 | 00:00:00 | 00:00:00 | |
| OE3OSB-13 | 2026-09-04 12:02:37 | 48.13177 | 16.66235 | 123° | 60km/h | 8492m | 5.1m/s | -26.3°C | 41.0% | 351.1hPa | 0V | 00:00:00 | 00:00:00 | 00:00:00 | |
| PETON7-10 | 2026-09-04 12:02:35 | 48.13185 | 16.66214 | 118° | 68km/h | 8486m | 7.3m/s | 0°C | 0% | 0hPa | 0V | 00:00:00 | 00:00:00 | 00:00:00 | |
| PG1ADW-2 | 2026-09-04 12:02:29 | 48.13239 | 16.66090 | 127° | 69km/h | 8454m | 3.7m/s | 0°C | 0% | 0hPa | 0V | 00:00:00 | 00:00:00 | 00:00:00 | |
| PETON7-10 | 2026-09-04 12:02:19 | 48.13341 | 16.65875 | 129° | 71km/h | 8405m | 2.6m/s | 0°C | 0% | 0hPa | 0V | 00:00:00 | 00:00:00 | 00:00:00 | |
| ATIDSZ-14 | 2026-09-04 12:02:17 | 48.13364 | 16.65828 | 125° | 73km/h | 8398m | 1.8m/s | 0°C | 0% | 0hPa | 0V | 00:00:00 | 00:00:00 | 00:00:00 | |
| PG1ADW-2 | 2026-09-04 12:02:08 | 48.13458 | 16.65637 | 126° | 68km/h | 8355m | 4.5m/s | 0°C | 0% | 0hPa | 0V | 00:00:00 | 00:00:00 | 00:00:00 | |
| OE3OSB-13 | 2026-09-04 12:02:06 | 48.13483 | 16.65571 | 122° | 64km/h | 8341m | 7.4m/s | -24.9°C | 40.8% | 358.9hPa | 0V | 00:00:00 | 00:00:00 | 00:00:00 | |
| PETON7-10 | 2026-09-04 12:02:04 | 48.13492 | 16.65550 | 126° | 68km/h | 8335m | 4.5m/s | 0°C | 0% | 0hPa | 0V | 00:00:00 | 00:00:00 | 00:00:00 | |
| ATIDSZ-14 | 2026-09-04 12:01:57 | 48.13565 | 16.65406 | 120° | 77km/h | 8303m | 4.6m/s | 0°C | 0% | 0hPa | 0V | 00:00:00 | 00:00:00 | 00:00:00 | |
| PETON7-10 | 2026-09-04 12:01:49 | 48.13643 | 16.65240 | 127° | 69km/h | 8260m | 4.8m/s | 0°C | 0% | 0hPa | 0V | 00:00:00 | 00:00:00 | 00:00:00 | |
| PG1ADW-2 | 2026-09-04 12:01:47 | 48.13667 | 16.65193 | 131° | 69km/h | 8247m | 7.2m/s | 0°C | 0% | 0hPa | 0V | 00:00:00 | 00:00:00 | 00:00:00 | |
| OE3JTB-15 | 2026-09-04 12:01:40 | 48.13752 | 16.64989 | 117° | 69km/h | 8190m | 4.0m/s | 0°C | 0% | 0hPa | 0V | 00:00:00 | 00:00:00 | 00:00:00 | |
| ATIDSZ-14 | 2026-09-04 12:01:36 | 48.13769 | 16.64948 | 130° | 62km/h | 8179m | 6.0m/s | 0°C | 0% | 0hPa | 0V | 00:00:00 | 00:00:00 | 00:00:00 | |
| OE3OSB-13 | 2026-09-04 12:01:35 | 48.13789 | 16.64912 | 133° | 64km/h | 8167m | 6.8m/s | -23.7°C | 44.7% | 367.6hPa | 0V | 00:00:00 | 00:00:00 | 00:00:00 | |
| PETON7-10 | 2026-09-04 12:01:34 | 48.13789 | 16.64912 | 134° | 69km/h | 8167m | 6.8m/s | 0°C | 0% | 0hPa | 0V | 00:00:00 | 00:00:00 | 00:00:00 | |
| PG1ADW-2 | 2026-09-04 12:01:26 | 48.13870 | 16.64740 | 119° | 75km/h | 8115m | 6.2m/s | 0°C | 0% | 0hPa | 0V | 00:00:00 | 00:00:00 | 00:00:00 | |
| PETON7-10 | 2026-09-04 12:01:19 | 48.13929 | 16.64583 | 126° | 75km/h | 8075m | 3.9m/s | 0°C | 0% | 0hPa | 0V | 00:00:00 | 00:00:00 | 00:00:00 | |
| ATIDSZ-14 | 2026-09-04 12:01:16 | 48.13957 | 16.64510 | 123° | 77km/h | 8054m | 3.1m/s | 0°C | 0% | 0hPa | 0V | 00:00:00 | 00:00:00 | 00:00:00 | |
| OE3JTB-15 | 2026-09-04 12:01:11 | 48.14032 | 16.64356 | 122° | 73km/h | 8013m | 5.9m/s | 0°C | 0% | 0hPa | 0V | 00:00:00 | 00:00:00 | 00:00:00 | |
| OE3OSB-13 | 2026-09-04 12:01:04 | 48.14095 | 16.64217 | 126° | 73km/h | 7978m | 4.6m/s | -22.2°C | 29.3% | 377.1hPa | 0V | 00:00:00 | 00:00:00 | 00:00:00 | |
| PG1ADW-2 | 2026-09-04 12:01:02 | 48.14106 | 16.64194 | 127° | 77km/h | 7973m | 6.0m/s | 0°C | 0% | 0hPa | 0V | 00:00:00 | 00:00:00 | 00:00:00 | |
| PETON7-10 | 2026-09-04 12:00:49 | 48.14238 | 16.63888 | 129° | 68km/h | 7896m | 6.2m/s | 0°C | 0% | 0hPa | 0V | 00:00:00 | 00:00:00 | 00:00:00 | |
| OE3JTB-15 | 2026-09-04 12:00:42 | 48.14343 | 16.63683 | 136° | 71km/h | 7843m | 3.7m/s | 0°C | 0% | 0hPa | 0V | 00:00:00 | 00:00:00 | 00:00:00 | |
| PETON7-10 | 2026-09-04 12:00:33 | 48.14406 | 16.63566 | 118° | 71km/h | 7811m | 6.5m/s | 0°C | 0% | 0hPa | 0V | 00:00:00 | 00:00:00 | 00:00:00 | |
| PG1ADW-2 | 2026-09-04 12:00:29 | 48.14442 | 16.63472 | 129° | 71km/h | 7791m | 2.7m/s | 0°C | 0% | 0hPa | 0V | 00:00:00 | 00:00:00 | 00:00:00 | |
| PETON7-10 | 2026-09-04 12:00:17 | 48.14567 | 16.63209 | 126° | 71km/h | 7728m | 2.9m/s | 0°C | 0% | 0hPa | 0V | 00:00:00 | 00:00:00 | 00:00:00 | |
| HA6NAB-11 | 2026-09-04 12:00:16 | 48.14586 | 16.63167 | 127° | 68km/h | 7721m | 4.4m/s | 0°C | 0% | 0hPa | 0V | 00:00:00 | 00:00:00 | 00:00:00 | |
| OE3JTB-15 | 2026-09-04 12:00:13 | 48.14634 | 16.63048 | 125° | 69km/h | 7702m | 5.9m/s | 0°C | 0% | 0hPa | 0V | 00:00:00 | 00:00:00 | 00:00:00 | |
| HA6NAB-11 | 2026-09-04 12:00:10 | 48.14634 | 16.63048 | 125° | 66km/h | 7702m | 5.9m/s | 0°C | 0% | 0hPa | 0V | 00:00:00 | 00:00:00 | 00:00:00 | |
| PG1ADW-2 | 2026-09-04 12:00:03 | 48.14706 | 16.62900 | 124° | 69km/h | 7657m | 3.9m/s | 0°C | 0% | 0hPa | 0V | 00:00:00 | 00:00:00 | 00:00:00 | |
| PETON7-10 | 2026-09-04 12:00:02 | 48.14716 | 16.62878 | 126° | 69km/h | 7653m | 3.7m/s | 0°C | 0% | 0hPa | 0V | 00:00:00 | 00:00:00 | 00:00:00 | |
| OE3OSB-13 | 2026-09-04 12:00:01 | 48.14726 | 16.62857 | 122° | 66km/h | 7647m | 8.7m/s | -19.8°C | 15.4% | 394.7hPa | 0V | 00:00:00 | 00:00:00 | 00:00:00 | |
| HA6NAB-11 | 2026-09-04 11:59:51 | 48.14814 | 16.62644 | 116° | 66km/h | 7592m | 6.6m/s | 0°C | 0% | 0hPa | 0V | 00:00:00 | 00:00:00 | 00:00:00 | |
| PETON7-10 | 2026-09-04 11:59:47 | 48.14853 | 16.62549 | 127° | 73km/h | 7570m | 5.5m/s | 0°C | 0% | 0hPa | 0V | 00:00:00 | 00:00:00 | 00:00:00 | |
| HA6NAB-11 | 2026-09-04 11:59:45 | 48.14876 | 16.62503 | 128° | 78km/h | 7559m | 6.3m/s | 0°C | 0% | 0hPa | 0V | 00:00:00 | 00:00:00 | 00:00:00 | |
| OE3JTB-15 | 2026-09-04 11:59:44 | 48.14921 | 16.62418 | 126° | 77km/h | 7542m | 3.8m/s | 0°C | 0% | 0hPa | 0V | 00:00:00 | 00:00:00 | 00:00:00 | |
| PG1ADW-2 | 2026-09-04 11:59:39 | 48.14941 | 16.62373 | 123° | 73km/h | 7535m | 4.0m/s | 0°C | 0% | 0hPa | 0V | 00:00:00 | 00:00:00 | 00:00:00 | |
| PETON7-10 | 2026-09-04 11:59:32 | 48.15020 | 16.62223 | 125° | 77km/h | 7506m | 3.2m/s | 0°C | 0% | 0hPa | 0V | 00:00:00 | 00:00:00 | 00:00:00 | |
| OE3OSB-13 | 2026-09-04 11:59:30 | 48.15042 | 16.62171 | 119° | 84km/h | 7500m | 2.5m/s | -18.6°C | 14.4% | 402.5hPa | 0V | 00:00:00 | 00:00:00 | 00:00:00 | |
| PG1ADW-2 | 2026-09-04 11:59:18 | 48.15168 | 16.61886 | 126° | 82km/h | 7444m | 4.1m/s | 0°C | 0% | 0hPa | 0V | 00:00:00 | 00:00:00 | 00:00:00 | |
| PETON7-10 | 2026-09-04 11:59:16 | 48.15190 | 16.61833 | 121° | 80km/h | 7436m | 4.6m/s | 0°C | 0% | 0hPa | 0V | 00:00:00 | 00:00:00 | 00:00:00 | |
| OE3JTB-15 | 2026-09-04 11:59:14 | 48.15242 | 16.61702 | 125° | 78km/h | 7414m | 4.8m/s | 0°C | 0% | 0hPa | 0V | 00:00:00 | 00:00:00 | 00:00:00 | |
| PETON7-10 | 2026-09-04 11:59:01 | 48.15356 | 16.61458 | 132° | 77km/h | 7368m | 3.7m/s | 0°C | 0% | 0hPa | 0V | 00:00:00 | 00:00:00 | 00:00:00 | |
| OE3OSB-13 | 2026-09-04 11:58:59 | 48.15392 | 16.61385 | 118° | 78km/h | 7355m | 4.6m/s | -17.5°C | 13.2% | 410.6hPa | 0V | 00:00:00 | 00:00:00 | 00:00:00 | |
| PG1ADW-2 | 2026-09-04 11:58:55 | 48.15422 | 16.61308 | 123° | 75km/h | 7338m | 6.8m/s | 0°C | 0% | 0hPa | 0V | 00:00:00 | 00:00:00 | 00:00:00 | |
| PETON7-10 | 2026-09-04 11:58:46 | 48.15526 | 16.61098 | 126° | 80km/h | 7293m | 5.3m/s | 0°C | 0% | 0hPa | 0V | 00:00:00 | 00:00:00 | 00:00:00 | |
| OE3JTB-15 | 2026-09-04 11:58:45 | 48.15562 | 16.60997 | 123° | 82km/h | 7273m | 4.1m/s | 0°C | 0% | 0hPa | 0V | 00:00:00 | 00:00:00 | 00:00:00 | |
| OE5DXL-15 | 2026-09-04 11:58:28 | 48.15725 | 16.60644 | 133° | 82km/h | 7202m | 1.7m/s | 0°C | 0% | 0hPa | 0V | 00:00:00 | 00:00:00 | 00:00:00 | |
| PG1ADW-2 | 2026-09-04 11:58:23 | 48.15782 | 16.60532 | 122° | 78km/h | 7178m | 5.3m/s | 0°C | 0% | 0hPa | 0V | 00:00:00 | 00:00:00 | 00:00:00 | |
| PETON7-10 | 2026-09-04 11:58:13 | 48.15890 | 16.60260 | 125° | 78km/h | 7130m | 5.1m/s | 0°C | 0% | 0hPa | 0V | 00:00:00 | 00:00:00 | 00:00:00 | |
| OE3JTB-15 | 2026-09-04 11:58:12 | 48.15930 | 16.60162 | 120° | 80km/h | 7111m | 4.9m/s | 0°C | 0% | 0hPa | 0V | 00:00:00 | 00:00:00 | 00:00:00 | |
| PETON7-10 | 2026-09-04 11:57:57 | 48.16068 | 16.59873 | 116° | 80km/h | 7052m | 7.0m/s | 0°C | 0% | 0hPa | 0V | 00:00:00 | 00:00:00 | 00:00:00 | |
| PETON7-10 | 2026-09-04 11:57:43 | 48.16230 | 16.59471 | 122° | 80km/h | 6969m | 4.4m/s | 0°C | 0% | 0hPa | 0V | 00:00:00 | 00:00:00 | 00:00:00 | |
| OE3JTB-15 | 2026-09-04 11:57:42 | 48.16263 | 16.59395 | 124° | 82km/h | 6956m | 4.5m/s | 0°C | 0% | 0hPa | 0V | 00:00:00 | 00:00:00 | 00:00:00 | |
| PG1ADW-2 | 2026-09-04 11:57:38 | 48.16273 | 16.59369 | 119° | 80km/h | 6950m | 4.9m/s | 0°C | 0% | 0hPa | 0V | 00:00:00 | 00:00:00 | 00:00:00 | |
| PETON7-10 | 2026-09-04 11:57:27 | 48.16393 | 16.59090 | 129° | 82km/h | 6904m | 5.0m/s | 0°C | 0% | 0hPa | 0V | 00:00:00 | 00:00:00 | 00:00:00 | |
| OE3OSB-13 | 2026-09-04 11:57:26 | 48.16416 | 16.59037 | 118° | 88km/h | 6894m | 7.0m/s | -15.0°C | 12.4% | 436.7hPa | 0V | 00:00:00 | 00:00:00 | 00:00:00 | |
| PETON7-10 | 2026-09-04 11:57:12 | 48.16552 | 16.58693 | 117° | 78km/h | 6824m | 5.1m/s | 0°C | 0% | 0hPa | 0V | 00:00:00 | 00:00:00 | 00:00:00 | |
| OE3OSB-13 | 2026-09-04 11:56:55 | 48.16742 | 16.58234 | 124° | 75km/h | 6731m | 5.8m/s | -14.3°C | 13.2% | 446.4hPa | 0V | 00:00:00 | 00:00:00 | 00:00:00 | |
| PETON7-10 | 2026-09-04 11:56:42 | 48.16878 | 16.57934 | 113° | 77km/h | 6669m | 3.1m/s | 0°C | 0% | 0hPa | 0V | 00:00:00 | 00:00:00 | 00:00:00 | |
| PETON7-10 | 2026-09-04 11:56:26 | 48.17047 | 16.57531 | 120° | 84km/h | 6570m | 3.0m/s | 0°C | 0% | 0hPa | 0V | 00:00:00 | 00:00:00 | 00:00:00 | |
| OE3OSB-13 | 2026-09-04 11:56:24 | 48.17081 | 16.57449 | 123° | 75km/h | 6554m | 4.0m/s | -13.8°C | 20.9% | 457.0hPa | 0V | 00:00:00 | 00:00:00 | 00:00:00 | |
| PETON7-10 | 2026-09-04 11:56:12 | 48.17220 | 16.57152 | 132° | 80km/h | 6490m | 8.5m/s | 0°C | 0% | 0hPa | 0V | 00:00:00 | 00:00:00 | 00:00:00 | |
| PG1ADW-2 | 2026-09-04 11:56:06 | 48.17288 | 16.57034 | 127° | 80km/h | 6461m | 4.7m/s | 0°C | 0% | 0hPa | 0V | 00:00:00 | 00:00:00 | 00:00:00 | |
| OE3OSB-13 | 2026-09-04 11:55:53 | 48.17481 | 16.56697 | 139° | 77km/h | 6386m | 5.0m/s | -13.5°C | 32.6% | 467.3hPa | 0V | 00:00:00 | 00:00:00 | 00:00:00 | |
| PETON7-10 | 2026-09-04 11:55:41 | 48.17655 | 16.56463 | 140° | 86km/h | 6326m | 7.7m/s | 0°C | 0% | 0hPa | 0V | 00:00:00 | 00:00:00 | 00:00:00 | |
| OE3JTB-15 | 2026-09-04 11:55:37 | 48.17751 | 16.56325 | 128° | 88km/h | 6293m | 4.2m/s | 0°C | 0% | 0hPa | 0V | 00:00:00 | 00:00:00 | 00:00:00 | |
| PG1ADW-2 | 2026-09-04 11:55:34 | 48.17766 | 16.56295 | 125° | 84km/h | 6290m | 3.1m/s | 0°C | 0% | 0hPa | 0V | 00:00:00 | 00:00:00 | 00:00:00 | |
| PETON7-10 | 2026-09-04 11:55:26 | 48.17880 | 16.56114 | 128° | 84km/h | 6240m | 7.7m/s | 0°C | 0% | 0hPa | 0V | 00:00:00 | 00:00:00 | 00:00:00 | |
| OE3OSB-13 | 2026-09-04 11:55:23 | 48.17942 | 16.55996 | 129° | 82km/h | 6212m | 7.5m/s | -12.4°C | 35.5% | 478.9hPa | 0V | 00:00:00 | 00:00:00 | 00:00:00 | |
| PG1ADW-2 | 2026-09-04 11:55:12 | 48.18069 | 16.55775 | 131° | 77km/h | 6151m | 6.7m/s | 0°C | 0% | 0hPa | 0V | 00:00:00 | 00:00:00 | 00:00:00 | |
| PETON7-10 | 2026-09-04 11:55:11 | 48.18080 | 16.55752 | 123° | 78km/h | 6144m | 8.5m/s | 0°C | 0% | 0hPa | 0V | 00:00:00 | 00:00:00 | 00:00:00 | |
| OE3OSB-13 | 2026-09-04 11:54:51 | 48.18356 | 16.55291 | 127° | 82km/h | 6017m | 5.0m/s | -11.7°C | 42.8% | 490.8hPa | 0V | 00:00:00 | 00:00:00 | 00:00:00 | |
| PG1ADW-2 | 2026-09-04 11:54:49 | 48.18369 | 16.55266 | 129° | 86km/h | 6011m | 6.1m/s | 0°C | 0% | 0hPa | 0V | 00:00:00 | 00:00:00 | 00:00:00 | |
| PETON7-10 | 2026-09-04 11:54:41 | 48.18471 | 16.55064 | 133° | 86km/h | 5967m | 4.8m/s | 0°C | 0% | 0hPa | 0V | 00:00:00 | 00:00:00 | 00:00:00 | |
| PG1ADW-2 | 2026-09-04 11:54:29 | 48.18630 | 16.54773 | 132° | 86km/h | 5898m | 5.8m/s | 0°C | 0% | 0hPa | 0V | 00:00:00 | 00:00:00 | 00:00:00 | |
| OE3JTB-15 | 2026-09-04 11:54:27 | 48.18675 | 16.54707 | 141° | 84km/h | 5881m | 6.1m/s | 0°C | 0% | 0hPa | 0V | 00:00:00 | 00:00:00 | 00:00:00 | |
| PETON7-10 | 2026-09-04 11:54:26 | 48.18675 | 16.54707 | 141° | 84km/h | 5881m | 6.1m/s | 0°C | 0% | 0hPa | 0V | 00:00:00 | 00:00:00 | 00:00:00 | |
| OE3OSB-13 | 2026-09-04 11:54:21 | 48.18770 | 16.54570 | 133° | 84km/h | 5838m | 5.3m/s | -10.7°C | 51.0% | 502.4hPa | 0V | 00:00:00 | 00:00:00 | 00:00:00 | |
| PETON7-10 | 2026-09-04 11:54:11 | 48.18891 | 16.54367 | 137° | 80km/h | 5793m | 6.6m/s | 0°C | 0% | 0hPa | 0V | 00:00:00 | 00:00:00 | 00:00:00 | |
| PG1ADW-2 | 2026-09-04 11:54:06 | 48.18966 | 16.54250 | 131° | 69km/h | 5762m | 5.0m/s | 0°C | 0% | 0hPa | 0V | 00:00:00 | 00:00:00 | 00:00:00 | |
| OE3OSB-13 | 2026-09-04 11:53:49 | 48.19212 | 16.53894 | 134° | 68km/h | 5663m | 5.1m/s | -9.9°C | 60.5% | 514.0hPa | 0V | 00:00:00 | 00:00:00 | 00:00:00 | |
| PG1ADW-2 | 2026-09-04 11:53:44 | 48.19263 | 16.53827 | 138° | 73km/h | 5639m | 5.0m/s | 0°C | 0% | 0hPa | 0V | 00:00:00 | 00:00:00 | 00:00:00 | |
| PETON7-10 | 2026-09-04 11:53:41 | 48.19304 | 16.53766 | 130° | 73km/h | 5624m | 3.7m/s | 0°C | 0% | 0hPa | 0V | 00:00:00 | 00:00:00 | 00:00:00 | |
| PETON7-10 | 2026-09-04 11:53:26 | 48.19492 | 16.53466 | 140° | 69km/h | 5539m | 4.9m/s | 0°C | 0% | 0hPa | 0V | 00:00:00 | 00:00:00 | 00:00:00 | |
| OE3OSB-13 | 2026-09-04 11:53:17 | 48.19607 | 16.53300 | 131° | 71km/h | 5490m | 5.2m/s | -8.4°C | 58.7% | 526.0hPa | 0V | 00:00:00 | 00:00:00 | 00:00:00 | |
| PETON7-10 | 2026-09-04 11:53:11 | 48.19673 | 16.53208 | 137° | 77km/h | 5458m | 3.6m/s | 0°C | 0% | 0hPa | 0V | 00:00:00 | 00:00:00 | 00:00:00 | |
| PG1ADW-2 | 2026-09-04 11:53:04 | 48.19763 | 16.53049 | 132° | 75km/h | 5421m | 3.0m/s | 0°C | 0% | 0hPa | 0V | 00:00:00 | 00:00:00 | 00:00:00 | |
| OE3OSB-13 | 2026-09-04 11:52:46 | 48.19974 | 16.52631 | 130° | 66km/h | 5319m | 5.0m/s | -7.4°C | 68.3% | 537.6hPa | 0V | 00:00:00 | 00:00:00 | 00:00:00 | |
| PG1ADW-2 | 2026-09-04 11:52:42 | 48.20029 | 16.52558 | 134° | 75km/h | 5300m | 3.7m/s | 0°C | 0% | 0hPa | 0V | 00:00:00 | 00:00:00 | 00:00:00 | |
| PETON7-10 | 2026-09-04 11:52:41 | 48.20029 | 16.52558 | 134° | 77km/h | 5300m | 3.7m/s | 0°C | 0% | 0hPa | 0V | 00:00:00 | 00:00:00 | 00:00:00 | |
| OE3JTB-15 | 2026-09-04 11:52:32 | 48.20181 | 16.52290 | 131° | 77km/h | 5235m | 5.6m/s | 0°C | 0% | 0hPa | 0V | 00:00:00 | 00:00:00 | 00:00:00 | |
| PETON7-10 | 2026-09-04 11:52:26 | 48.20223 | 16.52217 | 135° | 75km/h | 5223m | 4.6m/s | 0°C | 0% | 0hPa | 0V | 00:00:00 | 00:00:00 | 00:00:00 | |
| PG1ADW-2 | 2026-09-04 11:52:19 | 48.20302 | 16.52085 | 127° | 78km/h | 5185m | 6.3m/s | 0°C | 0% | 0hPa | 0V | 00:00:00 | 00:00:00 | 00:00:00 | |
| OE3OSB-13 | 2026-09-04 11:52:15 | 48.20369 | 16.51972 | 134° | 86km/h | 5158m | 5.7m/s | -6.1°C | 68.3% | 549.0hPa | 0V | 00:00:00 | 00:00:00 | 00:00:00 | |
| PETON7-10 | 2026-09-04 11:52:11 | 48.20412 | 16.51905 | 137° | 73km/h | 5142m | 4.0m/s | 0°C | 0% | 0hPa | 0V | 00:00:00 | 00:00:00 | 00:00:00 | |
| OE3OSB-13 | 2026-09-04 11:51:44 | 48.20747 | 16.51291 | 133° | 77km/h | 5009m | 5.0m/s | -4.9°C | 64.9% | 560.1hPa | 0V | 00:00:00 | 00:00:00 | 00:00:00 | |
| PETON7-10 | 2026-09-04 11:51:41 | 48.20773 | 16.51248 | 129° | 75km/h | 4994m | 8.2m/s | 0°C | 0% | 0hPa | 0V | 00:00:00 | 00:00:00 | 00:00:00 | |
| PG1ADW-2 | 2026-09-04 11:51:37 | 48.20818 | 16.51150 | 120° | 77km/h | 4968m | 4.8m/s | 0°C | 0% | 0hPa | 0V | 00:00:00 | 00:00:00 | 00:00:00 | |
| OE3JTB-15 | 2026-09-04 11:51:30 | 48.20923 | 16.50956 | 137° | 75km/h | 4922m | 6.2m/s | 0°C | 0% | 0hPa | 0V | 00:00:00 | 00:00:00 | 00:00:00 | |
| PETON7-10 | 2026-09-04 11:51:26 | 48.20954 | 16.50912 | 133° | 78km/h | 4910m | 5.4m/s | 0°C | 0% | 0hPa | 0V | 00:00:00 | 00:00:00 | 00:00:00 | |
| OE3OSB-13 | 2026-09-04 11:51:13 | 48.21120 | 16.50575 | 116° | 69km/h | 4836m | 3.7m/s | -3.6°C | 65.5% | 572.1hPa | 0V | 00:00:00 | 00:00:00 | 00:00:00 | |
| PETON7-10 | 2026-09-04 11:51:11 | 48.21129 | 16.50551 | 121° | 71km/h | 4831m | 6.2m/s | 0°C | 0% | 0hPa | 0V | 00:00:00 | 00:00:00 | 00:00:00 | |
| OE3JTB-15 | 2026-09-04 11:51:01 | 48.21269 | 16.50276 | 135° | 78km/h | 4763m | 4.7m/s | 0°C | 0% | 0hPa | 0V | 00:00:00 | 00:00:00 | 00:00:00 | |
| PETON7-10 | 2026-09-04 11:50:56 | 48.21299 | 16.50229 | 133° | 77km/h | 4757m | 3.8m/s | 0°C | 0% | 0hPa | 0V | 00:00:00 | 00:00:00 | 00:00:00 | |
| S52SK | 2026-09-04 11:50:51 | 48.21357 | 16.50112 | 124° | 75km/h | 4731m | 6.4m/s | 0°C | 0% | 0hPa | 0V | 00:00:00 | 00:00:00 | 00:00:00 | |
| S52SK | 2026-09-04 11:50:45 | 48.21423 | 16.49983 | 133° | 75km/h | 4700m | 3.1m/s | 0°C | 0% | 0hPa | 0V | 00:00:00 | 00:00:00 | 00:00:00 | |
| OE3OSB-13 | 2026-09-04 11:50:42 | 48.21471 | 16.49881 | 126° | 84km/h | 4684m | 3.4m/s | -2.3°C | 63.1% | 583.2hPa | 0V | 00:00:00 | 00:00:00 | 00:00:00 | |
| PETON7-10 | 2026-09-04 11:50:40 | 48.21484 | 16.49856 | 131° | 78km/h | 4680m | 3.9m/s | 0°C | 0% | 0hPa | 0V | 00:00:00 | 00:00:00 | 00:00:00 | |
| OE3JTB-15 | 2026-09-04 11:50:32 | 48.21611 | 16.49617 | 131° | 77km/h | 4630m | 3.1m/s | 0°C | 0% | 0hPa | 0V | 00:00:00 | 00:00:00 | 00:00:00 | |
| PETON7-10 | 2026-09-04 11:50:25 | 48.21666 | 16.49497 | 120° | 84km/h | 4609m | 4.0m/s | 0°C | 0% | 0hPa | 0V | 00:00:00 | 00:00:00 | 00:00:00 | |
| PG1ADW-2 | 2026-09-04 11:50:16 | 48.21784 | 16.49282 | 129° | 75km/h | 4563m | 6.3m/s | 0°C | 0% | 0hPa | 0V | 00:00:00 | 00:00:00 | 00:00:00 | |
| OE3OSB-13 | 2026-09-04 11:50:11 | 48.21857 | 16.49136 | 125° | 77km/h | 4533m | 3.2m/s | -1.0°C | 63.0% | 594.6hPa | 0V | 00:00:00 | 00:00:00 | 00:00:00 | |
| PETON7-10 | 2026-09-04 11:50:10 | 48.21857 | 16.49136 | 126° | 75km/h | 4534m | 3.1m/s | 0°C | 0% | 0hPa | 0V | 00:00:00 | 00:00:00 | 00:00:00 | |
| S52SK | 2026-09-04 11:50:05 | 48.21914 | 16.49040 | 132° | 75km/h | 4511m | 5.7m/s | 0°C | 0% | 0hPa | 0V | 00:00:00 | 00:00:00 | 00:00:00 | |
| OE3JTB-15 | 2026-09-04 11:50:03 | 48.21969 | 16.48913 | 121° | 78km/h | 4474m | 7.8m/s | 0°C | 0% | 0hPa | 0V | 00:00:00 | 00:00:00 | 00:00:00 | |
| S52SK | 2026-09-04 11:50:00 | 48.21969 | 16.48913 | 122° | 84km/h | 4474m | 7.9m/s | 0°C | 0% | 0hPa | 0V | 00:00:00 | 00:00:00 | 00:00:00 | |
| PETON7-10 | 2026-09-04 11:49:55 | 48.22029 | 16.48796 | 130° | 78km/h | 4447m | 5.7m/s | 0°C | 0% | 0hPa | 0V | 00:00:00 | 00:00:00 | 00:00:00 | |
| S52SK | 2026-09-04 11:49:54 | 48.22041 | 16.48772 | 129° | 82km/h | 4442m | 4.4m/s | 0°C | 0% | 0hPa | 0V | 00:00:00 | 00:00:00 | 00:00:00 | |
| OE3OSB-13 | 2026-09-04 11:49:40 | 48.22211 | 16.48395 | 134° | 91km/h | 4363m | 4.4m/s | 0.2°C | 62.1% | 607.2hPa | 0V | 00:00:00 | 00:00:00 | 00:00:00 | |
| OE3JTB-15 | 2026-09-04 11:49:31 | 48.22335 | 16.48184 | 139° | 69km/h | 4308m | 3.7m/s | 0°C | 0% | 0hPa | 0V | 00:00:00 | 00:00:00 | 00:00:00 | |
| PETON7-10 | 2026-09-04 11:49:25 | 48.22383 | 16.48108 | 133° | 69km/h | 4289m | 6.1m/s | 0°C | 0% | 0hPa | 0V | 00:00:00 | 00:00:00 | 00:00:00 | |
| PG1ADW-2 | 2026-09-04 11:49:20 | 48.22445 | 16.48003 | 136° | 73km/h | 4259m | 3.9m/s | 0°C | 0% | 0hPa | 0V | 00:00:00 | 00:00:00 | 00:00:00 | |
| S52SK | 2026-09-04 11:49:11 | 48.22544 | 16.47823 | 138° | 75km/h | 4214m | 2.9m/s | 0°C | 0% | 0hPa | 0V | 00:00:00 | 00:00:00 | 00:00:00 | |
| PETON7-10 | 2026-09-04 11:49:10 | 48.22557 | 16.47804 | 133° | 73km/h | 4210m | 4.3m/s | 0°C | 0% | 0hPa | 0V | 00:00:00 | 00:00:00 | 00:00:00 | |
| OE3OSB-13 | 2026-09-04 11:49:09 | 48.22578 | 16.47763 | 119° | 66km/h | 4197m | 5.7m/s | 1.7°C | 37.1% | 619.9hPa | 0V | 00:00:00 | 00:00:00 | 00:00:00 | |
| S52SK | 2026-09-04 11:49:04 | 48.22613 | 16.47671 | 124° | 73km/h | 4174m | 4.4m/s | 0°C | 0% | 0hPa | 0V | 00:00:00 | 00:00:00 | 00:00:00 | |
| OE3JTB-15 | 2026-09-04 11:49:02 | 48.22654 | 16.47581 | 132° | 78km/h | 4156m | 3.8m/s | 0°C | 0% | 0hPa | 0V | 00:00:00 | 00:00:00 | 00:00:00 | |
| PETON7-10 | 2026-09-04 11:48:55 | 48.22712 | 16.47459 | 125° | 75km/h | 4137m | 3.7m/s | 0°C | 0% | 0hPa | 0V | 00:00:00 | 00:00:00 | 00:00:00 | |
| PG1ADW-2 | 2026-09-04 11:48:48 | 48.22784 | 16.47292 | 125° | 75km/h | 4098m | 3.2m/s | 0°C | 0% | 0hPa | 0V | 00:00:00 | 00:00:00 | 00:00:00 | |
| PETON7-10 | 2026-09-04 11:48:40 | 48.22875 | 16.47107 | 125° | 82km/h | 4061m | 4.4m/s | 0°C | 0% | 0hPa | 0V | 00:00:00 | 00:00:00 | 00:00:00 | |
| OE3OSB-13 | 2026-09-04 11:48:38 | 48.22916 | 16.47033 | 129° | 93km/h | 4046m | 3.2m/s | 2.6°C | 46.2% | 632.0hPa | 0V | 00:00:00 | 00:00:00 | 00:00:00 | |
| OE3JTB-15 | 2026-09-04 11:48:33 | 48.23008 | 16.46857 | 125° | 75km/h | 4011m | 3.5m/s | 0°C | 0% | 0hPa | 0V | 00:00:00 | 00:00:00 | 00:00:00 | |
| PETON7-10 | 2026-09-04 11:48:25 | 48.23073 | 16.46732 | 129° | 71km/h | 3989m | 4.6m/s | 0°C | 0% | 0hPa | 0V | 00:00:00 | 00:00:00 | 00:00:00 | |
| S52SK | 2026-09-04 11:48:23 | 48.23095 | 16.46686 | 125° | 77km/h | 3979m | 4.7m/s | 0°C | 0% | 0hPa | 0V | 00:00:00 | 00:00:00 | 00:00:00 | |
| S52SK | 2026-09-04 11:48:17 | 48.23155 | 16.46542 | 124° | 66km/h | 3948m | 5.5m/s | 0°C | 0% | 0hPa | 0V | 00:00:00 | 00:00:00 | 00:00:00 | |
| S52SK | 2026-09-04 11:48:11 | 48.23212 | 16.46404 | 124° | 57km/h | 3915m | 4.8m/s | 0°C | 0% | 0hPa | 0V | 00:00:00 | 00:00:00 | 00:00:00 | |
| PETON7-10 | 2026-09-04 11:48:10 | 48.23219 | 16.46386 | 125° | 73km/h | 3909m | 5.0m/s | 0°C | 0% | 0hPa | 0V | 00:00:00 | 00:00:00 | 00:00:00 | |
| OE3OSB-13 | 2026-09-04 11:48:07 | 48.23262 | 16.46284 | 121° | 88km/h | 3889m | 6.7m/s | 3.5°C | 51.8% | 644.3hPa | 0V | 00:00:00 | 00:00:00 | 00:00:00 | |
| OE3JTB-15 | 2026-09-04 11:48:04 | 48.23318 | 16.46174 | 133° | 68km/h | 3860m | 3.2m/s | 0°C | 0% | 0hPa | 0V | 00:00:00 | 00:00:00 | 00:00:00 | |
| PETON7-10 | 2026-09-04 11:47:55 | 48.23378 | 16.46035 | 116° | 68km/h | 3827m | 4.4m/s | 0°C | 0% | 0hPa | 0V | 00:00:00 | 00:00:00 | 00:00:00 | |
| PETON7-10 | 2026-09-04 11:47:40 | 48.23508 | 16.45705 | 129° | 71km/h | 3751m | 4.4m/s | 0°C | 0% | 0hPa | 0V | 00:00:00 | 00:00:00 | 00:00:00 | |
| OE3OSB-13 | 2026-09-04 11:47:36 | 48.23559 | 16.45605 | 125° | 73km/h | 3728m | 5.9m/s | 4.2°C | 43.5% | 657.4hPa | 0V | 00:00:00 | 00:00:00 | 00:00:00 | |
| OE3JTB-15 | 2026-09-04 11:47:35 | 48.23580 | 16.45559 | 121° | 73km/h | 3718m | 6.6m/s | 0°C | 0% | 0hPa | 0V | 00:00:00 | 00:00:00 | 00:00:00 | |
| PETON7-10 | 2026-09-04 11:47:25 | 48.23650 | 16.45351 | 125° | 75km/h | 3678m | 3.0m/s | 0°C | 0% | 0hPa | 0V | 00:00:00 | 00:00:00 | 00:00:00 | |
| PETON7-10 | 2026-09-04 11:47:11 | 48.23760 | 16.44963 | 107° | 66km/h | 3597m | 5.0m/s | 0°C | 0% | 0hPa | 0V | 00:00:00 | 00:00:00 | 00:00:00 | |
| OE3JTB-15 | 2026-09-04 11:47:06 | 48.23798 | 16.44812 | 106° | 68km/h | 3558m | 4.2m/s | 0°C | 0% | 0hPa | 0V | 00:00:00 | 00:00:00 | 00:00:00 | |
| OE3OSB-13 | 2026-09-04 11:47:05 | 48.23798 | 16.44812 | 105° | 78km/h | 3558m | 4.3m/s | 4.9°C | 44.5% | 671.1hPa | 0V | 00:00:00 | 00:00:00 | 00:00:00 | |
| PETON7-10 | 2026-09-04 11:46:54 | 48.23846 | 16.44580 | 99° | 69km/h | 3510m | 5.5m/s | 0°C | 0% | 0hPa | 0V | 00:00:00 | 00:00:00 | 00:00:00 | |
| PETON7-10 | 2026-09-04 11:46:39 | 48.23947 | 16.44222 | 115° | 66km/h | 3414m | 4.9m/s | 0°C | 0% | 0hPa | 0V | 00:00:00 | 00:00:00 | 00:00:00 | |
| OE3JTB-15 | 2026-09-04 11:46:37 | 48.23966 | 16.44157 | 111° | 71km/h | 3399m | 4.6m/s | 0°C | 0% | 0hPa | 0V | 00:00:00 | 00:00:00 | 00:00:00 | |
| OE3OSB-13 | 2026-09-04 11:46:33 | 48.23987 | 16.44080 | 120° | 77km/h | 3385m | 2.5m/s | 5.8°C | 56.4% | 685.9hPa | 0V | 00:00:00 | 00:00:00 | 00:00:00 | |
| PETON7-10 | 2026-09-04 11:46:24 | 48.24054 | 16.43875 | 120° | 73km/h | 3331m | 5.1m/s | 0°C | 0% | 0hPa | 0V | 00:00:00 | 00:00:00 | 00:00:00 | |
| PETON7-10 | 2026-09-04 11:46:09 | 48.24175 | 16.43503 | 117° | 66km/h | 3238m | 6.2m/s | 0°C | 0% | 0hPa | 0V | 00:00:00 | 00:00:00 | 00:00:00 | |
| OE3JTB-15 | 2026-09-04 11:46:08 | 48.24190 | 16.43463 | 119° | 64km/h | 3226m | 5.3m/s | 0°C | 0% | 0hPa | 0V | 00:00:00 | 00:00:00 | 00:00:00 | |
| OE3OSB-13 | 2026-09-04 11:46:02 | 48.24222 | 16.43370 | 124° | 62km/h | 3197m | 6.8m/s | 7.1°C | 56.6% | 701.7hPa | 0V | 00:00:00 | 00:00:00 | 00:00:00 | |
| PETON7-10 | 2026-09-04 11:45:54 | 48.24289 | 16.43163 | 120° | 60km/h | 3159m | 4.1m/s | 0°C | 0% | 0hPa | 0V | 00:00:00 | 00:00:00 | 00:00:00 | |
| PETON7-10 | 2026-09-04 11:45:39 | 48.24374 | 16.42852 | 124° | 64km/h | 3064m | 3.5m/s | 0°C | 0% | 0hPa | 0V | 00:00:00 | 00:00:00 | 00:00:00 | |
| OE3JTB-15 | 2026-09-04 11:45:38 | 48.24382 | 16.42833 | 120° | 64km/h | 3060m | 4.1m/s | 0°C | 0% | 0hPa | 0V | 00:00:00 | 00:00:00 | 00:00:00 | |
| OE3OSB-13 | 2026-09-04 11:45:31 | 48.24442 | 16.42641 | 117° | 66km/h | 3018m | 4.5m/s | 8.6°C | 14.8% | 717.3hPa | 0V | 00:00:00 | 00:00:00 | 00:00:00 | |
| PETON7-10 | 2026-09-04 11:45:23 | 48.24475 | 16.42492 | 121° | 64km/h | 2980m | 3.7m/s | 0°C | 0% | 0hPa | 0V | 00:00:00 | 00:00:00 | 00:00:00 | |
| OE3JTB-15 | 2026-09-04 11:45:09 | 48.24541 | 16.42175 | 107° | 53km/h | 2903m | 4.9m/s | 0°C | 0% | 0hPa | 0V | 00:00:00 | 00:00:00 | 00:00:00 | |
| PETON7-10 | 2026-09-04 11:45:08 | 48.24545 | 16.42158 | 106° | 53km/h | 2897m | 4.8m/s | 0°C | 0% | 0hPa | 0V | 00:00:00 | 00:00:00 | 00:00:00 | |
| OE3OSB-13 | 2026-09-04 11:45:00 | 48.24567 | 16.41993 | 117° | 42km/h | 2855m | 5.4m/s | 9.3°C | 24.7% | 731.8hPa | 0V | 00:00:00 | 00:00:00 | 00:00:00 | |
| PETON7-10 | 2026-09-04 11:44:53 | 48.24594 | 16.41864 | 100° | 53km/h | 2819m | 4.5m/s | 0°C | 0% | 0hPa | 0V | 00:00:00 | 00:00:00 | 00:00:00 | |
| PETON7-10 | 2026-09-04 11:44:37 | 48.24665 | 16.41570 | 121° | 55km/h | 2736m | 7.8m/s | 0°C | 0% | 0hPa | 0V | 00:00:00 | 00:00:00 | 00:00:00 | |
| OE3OSB-13 | 2026-09-04 11:44:30 | 48.24728 | 16.41428 | 128° | 60km/h | 2687m | 4.7m/s | 9.7°C | 46.8% | 746.9hPa | 0V | 00:00:00 | 00:00:00 | 00:00:00 | |
| PETON7-10 | 2026-09-04 11:44:22 | 48.24762 | 16.41300 | 103° | 51km/h | 2655m | 4.6m/s | 0°C | 0% | 0hPa | 0V | 00:00:00 | 00:00:00 | 00:00:00 | |
| OE3JTB-15 | 2026-09-04 11:44:10 | 48.24827 | 16.41078 | 133° | 53km/h | 2583m | 4.5m/s | 0°C | 0% | 0hPa | 0V | 00:00:00 | 00:00:00 | 00:00:00 | |
| PETON7-10 | 2026-09-04 11:44:07 | 48.24843 | 16.41049 | 130° | 53km/h | 2573m | 4.5m/s | 0°C | 0% | 0hPa | 0V | 00:00:00 | 00:00:00 | 00:00:00 | |
| OE3OSB-13 | 2026-09-04 11:43:58 | 48.24931 | 16.40879 | 129° | 47km/h | 2520m | 6.0m/s | 11.0°C | 46.3% | 762.0hPa | 0V | 00:00:00 | 00:00:00 | 00:00:00 | |
| PETON7-10 | 2026-09-04 11:43:52 | 48.24961 | 16.40802 | 104° | 58km/h | 2491m | 3.0m/s | 0°C | 0% | 0hPa | 0V | 00:00:00 | 00:00:00 | 00:00:00 | |
| OE3JTB-15 | 2026-09-04 11:43:41 | 48.25024 | 16.40595 | 124° | 58km/h | 2439m | 4.4m/s | 0°C | 0% | 0hPa | 0V | 00:00:00 | 00:00:00 | 00:00:00 | |
| PETON7-10 | 2026-09-04 11:43:37 | 48.25060 | 16.40521 | 126° | 57km/h | 2423m | 3.3m/s | 0°C | 0% | 0hPa | 0V | 00:00:00 | 00:00:00 | 00:00:00 | |
| OE3OSB-13 | 2026-09-04 11:43:29 | 48.25124 | 16.40307 | 106° | 51km/h | 2377m | 3.6m/s | 12.1°C | 45.5% | 775.3hPa | 0V | 00:00:00 | 00:00:00 | 00:00:00 | |
| PETON7-10 | 2026-09-04 11:43:22 | 48.25135 | 16.40221 | 101° | 58km/h | 2359m | 3.3m/s | 0°C | 0% | 0hPa | 0V | 00:00:00 | 00:00:00 | 00:00:00 | |
| OE3JTB-15 | 2026-09-04 11:43:12 | 48.25207 | 16.40034 | 128° | 57km/h | 2319m | 0.7m/s | 0°C | 0% | 0hPa | 0V | 00:00:00 | 00:00:00 | 00:00:00 | |
| PETON7-10 | 2026-09-04 11:43:07 | 48.25249 | 16.39939 | 116° | 58km/h | 2305m | 2.8m/s | 0°C | 0% | 0hPa | 0V | 00:00:00 | 00:00:00 | 00:00:00 | |
| OE3OSB-13 | 2026-09-04 11:42:56 | 48.25298 | 16.39679 | 125° | 46km/h | 2269m | 3.1m/s | 12.9°C | 44.7% | 785.4hPa | 0V | 00:00:00 | 00:00:00 | 00:00:00 | |
| PETON7-10 | 2026-09-04 11:42:52 | 48.25314 | 16.39636 | 106° | 49km/h | 2261m | 2.1m/s | 0°C | 0% | 0hPa | 0V | 00:00:00 | 00:00:00 | 00:00:00 | |
| OE3JTB-15 | 2026-09-04 11:42:43 | 48.25357 | 16.39442 | 114° | 38km/h | 2227m | 5.7m/s | 0°C | 0% | 0hPa | 0V | 00:00:00 | 00:00:00 | 00:00:00 | |
| PETON7-10 | 2026-09-04 11:42:37 | 48.25359 | 16.39364 | 88° | 42km/h | 2198m | 3.3m/s | 0°C | 0% | 0hPa | 0V | 00:00:00 | 00:00:00 | 00:00:00 | |
| OE3OSB-13 | 2026-09-04 11:42:25 | 48.25390 | 16.39157 | 115° | 18km/h | 2126m | 6.3m/s | 10.4°C | 76.2% | 799.1hPa | 0V | 00:00:00 | 00:00:00 | 00:00:00 | |
| PETON7-10 | 2026-09-04 11:42:22 | 48.25397 | 16.39138 | 125° | 29km/h | 2116m | 3.8m/s | 0°C | 0% | 0hPa | 0V | 00:00:00 | 00:00:00 | 00:00:00 | |
| OE3JTB-15 | 2026-09-04 11:42:13 | 48.25428 | 16.39038 | 109° | 27km/h | 2064m | 5.2m/s | 0°C | 0% | 0hPa | 0V | 00:00:00 | 00:00:00 | 00:00:00 | |
| PETON7-10 | 2026-09-04 11:42:07 | 48.25452 | 16.38984 | 122° | 24km/h | 2031m | 3.6m/s | 0°C | 0% | 0hPa | 0V | 00:00:00 | 00:00:00 | 00:00:00 | |
| OE3OSB-13 | 2026-09-04 11:41:54 | 48.25487 | 16.38885 | 122° | 27km/h | 1951m | 5.2m/s | 11.7°C | 74.7% | 815.8hPa | 0V | 00:00:00 | 00:00:00 | 00:00:00 | |
| PETON7-10 | 2026-09-04 11:41:52 | 48.25490 | 16.38875 | 113° | 31km/h | 1945m | 5.0m/s | 0°C | 0% | 0hPa | 0V | 00:00:00 | 00:00:00 | 00:00:00 | |
| OE3JTB-15 | 2026-09-04 11:41:44 | 48.25495 | 16.38775 | 118° | 27km/h | 1901m | 6.5m/s | 0°C | 0% | 0hPa | 0V | 00:00:00 | 00:00:00 | 00:00:00 | |
| PETON7-10 | 2026-09-04 11:41:37 | 48.25513 | 16.38704 | 123° | 26km/h | 1859m | 4.0m/s | 0°C | 0% | 0hPa | 0V | 00:00:00 | 00:00:00 | 00:00:00 | |
| OE3OSB-13 | 2026-09-04 11:41:23 | 48.25524 | 16.38562 | 133° | 35km/h | 1785m | 4.5m/s | 13.2°C | 70.2% | 832.1hPa | 0V | 00:00:00 | 00:00:00 | 00:00:00 | |
| PETON7-10 | 2026-09-04 11:41:22 | 48.25524 | 16.38562 | 134° | 27km/h | 1785m | 4.4m/s | 0°C | 0% | 0hPa | 0V | 00:00:00 | 00:00:00 | 00:00:00 | |
| OE3JTB-15 | 2026-09-04 11:41:16 | 48.25533 | 16.38497 | 87° | 27km/h | 1752m | 2.8m/s | 0°C | 0% | 0hPa | 0V | 00:00:00 | 00:00:00 | 00:00:00 | |
| PETON7-10 | 2026-09-04 11:41:07 | 48.25543 | 16.38416 | 84° | 29km/h | 1716m | 4.0m/s | 0°C | 0% | 0hPa | 0V | 00:00:00 | 00:00:00 | 00:00:00 | |
| OE3OSB-13 | 2026-09-04 11:40:52 | 48.25570 | 16.38247 | 123° | 20km/h | 1623m | 8.5m/s | 14.8°C | 64.3% | 848.4hPa | 0V | 00:00:00 | 00:00:00 | 00:00:00 | |
| OE3JTB-15 | 2026-09-04 11:40:46 | 48.25575 | 16.38213 | 76° | 35km/h | 1585m | 3.3m/s | 0°C | 0% | 0hPa | 0V | 00:00:00 | 00:00:00 | 00:00:00 | |
| PETON7-10 | 2026-09-04 11:40:37 | 48.25589 | 16.38108 | 78° | 33km/h | 1528m | 4.3m/s | 0°C | 0% | 0hPa | 0V | 00:00:00 | 00:00:00 | 00:00:00 | |
| PETON7-10 | 2026-09-04 11:40:22 | 48.25605 | 16.37927 | 74° | 35km/h | 1439m | 5.8m/s | 0°C | 0% | 0hPa | 0V | 00:00:00 | 00:00:00 | 00:00:00 | |
| OE3OSB-13 | 2026-09-04 11:40:21 | 48.25604 | 16.37898 | 97° | 42km/h | 1430m | 2.6m/s | 16.7°C | 60.1% | 868.2hPa | 0V | 00:00:00 | 00:00:00 | 00:00:00 | |
| OE3JTB-15 | 2026-09-04 11:40:17 | 48.25615 | 16.37852 | 112° | 24km/h | 1417m | 5.3m/s | 0°C | 0% | 0hPa | 0V | 00:00:00 | 00:00:00 | 00:00:00 | |
| PETON7-10 | 2026-09-04 11:40:07 | 48.25624 | 16.37744 | 116° | 22km/h | 1369m | 5.0m/s | 0°C | 0% | 0hPa | 0V | 00:00:00 | 00:00:00 | 00:00:00 | |
| OE3OSB-13 | 2026-09-04 11:39:50 | 48.25631 | 16.37618 | 95° | 29km/h | 1274m | 4.2m/s | 18.0°C | 55.5% | 884.2hPa | 0V | 00:00:00 | 00:00:00 | 00:00:00 | |
| OE3JTB-15 | 2026-09-04 11:39:48 | 48.25630 | 16.37606 | 78° | 26km/h | 1270m | 3.6m/s | 0°C | 0% | 0hPa | 0V | 00:00:00 | 00:00:00 | 00:00:00 | |
| PETON7-10 | 2026-09-04 11:39:36 | 48.25586 | 16.37491 | 109° | 22km/h | 1213m | 4.9m/s | 0°C | 0% | 0hPa | 0V | 00:00:00 | 00:00:00 | 00:00:00 | |
| PETON7-10 | 2026-09-04 11:39:21 | 48.25553 | 16.37372 | 87° | 22km/h | 1119m | 4.5m/s | 0°C | 0% | 0hPa | 0V | 00:00:00 | 00:00:00 | 00:00:00 | |
| OE3JTB-15 | 2026-09-04 11:39:20 | 48.25554 | 16.37358 | 66° | 27km/h | 1106m | 4.9m/s | 0°C | 0% | 0hPa | 0V | 00:00:00 | 00:00:00 | 00:00:00 | |
| OE3OSB-13 | 2026-09-04 11:39:19 | 48.25552 | 16.37354 | 41° | 18km/h | 1100m | 4.0m/s | 19.7°C | 52.0% | 902.2hPa | 0V | 00:00:00 | 00:00:00 | 00:00:00 | |
| PETON7-10 | 2026-09-04 11:39:06 | 48.25533 | 16.37252 | 98° | 33km/h | 1043m | 3.0m/s | 0°C | 0% | 0hPa | 0V | 00:00:00 | 00:00:00 | 00:00:00 | |
| PETON7-10 | 2026-09-04 11:38:51 | 48.25468 | 16.37107 | 81° | 26km/h | 965m | 2.8m/s | 0°C | 0% | 0hPa | 0V | 00:00:00 | 00:00:00 | 00:00:00 | |
| OE3JTB-15 | 2026-09-04 11:38:50 | 48.25467 | 16.37099 | 77° | 29km/h | 961m | 3.3m/s | 0°C | 0% | 0hPa | 0V | 00:00:00 | 00:00:00 | 00:00:00 | |
| OE3OSB-13 | 2026-09-04 11:38:48 | 48.25458 | 16.37083 | 38° | 29km/h | 948m | 2.2m/s | 21.1°C | 48.3% | 918.1hPa | 0V | 00:00:00 | 00:00:00 | 00:00:00 | |
| PETON7-10 | 2026-09-04 11:38:35 | 48.25407 | 16.36989 | 73° | 35km/h | 896m | 2.3m/s | 0°C | 0% | 0hPa | 0V | 00:00:00 | 00:00:00 | 00:00:00 | |
| OE3JTB-15 | 2026-09-04 11:38:21 | 48.25338 | 16.36864 | 97° | 31km/h | 838m | 3.7m/s | 0°C | 0% | 0hPa | 0V | 00:00:00 | 00:00:00 | 00:00:00 | |
| OE3OSB-13 | 2026-09-04 11:38:17 | 48.25321 | 16.36832 | 37° | 27km/h | 813m | 5.2m/s | 22.3°C | 45.8% | 932.5hPa | 0V | 00:00:00 | 00:00:00 | 00:00:00 | |
| OE3JTB-15 | 2026-09-04 11:37:52 | 48.25236 | 16.36583 | 43° | 33km/h | 710m | 4.3m/s | 0°C | 0% | 0hPa | 0V | 00:00:00 | 00:00:00 | 00:00:00 | |
| OE3OSB-13 | 2026-09-04 11:37:46 | 48.25220 | 16.36521 | 35° | 18km/h | 672m | 2.2m/s | 23.7°C | 43.0% | 947.7hPa | 0V | 00:00:00 | 00:00:00 | 00:00:00 | |
| OE3JTB-15 | 2026-09-04 11:37:23 | 48.25121 | 16.36289 | 62° | 33km/h | 564m | 2.5m/s | 0°C | 0% | 0hPa | 0V | 00:00:00 | 00:00:00 | 00:00:00 | |
| OE3JTB-15 | 2026-09-04 11:36:54 | 48.24983 | 16.36033 | 66° | 29km/h | 425m | 7.4m/s | 0°C | 0% | 0hPa | 0V | 00:00:00 | 00:00:00 | 00:00:00 |